
Distance (Route):
Temperature : 15.3°C
Humidity : 54.0%
Pressure : 0hPa| Receiver | Frames | First received | Last received |
|---|---|---|---|
| PETON7-10 | 356 | 2026-09-02 11:22:29 | 2026-09-02 13:08:13 |
| DO3MHA-11 | 227 | 2026-09-02 11:55:26 | 2026-09-02 12:53:45 |
| OE5DRO-10 | 188 | 2026-09-02 11:39:24 | 2026-09-02 12:59:40 |
| PG1ADW-2 | 173 | 2026-09-02 11:39:54 | 2026-09-02 12:59:13 |
| OE5MMP-10 | 164 | 2026-09-02 12:07:08 | 2026-09-02 12:47:09 |
| OE3OSB-13 | 149 | 2026-09-02 11:27:39 | 2026-09-02 13:09:09 |
| OE5DXL-15 | 134 | 2026-09-02 11:42:20 | 2026-09-02 12:57:50 |
| OE3JTB-15 | 82 | 2026-09-02 11:20:45 | 2026-09-02 13:10:29 |
| S52SK | 64 | 2026-09-02 11:42:33 | 2026-09-02 12:36:24 |
| SP3WXH-11 | 60 | 2026-09-02 12:13:26 | 2026-09-02 12:54:49 |
| HA6NAB-11 | 52 | 2026-09-02 11:47:31 | 2026-09-02 12:58:44 |
| OM5KV | 34 | 2026-09-02 11:29:36 | 2026-09-02 11:33:39 |
| OK1SLM-15 | 31 | 2026-09-02 12:22:28 | 2026-09-02 12:46:07 |
| NBG1-10 | 19 | 2026-09-02 12:09:37 | 2026-09-02 12:48:57 |
| DB0DAN | 16 | 2026-09-02 12:18:55 | 2026-09-02 12:44:55 |
| SP3BTT-10 | 9 | 2026-09-02 12:29:28 | 2026-09-02 12:47:37 |
| GYPAP8-17 | 8 | 2026-09-02 12:31:19 | 2026-09-02 12:53:21 |
| Receiver | Date | Latitude | Longitude | Direction | Speed | Altitude | Climb | Temperature | Humidity | Pressure | Voltage | Killtimer | Uptime | BKT | XDATA |
|---|---|---|---|---|---|---|---|---|---|---|---|---|---|---|---|
| OE3JTB-15 | 2026-09-02 13:10:29 | 49.38575 | 18.00146 | 85° | 15km/h | 1205m | -13.3m/s | 15.3°C | 54.0% | 0hPa | 2.7V | 08:01:00 | 00:00:00 | 00:00:00 | |
| OE3JTB-15 | 2026-09-02 13:10:25 | 49.38575 | 18.00125 | 87° | 13km/h | 1259m | -13.2m/s | 14.7°C | 55.5% | 0hPa | 2.7V | 00:00:00 | 00:00:00 | 00:00:00 | |
| OE3JTB-15 | 2026-09-02 13:10:18 | 49.38575 | 18.00085 | 87° | 15km/h | 1346m | -12.3m/s | 13.9°C | 58.1% | 0hPa | 2.7V | 00:00:00 | 02:24:24 | 00:00:00 | |
| OE3JTB-15 | 2026-09-02 13:10:15 | 49.38575 | 18.00069 | 86° | 15km/h | 1384m | -13.4m/s | 13.5°C | 59.0% | 0hPa | 2.7V | 00:00:00 | 00:00:00 | 00:00:00 | |
| OE3JTB-15 | 2026-09-02 13:10:09 | 49.38574 | 18.00035 | 89° | 15km/h | 1465m | -12.4m/s | 12.7°C | 62.5% | 0hPa | 2.6V | 00:00:00 | 00:00:00 | 00:00:00 | |
| OE3JTB-15 | 2026-09-02 13:10:07 | 49.38574 | 18.00030 | 90° | 15km/h | 1477m | -11.8m/s | 12.6°C | 63.2% | 0hPa | 2.6V | 00:00:00 | 02:24:14 | 00:00:00 | |
| OE3JTB-15 | 2026-09-02 13:10:04 | 49.38571 | 18.00005 | 75° | 18km/h | 1531m | -13.9m/s | 12.1°C | 64.4% | 0hPa | 2.6V | 00:00:00 | 00:00:00 | 00:00:00 | |
| OE3JTB-15 | 2026-09-02 13:09:59 | 49.38566 | 17.99981 | 65° | 16km/h | 1583m | -12.1m/s | 11.6°C | 65.8% | 0hPa | 2.7V | 00:00:00 | 00:00:00 | 00:00:00 | |
| OE3JTB-15 | 2026-09-02 13:09:55 | 49.38558 | 17.99949 | 69° | 16km/h | 1647m | -12.9m/s | 10.9°C | 68.7% | 0hPa | 2.7V | 00:00:00 | 02:24:01 | 00:00:00 | |
| OE3JTB-15 | 2026-09-02 13:09:53 | 49.38556 | 17.99943 | 73° | 20km/h | 1659m | -13.2m/s | 10.8°C | 68.8% | 0hPa | 2.7V | 08:01:00 | 00:00:00 | 00:00:00 | |
| OE3JTB-15 | 2026-09-02 13:09:51 | 49.38553 | 17.99929 | 72° | 18km/h | 1685m | -12.0m/s | 10.6°C | 69.5% | 0hPa | 2.7V | 00:00:00 | 00:00:00 | 00:00:00 | |
| OE3JTB-15 | 2026-09-02 13:09:48 | 49.38548 | 17.99908 | 67° | 16km/h | 1722m | -12.8m/s | 10.2°C | 70.9% | 0hPa | 2.7V | 00:00:00 | 02:23:55 | 00:00:00 | |
| OE3JTB-15 | 2026-09-02 13:09:46 | 49.38545 | 17.99896 | 66° | 16km/h | 1747m | -12.5m/s | 10.0°C | 72.1% | 0hPa | 2.7V | 00:00:00 | 00:00:00 | 00:00:00 | |
| OE3JTB-15 | 2026-09-02 13:09:44 | 49.38542 | 17.99884 | 73° | 16km/h | 1771m | -12.3m/s | 9.7°C | 73.1% | 0hPa | 2.7V | 00:00:00 | 00:00:00 | 00:00:00 | |
| OE3JTB-15 | 2026-09-02 13:09:40 | 49.38536 | 17.99859 | 68° | 16km/h | 1822m | -12.9m/s | 9.3°C | 73.8% | 0hPa | 2.7V | 00:00:00 | 02:23:47 | 00:00:00 | |
| OE3JTB-15 | 2026-09-02 13:09:38 | 49.38533 | 17.99847 | 79° | 18km/h | 1849m | -14.0m/s | 9.1°C | 75.1% | 0hPa | 2.7V | 00:00:00 | 00:00:00 | 00:00:00 | |
| OE3JTB-15 | 2026-09-02 13:09:36 | 49.38532 | 17.99832 | 83° | 16km/h | 1876m | -14.0m/s | 8.9°C | 74.5% | 0hPa | 2.6V | 00:00:00 | 00:00:00 | 00:00:00 | |
| OE3JTB-15 | 2026-09-02 13:09:33 | 49.38530 | 17.99814 | 88° | 16km/h | 1917m | -14.0m/s | 8.7°C | 71.8% | 0hPa | 2.6V | 00:00:00 | 02:23:40 | 00:00:00 | |
| OE3JTB-15 | 2026-09-02 13:09:31 | 49.38530 | 17.99801 | 88° | 16km/h | 1945m | -13.5m/s | 8.3°C | 75.2% | 0hPa | 2.6V | 08:02:00 | 00:00:00 | 00:00:00 | |
| OE3JTB-15 | 2026-09-02 13:09:27 | 49.38530 | 17.99771 | 86° | 15km/h | 2010m | -13.0m/s | 7.8°C | 75.6% | 0hPa | 2.7V | 00:00:00 | 00:00:00 | 00:00:00 | |
| OE3JTB-15 | 2026-09-02 13:09:19 | 49.38529 | 17.99728 | 88° | 16km/h | 2097m | -12.0m/s | 7.1°C | 77.7% | 0hPa | 2.7V | 00:00:00 | 02:23:26 | 00:00:00 | |
| OE3JTB-15 | 2026-09-02 13:09:10 | 49.38528 | 17.99668 | 89° | 18km/h | 2207m | -12.5m/s | 6.1°C | 81.5% | 0hPa | 2.7V | 00:00:00 | 00:00:00 | 00:00:00 | |
| OE3OSB-13 | 2026-09-02 13:09:09 | 49.38528 | 17.99577 | 92° | 16km/h | 2362m | -10.8m/s | 4.7°C | 87.0% | -1.0hPa | 2.7V | 00:00:00 | 00:00:00 | 00:00:00 | |
| OE3JTB-15 | 2026-09-02 13:09:01 | 49.38527 | 17.99604 | 89° | 18km/h | 2317m | -11.8m/s | 5.1°C | 85.7% | 0hPa | 2.7V | 00:00:00 | 00:00:00 | 00:00:00 | |
| OE3JTB-15 | 2026-09-02 13:08:52 | 49.38526 | 17.99540 | 90° | 20km/h | 2419m | -10.6m/s | 4.1°C | 88.7% | 0hPa | 2.7V | 00:00:00 | 02:22:59 | 00:00:00 | |
| OE3JTB-15 | 2026-09-02 13:08:42 | 49.38527 | 17.99446 | 92° | 24km/h | 2540m | -11.4m/s | 3.0°C | 96.5% | 0hPa | 2.7V | 00:00:00 | 00:00:00 | 00:00:00 | |
| OE3OSB-13 | 2026-09-02 13:08:37 | 49.38528 | 17.99426 | 99° | 24km/h | 2563m | -12.5m/s | 2.9°C | 93.4% | -1.0hPa | 2.6V | 00:00:00 | 00:00:00 | 00:00:00 | |
| OE3JTB-15 | 2026-09-02 13:08:28 | 49.38540 | 17.99319 | 98° | 27km/h | 2700m | -11.9m/s | 1.8°C | 93.0% | 0hPa | 2.6V | 00:00:00 | 00:00:00 | 00:00:00 | |
| PETON7-10 | 2026-09-02 13:08:13 | 49.38557 | 17.99183 | 101° | 29km/h | 2859m | -12.1m/s | 0.6°C | 91.6% | 0hPa | 2.6V | 00:00:00 | 00:00:00 | 00:00:00 | |
| OE3JTB-15 | 2026-09-02 13:08:09 | 49.38562 | 17.99140 | 100° | 29km/h | 2909m | -12.3m/s | 0.2°C | 92.5% | 0hPa | 2.6V | 00:00:00 | 02:22:18 | 00:00:00 | |
| OE3OSB-13 | 2026-09-02 13:08:06 | 49.38566 | 17.99107 | 100° | 26km/h | 2946m | -13.0m/s | -0.1°C | 93.3% | -1.0hPa | 2.6V | 00:00:00 | 00:00:00 | 00:00:00 | |
| PETON7-10 | 2026-09-02 13:07:50 | 49.38588 | 17.98927 | 104° | 27km/h | 3146m | -11.8m/s | -1.6°C | 92.1% | 0hPa | 2.6V | 00:00:00 | 02:21:59 | 00:00:00 | |
| PETON7-10 | 2026-09-02 13:07:35 | 49.38609 | 17.98773 | 111° | 29km/h | 3328m | -12.7m/s | -2.5°C | 74.2% | 0hPa | 2.6V | 00:00:00 | 00:00:00 | 00:00:00 | |
| OE3JTB-15 | 2026-09-02 13:07:31 | 49.38619 | 17.98737 | 116° | 33km/h | 3378m | -12.4m/s | -2.7°C | 67.0% | 0hPa | 2.6V | 00:00:00 | 00:00:00 | 00:00:00 | |
| PETON7-10 | 2026-09-02 13:07:19 | 49.38668 | 17.98621 | 127° | 38km/h | 3530m | -13.4m/s | -2.3°C | 48.6% | 0hPa | 2.6V | 00:00:00 | 00:00:00 | 00:00:00 | |
| OE3JTB-15 | 2026-09-02 13:07:12 | 49.38712 | 17.98545 | 132° | 40km/h | 3622m | -14.0m/s | -2.0°C | 40.2% | 0hPa | 2.6V | 00:00:00 | 02:21:21 | 00:00:00 | |
| PETON7-10 | 2026-09-02 13:07:04 | 49.38769 | 17.98461 | 136° | 40km/h | 3732m | -13.6m/s | -2.6°C | 48.9% | 0hPa | 2.6V | 00:00:00 | 02:21:13 | 00:00:00 | |
| PETON7-10 | 2026-09-02 13:06:49 | 49.38881 | 17.98302 | 137° | 42km/h | 3937m | -13.5m/s | -3.9°C | 50.9% | 0hPa | 2.6V | 00:00:00 | 00:00:00 | 00:00:00 | |
| OE3JTB-15 | 2026-09-02 13:06:43 | 49.38940 | 17.98208 | 133° | 44km/h | 4043m | -13.1m/s | -4.1°C | 25.0% | 0hPa | 2.6V | 00:00:00 | 00:00:00 | 00:00:00 | |
| PETON7-10 | 2026-09-02 13:06:34 | 49.38988 | 17.98125 | 135° | 44km/h | 4136m | -12.5m/s | -4.8°C | 36.0% | 0hPa | 2.6V | 00:00:00 | 00:00:00 | 00:00:00 | |
| OE3OSB-13 | 2026-09-02 13:06:33 | 49.38995 | 17.98113 | 127° | 42km/h | 4149m | -13.6m/s | -4.9°C | 32.4% | -1.0hPa | 2.6V | 00:00:00 | 00:00:00 | 00:00:00 | |
| PETON7-10 | 2026-09-02 13:06:19 | 49.39088 | 17.97914 | 122° | 47km/h | 4332m | -13.6m/s | -6.2°C | 59.4% | 0hPa | 2.6V | 00:00:00 | 02:20:28 | 00:00:00 | |
| PETON7-10 | 2026-09-02 13:06:04 | 49.39179 | 17.97673 | 123° | 47km/h | 4527m | -12.1m/s | -7.5°C | 43.2% | 0hPa | 2.6V | 08:05:00 | 00:00:00 | 00:00:00 | |
| OE3OSB-13 | 2026-09-02 13:06:02 | 49.39191 | 17.97641 | 120° | 46km/h | 4552m | -12.6m/s | -7.7°C | 41.9% | -1.0hPa | 2.6V | 00:00:00 | 00:00:00 | 00:00:00 | |
| OE3JTB-15 | 2026-09-02 13:05:57 | 49.39237 | 17.97510 | 120° | 51km/h | 4656m | -12.9m/s | -8.4°C | 29.8% | 0hPa | 2.6V | 00:00:00 | 00:00:00 | 00:00:00 | |
| PETON7-10 | 2026-09-02 13:05:49 | 49.39267 | 17.97426 | 117° | 51km/h | 4720m | -13.0m/s | -8.9°C | 43.2% | 0hPa | 2.6V | 00:00:00 | 00:00:00 | 00:00:00 | |
| PETON7-10 | 2026-09-02 13:05:34 | 49.39357 | 17.97162 | 118° | 53km/h | 4909m | -12.3m/s | -10.7°C | 67.4% | 0hPa | 2.6V | 00:00:00 | 02:19:43 | 00:00:00 | |
| OE3OSB-13 | 2026-09-02 13:05:31 | 49.39375 | 17.97108 | 115° | 51km/h | 4947m | -12.7m/s | -11.0°C | 65.9% | -1.0hPa | 2.6V | 00:00:00 | 00:00:00 | 00:00:00 | |
| OE3JTB-15 | 2026-09-02 13:05:27 | 49.39414 | 17.96978 | 113° | 53km/h | 5032m | -12.9m/s | -11.6°C | 69.0% | 0hPa | 2.6V | 00:00:00 | 02:19:33 | 00:00:00 | |
| PETON7-10 | 2026-09-02 13:05:19 | 49.39442 | 17.96878 | 112° | 57km/h | 5093m | -12.2m/s | -12.1°C | 69.9% | 0hPa | 2.6V | 00:00:00 | 00:00:00 | 00:00:00 | |
| PETON7-10 | 2026-09-02 13:05:04 | 49.39512 | 17.96562 | 110° | 53km/h | 5277m | -13.0m/s | -13.1°C | 64.8% | 0hPa | 2.6V | 00:00:00 | 00:00:00 | 00:00:00 | |
| OE3OSB-13 | 2026-09-02 13:05:00 | 49.39528 | 17.96481 | 105° | 51km/h | 5329m | -12.0m/s | -13.3°C | 58.1% | -1.0hPa | 2.6V | 00:00:00 | 00:00:00 | 00:00:00 | |
| PETON7-10 | 2026-09-02 13:04:49 | 49.39561 | 17.96268 | 106° | 47km/h | 5469m | -12.2m/s | -14.3°C | 57.8% | 0hPa | 2.6V | 00:00:00 | 02:18:58 | 00:00:00 | |
| PETON7-10 | 2026-09-02 13:04:34 | 49.39606 | 17.96001 | 104° | 47km/h | 5665m | -13.5m/s | -15.4°C | 52.2% | 0hPa | 2.6V | 00:00:00 | 00:00:00 | 00:00:00 | |
| OE3OSB-13 | 2026-09-02 13:04:30 | 49.39618 | 17.95913 | 100° | 44km/h | 5731m | -13.2m/s | -15.7°C | 45.3% | -1.0hPa | 2.5V | 00:00:00 | 00:00:00 | 00:00:00 | |
| PETON7-10 | 2026-09-02 13:04:19 | 49.39634 | 17.95731 | 95° | 49km/h | 5865m | -12.7m/s | -16.2°C | 34.5% | 0hPa | 2.5V | 00:00:00 | 00:00:00 | 00:00:00 | |
| OE3JTB-15 | 2026-09-02 13:04:12 | 49.39648 | 17.95543 | 100° | 47km/h | 5998m | -13.1m/s | -16.8°C | 33.0% | 0hPa | 2.5V | 00:00:00 | 00:00:00 | 00:00:00 | |
| PETON7-10 | 2026-09-02 13:04:04 | 49.39658 | 17.95450 | 99° | 47km/h | 6066m | -13.4m/s | -17.3°C | 31.2% | 0hPa | 2.5V | 00:00:00 | 02:18:13 | 00:00:00 | |
| PETON7-10 | 2026-09-02 13:03:49 | 49.39688 | 17.95173 | 100° | 47km/h | 6250m | -12.0m/s | -18.9°C | 33.1% | 0hPa | 2.5V | 08:07:00 | 00:00:00 | 00:00:00 | |
| OE3JTB-15 | 2026-09-02 13:03:42 | 49.39702 | 17.94993 | 96° | 51km/h | 6373m | -12.6m/s | -20.0°C | 42.8% | 0hPa | 2.6V | 00:00:00 | 00:00:00 | 00:00:00 | |
| PETON7-10 | 2026-09-02 13:03:34 | 49.39707 | 17.94899 | 95° | 51km/h | 6436m | -11.6m/s | -20.6°C | 44.2% | 0hPa | 2.6V | 00:00:00 | 00:00:00 | 00:00:00 | |
| OE3OSB-13 | 2026-09-02 13:03:27 | 49.39712 | 17.94761 | 93° | 51km/h | 6532m | -13.8m/s | -21.1°C | 32.9% | -1.0hPa | 2.6V | 00:00:00 | 00:00:00 | 00:00:00 | |
| PETON7-10 | 2026-09-02 13:03:19 | 49.39719 | 17.94597 | 96° | 53km/h | 6636m | -12.9m/s | -22.0°C | 34.8% | 0hPa | 2.6V | 00:00:00 | 02:17:28 | 00:00:00 | |
| OE3JTB-15 | 2026-09-02 13:03:14 | 49.39731 | 17.94432 | 97° | 55km/h | 6735m | -12.4m/s | -22.9°C | 36.9% | 0hPa | 2.6V | 00:00:00 | 02:17:20 | 00:00:00 | |
| PETON7-10 | 2026-09-02 13:03:04 | 49.39743 | 17.94285 | 96° | 57km/h | 6823m | -12.4m/s | -23.4°C | 28.8% | 0hPa | 2.6V | 00:00:00 | 00:00:00 | 00:00:00 | |
| OE3OSB-13 | 2026-09-02 13:02:56 | 49.39758 | 17.94093 | 97° | 55km/h | 6948m | -14.0m/s | -23.5°C | 12.4% | -1.0hPa | 2.6V | 00:00:00 | 00:00:00 | 00:00:00 | |
| PETON7-10 | 2026-09-02 13:02:49 | 49.39770 | 17.93961 | 98° | 58km/h | 7035m | -14.6m/s | -24.1°C | 17.1% | 0hPa | 2.6V | 00:00:00 | 00:00:00 | 00:00:00 | |
| OE3JTB-15 | 2026-09-02 13:02:39 | 49.39796 | 17.93667 | 97° | 62km/h | 7217m | -13.1m/s | -25.7°C | 19.5% | 0hPa | 2.6V | 08:09:00 | 00:00:00 | 00:00:00 | |
| PETON7-10 | 2026-09-02 13:02:34 | 49.39800 | 17.93621 | 97° | 60km/h | 7244m | -13.3m/s | -25.9°C | 19.7% | 0hPa | 2.5V | 00:00:00 | 02:16:43 | 00:00:00 | |
| PETON7-10 | 2026-09-02 13:02:04 | 49.39866 | 17.92912 | 98° | 62km/h | 7654m | -13.7m/s | -29.4°C | 22.9% | 0hPa | 2.5V | 00:00:00 | 00:00:00 | 00:00:00 | |
| OE3OSB-13 | 2026-09-02 13:01:54 | 49.39883 | 17.92644 | 93° | 60km/h | 7806m | -14.3m/s | -30.0°C | 15.0% | -1.0hPa | 2.5V | 00:00:00 | 00:00:00 | 00:00:00 | |
| PETON7-10 | 2026-09-02 13:01:49 | 49.39887 | 17.92550 | 93° | 57km/h | 7864m | -14.7m/s | -30.3°C | 16.3% | 0hPa | 2.5V | 00:00:00 | 02:15:58 | 00:00:00 | |
| PETON7-10 | 2026-09-02 13:01:34 | 49.39908 | 17.92225 | 98° | 55km/h | 8079m | -14.8m/s | -31.6°C | 10.9% | 0hPa | 2.5V | 08:10:00 | 00:00:00 | 00:00:00 | |
| OE3JTB-15 | 2026-09-02 13:01:33 | 49.39917 | 17.92143 | 100° | 55km/h | 8135m | -14.7m/s | -31.9°C | 12.3% | 0hPa | 2.6V | 00:00:00 | 02:15:39 | 00:00:00 | |
| OE3OSB-13 | 2026-09-02 13:01:23 | 49.39936 | 17.91976 | 99° | 55km/h | 8248m | -14.4m/s | -33.0°C | 17.0% | -1.0hPa | 2.6V | 00:00:00 | 00:00:00 | 00:00:00 | |
| PETON7-10 | 2026-09-02 13:01:18 | 49.39945 | 17.91893 | 100° | 55km/h | 8305m | -15.5m/s | -33.5°C | 22.4% | 0hPa | 2.6V | 00:00:00 | 00:00:00 | 00:00:00 | |
| OE3OSB-13 | 2026-09-02 13:00:52 | 49.40010 | 17.91326 | 101° | 57km/h | 8692m | -14.7m/s | -36.9°C | 30.6% | -1.0hPa | 2.6V | 00:00:00 | 00:00:00 | 00:00:00 | |
| PETON7-10 | 2026-09-02 13:00:48 | 49.40019 | 17.91261 | 102° | 58km/h | 8736m | -14.6m/s | -36.8°C | 24.5% | 0hPa | 2.6V | 00:00:00 | 00:00:00 | 00:00:00 | |
| PETON7-10 | 2026-09-02 13:00:33 | 49.40062 | 17.90922 | 101° | 60km/h | 8958m | -14.8m/s | -38.5°C | 40.8% | 0hPa | 2.5V | 00:00:00 | 00:00:00 | 00:00:00 | |
| OE3OSB-13 | 2026-09-02 13:00:21 | 49.40096 | 17.90623 | 99° | 62km/h | 9148m | -15.6m/s | -40.3°C | 35.6% | -1.0hPa | 2.5V | 00:00:00 | 00:00:00 | 00:00:00 | |
| PETON7-10 | 2026-09-02 13:00:18 | 49.40101 | 17.90576 | 103° | 64km/h | 9179m | -15.3m/s | -40.5°C | 39.8% | 0hPa | 2.5V | 00:00:00 | 02:14:27 | 00:00:00 | |
| OE3OSB-13 | 2026-09-02 12:59:49 | 49.40228 | 17.89824 | 103° | 75km/h | 9603m | -14.4m/s | -44.0°C | 42.0% | -1.0hPa | 2.5V | 00:00:00 | 00:00:00 | 00:00:00 | |
| PETON7-10 | 2026-09-02 12:59:48 | 49.40232 | 17.89795 | 104° | 75km/h | 9618m | -15.8m/s | -44.1°C | 47.8% | 0hPa | 2.5V | 00:00:00 | 00:00:00 | 00:00:00 | |
| OE5DRO-10 | 2026-09-02 12:59:40 | 49.40270 | 17.89569 | 106° | 75km/h | 9737m | -15.3m/s | -45.2°C | 47.4% | 0hPa | 2.5V | 08:12:00 | 00:00:00 | 00:00:00 | |
| PETON7-10 | 2026-09-02 12:59:33 | 49.40306 | 17.89372 | 107° | 75km/h | 9844m | -15.3m/s | -46.1°C | 49.4% | 0hPa | 2.5V | 00:00:00 | 02:13:42 | 00:00:00 | |
| OE3JTB-15 | 2026-09-02 12:59:32 | 49.40326 | 17.89260 | 106° | 75km/h | 9904m | -15.3m/s | -46.7°C | 51.3% | 0hPa | 2.5V | 00:00:00 | 00:00:00 | 00:00:00 | |
| OE5DRO-10 | 2026-09-02 12:59:21 | 49.40367 | 17.89036 | 105° | 77km/h | 10022m | -14.9m/s | -47.8°C | 52.4% | 0hPa | 2.5V | 00:00:00 | 00:00:00 | 00:00:00 | |
| PETON7-10 | 2026-09-02 12:59:18 | 49.40381 | 17.88951 | 104° | 77km/h | 10065m | -14.2m/s | -48.2°C | 54.0% | 0hPa | 2.5V | 08:12:00 | 00:00:00 | 00:00:00 | |
| PG1ADW-2 | 2026-09-02 12:59:13 | 49.40403 | 17.88805 | 103° | 75km/h | 10137m | -14.3m/s | -48.9°C | 56.4% | 0hPa | 2.6V | 00:00:00 | 02:13:22 | 00:00:00 | |
| PETON7-10 | 2026-09-02 12:59:03 | 49.40447 | 17.88521 | 105° | 75km/h | 10282m | -13.8m/s | -50.2°C | 58.2% | 0hPa | 2.6V | 00:00:00 | 00:00:00 | 00:00:00 | |
| OE3OSB-13 | 2026-09-02 12:58:48 | 49.40529 | 17.88077 | 107° | 73km/h | 10512m | -15.0m/s | -52.3°C | 48.5% | -1.0hPa | 2.6V | 00:00:00 | 00:00:00 | 00:00:00 | |
| PG1ADW-2 | 2026-09-02 12:58:45 | 49.40540 | 17.88021 | 108° | 75km/h | 10542m | -15.7m/s | -52.6°C | 55.5% | 0hPa | 2.6V | 00:00:00 | 00:00:00 | 00:00:00 | |
| HA6NAB-11 | 2026-09-02 12:58:44 | 49.40545 | 17.87992 | 107° | 77km/h | 10558m | -15.4m/s | -52.8°C | 47.0% | 0hPa | 2.5V | 08:13:00 | 00:00:00 | 00:00:00 | |
| OE5DRO-10 | 2026-09-02 12:58:43 | 49.40551 | 17.87964 | 108° | 73km/h | 10573m | -15.8m/s | -52.9°C | 54.2% | 0hPa | 2.5V | 00:00:00 | 00:00:00 | 00:00:00 | |
| HA6NAB-11 | 2026-09-02 12:58:37 | 49.40579 | 17.87825 | 108° | 75km/h | 10651m | -14.6m/s | -53.6°C | 42.2% | 0hPa | 2.6V | 08:13:00 | 00:00:00 | 00:00:00 | |
| HA6NAB-11 | 2026-09-02 12:58:31 | 49.40614 | 17.87661 | 109° | 73km/h | 10743m | -15.1m/s | -54.4°C | 41.2% | 0hPa | 2.6V | 08:13:00 | 00:00:00 | 00:00:00 | |
| HA6NAB-11 | 2026-09-02 12:58:26 | 49.40643 | 17.87527 | 109° | 73km/h | 10820m | -15.0m/s | -55.1°C | 39.5% | 0hPa | 2.6V | 08:13:00 | 00:00:00 | 00:00:00 | |
| PG1ADW-2 | 2026-09-02 12:58:25 | 49.40655 | 17.87474 | 109° | 73km/h | 10851m | -15.6m/s | -55.3°C | 45.9% | 0hPa | 2.6V | 00:00:00 | 00:00:00 | 00:00:00 | |
| OE5DRO-10 | 2026-09-02 12:58:24 | 49.40661 | 17.87447 | 108° | 75km/h | 10867m | -16.6m/s | -55.5°C | 45.4% | 0hPa | 2.6V | 00:00:00 | 00:00:00 | 00:00:00 | |
| HA6NAB-11 | 2026-09-02 12:58:20 | 49.40678 | 17.87367 | 109° | 73km/h | 10917m | -16.1m/s | -56.0°C | 36.9% | 0hPa | 2.6V | 00:00:00 | 00:00:00 | 00:00:00 | |
| PETON7-10 | 2026-09-02 12:58:18 | 49.40695 | 17.87286 | 108° | 75km/h | 10964m | -16.2m/s | -56.3°C | 42.3% | 0hPa | 2.6V | 00:00:00 | 00:00:00 | 00:00:00 | |
| OE3OSB-13 | 2026-09-02 12:58:16 | 49.40707 | 17.87232 | 108° | 71km/h | 10995m | -15.9m/s | -56.7°C | 33.5% | -1.0hPa | 2.6V | 00:00:00 | 00:00:00 | 00:00:00 | |
| HA6NAB-11 | 2026-09-02 12:58:15 | 49.40712 | 17.87206 | 109° | 73km/h | 11012m | -16.3m/s | -56.8°C | 32.8% | 0hPa | 2.6V | 00:00:00 | 00:00:00 | 00:00:00 | |
| OE5DRO-10 | 2026-09-02 12:58:06 | 49.40762 | 17.86924 | 103° | 77km/h | 11161m | -13.2m/s | -58.1°C | 38.1% | 0hPa | 2.6V | 00:00:00 | 00:00:00 | 00:00:00 | |
| PETON7-10 | 2026-09-02 12:58:03 | 49.40769 | 17.86863 | 102° | 77km/h | 11189m | -15.1m/s | -58.3°C | 37.5% | 0hPa | 2.6V | 00:00:00 | 02:12:12 | 00:00:00 | |
| OE5DXL-15 | 2026-09-02 12:57:50 | 49.40821 | 17.86477 | 104° | 71km/h | 11386m | -15.9m/s | -59.8°C | 31.9% | 0hPa | 2.6V | 00:00:00 | 00:00:00 | 00:00:00 | |
| PETON7-10 | 2026-09-02 12:57:48 | 49.40830 | 17.86424 | 105° | 68km/h | 11418m | -15.3m/s | -59.0°C | 27.5% | 0hPa | 2.6V | 00:00:00 | 00:00:00 | 00:00:00 | |
| OE5DRO-10 | 2026-09-02 12:57:46 | 49.40838 | 17.86373 | 103° | 71km/h | 11451m | -16.7m/s | -58.9°C | 25.4% | 0hPa | 2.5V | 00:00:00 | 00:00:00 | 00:00:00 | |
| PG1ADW-2 | 2026-09-02 12:57:45 | 49.40841 | 17.86348 | 102° | 71km/h | 11467m | -16.5m/s | -58.7°C | 24.3% | 0hPa | 2.5V | 00:00:00 | 02:11:54 | 00:00:00 | |
| PETON7-10 | 2026-09-02 12:57:33 | 49.40860 | 17.86031 | 92° | 73km/h | 11658m | -16.8m/s | 0°C | 0% | 0hPa | 2.5V | 00:00:00 | 00:00:00 | 00:00:00 | |
| OE5DRO-10 | 2026-09-02 12:57:27 | 49.40864 | 17.85853 | 92° | 68km/h | 11756m | -17.0m/s | -56.3°C | 9.3% | 0hPa | 2.5V | 00:00:00 | 00:00:00 | 00:00:00 | |
| PG1ADW-2 | 2026-09-02 12:57:25 | 49.40866 | 17.85794 | 93° | 66km/h | 11789m | -15.9m/s | -55.6°C | 8.3% | 0hPa | 2.5V | 00:00:00 | 00:00:00 | 00:00:00 | |
| OE5DXL-15 | 2026-09-02 12:57:20 | 49.40871 | 17.85656 | 94° | 69km/h | 11868m | -16.1m/s | -54.8°C | 7.3% | 0hPa | 2.5V | 00:00:00 | 00:00:00 | 00:00:00 | |
| PETON7-10 | 2026-09-02 12:57:18 | 49.40872 | 17.85604 | 92° | 64km/h | 11899m | -14.5m/s | -54.1°C | 6.7% | 0hPa | 2.5V | 00:00:00 | 02:11:27 | 00:00:00 | |
| OE3OSB-13 | 2026-09-02 12:57:14 | 49.40873 | 17.85505 | 88° | 62km/h | 11965m | -17.8m/s | -54.0°C | 3.3% | -1.0hPa | 2.5V | 00:00:00 | 00:00:00 | 00:00:00 | |
| OE5DRO-10 | 2026-09-02 12:57:08 | 49.40872 | 17.85361 | 88° | 71km/h | 12064m | -17.0m/s | -52.9°C | 5.6% | 0hPa | 2.5V | 00:00:00 | 00:00:00 | 00:00:00 | |
| PG1ADW-2 | 2026-09-02 12:57:05 | 49.40869 | 17.85287 | 86° | 73km/h | 12112m | -16.4m/s | -53.0°C | 5.5% | 0hPa | 2.5V | 00:00:00 | 00:00:00 | 00:00:00 | |
| PETON7-10 | 2026-09-02 12:57:03 | 49.40866 | 17.85237 | 84° | 75km/h | 12144m | -16.2m/s | -52.9°C | 5.3% | 0hPa | 2.5V | 08:14:00 | 00:00:00 | 00:00:00 | |
| OE3JTB-15 | 2026-09-02 12:56:59 | 49.40850 | 17.85075 | 80° | 71km/h | 12242m | -15.7m/s | -52.3°C | 4.9% | 0hPa | 2.5V | 00:00:00 | 02:11:06 | 00:00:00 | |
| OE5DXL-15 | 2026-09-02 12:56:50 | 49.40829 | 17.84868 | 85° | 68km/h | 12358m | -16.3m/s | -51.7°C | 4.5% | 0hPa | 2.5V | 00:00:00 | 00:00:00 | 00:00:00 | |
| OE5DRO-10 | 2026-09-02 12:56:49 | 49.40827 | 17.84838 | 84° | 71km/h | 12374m | -14.7m/s | -51.5°C | 4.5% | 0hPa | 2.5V | 08:14:00 | 00:00:00 | 00:00:00 | |
| PETON7-10 | 2026-09-02 12:56:48 | 49.40825 | 17.84809 | 85° | 71km/h | 12390m | -17.0m/s | -51.5°C | 4.4% | 0hPa | 2.5V | 00:00:00 | 00:00:00 | 00:00:00 | |
| PG1ADW-2 | 2026-09-02 12:56:45 | 49.40820 | 17.84722 | 88° | 68km/h | 12440m | -16.3m/s | -51.5°C | 4.4% | 0hPa | 2.5V | 08:14:00 | 00:00:00 | 00:00:00 | |
| OE3OSB-13 | 2026-09-02 12:56:43 | 49.40818 | 17.84666 | 87° | 71km/h | 12473m | -16.4m/s | -51.5°C | 1.8% | -1.0hPa | 2.6V | 00:00:00 | 00:00:00 | 00:00:00 | |
| PETON7-10 | 2026-09-02 12:56:33 | 49.40820 | 17.84395 | 92° | 62km/h | 12642m | -17.2m/s | -50.8°C | 4.0% | 0hPa | 2.6V | 00:00:00 | 02:10:42 | 00:00:00 | |
| OE5DRO-10 | 2026-09-02 12:56:30 | 49.40823 | 17.84321 | 93° | 62km/h | 12692m | -17.2m/s | -50.0°C | 3.8% | 0hPa | 2.6V | 00:00:00 | 00:00:00 | 00:00:00 | |
| OE5DXL-15 | 2026-09-02 12:56:20 | 49.40824 | 17.84087 | 88° | 60km/h | 12865m | -15.6m/s | -51.0°C | 4.0% | 0hPa | 2.6V | 00:00:00 | 00:00:00 | 00:00:00 | |
| OE3OSB-13 | 2026-09-02 12:56:12 | 49.40815 | 17.83860 | 86° | 64km/h | 13020m | -17.7m/s | -51.2°C | 1.5% | -1.0hPa | 2.6V | 00:00:00 | 00:00:00 | 00:00:00 | |
| OE5DRO-10 | 2026-09-02 12:56:11 | 49.40815 | 17.83860 | 87° | 58km/h | 13020m | -17.7m/s | -51.2°C | 3.9% | 0hPa | 2.6V | 00:00:00 | 00:00:00 | 00:00:00 | |
| PG1ADW-2 | 2026-09-02 12:56:05 | 49.40812 | 17.83710 | 89° | 57km/h | 13126m | -17.7m/s | -50.9°C | 3.7% | 0hPa | 2.6V | 00:00:00 | 00:00:00 | 00:00:00 | |
| PETON7-10 | 2026-09-02 12:56:03 | 49.40812 | 17.83664 | 91° | 57km/h | 13162m | -17.2m/s | -51.0°C | 3.7% | 0hPa | 2.6V | 00:00:00 | 00:00:00 | 00:00:00 | |
| OE3JTB-15 | 2026-09-02 12:55:57 | 49.40811 | 17.83492 | 89° | 66km/h | 13300m | -17.6m/s | -51.4°C | 3.7% | 0hPa | 2.6V | 00:00:00 | 00:00:00 | 00:00:00 | |
| OE5DRO-10 | 2026-09-02 12:55:52 | 49.40811 | 17.83429 | 90° | 64km/h | 13352m | -17.3m/s | -51.8°C | 3.8% | 0hPa | 2.6V | 00:00:00 | 00:00:00 | 00:00:00 | |
| OE5DXL-15 | 2026-09-02 12:55:50 | 49.40810 | 17.83385 | 90° | 68km/h | 13387m | -17.3m/s | -51.9°C | 3.9% | 0hPa | 2.6V | 00:00:00 | 00:00:00 | 00:00:00 | |
| PETON7-10 | 2026-09-02 12:55:48 | 49.40810 | 17.83340 | 90° | 66km/h | 13423m | -18.3m/s | -51.9°C | 3.8% | 0hPa | 2.6V | 00:00:00 | 02:09:57 | 00:00:00 | |
| PG1ADW-2 | 2026-09-02 12:55:45 | 49.40809 | 17.83270 | 88° | 69km/h | 13477m | -18.4m/s | -52.0°C | 3.9% | 0hPa | 2.6V | 00:00:00 | 00:00:00 | 00:00:00 | |
| OE3OSB-13 | 2026-09-02 12:55:41 | 49.40803 | 17.83144 | 84° | 68km/h | 13568m | -18.3m/s | -52.6°C | 1.5% | -1.0hPa | 2.5V | 00:00:00 | 00:00:00 | 00:00:00 | |
| PETON7-10 | 2026-09-02 12:55:33 | 49.40793 | 17.82952 | 89° | 71km/h | 13696m | -18.1m/s | -52.8°C | 4.3% | 0hPa | 2.5V | 00:00:00 | 00:00:00 | 00:00:00 | |
| OE3JTB-15 | 2026-09-02 12:55:30 | 49.40797 | 17.82756 | 95° | 62km/h | 13823m | -18.3m/s | -52.8°C | 4.2% | 0hPa | 2.6V | 00:00:00 | 02:09:35 | 00:00:00 | |
| PG1ADW-2 | 2026-09-02 12:55:25 | 49.40798 | 17.82728 | 95° | 62km/h | 13841m | -17.8m/s | -52.6°C | 4.2% | 0hPa | 2.6V | 00:00:00 | 00:00:00 | 00:00:00 | |
| OE5DXL-15 | 2026-09-02 12:55:20 | 49.40805 | 17.82592 | 94° | 58km/h | 13934m | -19.6m/s | -51.1°C | 3.7% | 0hPa | 2.6V | 00:00:00 | 00:00:00 | 00:00:00 | |
| PETON7-10 | 2026-09-02 12:55:18 | 49.40807 | 17.82542 | 94° | 57km/h | 13972m | -18.2m/s | -50.5°C | 3.5% | 0hPa | 2.6V | 00:00:00 | 00:00:00 | 00:00:00 | |
| OE5DRO-10 | 2026-09-02 12:55:14 | 49.40809 | 17.82447 | 91° | 57km/h | 14048m | -18.7m/s | -50.4°C | 3.4% | 0hPa | 2.6V | 00:00:00 | 00:00:00 | 00:00:00 | |
| OE3OSB-13 | 2026-09-02 12:55:10 | 49.40807 | 17.82341 | 86° | 55km/h | 14145m | -19.4m/s | -50.9°C | 1.2% | -1.0hPa | 2.6V | 00:00:00 | 00:00:00 | 00:00:00 | |
| PG1ADW-2 | 2026-09-02 12:55:05 | 49.40803 | 17.82254 | 85° | 62km/h | 14222m | -18.5m/s | -51.3°C | 3.6% | 0hPa | 2.6V | 00:00:00 | 02:09:14 | 00:00:00 | |
| PETON7-10 | 2026-09-02 12:55:03 | 49.40801 | 17.82210 | 86° | 60km/h | 14259m | -18.6m/s | -51.6°C | 3.7% | 0hPa | 2.6V | 00:00:00 | 02:09:12 | 00:00:00 | |
| SP3WXH-11 | 2026-09-02 12:54:49 | 49.40772 | 17.81779 | 76° | 66km/h | 14607m | -19.1m/s | -51.5°C | 1.2% | -1.0hPa | 2.6V | 00:00:00 | 00:00:00 | 00:00:00 | |
| PETON7-10 | 2026-09-02 12:54:48 | 49.40782 | 17.81855 | 81° | 68km/h | 14547m | -20.4m/s | -51.5°C | 3.7% | 0hPa | 2.6V | 08:16:00 | 00:00:00 | 00:00:00 | |
| PG1ADW-2 | 2026-09-02 12:54:45 | 49.40772 | 17.81779 | 77° | 69km/h | 14607m | -19.1m/s | -51.5°C | 3.7% | 0hPa | 2.5V | 00:00:00 | 00:00:00 | 00:00:00 | |
| OE3OSB-13 | 2026-09-02 12:54:39 | 49.40743 | 17.81599 | 77° | 69km/h | 14742m | -19.2m/s | -51.9°C | 1.2% | -1.0hPa | 2.5V | 00:00:00 | 00:00:00 | 00:00:00 | |
| OE5DRO-10 | 2026-09-02 12:54:36 | 49.40736 | 17.81546 | 80° | 69km/h | 14782m | -20.5m/s | -51.8°C | 3.8% | 0hPa | 2.5V | 00:00:00 | 00:00:00 | 00:00:00 | |
| PETON7-10 | 2026-09-02 12:54:33 | 49.40729 | 17.81466 | 85° | 69km/h | 14844m | -20.5m/s | -51.9°C | 3.8% | 0hPa | 2.5V | 00:00:00 | 00:00:00 | 00:00:00 | |
| PG1ADW-2 | 2026-09-02 12:54:25 | 49.40725 | 17.81247 | 92° | 66km/h | 15006m | -20.2m/s | -51.7°C | 3.7% | 0hPa | 2.5V | 00:00:00 | 00:00:00 | 00:00:00 | |
| OE5DXL-15 | 2026-09-02 12:54:20 | 49.40729 | 17.81117 | 93° | 60km/h | 15105m | -19.7m/s | -51.3°C | 3.6% | 0hPa | 2.5V | 08:17:00 | 00:00:00 | 00:00:00 | |
| PETON7-10 | 2026-09-02 12:54:18 | 49.40731 | 17.81064 | 94° | 64km/h | 15144m | -19.8m/s | -51.3°C | 3.6% | 0hPa | 2.5V | 00:00:00 | 02:08:27 | 00:00:00 | |
| OE3JTB-15 | 2026-09-02 12:54:17 | 49.40738 | 17.80960 | 98° | 53km/h | 15226m | -20.3m/s | -51.4°C | 3.5% | 0hPa | 2.5V | 00:00:00 | 00:00:00 | 00:00:00 | |
| PG1ADW-2 | 2026-09-02 12:54:05 | 49.40768 | 17.80744 | 103° | 53km/h | 15404m | -19.6m/s | -51.4°C | 3.5% | 0hPa | 2.5V | 00:00:00 | 00:00:00 | 00:00:00 | |
| PETON7-10 | 2026-09-02 12:54:03 | 49.40774 | 17.80703 | 101° | 55km/h | 15444m | -19.5m/s | -51.3°C | 3.5% | 0hPa | 2.5V | 00:00:00 | 00:00:00 | 00:00:00 | |
| SP3WXH-11 | 2026-09-02 12:53:47 | 49.40795 | 17.80372 | 100° | 49km/h | 15766m | -20.0m/s | -52.7°C | 1.1% | -1.0hPa | 2.6V | 00:00:00 | 00:00:00 | 00:00:00 | |
| DO3MHA-11 | 2026-09-02 12:53:45 | 49.40799 | 17.80334 | 100° | 44km/h | 15806m | -20.2m/s | -52.3°C | 3.8% | 0hPa | 2.6V | 00:00:00 | 02:07:54 | 00:00:00 | |
| OE3JTB-15 | 2026-09-02 12:53:44 | 49.40804 | 17.80283 | 96° | 55km/h | 15867m | -20.1m/s | -51.8°C | 3.6% | 0hPa | 2.6V | 00:00:00 | 02:07:51 | 00:00:00 | |
| OE5DRO-10 | 2026-09-02 12:53:39 | 49.40805 | 17.80235 | 89° | 49km/h | 15930m | -20.1m/s | -51.6°C | 3.6% | 0hPa | 2.6V | 00:00:00 | 00:00:00 | 00:00:00 | |
| OE3OSB-13 | 2026-09-02 12:53:37 | 49.40803 | 17.80187 | 83° | 44km/h | 15992m | -20.3m/s | -51.9°C | 1.1% | -1.0hPa | 2.6V | 00:00:00 | 00:00:00 | 00:00:00 | |
| DO3MHA-11 | 2026-09-02 12:53:35 | 49.40801 | 17.80170 | 83° | 49km/h | 16013m | -19.9m/s | -51.9°C | 3.6% | 0hPa | 2.6V | 00:00:00 | 02:07:44 | 00:00:00 | |
| PETON7-10 | 2026-09-02 12:53:33 | 49.40798 | 17.80134 | 84° | 53km/h | 16054m | -20.1m/s | -52.2°C | 3.7% | 0hPa | 2.5V | 00:00:00 | 02:07:42 | 00:00:00 | |
| DO3MHA-11 | 2026-09-02 12:53:25 | 49.40790 | 17.79974 | 91° | 46km/h | 16226m | -21.6m/s | -52.7°C | 3.9% | 0hPa | 2.5V | 00:00:00 | 02:07:34 | 00:00:00 | |
| GYPAP8-17 | 2026-09-02 12:53:21 | 49.40792 | 17.79910 | 92° | 58km/h | 16289m | -21.9m/s | 0°C | 0% | 0hPa | 2.5V | 08:18:00 | 00:00:00 | 00:00:00 | |
| OE5DXL-15 | 2026-09-02 12:53:20 | 49.40793 | 17.79866 | 94° | 46km/h | 16331m | -19.9m/s | -52.1°C | 3.7% | 0hPa | 2.5V | 00:00:00 | 00:00:00 | 00:00:00 | |
| PETON7-10 | 2026-09-02 12:53:18 | 49.40795 | 17.79820 | 95° | 55km/h | 16373m | -21.1m/s | -52.1°C | 3.7% | 0hPa | 2.5V | 00:00:00 | 00:00:00 | 00:00:00 | |
| SP3WXH-11 | 2026-09-02 12:53:16 | 49.40798 | 17.79774 | 96° | 60km/h | 16415m | -21.4m/s | -52.1°C | 1.0% | -1.0hPa | 2.5V | 00:00:00 | 00:00:00 | 00:00:00 | |
| OE3JTB-15 | 2026-09-02 12:53:10 | 49.40819 | 17.79582 | 102° | 38km/h | 16613m | -22.3m/s | -51.0°C | 3.4% | 0hPa | 2.5V | 00:00:00 | 00:00:00 | 08:30:00 | |
| OE3OSB-13 | 2026-09-02 12:53:06 | 49.40823 | 17.79547 | 97° | 46km/h | 16658m | -23.6m/s | -51.0°C | 0.9% | -1.0hPa | 2.5V | 00:00:00 | 00:00:00 | 00:00:00 | |
| PG1ADW-2 | 2026-09-02 12:53:05 | 49.40823 | 17.79547 | 98° | 37km/h | 16658m | -23.5m/s | -51.0°C | 3.4% | 0hPa | 2.5V | 00:00:00 | 00:00:00 | 00:00:00 | |
| PETON7-10 | 2026-09-02 12:53:03 | 49.40826 | 17.79513 | 96° | 35km/h | 16704m | -22.4m/s | -50.9°C | 3.3% | 0hPa | 2.5V | 00:00:00 | 00:00:00 | 00:00:00 | |
| OE5DRO-10 | 2026-09-02 12:53:01 | 49.40827 | 17.79484 | 94° | 37km/h | 16748m | -22.1m/s | -50.8°C | 3.2% | 0hPa | 2.5V | 00:00:00 | 00:00:00 | 00:00:00 | |
| DO3MHA-11 | 2026-09-02 12:53:00 | 49.40828 | 17.79470 | 94° | 33km/h | 16770m | -21.5m/s | -50.8°C | 3.3% | 0hPa | 2.5V | 00:00:00 | 02:07:09 | 00:00:00 | |
| OE5DXL-15 | 2026-09-02 12:52:50 | 49.40819 | 17.79345 | 78° | 40km/h | 16990m | -22.5m/s | -51.1°C | 3.3% | 0hPa | 2.5V | 00:00:00 | 00:00:00 | 00:00:00 | |
| PETON7-10 | 2026-09-02 12:52:48 | 49.40815 | 17.79314 | 79° | 44km/h | 17036m | -23.0m/s | -51.3°C | 3.3% | 0hPa | 2.7V | 00:00:00 | 02:06:57 | 00:00:00 | |
| PG1ADW-2 | 2026-09-02 12:52:45 | 49.40808 | 17.79264 | 81° | 42km/h | 17102m | -21.3m/s | -51.7°C | 3.4% | 0hPa | 2.7V | 00:00:00 | 00:00:00 | 00:00:00 | |
| OE5DRO-10 | 2026-09-02 12:52:42 | 49.40804 | 17.79211 | 86° | 40km/h | 17169m | -21.6m/s | -52.2°C | 3.5% | 0hPa | 2.6V | 00:00:00 | 00:00:00 | 00:00:00 | |
| DO3MHA-11 | 2026-09-02 12:52:40 | 49.40802 | 17.79177 | 87° | 42km/h | 17207m | -17.9m/s | -52.3°C | 3.6% | 0hPa | 2.6V | 00:00:00 | 02:06:49 | 00:00:00 | |
| GYPAP8-17 | 2026-09-02 12:52:39 | 49.40802 | 17.79177 | 88° | 44km/h | 17207m | -17.9m/s | 0°C | 0% | 0hPa | 2.6V | 00:00:00 | 00:00:00 | 00:00:00 | |
| OE3OSB-13 | 2026-09-02 12:52:34 | 49.40797 | 17.79077 | 84° | 42km/h | 17318m | -19.9m/s | -52.7°C | 1.0% | -1.0hPa | 2.6V | 00:00:00 | 00:00:00 | 00:00:00 | |
| PETON7-10 | 2026-09-02 12:52:33 | 49.40797 | 17.79060 | 87° | 35km/h | 17338m | -19.3m/s | -52.8°C | 3.8% | 0hPa | 2.6V | 08:19:00 | 00:00:00 | 00:00:00 | |
| DO3MHA-11 | 2026-09-02 12:52:28 | 49.40795 | 17.78982 | 89° | 33km/h | 17436m | -20.8m/s | -52.8°C | 3.8% | 0hPa | 2.7V | 00:00:00 | 02:06:37 | 00:00:00 | |
| PG1ADW-2 | 2026-09-02 12:52:25 | 49.40794 | 17.78940 | 88° | 33km/h | 17492m | -18.1m/s | -52.7°C | 3.8% | 0hPa | 2.7V | 00:00:00 | 02:06:34 | 00:00:00 | |
| OE5DRO-10 | 2026-09-02 12:52:23 | 49.40793 | 17.78916 | 87° | 33km/h | 17530m | -17.8m/s | -52.5°C | 3.7% | 0hPa | 2.7V | 00:00:00 | 00:00:00 | 00:00:00 | |
| OE5DXL-15 | 2026-09-02 12:52:20 | 49.40790 | 17.78884 | 76° | 40km/h | 17586m | -20.0m/s | -52.2°C | 3.6% | 0hPa | 2.7V | 00:00:00 | 00:00:00 | 00:00:00 | |
| PETON7-10 | 2026-09-02 12:52:18 | 49.40786 | 17.78864 | 69° | 37km/h | 17624m | -17.4m/s | -51.8°C | 3.5% | 0hPa | 2.7V | 00:00:00 | 00:00:00 | 00:00:00 | |
| SP3WXH-11 | 2026-09-02 12:52:14 | 49.40769 | 17.78814 | 63° | 31km/h | 17717m | -18.1m/s | -51.7°C | 0.9% | -1.0hPa | 2.7V | 00:00:00 | 00:00:00 | 00:00:00 | |
| DO3MHA-11 | 2026-09-02 12:52:08 | 49.40752 | 17.78751 | 72° | 47km/h | 17812m | -20.0m/s | -52.3°C | 3.5% | 0hPa | 2.7V | 00:00:00 | 02:06:17 | 00:00:00 | |
| PG1ADW-2 | 2026-09-02 12:52:05 | 49.40742 | 17.78703 | 77° | 44km/h | 17870m | -19.9m/s | -52.6°C | 3.7% | 0hPa | 2.7V | 00:00:00 | 00:00:00 | 00:00:00 | |
| OE5DRO-10 | 2026-09-02 12:52:04 | 49.40740 | 17.78685 | 79° | 44km/h | 17889m | -17.7m/s | -52.7°C | 3.7% | 0hPa | 2.7V | 00:00:00 | 00:00:00 | 00:00:00 | |
| PETON7-10 | 2026-09-02 12:52:03 | 49.40738 | 17.78666 | 80° | 46km/h | 17906m | -16.2m/s | -52.9°C | 3.8% | 0hPa | 2.7V | 00:00:00 | 02:06:12 | 00:00:00 | |
| DO3MHA-11 | 2026-09-02 12:51:58 | 49.40730 | 17.78571 | 86° | 44km/h | 17996m | -18.2m/s | -53.2°C | 3.9% | 0hPa | 2.7V | 00:00:00 | 02:06:07 | 00:00:00 | |
| OE3JTB-15 | 2026-09-02 12:51:57 | 49.40729 | 17.78496 | 92° | 26km/h | 18078m | -18.9m/s | -53.3°C | 3.9% | 0hPa | 2.7V | 00:00:00 | 02:06:03 | 00:00:00 | |
| OE5DXL-15 | 2026-09-02 12:51:50 | 49.40730 | 17.78433 | 92° | 33km/h | 18157m | -20.6m/s | -53.0°C | 3.8% | 0hPa | 2.7V | 00:00:00 | 00:00:00 | 00:00:00 | |
| PETON7-10 | 2026-09-02 12:51:48 | 49.40731 | 17.78405 | 91° | 31km/h | 18197m | -20.7m/s | -52.6°C | 3.7% | 0hPa | 2.7V | 00:00:00 | 00:00:00 | 00:00:00 | |
| OE5DRO-10 | 2026-09-02 12:51:45 | 49.40729 | 17.78368 | 81° | 33km/h | 18261m | -20.5m/s | -52.1°C | 3.5% | 0hPa | 2.5V | 00:00:00 | 00:00:00 | 00:00:00 | |
| SP3WXH-11 | 2026-09-02 12:51:43 | 49.40723 | 17.78335 | 71° | 29km/h | 18323m | -21.2m/s | -52.6°C | 0.9% | -1.0hPa | 2.5V | 00:00:00 | 00:00:00 | 00:00:00 | |
| DO3MHA-11 | 2026-09-02 12:51:36 | 49.40709 | 17.78268 | 79° | 33km/h | 18437m | -17.4m/s | -53.0°C | 3.9% | 0hPa | 2.5V | 00:00:00 | 02:05:45 | 00:00:00 | |
| PETON7-10 | 2026-09-02 12:51:33 | 49.40706 | 17.78228 | 89° | 33km/h | 18491m | -16.8m/s | -52.9°C | 3.8% | 0hPa | 2.5V | 00:00:00 | 00:00:00 | 00:00:00 | |
| OE3OSB-13 | 2026-09-02 12:51:32 | 49.40706 | 17.78214 | 89° | 37km/h | 18508m | -18.9m/s | -53.1°C | 0.9% | -1.0hPa | 2.5V | 00:00:00 | 00:00:00 | 00:00:00 | |
| DO3MHA-11 | 2026-09-02 12:51:26 | 49.40711 | 17.78134 | 101° | 29km/h | 18618m | -19.5m/s | -52.8°C | 3.8% | 0hPa | 2.5V | 00:00:00 | 02:05:35 | 00:00:00 | |
| PG1ADW-2 | 2026-09-02 12:51:25 | 49.40712 | 17.78123 | 105° | 29km/h | 18637m | -17.6m/s | -52.8°C | 3.8% | 0hPa | 2.5V | 00:00:00 | 00:00:00 | 00:00:00 | |
| OE5DXL-15 | 2026-09-02 12:51:20 | 49.40721 | 17.78068 | 104° | 27km/h | 18732m | -18.8m/s | -52.4°C | 3.6% | 0hPa | 2.5V | 00:00:00 | 00:00:00 | 00:00:00 | |
| PETON7-10 | 2026-09-02 12:51:19 | 49.40723 | 17.78046 | 99° | 29km/h | 18770m | -18.4m/s | -52.3°C | 3.6% | 0hPa | 2.5V | 00:00:00 | 02:05:27 | 00:00:00 | |
| DO3MHA-11 | 2026-09-02 12:51:16 | 49.40725 | 17.78026 | 91° | 31km/h | 18810m | -20.6m/s | -52.3°C | 3.6% | 0hPa | 2.5V | 00:00:00 | 02:05:25 | 00:00:00 | |
| SP3WXH-11 | 2026-09-02 12:51:12 | 49.40726 | 17.77970 | 94° | 31km/h | 18909m | -21.0m/s | -51.9°C | 0.9% | -1.0hPa | 2.5V | 00:00:00 | 00:00:00 | 00:00:00 | |
| OE5DRO-10 | 2026-09-02 12:51:07 | 49.40731 | 17.77919 | 104° | 26km/h | 18990m | -19.7m/s | -52.1°C | 3.5% | 0hPa | 2.5V | 08:20:00 | 00:00:00 | 00:00:00 | |
| DO3MHA-11 | 2026-09-02 12:51:06 | 49.40733 | 17.77907 | 104° | 26km/h | 19009m | -19.2m/s | -52.3°C | 3.5% | 0hPa | 2.5V | 00:00:00 | 02:05:15 | 00:00:00 | |
| PG1ADW-2 | 2026-09-02 12:51:05 | 49.40735 | 17.77895 | 108° | 24km/h | 19029m | -19.9m/s | -52.5°C | 3.6% | 0hPa | 2.5V | 00:00:00 | 02:05:14 | 00:00:00 | |
| PETON7-10 | 2026-09-02 12:51:03 | 49.40739 | 17.77874 | 106° | 24km/h | 19069m | -19.5m/s | -52.8°C | 3.7% | 0hPa | 2.5V | 00:00:00 | 00:00:00 | 00:00:00 | |
| OE3OSB-13 | 2026-09-02 12:51:01 | 49.40742 | 17.77856 | 96° | 22km/h | 19107m | -18.8m/s | -52.9°C | 0.9% | -1.0hPa | 2.5V | 00:00:00 | 00:00:00 | 00:00:00 | |
| DO3MHA-11 | 2026-09-02 12:50:56 | 49.40744 | 17.77812 | 100° | 24km/h | 19201m | -16.7m/s | -53.0°C | 3.8% | 0hPa | 2.5V | 00:00:00 | 02:05:05 | 00:00:00 | |
| OE5DXL-15 | 2026-09-02 12:50:50 | 49.40754 | 17.77755 | 109° | 24km/h | 19306m | -19.5m/s | -53.3°C | 3.9% | 0hPa | 2.5V | 00:00:00 | 00:00:00 | 00:00:00 | |
| PETON7-10 | 2026-09-02 12:50:48 | 49.40757 | 17.77738 | 102° | 24km/h | 19346m | -19.4m/s | -53.1°C | 3.8% | 0hPa | 2.5V | 00:00:00 | 00:00:00 | 00:00:00 | |
| DO3MHA-11 | 2026-09-02 12:50:46 | 49.40758 | 17.77722 | 90° | 24km/h | 19384m | -18.8m/s | -53.1°C | 3.8% | 0hPa | 2.5V | 08:20:00 | 02:04:55 | 00:00:00 | |
| PG1ADW-2 | 2026-09-02 12:50:45 | 49.40758 | 17.77714 | 85° | 26km/h | 19403m | -18.7m/s | -53.2°C | 3.8% | 0hPa | 2.7V | 08:20:00 | 00:00:00 | 00:00:00 | |
| SP3WXH-11 | 2026-09-02 12:50:41 | 49.40751 | 17.77675 | 73° | 24km/h | 19501m | -21.9m/s | -53.1°C | 0.9% | -1.0hPa | 2.5V | 00:00:00 | 00:00:00 | 00:00:00 | |
| DO3MHA-11 | 2026-09-02 12:50:36 | 49.40747 | 17.77631 | 88° | 27km/h | 19580m | -19.2m/s | -53.2°C | 3.7% | 0hPa | 2.5V | 00:00:00 | 02:04:45 | 00:00:00 | |
| PETON7-10 | 2026-09-02 12:50:33 | 49.40747 | 17.77595 | 95° | 24km/h | 19637m | -19.6m/s | -53.2°C | 3.8% | 0hPa | 2.5V | 00:00:00 | 02:04:42 | 00:00:00 | |
| OE3OSB-13 | 2026-09-02 12:50:30 | 49.40749 | 17.77562 | 99° | 26km/h | 19697m | -18.8m/s | -53.2°C | 0.9% | -1.0hPa | 2.5V | 00:00:00 | 00:00:00 | 00:00:00 | |
| OE5DRO-10 | 2026-09-02 12:50:29 | 49.40750 | 17.77552 | 103° | 18km/h | 19715m | -17.1m/s | -53.2°C | 3.8% | 0hPa | 2.5V | 00:00:00 | 00:00:00 | 00:00:00 | |
| DO3MHA-11 | 2026-09-02 12:50:26 | 49.40755 | 17.77526 | 108° | 22km/h | 19769m | -15.1m/s | -53.0°C | 3.7% | 0hPa | 2.5V | 00:00:00 | 02:04:35 | 00:00:00 | |
| PG1ADW-2 | 2026-09-02 12:50:25 | 49.40756 | 17.77518 | 113° | 15km/h | 19787m | -20.0m/s | -53.0°C | 3.7% | 0hPa | 2.5V | 00:00:00 | 00:00:00 | 00:00:00 | |
| GYPAP8-17 | 2026-09-02 12:50:22 | 49.40761 | 17.77503 | 120° | 22km/h | 19826m | -17.5m/s | 0°C | 0% | 0hPa | 2.5V | 00:00:00 | 00:00:00 | 00:00:00 | |
| OE5DXL-15 | 2026-09-02 12:50:20 | 49.40769 | 17.77481 | 123° | 13km/h | 19889m | -20.9m/s | -53.5°C | 3.8% | 0hPa | 2.5V | 00:00:00 | 00:00:00 | 00:00:00 | |
| PETON7-10 | 2026-09-02 12:50:18 | 49.40776 | 17.77468 | 129° | 11km/h | 19930m | -18.8m/s | -53.7°C | 3.9% | 0hPa | 2.5V | 08:21:00 | 00:00:00 | 00:00:00 | |
| DO3MHA-11 | 2026-09-02 12:50:16 | 49.40782 | 17.77457 | 133° | 11km/h | 19968m | -18.8m/s | -53.7°C | 4.0% | 0hPa | 2.7V | 00:00:00 | 02:04:25 | 00:00:00 | |
| SP3WXH-11 | 2026-09-02 12:50:10 | 49.40791 | 17.77434 | 112° | 7km/h | 20101m | -22.4m/s | -53.5°C | 1.0% | -1.0hPa | 2.7V | 00:00:00 | 00:00:00 | 00:00:00 | |
| DO3MHA-11 | 2026-09-02 12:50:06 | 49.40794 | 17.77423 | 114° | 13km/h | 20163m | -20.1m/s | -53.7°C | 4.1% | 0hPa | 2.7V | 00:00:00 | 02:04:15 | 00:00:00 | |
| PG1ADW-2 | 2026-09-02 12:50:05 | 49.40795 | 17.77419 | 111° | 11km/h | 20183m | -18.1m/s | -53.7°C | 4.2% | 0hPa | 2.7V | 00:00:00 | 00:00:00 | 00:00:00 | |
| DO3MHA-11 | 2026-09-02 12:49:56 | 49.40794 | 17.77371 | 85° | 7km/h | 20358m | -20.1m/s | -53.4°C | 4.2% | 0hPa | 2.7V | 00:00:00 | 02:04:05 | 00:00:00 | |
| OE5DRO-10 | 2026-09-02 12:49:51 | 49.40796 | 17.77354 | 137° | 5km/h | 20457m | -18.5m/s | -52.5°C | 3.9% | 0hPa | 2.7V | 00:00:00 | 00:00:00 | 00:00:00 | |
| OE5DXL-15 | 2026-09-02 12:49:50 | 49.40797 | 17.77353 | 137° | 9km/h | 20476m | -19.3m/s | -51.8°C | 3.6% | 0hPa | 2.7V | 08:21:00 | 00:00:00 | 00:00:00 | |
| PETON7-10 | 2026-09-02 12:49:48 | 49.40800 | 17.77349 | 150° | 4km/h | 20514m | -18.3m/s | -51.3°C | 3.5% | 0hPa | 2.7V | 00:00:00 | 02:03:57 | 00:00:00 | |
| DO3MHA-11 | 2026-09-02 12:49:46 | 49.40802 | 17.77346 | 134° | 4km/h | 20553m | -20.3m/s | -50.9°C | 3.3% | 0hPa | 2.7V | 00:00:00 | 02:03:55 | 00:00:00 | |
| PG1ADW-2 | 2026-09-02 12:49:45 | 49.40803 | 17.77344 | 133° | 7km/h | 20573m | -21.1m/s | -50.9°C | 3.3% | 0hPa | 2.7V | 00:00:00 | 02:03:54 | 00:00:00 | |
| SP3WXH-11 | 2026-09-02 12:49:39 | 49.40801 | 17.77335 | 36° | 4km/h | 20717m | -20.2m/s | -51.3°C | 0.8% | -1.0hPa | 2.7V | 00:00:00 | 00:00:00 | 00:00:00 | |
| DO3MHA-11 | 2026-09-02 12:49:36 | 49.40800 | 17.77334 | 312° | 9km/h | 20758m | -21.1m/s | -51.3°C | 3.3% | 0hPa | 2.7V | 00:00:00 | 02:03:45 | 00:00:00 | |
| OE5DRO-10 | 2026-09-02 12:49:32 | 49.40799 | 17.77340 | 280° | 13km/h | 20845m | -22.3m/s | -51.9°C | 3.5% | 0hPa | 2.7V | 00:00:00 | 00:00:00 | 00:00:00 | |
| OE3OSB-13 | 2026-09-02 12:49:28 | 49.40796 | 17.77357 | 291° | 15km/h | 20930m | -19.0m/s | -51.9°C | 0.8% | -1.0hPa | 2.7V | 00:00:00 | 00:00:00 | 00:00:00 | |
| DO3MHA-11 | 2026-09-02 12:49:26 | 49.40792 | 17.77368 | 306° | 16km/h | 20970m | -21.4m/s | -52.1°C | 3.6% | 0hPa | 2.7V | 00:00:00 | 02:03:35 | 00:00:00 | |
| PG1ADW-2 | 2026-09-02 12:49:25 | 49.40789 | 17.77373 | 311° | 13km/h | 20992m | -22.7m/s | -52.1°C | 3.6% | 0hPa | 2.7V | 00:00:00 | 00:00:00 | 00:00:00 | |
| OE5DXL-15 | 2026-09-02 12:49:20 | 49.40773 | 17.77394 | 330° | 13km/h | 21102m | -21.1m/s | -52.4°C | 3.7% | 0hPa | 2.7V | 00:00:00 | 00:00:00 | 00:00:00 | |
| PETON7-10 | 2026-09-02 12:49:18 | 49.40767 | 17.77398 | 343° | 11km/h | 21142m | -19.8m/s | -52.6°C | 3.7% | 0hPa | 2.7V | 00:00:00 | 00:00:00 | 00:00:00 | |
| GYPAP8-17 | 2026-09-02 12:49:17 | 49.40767 | 17.77398 | 343° | 13km/h | 21142m | -19.8m/s | 0°C | 0% | 0hPa | 2.7V | 00:00:00 | 00:00:00 | 00:00:00 | |
| DO3MHA-11 | 2026-09-02 12:49:16 | 49.40761 | 17.77400 | 357° | 11km/h | 21185m | -21.0m/s | -52.6°C | 3.7% | 0hPa | 2.7V | 08:22:00 | 02:03:25 | 00:00:00 | |
| OE5DRO-10 | 2026-09-02 12:49:13 | 49.40755 | 17.77399 | 21° | 13km/h | 21246m | -19.8m/s | -52.5°C | 3.8% | 0hPa | 2.6V | 00:00:00 | 00:00:00 | 00:00:00 | |
| SP3WXH-11 | 2026-09-02 12:49:08 | 49.40741 | 17.77386 | 38° | 11km/h | 21365m | -20.0m/s | -52.0°C | 0.8% | -1.0hPa | 2.5V | 00:00:00 | 00:00:00 | 00:00:00 | |
| DO3MHA-11 | 2026-09-02 12:49:06 | 49.40738 | 17.77382 | 44° | 15km/h | 21385m | -20.0m/s | -51.9°C | 3.5% | 0hPa | 2.5V | 00:00:00 | 02:03:15 | 00:00:00 | |
| PG1ADW-2 | 2026-09-02 12:49:05 | 49.40736 | 17.77378 | 41° | 13km/h | 21405m | -20.5m/s | -51.9°C | 3.5% | 0hPa | 2.5V | 00:00:00 | 00:00:00 | 00:00:00 | |
| PETON7-10 | 2026-09-02 12:49:03 | 49.40731 | 17.77370 | 51° | 13km/h | 21446m | -19.0m/s | -52.0°C | 3.5% | 0hPa | 2.5V | 00:00:00 | 02:03:12 | 00:00:00 | |
| NBG1-10 | 2026-09-02 12:48:57 | 49.40721 | 17.77340 | 68° | 13km/h | 21580m | -20.9m/s | -52.7°C | 3.7% | 0hPa | 2.5V | 00:00:00 | 02:03:06 | 00:00:00 | |
| DO3MHA-11 | 2026-09-02 12:48:56 | 49.40719 | 17.77335 | 70° | 13km/h | 21601m | -20.9m/s | -52.8°C | 3.8% | 0hPa | 2.5V | 00:00:00 | 02:03:05 | 00:00:00 | |
| OE5DRO-10 | 2026-09-02 12:48:54 | 49.40716 | 17.77325 | 60° | 11km/h | 21646m | -22.3m/s | -52.5°C | 3.7% | 0hPa | 2.5V | 00:00:00 | 00:00:00 | 00:00:00 | |
| OE5DXL-15 | 2026-09-02 12:48:50 | 49.40708 | 17.77312 | 28° | 15km/h | 21726m | -20.6m/s | -53.0°C | 3.9% | 0hPa | 2.5V | 00:00:00 | 02:02:59 | 00:00:00 | |
| PETON7-10 | 2026-09-02 12:48:48 | 49.40702 | 17.77309 | 8° | 13km/h | 21768m | -20.7m/s | -53.0°C | 4.0% | 0hPa | 2.5V | 00:00:00 | 00:00:00 | 00:00:00 | |
| DO3MHA-11 | 2026-09-02 12:48:46 | 49.40697 | 17.77308 | 2° | 11km/h | 21807m | -18.7m/s | -52.9°C | 4.0% | 0hPa | 2.6V | 00:00:00 | 02:02:55 | 00:00:00 | |
| PG1ADW-2 | 2026-09-02 12:48:45 | 49.40694 | 17.77308 | 8° | 15km/h | 21826m | -18.5m/s | -52.6°C | 3.9% | 0hPa | 2.7V | 00:00:00 | 00:00:00 | 00:00:00 | |
| SP3WXH-11 | 2026-09-02 12:48:37 | 49.40671 | 17.77287 | 58° | 11km/h | 22013m | -25.4m/s | -52.2°C | 0.9% | -1.0hPa | 2.7V | 00:00:00 | 00:00:00 | 00:00:00 | |
| DO3MHA-11 | 2026-09-02 12:48:36 | 49.40671 | 17.77287 | 59° | 15km/h | 22013m | -25.4m/s | -52.1°C | 3.7% | 0hPa | 2.7V | 00:00:00 | 02:02:45 | 00:00:00 | |
| OE5DRO-10 | 2026-09-02 12:48:35 | 49.40669 | 17.77283 | 59° | 16km/h | 22038m | -23.7m/s | -52.0°C | 3.7% | 0hPa | 2.7V | 00:00:00 | 00:00:00 | 00:00:00 | |
| PETON7-10 | 2026-09-02 12:48:33 | 49.40667 | 17.77273 | 72° | 18km/h | 22089m | -25.9m/s | -51.8°C | 3.7% | 0hPa | 2.7V | 00:00:00 | 00:00:00 | 00:00:00 | |
| DO3MHA-11 | 2026-09-02 12:48:26 | 49.40667 | 17.77229 | 102° | 18km/h | 22257m | -22.6m/s | -51.5°C | 3.5% | 0hPa | 2.7V | 00:00:00 | 02:02:35 | 00:00:00 | |
| PG1ADW-2 | 2026-09-02 12:48:25 | 49.40668 | 17.77222 | 108° | 15km/h | 22279m | -19.5m/s | -51.5°C | 3.5% | 0hPa | 2.7V | 00:00:00 | 02:02:34 | 00:00:00 | |
| NBG1-10 | 2026-09-02 12:48:24 | 49.40669 | 17.77215 | 105° | 11km/h | 22299m | -20.9m/s | -51.6°C | 3.5% | 0hPa | 2.7V | 00:00:00 | 02:02:33 | 00:00:00 | |
| OE5DXL-15 | 2026-09-02 12:48:20 | 49.40674 | 17.77187 | 104° | 11km/h | 22379m | -21.1m/s | -51.6°C | 3.6% | 0hPa | 2.6V | 00:00:00 | 00:00:00 | 00:00:00 | |
| PETON7-10 | 2026-09-02 12:48:18 | 49.40675 | 17.77173 | 100° | 13km/h | 22420m | -21.2m/s | -51.4°C | 3.5% | 0hPa | 2.6V | 00:00:00 | 02:02:27 | 00:00:00 | |
| DO3MHA-11 | 2026-09-02 12:48:16 | 49.40677 | 17.77160 | 98° | 13km/h | 22459m | -17.4m/s | -51.0°C | 3.4% | 0hPa | 2.6V | 00:00:00 | 02:02:25 | 00:00:00 | |
| GYPAP8-17 | 2026-09-02 12:48:10 | 49.40684 | 17.77135 | 132° | 13km/h | 22555m | -21.1m/s | 0°C | 0% | 0hPa | 2.7V | 00:00:00 | 00:00:00 | 00:00:00 | |
| SP3WXH-11 | 2026-09-02 12:48:06 | 49.40698 | 17.77126 | 191° | 5km/h | 22676m | -20.0m/s | -51.7°C | 0.8% | -1.0hPa | 2.7V | 00:00:00 | 00:00:00 | 00:00:00 | |
| PG1ADW-2 | 2026-09-02 12:48:05 | 49.40697 | 17.77126 | 192° | 5km/h | 22676m | -19.9m/s | -51.7°C | 3.5% | 0hPa | 2.7V | 00:00:00 | 00:00:00 | 00:00:00 | |
| PETON7-10 | 2026-09-02 12:48:03 | 49.40699 | 17.77127 | 288° | 5km/h | 22718m | -20.5m/s | -51.8°C | 3.5% | 0hPa | 2.7V | 08:23:00 | 00:00:00 | 00:00:00 | |
| OE3OSB-13 | 2026-09-02 12:47:55 | 49.40684 | 17.77134 | 357° | 5km/h | 22885m | -23.3m/s | -51.5°C | 0.8% | -1.0hPa | 2.6V | 00:00:00 | 00:00:00 | 00:00:00 | |
| OE5DXL-15 | 2026-09-02 12:47:50 | 49.40679 | 17.77130 | 60° | 11km/h | 22994m | -20.3m/s | -52.0°C | 3.7% | 0hPa | 2.6V | 00:00:00 | 00:00:00 | 00:00:00 | |
| PETON7-10 | 2026-09-02 12:47:48 | 49.40678 | 17.77128 | 41° | 11km/h | 23032m | -19.3m/s | -52.1°C | 3.6% | 0hPa | 2.6V | 00:00:00 | 00:00:00 | 00:00:00 | |
| DO3MHA-11 | 2026-09-02 12:47:46 | 49.40675 | 17.77125 | 33° | 13km/h | 23070m | -19.3m/s | -52.1°C | 3.6% | 0hPa | 2.6V | 08:23:00 | 02:01:55 | 00:00:00 | |
| PG1ADW-2 | 2026-09-02 12:47:45 | 49.40673 | 17.77123 | 35° | 11km/h | 23091m | -22.2m/s | -52.1°C | 3.7% | 0hPa | 2.7V | 08:23:00 | 00:00:00 | 00:00:00 | |
| OE5DRO-10 | 2026-09-02 12:47:38 | 49.40658 | 17.77097 | 67° | 13km/h | 23238m | -22.5m/s | -52.3°C | 3.7% | 0hPa | 2.7V | 00:00:00 | 00:00:00 | 00:00:00 | |
| SP3BTT-10 | 2026-09-02 12:47:37 | 49.40657 | 17.77093 | 71° | 5km/h | 23260m | -21.3m/s | -52.2°C | 3.7% | 0hPa | 2.7V | 00:00:00 | 00:00:00 | 00:00:00 | |
| DO3MHA-11 | 2026-09-02 12:47:36 | 49.40656 | 17.77088 | 92° | 11km/h | 23282m | -22.1m/s | -52.1°C | 3.7% | 0hPa | 2.7V | 00:00:00 | 02:01:45 | 00:00:00 | |
| SP3WXH-11 | 2026-09-02 12:47:35 | 49.40657 | 17.77080 | 98° | 11km/h | 23326m | -22.4m/s | -52.1°C | 0.8% | -1.0hPa | 2.7V | 00:00:00 | 00:00:00 | 00:00:00 | |
| PETON7-10 | 2026-09-02 12:47:33 | 49.40658 | 17.77075 | 103° | 13km/h | 23349m | -21.8m/s | -52.1°C | 3.8% | 0hPa | 2.7V | 00:00:00 | 02:01:42 | 00:00:00 | |
| PG1ADW-2 | 2026-09-02 12:47:26 | 49.40647 | 17.77052 | 23° | 15km/h | 23512m | -22.1m/s | -52.0°C | 3.7% | 0hPa | 2.7V | 00:00:00 | 00:00:00 | 00:00:00 | |
| OE3OSB-13 | 2026-09-02 12:47:24 | 49.40643 | 17.77050 | 21° | 15km/h | 23535m | -24.4m/s | -52.1°C | 0.8% | -1.0hPa | 2.7V | 00:00:00 | 00:00:00 | 00:00:00 | |
| OE5DXL-15 | 2026-09-02 12:47:20 | 49.40627 | 17.77039 | 26° | 13km/h | 23629m | -23.9m/s | -51.4°C | 3.5% | 0hPa | 2.7V | 00:00:00 | 00:00:00 | 00:00:00 | |
| OE5DRO-10 | 2026-09-02 12:47:19 | 49.40624 | 17.77036 | 28° | 15km/h | 23652m | -22.7m/s | -51.3°C | 3.4% | 0hPa | 2.7V | 00:00:00 | 00:00:00 | 00:00:00 | |
| PETON7-10 | 2026-09-02 12:47:18 | 49.40620 | 17.77033 | 34° | 15km/h | 23675m | -21.5m/s | -51.2°C | 3.4% | 0hPa | 2.7V | 00:00:00 | 00:00:00 | 00:00:00 | |
| DO3MHA-11 | 2026-09-02 12:47:16 | 49.40615 | 17.77027 | 49° | 13km/h | 23717m | -21.2m/s | -51.3°C | 3.5% | 0hPa | 2.6V | 00:00:00 | 02:01:25 | 00:00:00 | |
| OE5MMP-10 | 2026-09-02 12:47:09 | 49.40615 | 17.76995 | 127° | 15km/h | 23878m | -22.8m/s | -51.5°C | 3.5% | 0hPa | 2.7V | 00:00:00 | 02:01:18 | 00:00:00 | |
| DO3MHA-11 | 2026-09-02 12:47:06 | 49.40624 | 17.76982 | 149° | 11km/h | 23943m | -22.0m/s | -51.7°C | 3.6% | 0hPa | 2.7V | 00:00:00 | 02:01:15 | 00:00:00 | |
| PG1ADW-2 | 2026-09-02 12:47:05 | 49.40627 | 17.76980 | 155° | 11km/h | 23965m | -20.6m/s | -51.9°C | 3.7% | 0hPa | 2.7V | 00:00:00 | 02:01:14 | 00:00:00 | |
| SP3WXH-11 | 2026-09-02 12:47:04 | 49.40634 | 17.76976 | 171° | 13km/h | 24008m | -22.4m/s | -52.1°C | 0.8% | -1.0hPa | 2.7V | 00:00:00 | 00:00:00 | 00:00:00 | |
| PETON7-10 | 2026-09-02 12:47:03 | 49.40634 | 17.76976 | 172° | 9km/h | 24008m | -22.3m/s | -52.1°C | 3.7% | 0hPa | 2.7V | 00:00:00 | 00:00:00 | 00:00:00 | |
| OE5DRO-10 | 2026-09-02 12:47:00 | 49.40642 | 17.76977 | 202° | 13km/h | 24074m | -23.9m/s | -52.2°C | 3.8% | 0hPa | 2.7V | 00:00:00 | 00:00:00 | 00:00:00 | |
| OE5MMP-10 | 2026-09-02 12:46:59 | 49.40643 | 17.76978 | 229° | 9km/h | 24097m | -23.2m/s | -52.1°C | 3.8% | 0hPa | 2.7V | 00:00:00 | 02:01:08 | 00:00:00 | |
| GYPAP8-17 | 2026-09-02 12:46:57 | 49.40644 | 17.76980 | 267° | 4km/h | 24119m | -20.5m/s | 0°C | 0% | 0hPa | 2.7V | 00:00:00 | 00:00:00 | 00:00:00 | |
| DO3MHA-11 | 2026-09-02 12:46:56 | 49.40642 | 17.76983 | 317° | 11km/h | 24161m | -21.0m/s | -52.3°C | 3.8% | 0hPa | 2.7V | 00:00:00 | 02:01:05 | 00:00:00 | |
| OE5DXL-15 | 2026-09-02 12:46:50 | 49.40628 | 17.76990 | 358° | 16km/h | 24298m | -20.8m/s | -52.0°C | 3.9% | 0hPa | 2.7V | 00:00:00 | 00:00:00 | 00:00:00 | |
| OE5MMP-10 | 2026-09-02 12:46:49 | 49.40625 | 17.76990 | 6° | 18km/h | 24319m | -21.5m/s | -51.7°C | 3.8% | 0hPa | 2.6V | 00:00:00 | 02:00:58 | 00:00:00 | |
| DO3MHA-11 | 2026-09-02 12:46:46 | 49.40615 | 17.76984 | 33° | 18km/h | 24388m | -22.3m/s | -51.4°C | 3.7% | 0hPa | 2.6V | 00:00:00 | 02:00:55 | 00:00:00 | |
| PG1ADW-2 | 2026-09-02 12:46:44 | 49.40608 | 17.76974 | 47° | 16km/h | 24431m | -20.7m/s | -51.0°C | 3.6% | 0hPa | 2.7V | 00:00:00 | 00:00:00 | 00:00:00 | |
| OE5DRO-10 | 2026-09-02 12:46:41 | 49.40599 | 17.76955 | 67° | 16km/h | 24494m | -21.2m/s | -50.5°C | 3.5% | 0hPa | 2.7V | 00:00:00 | 00:00:00 | 00:00:00 | |
| OE5MMP-10 | 2026-09-02 12:46:39 | 49.40596 | 17.76940 | 80° | 16km/h | 24535m | -20.9m/s | -50.2°C | 3.4% | 0hPa | 2.7V | 00:00:00 | 02:00:48 | 00:00:00 | |
| DO3MHA-11 | 2026-09-02 12:46:36 | 49.40596 | 17.76920 | 105° | 15km/h | 24595m | -19.7m/s | -50.2°C | 3.4% | 0hPa | 2.7V | 00:00:00 | 02:00:45 | 00:00:00 | |
| PETON7-10 | 2026-09-02 12:46:33 | 49.40602 | 17.76905 | 138° | 15km/h | 24660m | -21.1m/s | -49.9°C | 3.3% | 0hPa | 2.7V | 00:00:00 | 00:00:00 | 00:00:00 | |
| SP3WXH-11 | 2026-09-02 12:46:32 | 49.40605 | 17.76901 | 141° | 15km/h | 24682m | -24.3m/s | -50.1°C | 0.7% | -1.0hPa | 2.6V | 00:00:00 | 00:00:00 | 00:00:00 | |
| OE5MMP-10 | 2026-09-02 12:46:29 | 49.40615 | 17.76891 | 150° | 15km/h | 24751m | -22.6m/s | -50.2°C | 3.4% | 0hPa | 2.6V | 00:00:00 | 02:00:38 | 00:00:00 | |
| DO3MHA-11 | 2026-09-02 12:46:26 | 49.40625 | 17.76884 | 163° | 15km/h | 24815m | -20.8m/s | -50.0°C | 3.3% | 0hPa | 2.6V | 00:00:00 | 02:00:35 | 00:00:00 | |
| PG1ADW-2 | 2026-09-02 12:46:24 | 49.40632 | 17.76880 | 160° | 15km/h | 24861m | -21.6m/s | -50.0°C | 3.3% | 0hPa | 2.6V | 00:00:00 | 00:00:00 | 00:00:00 | |
| OE5DRO-10 | 2026-09-02 12:46:22 | 49.40640 | 17.76876 | 156° | 15km/h | 24906m | -22.1m/s | -49.9°C | 3.2% | 0hPa | 2.6V | 00:00:00 | 00:00:00 | 00:00:00 | |
| OE5DXL-15 | 2026-09-02 12:46:20 | 49.40646 | 17.76870 | 151° | 9km/h | 24953m | -23.0m/s | -49.7°C | 3.2% | 0hPa | 2.6V | 00:00:00 | 00:00:00 | 00:00:00 | |
| OE5MMP-10 | 2026-09-02 12:46:19 | 49.40649 | 17.76867 | 146° | 13km/h | 24977m | -24.3m/s | -49.7°C | 3.2% | 0hPa | 2.6V | 00:00:00 | 02:00:28 | 00:00:00 | |
| PETON7-10 | 2026-09-02 12:46:18 | 49.40652 | 17.76864 | 143° | 13km/h | 25003m | -27.9m/s | -49.8°C | 3.2% | 0hPa | 2.6V | 00:00:00 | 00:00:00 | 00:00:00 | |
| DO3MHA-11 | 2026-09-02 12:46:16 | 49.40657 | 17.76858 | 139° | 13km/h | 25054m | -22.7m/s | -50.0°C | 3.3% | 0hPa | 2.6V | 08:25:00 | 02:00:25 | 00:00:00 | |
| OE5MMP-10 | 2026-09-02 12:46:09 | 49.40672 | 17.76831 | 134° | 13km/h | 25213m | -19.4m/s | -49.9°C | 3.4% | 0hPa | 2.6V | 00:00:00 | 02:00:18 | 00:00:00 | |
| OK1SLM-15 | 2026-09-02 12:46:07 | 49.40678 | 17.76824 | 153° | 16km/h | 25257m | -22.9m/s | -50.1°C | 0.8% | 0hPa | 2.6V | 00:00:00 | 00:00:00 | 00:00:00 | |
| DO3MHA-11 | 2026-09-02 12:46:06 | 49.40682 | 17.76821 | 158° | 9km/h | 25280m | -23.6m/s | -50.1°C | 3.4% | 0hPa | 2.6V | 00:00:00 | 02:00:15 | 00:00:00 | |
| PG1ADW-2 | 2026-09-02 12:46:04 | 49.40689 | 17.76817 | 164° | 7km/h | 25324m | -20.9m/s | -50.3°C | 3.5% | 0hPa | 2.6V | 00:00:00 | 00:00:00 | 00:00:00 | |
| PETON7-10 | 2026-09-02 12:46:03 | 49.40692 | 17.76816 | 167° | 5km/h | 25344m | -18.5m/s | -50.3°C | 3.5% | 0hPa | 2.6V | 00:00:00 | 02:00:12 | 00:00:00 | |
| SP3WXH-11 | 2026-09-02 12:46:01 | 49.40697 | 17.76814 | 171° | 7km/h | 25385m | -20.4m/s | -50.2°C | 0.7% | -1.0hPa | 2.6V | 00:00:00 | 00:00:00 | 00:00:00 | |
| OE3OSB-13 | 2026-09-02 12:45:51 | 49.40702 | 17.76804 | 120° | 7km/h | 25627m | -19.0m/s | -49.1°C | 0.7% | -1.0hPa | 2.6V | 00:00:00 | 00:00:00 | 00:00:00 | |
| SP3BTT-10 | 2026-09-02 12:45:50 | 49.40702 | 17.76804 | 121° | 13km/h | 25627m | -19.0m/s | -49.1°C | 3.3% | 0hPa | 2.6V | 00:00:00 | 00:00:00 | 00:00:00 | |
| OE5MMP-10 | 2026-09-02 12:45:49 | 49.40703 | 17.76801 | 121° | 11km/h | 25647m | -21.2m/s | -48.9°C | 3.3% | 0hPa | 2.6V | 00:00:00 | 01:59:58 | 00:00:00 | |
| PETON7-10 | 2026-09-02 12:45:48 | 49.40704 | 17.76798 | 115° | 15km/h | 25668m | -19.3m/s | -48.9°C | 3.3% | 0hPa | 2.6V | 08:25:00 | 00:00:00 | 00:00:00 | |
| DO3MHA-11 | 2026-09-02 12:45:46 | 49.40705 | 17.76792 | 84° | 13km/h | 25712m | -21.8m/s | -48.6°C | 3.2% | 0hPa | 2.6V | 00:00:00 | 01:59:55 | 00:00:00 | |
| OE5DRO-10 | 2026-09-02 12:45:44 | 49.40704 | 17.76783 | 81° | 13km/h | 25756m | -20.4m/s | -48.3°C | 3.1% | 0hPa | 2.6V | 00:00:00 | 00:00:00 | 00:00:00 | |
| OE5MMP-10 | 2026-09-02 12:45:39 | 49.40705 | 17.76758 | 125° | 15km/h | 25862m | -21.7m/s | -48.5°C | 3.1% | 0hPa | 2.6V | 00:00:00 | 01:59:48 | 00:00:00 | |
| NBG1-10 | 2026-09-02 12:45:38 | 49.40708 | 17.76754 | 141° | 18km/h | 25883m | -19.9m/s | -48.5°C | 3.1% | 0hPa | 2.6V | 00:00:00 | 01:59:47 | 00:00:00 | |
| DO3MHA-11 | 2026-09-02 12:45:36 | 49.40716 | 17.76747 | 166° | 7km/h | 25923m | -21.9m/s | -48.7°C | 3.2% | 0hPa | 2.6V | 00:00:00 | 01:59:45 | 00:00:00 | |
| PETON7-10 | 2026-09-02 12:45:33 | 49.40729 | 17.76745 | 181° | 5km/h | 25988m | -19.5m/s | -48.6°C | 3.2% | 0hPa | 2.6V | 00:00:00 | 00:00:00 | 00:00:00 | |
| SP3WXH-11 | 2026-09-02 12:45:30 | 49.40736 | 17.76749 | 254° | 4km/h | 26052m | -20.9m/s | -48.3°C | 0.6% | -1.0hPa | 2.6V | 00:00:00 | 00:00:00 | 00:00:00 | |
| OE5MMP-10 | 2026-09-02 12:45:29 | 49.40736 | 17.76751 | 294° | 4km/h | 26073m | -20.9m/s | -48.2°C | 3.1% | 0hPa | 2.6V | 00:00:00 | 01:59:38 | 00:00:00 | |
| OE5DRO-10 | 2026-09-02 12:45:26 | 49.40732 | 17.76754 | 358° | 7km/h | 26159m | -21.5m/s | -48.0°C | 3.0% | 0hPa | 2.7V | 08:26:00 | 00:00:00 | 00:00:00 | |
| PG1ADW-2 | 2026-09-02 12:45:24 | 49.40731 | 17.76754 | 83° | 9km/h | 26182m | -23.4m/s | -47.9°C | 3.0% | 0hPa | 2.7V | 00:00:00 | 00:00:00 | 00:00:00 | |
| OE3OSB-13 | 2026-09-02 12:45:20 | 49.40735 | 17.76746 | 107° | 5km/h | 26283m | -20.4m/s | -47.8°C | 0.6% | -1.0hPa | 2.7V | 00:00:00 | 00:00:00 | 00:00:00 | |
| OE5MMP-10 | 2026-09-02 12:45:19 | 49.40734 | 17.76746 | 108° | 11km/h | 26283m | -20.4m/s | -47.8°C | 3.0% | 0hPa | 2.7V | 00:00:00 | 01:59:28 | 00:00:00 | |
| PETON7-10 | 2026-09-02 12:45:18 | 49.40735 | 17.76743 | 85° | 9km/h | 26304m | -21.8m/s | -47.8°C | 3.0% | 0hPa | 2.7V | 00:00:00 | 01:59:27 | 00:00:00 | |
| DO3MHA-11 | 2026-09-02 12:45:15 | 49.40731 | 17.76734 | 48° | 9km/h | 26367m | -21.8m/s | -47.8°C | 3.0% | 0hPa | 2.7V | 00:00:00 | 01:59:24 | 00:00:00 | |
| OE5MMP-10 | 2026-09-02 12:45:09 | 49.40718 | 17.76714 | 90° | 5km/h | 26496m | -22.8m/s | -47.7°C | 3.0% | 0hPa | 2.7V | 00:00:00 | 01:59:18 | 00:00:00 | |
| OE5DRO-10 | 2026-09-02 12:45:06 | 49.40721 | 17.76711 | 171° | 11km/h | 26564m | -21.6m/s | -47.6°C | 3.0% | 0hPa | 2.7V | 00:00:00 | 00:00:00 | 00:00:00 | |
| DO3MHA-11 | 2026-09-02 12:45:05 | 49.40722 | 17.76711 | 184° | 9km/h | 26587m | -24.6m/s | -47.5°C | 3.0% | 0hPa | 2.7V | 00:00:00 | 01:59:14 | 00:00:00 | |
| SP3WXH-11 | 2026-09-02 12:44:59 | 49.40724 | 17.76705 | 53° | 9km/h | 26731m | -23.0m/s | -47.5°C | 0.6% | -1.0hPa | 2.7V | 00:00:00 | 00:00:00 | 00:00:00 | |
| DB0DAN | 2026-09-02 12:44:55 | 49.40719 | 17.76685 | 79° | 16km/h | 26828m | -25.7m/s | -47.4°C | 0.6% | 0hPa | 2.7V | 00:00:00 | 00:00:00 | 00:00:00 | |
| DO3MHA-11 | 2026-09-02 12:44:55 | 49.40719 | 17.76685 | 79° | 13km/h | 26828m | -25.7m/s | -47.3°C | 3.0% | 0hPa | 2.7V | 00:00:00 | 01:59:04 | 00:00:00 | |
| OE5DXL-15 | 2026-09-02 12:44:50 | 49.40719 | 17.76654 | 115° | 11km/h | 26947m | -23.3m/s | -47.2°C | 2.9% | 0hPa | 2.7V | 00:00:00 | 00:00:00 | 00:00:00 | |
| OE5MMP-10 | 2026-09-02 12:44:49 | 49.40721 | 17.76650 | 120° | 7km/h | 26970m | -21.5m/s | -47.1°C | 2.9% | 0hPa | 2.7V | 00:00:00 | 01:58:58 | 00:00:00 | |
| PETON7-10 | 2026-09-02 12:44:48 | 49.40722 | 17.76647 | 139° | 7km/h | 26992m | -23.2m/s | -47.0°C | 2.9% | 0hPa | 2.7V | 00:00:00 | 00:00:00 | 00:00:00 | |
| OE5DRO-10 | 2026-09-02 12:44:47 | 49.40723 | 17.76646 | 173° | 9km/h | 27016m | -23.6m/s | -47.0°C | 2.8% | 0hPa | 2.7V | 00:00:00 | 00:00:00 | 00:00:00 | |
| DO3MHA-11 | 2026-09-02 12:44:45 | 49.40726 | 17.76647 | 224° | 7km/h | 27063m | -23.0m/s | -47.2°C | 2.9% | 0hPa | 2.7V | 08:26:00 | 01:58:54 | 00:00:00 | |
| OE5MMP-10 | 2026-09-02 12:44:39 | 49.40729 | 17.76663 | 282° | 11km/h | 27199m | -23.9m/s | -47.6°C | 3.0% | 0hPa | 2.6V | 00:00:00 | 01:58:48 | 00:00:00 | |
| DO3MHA-11 | 2026-09-02 12:44:35 | 49.40724 | 17.76667 | 11° | 15km/h | 27284m | -22.0m/s | -47.2°C | 3.0% | 0hPa | 2.6V | 00:00:00 | 01:58:44 | 00:00:00 | |
| PETON7-10 | 2026-09-02 12:44:33 | 49.40718 | 17.76665 | 16° | 13km/h | 27328m | -25.2m/s | -47.0°C | 2.9% | 0hPa | 2.6V | 00:00:00 | 01:58:42 | 00:00:00 | |
| OE5MMP-10 | 2026-09-02 12:44:29 | 49.40703 | 17.76655 | 30° | 13km/h | 27420m | -22.8m/s | -46.9°C | 2.9% | 0hPa | 2.6V | 08:27:00 | 01:58:38 | 00:00:00 | |
| OE5DRO-10 | 2026-09-02 12:44:28 | 49.40700 | 17.76652 | 35° | 11km/h | 27441m | -19.6m/s | -46.9°C | 2.9% | 0hPa | 2.6V | 00:00:00 | 00:00:00 | 00:00:00 | |
| DO3MHA-11 | 2026-09-02 12:44:25 | 49.40693 | 17.76641 | 68° | 9km/h | 27505m | -21.3m/s | -47.0°C | 3.0% | 0hPa | 2.7V | 00:00:00 | 01:58:34 | 00:00:00 | |
| OE5DXL-15 | 2026-09-02 12:44:20 | 49.40697 | 17.76623 | 136° | 13km/h | 27611m | -25.6m/s | -46.9°C | 2.9% | 0hPa | 2.7V | 00:00:00 | 00:00:00 | 00:00:00 | |
| OE5MMP-10 | 2026-09-02 12:44:19 | 49.40699 | 17.76621 | 148° | 9km/h | 27636m | -23.4m/s | -46.8°C | 3.0% | 0hPa | 2.7V | 00:00:00 | 01:58:28 | 00:00:00 | |
| OK1SLM-15 | 2026-09-02 12:44:18 | 49.40701 | 17.76619 | 158° | 9km/h | 27659m | -24.6m/s | -46.8°C | 0.6% | 0hPa | 2.7V | 00:00:00 | 00:00:00 | 00:00:00 | |
| OE3OSB-13 | 2026-09-02 12:44:17 | 49.40703 | 17.76618 | 161° | 5km/h | 27683m | -23.6m/s | -46.8°C | 0.6% | -1.0hPa | 2.7V | 00:00:00 | 00:00:00 | 00:00:00 | |
| DO3MHA-11 | 2026-09-02 12:44:15 | 49.40706 | 17.76618 | 211° | 11km/h | 27730m | -23.1m/s | -46.6°C | 2.9% | 0hPa | 2.7V | 00:00:00 | 01:58:24 | 00:00:00 | |
| OK1SLM-15 | 2026-09-02 12:44:12 | 49.40707 | 17.76622 | 267° | 7km/h | 27776m | -21.2m/s | -46.5°C | 0.6% | 0hPa | 2.7V | 00:00:00 | 00:00:00 | 00:00:00 | |
| OE5MMP-10 | 2026-09-02 12:44:09 | 49.40704 | 17.76639 | 313° | 16km/h | 27866m | -24.8m/s | -46.3°C | 2.9% | 0hPa | 2.7V | 00:00:00 | 01:58:18 | 00:00:00 | |
| OK1SLM-15 | 2026-09-02 12:44:07 | 49.40701 | 17.76643 | 315° | 15km/h | 27890m | -23.5m/s | -46.4°C | 0.6% | 0hPa | 2.7V | 00:00:00 | 00:00:00 | 00:00:00 | |
| DO3MHA-11 | 2026-09-02 12:44:05 | 49.40692 | 17.76651 | 352° | 16km/h | 27957m | -25.0m/s | -46.1°C | 2.9% | 0hPa | 2.7V | 00:00:00 | 01:58:14 | 00:00:00 | |
| PETON7-10 | 2026-09-02 12:44:03 | 49.40684 | 17.76650 | 21° | 15km/h | 28006m | -22.8m/s | -45.9°C | 2.8% | 0hPa | 2.7V | 00:00:00 | 00:00:00 | 00:00:00 | |
| SP3WXH-11 | 2026-09-02 12:43:57 | 49.40668 | 17.76619 | 66° | 16km/h | 28149m | -25.0m/s | -45.8°C | 0.5% | -1.0hPa | 2.7V | 00:00:00 | 00:00:00 | 00:00:00 | |
| DO3MHA-11 | 2026-09-02 12:43:55 | 49.40664 | 17.76607 | 65° | 15km/h | 28203m | -25.9m/s | -45.7°C | 2.8% | 0hPa | 2.7V | 00:00:00 | 01:58:04 | 00:00:00 | |
| OE5DXL-15 | 2026-09-02 12:43:50 | 49.40655 | 17.76586 | 52° | 13km/h | 28325m | -24.0m/s | -45.5°C | 2.7% | 0hPa | 2.7V | 00:00:00 | 00:00:00 | 00:00:00 | |
| OE5MMP-10 | 2026-09-02 12:43:49 | 49.40653 | 17.76582 | 60° | 16km/h | 28349m | -24.3m/s | -45.5°C | 2.7% | 0hPa | 2.6V | 00:00:00 | 01:57:58 | 00:00:00 | |
| PETON7-10 | 2026-09-02 12:43:48 | 49.40651 | 17.76577 | 69° | 13km/h | 28373m | -23.3m/s | -45.4°C | 2.7% | 0hPa | 2.6V | 00:00:00 | 01:57:57 | 00:00:00 | |
| NBG1-10 | 2026-09-02 12:43:46 | 49.40649 | 17.76566 | 75° | 16km/h | 28423m | -24.3m/s | -45.4°C | 2.7% | 0hPa | 2.6V | 00:00:00 | 01:57:55 | 00:00:00 | |
| DO3MHA-11 | 2026-09-02 12:43:45 | 49.40648 | 17.76559 | 79° | 13km/h | 28446m | -22.3m/s | -45.5°C | 2.7% | 0hPa | 2.7V | 00:00:00 | 01:57:54 | 00:00:00 | |
| OE5MMP-10 | 2026-09-02 12:43:39 | 49.40644 | 17.76522 | 74° | 7km/h | 28576m | -24.7m/s | -45.6°C | 2.8% | 0hPa | 2.7V | 00:00:00 | 01:57:48 | 00:00:00 | |
| DO3MHA-11 | 2026-09-02 12:43:35 | 49.40639 | 17.76517 | 1° | 9km/h | 28675m | -22.9m/s | -45.7°C | 2.8% | 0hPa | 2.7V | 00:00:00 | 01:57:44 | 00:00:00 | |
| PETON7-10 | 2026-09-02 12:43:33 | 49.40635 | 17.76516 | 7° | 11km/h | 28724m | -26.0m/s | -45.9°C | 2.9% | 0hPa | 2.7V | 08:28:00 | 00:00:00 | 00:00:00 | |
| OE5DRO-10 | 2026-09-02 12:43:31 | 49.40632 | 17.76514 | 36° | 13km/h | 28777m | -24.5m/s | -45.9°C | 2.9% | 0hPa | 2.7V | 00:00:00 | 00:00:00 | 00:00:00 | |
| OE5MMP-10 | 2026-09-02 12:43:29 | 49.40629 | 17.76509 | 68° | 13km/h | 28828m | -27.3m/s | -45.8°C | 2.9% | 0hPa | 2.6V | 00:00:00 | 01:57:38 | 00:00:00 | |
| SP3WXH-11 | 2026-09-02 12:43:26 | 49.40628 | 17.76495 | 81° | 13km/h | 28908m | -27.2m/s | -45.7°C | 0.6% | -1.0hPa | 2.7V | 00:00:00 | 00:00:00 | 00:00:00 | |
| DO3MHA-11 | 2026-09-02 12:43:25 | 49.40627 | 17.76490 | 81° | 13km/h | 28935m | -26.5m/s | -45.7°C | 2.8% | 0hPa | 2.7V | 00:00:00 | 01:57:34 | 00:00:00 | |
| OE5DXL-15 | 2026-09-02 12:43:20 | 49.40620 | 17.76467 | 44° | 15km/h | 29065m | -25.8m/s | -45.2°C | 2.7% | 0hPa | 2.7V | 00:00:00 | 00:00:00 | 00:00:00 | |
| OE5MMP-10 | 2026-09-02 12:43:19 | 49.40618 | 17.76463 | 39° | 13km/h | 29090m | -25.0m/s | -45.2°C | 2.8% | 0hPa | 2.7V | 00:00:00 | 01:57:28 | 00:00:00 | |
| PETON7-10 | 2026-09-02 12:43:18 | 49.40615 | 17.76460 | 29° | 13km/h | 29115m | -26.1m/s | -45.1°C | 2.8% | 0hPa | 2.7V | 00:00:00 | 00:00:00 | 00:00:00 | |
| OK1SLM-15 | 2026-09-02 12:43:16 | 49.40612 | 17.76458 | 24° | 15km/h | 29141m | -24.2m/s | -45.1°C | 0.6% | 0hPa | 2.7V | 00:00:00 | 00:00:00 | 00:00:00 | |
| DO3MHA-11 | 2026-09-02 12:43:15 | 49.40605 | 17.76454 | 23° | 13km/h | 29189m | -24.2m/s | -45.0°C | 2.8% | 0hPa | 2.7V | 08:28:00 | 01:57:24 | 00:00:00 | |
| OE5DRO-10 | 2026-09-02 12:43:12 | 49.40595 | 17.76447 | 32° | 15km/h | 29267m | -26.9m/s | -44.8°C | 2.8% | 0hPa | 2.6V | 00:00:00 | 00:00:00 | 00:00:00 | |
| OK1SLM-15 | 2026-09-02 12:43:10 | 49.40593 | 17.76444 | 41° | 13km/h | 29294m | -26.8m/s | -44.7°C | 0.6% | 0hPa | 2.6V | 00:00:00 | 00:00:00 | 00:00:00 | |
| OE5MMP-10 | 2026-09-02 12:43:09 | 49.40588 | 17.76437 | 52° | 13km/h | 29343m | -23.6m/s | -44.5°C | 2.7% | 0hPa | 2.6V | 00:00:00 | 01:57:18 | 00:00:00 | |
| DO3MHA-11 | 2026-09-02 12:43:05 | 49.40584 | 17.76423 | 67° | 16km/h | 29441m | -27.1m/s | -44.3°C | 2.7% | 0hPa | 2.6V | 00:00:00 | 01:57:14 | 00:00:00 | |
| PETON7-10 | 2026-09-02 12:43:03 | 49.40581 | 17.76414 | 61° | 18km/h | 29492m | -25.0m/s | -44.0°C | 2.7% | 0hPa | 2.6V | 00:00:00 | 01:57:12 | 00:00:00 | |
| OE5MMP-10 | 2026-09-02 12:42:59 | 49.40569 | 17.76393 | 41° | 16km/h | 29585m | -21.8m/s | -43.6°C | 2.6% | 0hPa | 2.6V | 08:28:00 | 01:57:08 | 00:00:00 | |
| NBG1-10 | 2026-09-02 12:42:57 | 49.40562 | 17.76382 | 54° | 18km/h | 29630m | -29.4m/s | -43.3°C | 2.5% | 0hPa | 2.6V | 00:00:00 | 01:57:06 | 00:00:00 | |
| DO3MHA-11 | 2026-09-02 12:42:55 | 49.40558 | 17.76373 | 65° | 18km/h | 29688m | -27.6m/s | -43.0°C | 2.4% | 0hPa | 2.6V | 00:00:00 | 01:57:04 | 00:00:00 | |
| OE5DRO-10 | 2026-09-02 12:42:53 | 49.40554 | 17.76362 | 68° | 16km/h | 29739m | -25.6m/s | -43.0°C | 2.5% | 0hPa | 2.6V | 00:00:00 | 00:00:00 | 00:00:00 | |
| OE5DXL-15 | 2026-09-02 12:42:50 | 49.40550 | 17.76343 | 70° | 13km/h | 29813m | -24.4m/s | -43.0°C | 2.5% | 0hPa | 2.6V | 00:00:00 | 00:00:00 | 00:00:00 | |
| OE5MMP-10 | 2026-09-02 12:42:49 | 49.40549 | 17.76336 | 73° | 18km/h | 29837m | -23.9m/s | -43.1°C | 2.5% | 0hPa | 2.6V | 00:00:00 | 01:56:58 | 00:00:00 | |
| PETON7-10 | 2026-09-02 12:42:48 | 49.40547 | 17.76329 | 71° | 16km/h | 29859m | -21.2m/s | -43.2°C | 2.5% | 0hPa | 2.6V | 00:00:00 | 00:00:00 | 00:00:00 | |
| DO3MHA-11 | 2026-09-02 12:42:45 | 49.40543 | 17.76308 | 74° | 16km/h | 29937m | -26.2m/s | -43.2°C | 2.6% | 0hPa | 2.7V | 00:00:00 | 01:56:54 | 00:00:00 | |
| OE3OSB-13 | 2026-09-02 12:42:44 | 49.40542 | 17.76301 | 69° | 16km/h | 29963m | -27.6m/s | -43.3°C | 0.5% | -1.0hPa | 2.6V | 00:00:00 | 00:00:00 | 00:00:00 | |
| DO3MHA-11 | 2026-09-02 12:42:35 | 49.40532 | 17.76251 | 77° | 15km/h | 30207m | -26.7m/s | -42.6°C | 2.5% | 0hPa | 2.6V | 00:00:00 | 01:56:44 | 00:00:00 | |
| OE5DRO-10 | 2026-09-02 12:42:34 | 49.40532 | 17.76246 | 81° | 11km/h | 30233m | -26.0m/s | -42.6°C | 2.5% | 0hPa | 2.6V | 08:29:00 | 00:00:00 | 00:00:00 | |
| PETON7-10 | 2026-09-02 12:42:33 | 49.40532 | 17.76242 | 90° | 9km/h | 30259m | -25.8m/s | -42.6°C | 2.5% | 0hPa | 2.6V | 00:00:00 | 00:00:00 | 00:00:00 | |
| OE5MMP-10 | 2026-09-02 12:42:29 | 49.40537 | 17.76231 | 152° | 9km/h | 30367m | -26.3m/s | -42.2°C | 2.5% | 0hPa | 2.6V | 00:00:00 | 01:56:38 | 00:00:00 | |
| PG1ADW-2 | 2026-09-02 12:42:26 | 49.40548 | 17.76227 | 177° | 13km/h | 30466m | -22.8m/s | -41.9°C | 2.4% | 0hPa | 2.7V | 00:00:00 | 01:56:34 | 00:00:00 | |
| SP3WXH-11 | 2026-09-02 12:42:24 | 49.40549 | 17.76228 | 256° | 2km/h | 30491m | -27.2m/s | -41.9°C | 0.5% | -1.0hPa | 2.7V | 00:00:00 | 00:00:00 | 00:00:00 | |
| OE5DXL-15 | 2026-09-02 12:42:20 | 49.40541 | 17.76231 | 2° | 15km/h | 30585m | -20.1m/s | -41.7°C | 2.4% | 0hPa | 2.7V | 00:00:00 | 00:00:00 | 00:00:00 | |
| OE5MMP-10 | 2026-09-02 12:42:19 | 49.40538 | 17.76230 | 18° | 13km/h | 30605m | -20.7m/s | -41.7°C | 2.4% | 0hPa | 2.7V | 00:00:00 | 01:56:28 | 00:00:00 | |
| PETON7-10 | 2026-09-02 12:42:18 | 49.40535 | 17.76228 | 47° | 16km/h | 30629m | -27.3m/s | -41.6°C | 2.4% | 0hPa | 2.7V | 00:00:00 | 01:56:27 | 00:00:00 | |
| OE5DRO-10 | 2026-09-02 12:42:15 | 49.40531 | 17.76214 | 78° | 15km/h | 30720m | -33.0m/s | -41.3°C | 2.4% | 0hPa | 2.7V | 00:00:00 | 00:00:00 | 00:00:00 | |
| OE3OSB-13 | 2026-09-02 12:42:13 | 49.40530 | 17.76204 | 77° | 11km/h | 30786m | -32.3m/s | -41.1°C | 0.4% | -1.0hPa | 2.7V | 00:00:00 | 00:00:00 | 00:00:00 | |
| OK1SLM-15 | 2026-09-02 12:42:12 | 49.40530 | 17.76204 | 79° | 13km/h | 30786m | -32.3m/s | -41.1°C | 0.5% | 0hPa | 2.7V | 00:00:00 | 00:00:00 | 00:00:00 | |
| OE5MMP-10 | 2026-09-02 12:42:09 | 49.40527 | 17.76186 | 72° | 18km/h | 30906m | -29.2m/s | -40.4°C | 2.3% | 0hPa | 2.7V | 00:00:00 | 01:56:18 | 00:00:00 | |
| PETON7-10 | 2026-09-02 12:42:03 | 49.40518 | 17.76137 | 86° | 13km/h | 31092m | -31.8m/s | -39.2°C | 2.0% | 0hPa | 2.7V | 00:00:00 | 00:00:00 | 00:00:00 | |
| SP3WXH-11 | 2026-09-02 12:41:53 | 49.40522 | 17.76141 | 321° | 7km/h | 31330m | -17.2m/s | -39.7°C | 0.4% | -1.0hPa | 2.7V | 00:00:00 | 00:00:00 | 00:00:00 | |
| OE5DXL-15 | 2026-09-02 12:41:50 | 49.40515 | 17.76134 | 44° | 24km/h | 31400m | -26.5m/s | -39.4°C | 2.2% | 0hPa | 2.7V | 00:00:00 | 00:00:00 | 00:00:00 | |
| OE5MMP-10 | 2026-09-02 12:41:49 | 49.40512 | 17.76129 | 46° | 15km/h | 31426m | -25.1m/s | -39.2°C | 2.1% | 0hPa | 2.7V | 00:00:00 | 01:55:58 | 00:00:00 | |
| PETON7-10 | 2026-09-02 12:41:48 | 49.40509 | 17.76125 | 35° | 27km/h | 31452m | -27.0m/s | -39.1°C | 2.1% | 0hPa | 2.7V | 00:00:00 | 00:00:00 | 00:00:00 | |
| PG1ADW-2 | 2026-09-02 12:41:45 | 49.40499 | 17.76118 | 24° | 22km/h | 31532m | -27.7m/s | -38.6°C | 2.0% | 0hPa | 2.7V | 00:00:00 | 00:00:00 | 00:00:00 | |
| OE3OSB-13 | 2026-09-02 12:41:42 | 49.40494 | 17.76110 | 69° | 13km/h | 31610m | -27.2m/s | -39.0°C | 0.4% | -1.0hPa | 2.7V | 00:00:00 | 00:00:00 | 00:00:00 | |
| OE5MMP-10 | 2026-09-02 12:41:39 | 49.40492 | 17.76086 | 92° | 27km/h | 31679m | -20.2m/s | -38.9°C | 2.2% | 0hPa | 2.7V | 00:00:00 | 01:55:48 | 00:00:00 | |
| OE5DRO-10 | 2026-09-02 12:41:37 | 49.40493 | 17.76054 | 93° | 29km/h | 31719m | -19.9m/s | -38.8°C | 2.1% | 0hPa | 2.7V | 00:00:00 | 00:00:00 | 00:00:00 | |
| PETON7-10 | 2026-09-02 12:41:33 | 49.40495 | 17.75981 | 90° | 24km/h | 31812m | -27.6m/s | -38.2°C | 2.0% | 0hPa | 2.6V | 00:00:00 | 01:55:42 | 00:00:00 | |
| OE5MMP-10 | 2026-09-02 12:41:29 | 49.40494 | 17.75958 | 20° | 26km/h | 31913m | -20.6m/s | -37.8°C | 2.0% | 0hPa | 2.6V | 00:00:00 | 01:55:38 | 08:30:00 | |
| DB0DAN | 2026-09-02 12:41:25 | 49.40498 | 17.75952 | 116° | 16km/h | 32019m | -30.7m/s | -37.2°C | 0.3% | 0hPa | 2.7V | 00:00:00 | 00:00:00 | 00:00:00 | |
| OK1SLM-15 | 2026-09-02 12:41:10 | 49.40505 | 17.75817 | 325° | 4km/h | 32397m | 1.6m/s | -36.8°C | 0.3% | 0hPa | 2.6V | 00:00:00 | 00:00:00 | 00:00:00 | |
| OE5MMP-10 | 2026-09-02 12:41:09 | 49.40504 | 17.75819 | 241° | 16km/h | 32382m | 5.4m/s | -36.7°C | 1.8% | 0hPa | 2.6V | 00:00:00 | 01:55:18 | 00:00:00 | |
| PG1ADW-2 | 2026-09-02 12:41:05 | 49.40513 | 17.75809 | 120° | 16km/h | 32355m | 6.4m/s | -36.8°C | 1.8% | 0hPa | 2.6V | 00:00:00 | 01:55:14 | 00:00:00 | |
| PETON7-10 | 2026-09-02 12:41:03 | 49.40517 | 17.75791 | 90° | 15km/h | 32342m | 6.6m/s | -36.9°C | 1.8% | 0hPa | 2.6V | 00:00:00 | 00:00:00 | 00:00:00 | |
| OE5MMP-10 | 2026-09-02 12:40:59 | 49.40509 | 17.75770 | 37° | 11km/h | 32316m | 6.2m/s | -36.8°C | 1.8% | 0hPa | 2.6V | 00:00:00 | 01:55:08 | 00:00:00 | |
| DB0DAN | 2026-09-02 12:40:55 | 49.40514 | 17.75761 | 141° | 13km/h | 32288m | 5.5m/s | -37°C | 0.3% | 0hPa | 2.7V | 00:00:00 | 00:00:00 | 00:00:00 | |
| SP3WXH-11 | 2026-09-02 12:40:51 | 49.40519 | 17.75746 | 98° | 15km/h | 32260m | 6.2m/s | -37.2°C | 0.3% | -1.0hPa | 2.7V | 00:00:00 | 00:00:00 | 00:00:00 | |
| OE5DXL-15 | 2026-09-02 12:40:50 | 49.40520 | 17.75739 | 104° | 24km/h | 32253m | 8.2m/s | -37.1°C | 1.9% | 0hPa | 2.7V | 00:00:00 | 00:00:00 | 08:30:00 | |
| OE5MMP-10 | 2026-09-02 12:40:49 | 49.40521 | 17.75730 | 109° | 20km/h | 32244m | 8.7m/s | -37.1°C | 1.9% | 0hPa | 2.7V | 00:00:00 | 01:54:58 | 00:00:00 | |
| PETON7-10 | 2026-09-02 12:40:48 | 49.40524 | 17.75720 | 110° | 20km/h | 32237m | 5.9m/s | -37.1°C | 1.9% | 0hPa | 2.7V | 00:00:00 | 01:54:57 | 00:00:00 | |
| PG1ADW-2 | 2026-09-02 12:40:45 | 49.40527 | 17.75693 | 86° | 24km/h | 32216m | 8.9m/s | -37.1°C | 1.9% | 0hPa | 2.7V | 00:00:00 | 00:00:00 | 00:00:00 | |
| DB0DAN | 2026-09-02 12:40:40 | 49.40528 | 17.75664 | 116° | 22km/h | 32179m | 6.8m/s | -37°C | 0.3% | 0hPa | 2.6V | 00:00:00 | 00:00:00 | 00:00:00 | |
| OE3OSB-13 | 2026-09-02 12:40:40 | 49.40528 | 17.75664 | 116° | 22km/h | 32180m | 6.8m/s | -37.0°C | 0.3% | -1.0hPa | 2.7V | 00:00:00 | 00:00:00 | 00:00:00 | |
| OE5MMP-10 | 2026-09-02 12:40:39 | 49.40530 | 17.75656 | 115° | 26km/h | 32173m | 5.7m/s | -37.0°C | 1.9% | 0hPa | 2.7V | 00:00:00 | 01:54:48 | 00:00:00 | |
| OE5DRO-10 | 2026-09-02 12:40:35 | 49.40534 | 17.75624 | 86° | 27km/h | 32145m | 5.9m/s | -37.0°C | 1.8% | 0hPa | 2.7V | 00:00:00 | 00:00:00 | 00:00:00 | |
| PETON7-10 | 2026-09-02 12:40:34 | 49.40534 | 17.75604 | 95° | 27km/h | 32130m | 9.0m/s | -37.0°C | 1.8% | 0hPa | 2.6V | 00:00:00 | 00:00:00 | 00:00:00 | |
| OE5MMP-10 | 2026-09-02 12:40:29 | 49.40536 | 17.75553 | 86° | 27km/h | 32100m | 8.7m/s | -37.0°C | 1.8% | 0hPa | 2.6V | 00:00:00 | 01:54:38 | 00:00:00 | |
| DB0DAN | 2026-09-02 12:40:25 | 49.40536 | 17.75514 | 105° | 26km/h | 32072m | 8.7m/s | -37.2°C | 0.3% | 0hPa | 2.6V | 00:00:00 | 00:00:00 | 00:00:00 | |
| PG1ADW-2 | 2026-09-02 12:40:25 | 49.40536 | 17.75514 | 105° | 26km/h | 32072m | 8.6m/s | -37.2°C | 1.8% | 0hPa | 2.7V | 00:00:00 | 00:00:00 | 00:00:00 | |
| OE5DXL-15 | 2026-09-02 12:40:20 | 49.40546 | 17.75461 | 95° | 26km/h | 32034m | 6.6m/s | -37.2°C | 1.8% | 0hPa | 2.7V | 00:00:00 | 00:00:00 | 00:00:00 | |
| OE5MMP-10 | 2026-09-02 12:40:19 | 49.40547 | 17.75453 | 99° | 22km/h | 32028m | 5.3m/s | -37.2°C | 1.9% | 0hPa | 2.7V | 00:00:00 | 01:54:28 | 00:00:00 | |
| PETON7-10 | 2026-09-02 12:40:18 | 49.40548 | 17.75445 | 106° | 22km/h | 32023m | 6.6m/s | -37.3°C | 1.9% | 0hPa | 2.7V | 00:00:00 | 00:00:00 | 00:00:00 | |
| OE5DRO-10 | 2026-09-02 12:40:16 | 49.40552 | 17.75428 | 117° | 24km/h | 32007m | 7.1m/s | -37.4°C | 1.9% | 0hPa | 2.7V | 00:00:00 | 00:00:00 | 00:00:00 | |
| DB0DAN | 2026-09-02 12:40:10 | 49.40555 | 17.75377 | 87° | 20km/h | 31965m | 6.1m/s | -37.7°C | 0.3% | 0hPa | 2.7V | 00:00:00 | 00:00:00 | 00:00:00 | |
| OE5MMP-10 | 2026-09-02 12:40:09 | 49.40556 | 17.75369 | 102° | 22km/h | 31958m | 8.3m/s | -37.7°C | 1.9% | 0hPa | 2.7V | 00:00:00 | 01:54:18 | 00:00:00 | |
| OK1SLM-15 | 2026-09-02 12:40:05 | 49.40565 | 17.75345 | 136° | 24km/h | 31937m | 6.3m/s | -37.8°C | 0.4% | 0hPa | 2.7V | 00:00:00 | 00:00:00 | 00:00:00 | |
| OE5DRO-10 | 2026-09-02 12:39:57 | 49.40577 | 17.75259 | 86° | 29km/h | 31873m | 8.8m/s | -38.1°C | 1.9% | 0hPa | 2.7V | 00:00:00 | 00:00:00 | 00:00:00 | |
| OE5DXL-15 | 2026-09-02 12:39:50 | 49.40578 | 17.75173 | 102° | 27km/h | 31824m | 5.9m/s | -38.1°C | 1.9% | 0hPa | 2.7V | 00:00:00 | 00:00:00 | 00:00:00 | |
| OE5MMP-10 | 2026-09-02 12:39:49 | 49.40579 | 17.75163 | 101° | 29km/h | 31816m | 8.5m/s | -38.2°C | 1.9% | 0hPa | 2.7V | 00:00:00 | 01:53:58 | 00:00:00 | |
| PETON7-10 | 2026-09-02 12:39:48 | 49.40580 | 17.75154 | 96° | 29km/h | 31807m | 9.3m/s | -38.2°C | 1.9% | 0hPa | 2.7V | 00:00:00 | 00:00:00 | 00:00:00 | |
| OE5MMP-10 | 2026-09-02 12:39:39 | 49.40585 | 17.75053 | 88° | 29km/h | 31742m | 5.2m/s | -38.4°C | 2.0% | 0hPa | 2.7V | 00:00:00 | 01:53:48 | 00:00:00 | |
| OE5DRO-10 | 2026-09-02 12:39:38 | 49.40584 | 17.75045 | 93° | 26km/h | 31737m | 4.8m/s | -38.5°C | 2.0% | 0hPa | 2.7V | 00:00:00 | 00:00:00 | 08:30:00 | |
| PG1ADW-2 | 2026-09-02 12:39:37 | 49.40585 | 17.75036 | 94° | 27km/h | 31731m | 7.1m/s | -38.6°C | 2.0% | 0hPa | 2.7V | 00:00:00 | 01:53:46 | 08:30:00 | |
| PETON7-10 | 2026-09-02 12:39:33 | 49.40581 | 17.74981 | 73° | 24km/h | 31702m | 6.8m/s | -38.7°C | 2.0% | 0hPa | 2.7V | 00:00:00 | 00:00:00 | 00:00:00 | |
| OE5MMP-10 | 2026-09-02 12:39:29 | 49.40576 | 17.74945 | 111° | 22km/h | 31673m | 8.2m/s | -38.8°C | 2.0% | 0hPa | 2.7V | 00:00:00 | 01:53:38 | 00:00:00 | |
| OE5DXL-15 | 2026-09-02 12:39:21 | 49.40569 | 17.74875 | 56° | 16km/h | 31605m | 7.7m/s | -38.7°C | 2.0% | 0hPa | 2.6V | 00:00:00 | 00:00:00 | 00:00:00 | |
| OE5DRO-10 | 2026-09-02 12:39:19 | 49.40565 | 17.74866 | 51° | 16km/h | 31598m | 6.2m/s | -38.7°C | 2.0% | 0hPa | 2.6V | 00:00:00 | 00:00:00 | 00:00:00 | |
| PETON7-10 | 2026-09-02 12:39:18 | 49.40560 | 17.74857 | 45° | 16km/h | 31592m | 6.8m/s | -38.7°C | 2.0% | 0hPa | 2.6V | 00:00:00 | 01:53:27 | 00:00:00 | |
| PG1ADW-2 | 2026-09-02 12:39:17 | 49.40555 | 17.74850 | 37° | 15km/h | 31585m | 7.9m/s | -38.6°C | 2.0% | 0hPa | 2.6V | 00:00:00 | 00:00:00 | 00:00:00 | |
| OK1SLM-15 | 2026-09-02 12:39:11 | 49.40538 | 17.74834 | 67° | 11km/h | 31547m | 6.2m/s | -38.4°C | 0.4% | 0hPa | 2.6V | 00:00:00 | 00:00:00 | 00:00:00 | |
| OE5MMP-10 | 2026-09-02 12:39:09 | 49.40534 | 17.74823 | 45° | 15km/h | 31524m | 7.3m/s | -38.3°C | 1.9% | 0hPa | 2.6V | 00:00:00 | 01:53:18 | 00:00:00 | |
| OE3OSB-13 | 2026-09-02 12:39:07 | 49.40529 | 17.74816 | 39° | 13km/h | 31510m | 7.6m/s | -38.3°C | 0.4% | -1.0hPa | 2.6V | 00:00:00 | 00:00:00 | 00:00:00 | |
| OK1SLM-15 | 2026-09-02 12:39:05 | 49.40526 | 17.74812 | 47° | 16km/h | 31501m | 8.9m/s | -38.4°C | 0.4% | 0hPa | 2.6V | 00:00:00 | 00:00:00 | 00:00:00 | |
| PETON7-10 | 2026-09-02 12:39:03 | 49.40516 | 17.74797 | 39° | 13km/h | 31481m | 7.2m/s | -39.0°C | 2.0% | 0hPa | 2.6V | 00:00:00 | 00:00:00 | 08:30:00 | |
| SP3WXH-11 | 2026-09-02 12:38:47 | 49.40471 | 17.74810 | 81° | 0km/h | 31360m | 5.5m/s | -39.3°C | 0.4% | -1.0hPa | 2.7V | 00:00:00 | 00:00:00 | 00:00:00 | |
| NBG1-10 | 2026-09-02 12:38:42 | 49.40464 | 17.74818 | 332° | 15km/h | 31332m | 6.0m/s | -39.4°C | 2.1% | 0hPa | 2.7V | 00:00:00 | 01:52:51 | 08:30:00 | |
| OE5DRO-10 | 2026-09-02 12:38:41 | 49.40461 | 17.74820 | 349° | 11km/h | 31325m | 8.1m/s | -39.4°C | 2.1% | 0hPa | 2.7V | 00:00:00 | 00:00:00 | 00:00:00 | |
| OE5MMP-10 | 2026-09-02 12:38:39 | 49.40454 | 17.74819 | 31° | 9km/h | 31309m | 5.7m/s | -39.5°C | 2.2% | 0hPa | 2.6V | 00:00:00 | 01:52:48 | 00:00:00 | |
| PG1ADW-2 | 2026-09-02 12:38:37 | 49.40450 | 17.74815 | 29° | 13km/h | 31296m | 7.8m/s | -39.3°C | 2.1% | 0hPa | 2.6V | 00:00:00 | 00:00:00 | 00:00:00 | |
| OE3OSB-13 | 2026-09-02 12:38:36 | 49.40451 | 17.74816 | 204° | 7km/h | 31280m | 5.8m/s | -39.2°C | 0.4% | -1.0hPa | 2.7V | 00:00:00 | 00:00:00 | 00:00:00 | |
| PETON7-10 | 2026-09-02 12:38:33 | 49.40457 | 17.74817 | 172° | 13km/h | 31267m | 8.5m/s | -39.0°C | 2.0% | 0hPa | 2.7V | 00:00:00 | 01:52:42 | 00:00:00 | |
| OE5MMP-10 | 2026-09-02 12:38:29 | 49.40462 | 17.74806 | 36° | 15km/h | 31242m | 8.5m/s | -38.9°C | 2.0% | 0hPa | 2.7V | 00:00:00 | 01:52:38 | 08:30:00 | |
| OE5DRO-10 | 2026-09-02 12:38:22 | 49.40452 | 17.74784 | 123° | 20km/h | 31192m | 7.5m/s | -38.9°C | 2.0% | 0hPa | 2.6V | 00:00:00 | 00:00:00 | 00:00:00 | |
| OE5DXL-15 | 2026-09-02 12:38:20 | 49.40458 | 17.74775 | 144° | 20km/h | 31176m | 6.6m/s | -38.8°C | 2.0% | 0hPa | 2.6V | 00:00:00 | 00:00:00 | 00:00:00 | |
| OE5MMP-10 | 2026-09-02 12:38:19 | 49.40460 | 17.74772 | 137° | 20km/h | 31170m | 4.9m/s | -38.8°C | 2.0% | 0hPa | 2.6V | 00:00:00 | 01:52:28 | 00:00:00 | |
| PETON7-10 | 2026-09-02 12:38:18 | 49.40463 | 17.74767 | 124° | 20km/h | 31165m | 5.9m/s | -38.8°C | 2.0% | 0hPa | 2.6V | 00:00:00 | 00:00:00 | 00:00:00 | |
| PG1ADW-2 | 2026-09-02 12:38:17 | 49.40465 | 17.74761 | 110° | 20km/h | 31158m | 8.2m/s | -38.8°C | 2.0% | 0hPa | 2.7V | 00:00:00 | 01:52:26 | 00:00:00 | |
| SP3BTT-10 | 2026-09-02 12:38:16 | 49.40466 | 17.74753 | 92° | 18km/h | 31150m | 7.0m/s | 0°C | 0% | 0hPa | 2.7V | 00:00:00 | 00:00:00 | 08:30:00 | |
| OK1SLM-15 | 2026-09-02 12:38:14 | 49.40465 | 17.74745 | 75° | 24km/h | 31143m | 6.2m/s | -39.0°C | 0.4% | 0hPa | 2.7V | 00:00:00 | 00:00:00 | 00:00:00 | |
| OE5MMP-10 | 2026-09-02 12:38:09 | 49.40443 | 17.74707 | 66° | 18km/h | 31103m | 7.3m/s | -39.1°C | 2.0% | 0hPa | 2.7V | 00:00:00 | 01:52:18 | 00:00:00 | |
| OE3OSB-13 | 2026-09-02 12:38:05 | 49.40445 | 17.74670 | 143° | 13km/h | 31069m | 7.1m/s | -39.1°C | 0.4% | -1.0hPa | 2.7V | 00:00:00 | 00:00:00 | 00:00:00 | |
| OE5DRO-10 | 2026-09-02 12:38:03 | 49.40448 | 17.74667 | 158° | 20km/h | 31063m | 5.7m/s | -39.1°C | 2.0% | 0hPa | 2.7V | 00:00:00 | 00:00:00 | 00:00:00 | |
| OE5MMP-10 | 2026-09-02 12:37:59 | 49.40454 | 17.74648 | 91° | 24km/h | 31038m | 6.4m/s | -39.4°C | 2.0% | 0hPa | 2.7V | 00:00:00 | 01:52:08 | 00:00:00 | |
| PG1ADW-2 | 2026-09-02 12:37:57 | 49.40453 | 17.74629 | 86° | 26km/h | 31026m | 6.5m/s | -39.5°C | 2.0% | 0hPa | 2.7V | 00:00:00 | 00:00:00 | 00:00:00 | |
| OE5DXL-15 | 2026-09-02 12:37:50 | 49.40432 | 17.74577 | 88° | 22km/h | 30980m | 6.1m/s | -40.0°C | 2.1% | 0hPa | 2.7V | 00:00:00 | 00:00:00 | 00:00:00 | |
| OE5MMP-10 | 2026-09-02 12:37:49 | 49.40433 | 17.74569 | 108° | 27km/h | 30973m | 7.6m/s | -40.1°C | 2.1% | 0hPa | 2.7V | 00:00:00 | 01:51:58 | 00:00:00 | |
| PETON7-10 | 2026-09-02 12:37:48 | 49.40435 | 17.74562 | 122° | 24km/h | 30966m | 6.2m/s | -40.1°C | 2.1% | 0hPa | 2.7V | 00:00:00 | 01:51:57 | 00:00:00 | |
| SP3WXH-11 | 2026-09-02 12:37:45 | 49.40436 | 17.74534 | 71° | 29km/h | 30941m | 6.6m/s | -40.4°C | 0% | -1.0hPa | 2.7V | 00:00:00 | 00:00:00 | 00:00:00 | |
| OE5DRO-10 | 2026-09-02 12:37:44 | 49.40436 | 17.74534 | 72° | 24km/h | 30941m | 6.6m/s | -40.3°C | 2.1% | 0hPa | 2.7V | 00:00:00 | 00:00:00 | 00:00:00 | |
| OE5MMP-10 | 2026-09-02 12:37:39 | 49.40420 | 17.74473 | 61° | 18km/h | 30907m | 6.8m/s | -40.6°C | 2.1% | 0hPa | 2.7V | 00:00:00 | 01:51:48 | 00:00:00 | |
| PG1ADW-2 | 2026-09-02 12:37:37 | 49.40414 | 17.74457 | 62° | 18km/h | 30891m | 8.7m/s | -40.7°C | 2.2% | 0hPa | 2.7V | 00:00:00 | 00:00:00 | 00:00:00 | |
| PETON7-10 | 2026-09-02 12:37:33 | 49.40419 | 17.74438 | 161° | 20km/h | 30864m | 9.9m/s | -40.8°C | 2.3% | 0hPa | 2.6V | 00:00:00 | 00:00:00 | 00:00:00 | |
| OE5MMP-10 | 2026-09-02 12:37:27 | 49.40425 | 17.74410 | 55° | 20km/h | 30824m | 4.3m/s | -41.0°C | 2.2% | 0hPa | 2.7V | 00:00:00 | 01:51:36 | 00:00:00 | |
| OE5DRO-10 | 2026-09-02 12:37:25 | 49.40414 | 17.74388 | 51° | 18km/h | 30814m | 6.4m/s | -41.1°C | 2.1% | 0hPa | 2.7V | 00:00:00 | 00:00:00 | 00:00:00 | |
| OE5DXL-15 | 2026-09-02 12:37:20 | 49.40412 | 17.74364 | 138° | 15km/h | 30779m | 9.4m/s | -41.1°C | 2.2% | 0hPa | 2.7V | 00:00:00 | 00:00:00 | 00:00:00 | |
| PETON7-10 | 2026-09-02 12:37:18 | 49.40417 | 17.74354 | 114° | 16km/h | 30765m | 2.5m/s | -41.1°C | 2.3% | 0hPa | 2.7V | 00:00:00 | 00:00:00 | 00:00:00 | |
| PG1ADW-2 | 2026-09-02 12:37:17 | 49.40418 | 17.74349 | 90° | 16km/h | 30762m | 4.0m/s | -41.3°C | 2.3% | 0hPa | 2.7V | 00:00:00 | 00:00:00 | 00:00:00 | |
| SP3WXH-11 | 2026-09-02 12:37:14 | 49.40403 | 17.74346 | 358° | 29km/h | 30733m | 4.8m/s | -41.5°C | 0.4% | -1.0hPa | 2.7V | 00:00:00 | 00:00:00 | 00:00:00 | |
| OK1SLM-15 | 2026-09-02 12:37:10 | 49.40387 | 17.74344 | 11° | 31km/h | 30721m | 8.2m/s | -41.6°C | 0.5% | 0hPa | 2.7V | 00:00:00 | 00:00:00 | 00:00:00 | |
| OE5DRO-10 | 2026-09-02 12:37:06 | 49.40367 | 17.74327 | 52° | 11km/h | 30688m | 5.7m/s | -41.4°C | 2.3% | 0hPa | 2.7V | 00:00:00 | 00:00:00 | 00:00:00 | |
| OK1SLM-15 | 2026-09-02 12:37:05 | 49.40366 | 17.74327 | 52° | 5km/h | 30688m | 5.8m/s | -41.4°C | 0.5% | 0hPa | 2.7V | 00:00:00 | 00:00:00 | 00:00:00 | |
| OE3OSB-13 | 2026-09-02 12:37:03 | 49.40365 | 17.74317 | 69° | 9km/h | 30660m | 6.5m/s | -41.6°C | 0.4% | -1.0hPa | 2.7V | 00:00:00 | 00:00:00 | 00:00:00 | |
| SP3BTT-10 | 2026-09-02 12:37:01 | 49.40364 | 17.74314 | 44° | 20km/h | 30653m | 7.6m/s | 0°C | 0% | 0hPa | 2.7V | 00:00:00 | 00:00:00 | 00:00:00 | |
| PG1ADW-2 | 2026-09-02 12:36:57 | 49.40347 | 17.74312 | 359° | 9km/h | 30624m | 8.1m/s | -41.7°C | 2.3% | 0hPa | 2.7V | 00:00:00 | 01:51:06 | 00:00:00 | |
| OE5MMP-10 | 2026-09-02 12:36:56 | 49.40343 | 17.74311 | 6° | 9km/h | 30617m | 6.0m/s | -41.7°C | 2.3% | 0hPa | 2.7V | 00:00:00 | 01:51:05 | 08:30:00 | |
| OE5DXL-15 | 2026-09-02 12:36:50 | 49.40346 | 17.74313 | 185° | 9km/h | 30576m | 6.4m/s | -41.6°C | 2.3% | 0hPa | 2.7V | 00:00:00 | 00:00:00 | 00:00:00 | |
| PETON7-10 | 2026-09-02 12:36:48 | 49.40351 | 17.74310 | 127° | 9km/h | 30561m | 8.3m/s | -41.6°C | 2.3% | 0hPa | 2.7V | 00:00:00 | 00:00:00 | 08:30:00 | |
| OE5DRO-10 | 2026-09-02 12:36:47 | 49.40351 | 17.74306 | 94° | 9km/h | 30554m | 5.2m/s | -41.7°C | 2.3% | 0hPa | 2.6V | 00:00:00 | 00:00:00 | 08:30:00 | |
| OE5MMP-10 | 2026-09-02 12:36:46 | 49.40351 | 17.74302 | 73° | 7km/h | 30548m | 6.5m/s | -41.7°C | 2.2% | 0hPa | 2.7V | 00:00:00 | 01:50:55 | 00:00:00 | |
| SP3WXH-11 | 2026-09-02 12:36:43 | 49.40344 | 17.74298 | 340° | 4km/h | 30520m | 6.1m/s | -41.9°C | 0.4% | -1.0hPa | 2.7V | 00:00:00 | 00:00:00 | 00:00:00 | |
| PG1ADW-2 | 2026-09-02 12:36:37 | 49.40350 | 17.74293 | 174° | 11km/h | 30485m | 8.4m/s | -41.9°C | 2.3% | 0hPa | 2.7V | 00:00:00 | 00:00:00 | 08:30:00 | |
| OE5MMP-10 | 2026-09-02 12:36:36 | 49.40352 | 17.74293 | 182° | 11km/h | 30477m | 6.5m/s | -41.8°C | 2.3% | 0hPa | 2.6V | 00:00:00 | 01:50:45 | 00:00:00 | |
| PETON7-10 | 2026-09-02 12:36:33 | 49.40357 | 17.74288 | 110° | 11km/h | 30457m | 8.3m/s | -41.9°C | 2.3% | 0hPa | 2.6V | 00:00:00 | 00:00:00 | 00:00:00 | |
| OE3OSB-13 | 2026-09-02 12:36:31 | 49.40357 | 17.74276 | 81° | 15km/h | 30443m | 6.0m/s | -42.0°C | 0.5% | -1.0hPa | 2.6V | 00:00:00 | 00:00:00 | 00:00:00 | |
| OE5DRO-10 | 2026-09-02 12:36:28 | 49.40353 | 17.74264 | 35° | 13km/h | 30422m | 5.5m/s | -42.0°C | 2.3% | 0hPa | 2.6V | 00:00:00 | 00:00:00 | 00:00:00 | |
| OE5MMP-10 | 2026-09-02 12:36:26 | 49.40351 | 17.74261 | 103° | 11km/h | 30411m | 7.0m/s | -42.0°C | 2.3% | 0hPa | 2.6V | 00:00:00 | 01:50:35 | 00:00:00 | |
| S52SK | 2026-09-02 12:36:24 | 49.40352 | 17.74259 | 133° | 9km/h | 30403m | 7.6m/s | -42.1°C | 0.5% | 0hPa | 2.6V | 00:00:00 | 00:00:00 | 00:00:00 | |
| OE5DXL-15 | 2026-09-02 12:36:20 | 49.40367 | 17.74247 | 166° | 15km/h | 30368m | 6.6m/s | -42.1°C | 2.4% | 0hPa | 2.6V | 00:00:00 | 00:00:00 | 08:30:00 | |
| PETON7-10 | 2026-09-02 12:36:18 | 49.40369 | 17.74242 | 93° | 13km/h | 30357m | 5.6m/s | -42.2°C | 2.4% | 0hPa | 2.6V | 00:00:00 | 01:50:27 | 00:00:00 | |
| PG1ADW-2 | 2026-09-02 12:36:17 | 49.40369 | 17.74237 | 91° | 16km/h | 30350m | 7.8m/s | -42.2°C | 2.3% | 0hPa | 2.6V | 00:00:00 | 00:00:00 | 00:00:00 | |
| OE5MMP-10 | 2026-09-02 12:36:16 | 49.40369 | 17.74230 | 96° | 15km/h | 30342m | 7.8m/s | -42.2°C | 2.3% | 0hPa | 2.6V | 00:00:00 | 01:50:25 | 00:00:00 | |
| SP3WXH-11 | 2026-09-02 12:36:12 | 49.40374 | 17.74196 | 88° | 4km/h | 30310m | 6.9m/s | -42.4°C | 0.5% | -1.0hPa | 2.6V | 00:00:00 | 00:00:00 | 00:00:00 | |
| OE5DRO-10 | 2026-09-02 12:36:09 | 49.40373 | 17.74193 | 74° | 15km/h | 30296m | 7.5m/s | -42.4°C | 2.4% | 0hPa | 2.6V | 00:00:00 | 00:00:00 | 00:00:00 | |
| OE5MMP-10 | 2026-09-02 12:36:06 | 49.40374 | 17.74181 | 99° | 18km/h | 30274m | 6.5m/s | -42.3°C | 2.4% | 0hPa | 2.6V | 00:00:00 | 01:50:15 | 00:00:00 | |
| PETON7-10 | 2026-09-02 12:36:03 | 49.40375 | 17.74166 | 105° | 16km/h | 30252m | 5.3m/s | -42.3°C | 2.4% | 0hPa | 2.6V | 00:00:00 | 00:00:00 | 00:00:00 | |
| OE3OSB-13 | 2026-09-02 12:36:00 | 49.40381 | 17.74142 | 109° | 27km/h | 30232m | 7.8m/s | -42.4°C | 0.5% | -1.0hPa | 2.7V | 00:00:00 | 00:00:00 | 00:00:00 | |
| PG1ADW-2 | 2026-09-02 12:35:57 | 49.40384 | 17.74116 | 86° | 20km/h | 30212m | 8.0m/s | -42.4°C | 2.3% | 0hPa | 2.7V | 00:00:00 | 00:00:00 | 00:00:00 | |
| OE5MMP-10 | 2026-09-02 12:35:56 | 49.40383 | 17.74112 | 50° | 15km/h | 30204m | 8.1m/s | -42.3°C | 2.3% | 0hPa | 2.7V | 00:00:00 | 01:50:05 | 00:00:00 | |
| OE5DRO-10 | 2026-09-02 12:35:50 | 49.40372 | 17.74092 | 89° | 22km/h | 30164m | 6.6m/s | -42.4°C | 2.4% | 0hPa | 2.7V | 00:00:00 | 00:00:00 | 00:00:00 | |
| PETON7-10 | 2026-09-02 12:35:48 | 49.40372 | 17.74078 | 91° | 22km/h | 30149m | 7.7m/s | -42.4°C | 2.4% | 0hPa | 2.6V | 00:00:00 | 00:00:00 | 00:00:00 | |
| OE5MMP-10 | 2026-09-02 12:35:46 | 49.40370 | 17.74061 | 71° | 26km/h | 30136m | 6.4m/s | -42.5°C | 2.4% | 0hPa | 2.6V | 00:00:00 | 01:49:55 | 00:00:00 | |
| OK1SLM-15 | 2026-09-02 12:35:43 | 49.40364 | 17.74038 | 69° | 33km/h | 30122m | 7.7m/s | -42.6°C | 0% | 0hPa | 2.6V | 00:00:00 | 00:00:00 | 00:00:00 | |
| SP3WXH-11 | 2026-09-02 12:35:41 | 49.40353 | 17.74006 | 21° | 15km/h | 30094m | 7.5m/s | -42.7°C | 0.5% | -1.0hPa | 2.6V | 00:00:00 | 00:00:00 | 00:00:00 | |
| PG1ADW-2 | 2026-09-02 12:35:37 | 49.40340 | 17.74004 | 15° | 22km/h | 30071m | 6.3m/s | -42.8°C | 2.4% | 0hPa | 2.6V | 00:00:00 | 01:49:46 | 00:00:00 | |
| OE5MMP-10 | 2026-09-02 12:35:36 | 49.40335 | 17.74001 | 41° | 29km/h | 30065m | 6.0m/s | -42.8°C | 2.5% | 0hPa | 2.6V | 00:00:00 | 01:49:45 | 00:00:00 | |
| PETON7-10 | 2026-09-02 12:35:33 | 49.40331 | 17.73979 | 89° | 24km/h | 30041m | 8.3m/s | -42.8°C | 2.5% | 0hPa | 2.6V | 00:00:00 | 01:49:42 | 00:00:00 | |
| OE5DRO-10 | 2026-09-02 12:35:31 | 49.40330 | 17.73956 | 82° | 26km/h | 30027m | 7.2m/s | -42.8°C | 2.4% | 0hPa | 2.6V | 00:00:00 | 00:00:00 | 00:00:00 | |
| OE3OSB-13 | 2026-09-02 12:35:30 | 49.40327 | 17.73926 | 81° | 40km/h | 30010m | 8.7m/s | -42.9°C | 0.5% | -1.0hPa | 2.6V | 00:00:00 | 00:00:00 | 00:00:00 | |
| OE5MMP-10 | 2026-09-02 12:35:26 | 49.40324 | 17.73893 | 74° | 16km/h | 29992m | 7.5m/s | -42.7°C | 2.4% | 0hPa | 2.6V | 00:00:00 | 01:49:35 | 08:30:00 | |
| OK1SLM-15 | 2026-09-02 12:35:25 | 49.40323 | 17.73893 | 75° | 16km/h | 29992m | 7.5m/s | -42.7°C | 0% | 0hPa | 2.7V | 00:00:00 | 00:00:00 | 00:00:00 | |
| OE5DXL-15 | 2026-09-02 12:35:20 | 49.40308 | 17.73881 | 78° | 24km/h | 29947m | 5.0m/s | -42.7°C | 2.5% | 0hPa | 2.7V | 00:00:00 | 00:00:00 | 00:00:00 | |
| PETON7-10 | 2026-09-02 12:35:18 | 49.40307 | 17.73867 | 87° | 26km/h | 29934m | 7.7m/s | -42.7°C | 2.5% | 0hPa | 2.7V | 00:00:00 | 00:00:00 | 00:00:00 | |
| DO3MHA-11 | 2026-09-02 12:35:17 | 49.40306 | 17.73858 | 79° | 27km/h | 29925m | 9.8m/s | -42.7°C | 2.5% | 0hPa | 2.7V | 00:00:00 | 01:49:26 | 00:00:00 | |
| OE5MMP-10 | 2026-09-02 12:35:16 | 49.40304 | 17.73848 | 66° | 29km/h | 29917m | 6.9m/s | -42.6°C | 2.4% | 0hPa | 2.7V | 00:00:00 | 01:49:25 | 00:00:00 | |
| OK1SLM-15 | 2026-09-02 12:35:14 | 49.40300 | 17.73836 | 62° | 37km/h | 29911m | 5.4m/s | -42.7°C | 0% | 0hPa | 2.7V | 00:00:00 | 00:00:00 | 00:00:00 | |
| OE5DRO-10 | 2026-09-02 12:35:12 | 49.40286 | 17.73797 | 64° | 26km/h | 29891m | 6.9m/s | -42.7°C | 2.4% | 0hPa | 2.7V | 00:00:00 | 00:00:00 | 00:00:00 | |
| OK1SLM-15 | 2026-09-02 12:35:10 | 49.40279 | 17.73777 | 61° | 22km/h | 29878m | 7.3m/s | -42.7°C | 0% | 0hPa | 2.7V | 00:00:00 | 00:00:00 | 00:00:00 | |
| DO3MHA-11 | 2026-09-02 12:35:07 | 49.40270 | 17.73764 | 22° | 27km/h | 29854m | 4.6m/s | -42.5°C | 2.5% | 0hPa | 2.7V | 00:00:00 | 01:49:16 | 00:00:00 | |
| OE5MMP-10 | 2026-09-02 12:35:06 | 49.40266 | 17.73761 | 37° | 27km/h | 29849m | 5.3m/s | -42.5°C | 2.5% | 0hPa | 2.6V | 00:00:00 | 01:49:15 | 00:00:00 | |
| PETON7-10 | 2026-09-02 12:35:03 | 49.40261 | 17.73742 | 89° | 22km/h | 29824m | 6.3m/s | -42.4°C | 2.4% | 0hPa | 2.6V | 00:00:00 | 00:00:00 | 00:00:00 | |
| OE3OSB-13 | 2026-09-02 12:34:58 | 49.40251 | 17.73680 | 62° | 35km/h | 29792m | 6.5m/s | -42.6°C | 0.5% | -1.0hPa | 2.6V | 00:00:00 | 00:00:00 | 00:00:00 | |
| PG1ADW-2 | 2026-09-02 12:34:57 | 49.40247 | 17.73668 | 65° | 22km/h | 29785m | 7.9m/s | -42.4°C | 2.4% | 0hPa | 2.6V | 00:00:00 | 00:00:00 | 00:00:00 | |
| OE5MMP-10 | 2026-09-02 12:34:56 | 49.40245 | 17.73658 | 71° | 15km/h | 29777m | 8.0m/s | -42.4°C | 2.4% | 0hPa | 2.6V | 00:00:00 | 01:49:05 | 00:00:00 | |
| S52SK | 2026-09-02 12:34:55 | 49.40245 | 17.73658 | 71° | 26km/h | 29777m | 8.0m/s | -42.4°C | 0.5% | 0hPa | 2.7V | 00:00:00 | 00:00:00 | 00:00:00 | |
| OE5DRO-10 | 2026-09-02 12:34:53 | 49.40242 | 17.73638 | 83° | 20km/h | 29753m | 8.9m/s | -42.3°C | 2.3% | 0hPa | 2.7V | 00:00:00 | 00:00:00 | 00:00:00 | |
| OE5DXL-15 | 2026-09-02 12:34:50 | 49.40239 | 17.73630 | 50° | 22km/h | 29732m | 7.6m/s | -42.2°C | 2.4% | 0hPa | 2.6V | 00:00:00 | 00:00:00 | 00:00:00 | |
| S52SK | 2026-09-02 12:34:49 | 49.40239 | 17.73630 | 50° | 9km/h | 29732m | 7.7m/s | -42.2°C | 0.5% | 0hPa | 2.6V | 00:00:00 | 00:00:00 | 00:00:00 | |
| DO3MHA-11 | 2026-09-02 12:34:48 | 49.40233 | 17.73614 | 63° | 27km/h | 29709m | 6.0m/s | -42.2°C | 2.4% | 0hPa | 2.6V | 00:00:00 | 01:48:56 | 00:00:00 | |
| SP3WXH-11 | 2026-09-02 12:34:39 | 49.40184 | 17.73553 | 43° | 13km/h | 29640m | 8.3m/s | -42.4°C | 0.5% | -1.0hPa | 2.6V | 00:00:00 | 00:00:00 | 00:00:00 | |
| PG1ADW-2 | 2026-09-02 12:34:38 | 49.40182 | 17.73549 | 40° | 18km/h | 29632m | 7.8m/s | -42.3°C | 2.3% | 0hPa | 2.6V | 00:00:00 | 00:00:00 | 00:00:00 | |
| DO3MHA-11 | 2026-09-02 12:34:37 | 49.40182 | 17.73549 | 40° | 24km/h | 29632m | 7.8m/s | -42.3°C | 2.3% | 0hPa | 2.6V | 00:00:00 | 01:48:46 | 08:30:00 | |
| OE5MMP-10 | 2026-09-02 12:34:36 | 49.40179 | 17.73545 | 40° | 24km/h | 29626m | 5.8m/s | -42.4°C | 2.3% | 0hPa | 2.6V | 00:00:00 | 01:48:45 | 00:00:00 | |
| OE5DRO-10 | 2026-09-02 12:34:34 | 49.40172 | 17.73535 | 49° | 18km/h | 29611m | 8.4m/s | -42.5°C | 2.4% | 0hPa | 2.6V | 00:00:00 | 00:00:00 | 00:00:00 | |
| PETON7-10 | 2026-09-02 12:34:33 | 49.40169 | 17.73528 | 61° | 18km/h | 29603m | 8.8m/s | -42.6°C | 2.4% | 0hPa | 2.6V | 00:00:00 | 00:00:00 | 08:30:00 | |
| DO3MHA-11 | 2026-09-02 12:34:27 | 49.40147 | 17.73475 | 48° | 13km/h | 29561m | 7.0m/s | -42.9°C | 2.4% | 0hPa | 2.7V | 00:00:00 | 01:48:36 | 00:00:00 | |
| OE5MMP-10 | 2026-09-02 12:34:26 | 49.40144 | 17.73469 | 55° | 13km/h | 29553m | 8.9m/s | -42.9°C | 2.4% | 0hPa | 2.7V | 00:00:00 | 01:48:35 | 00:00:00 | |
| OE3JTB-15 | 2026-09-02 12:34:24 | 49.40139 | 17.73447 | 38° | 22km/h | 29516m | 6.2m/s | -43.0°C | 2.4% | 0hPa | 2.7V | 00:00:00 | 00:00:00 | 00:00:00 | |
| OE5DXL-15 | 2026-09-02 12:34:20 | 49.40137 | 17.73445 | 27° | 18km/h | 29510m | 6.1m/s | -43.1°C | 2.4% | 0hPa | 2.6V | 00:00:00 | 00:00:00 | 00:00:00 | |
| PETON7-10 | 2026-09-02 12:34:18 | 49.40132 | 17.73441 | 46° | 18km/h | 29495m | 8.8m/s | -43.1°C | 2.4% | 0hPa | 2.6V | 00:00:00 | 00:00:00 | 00:00:00 | |
| DO3MHA-11 | 2026-09-02 12:34:17 | 49.40130 | 17.73436 | 60° | 22km/h | 29487m | 7.3m/s | -43.2°C | 2.4% | 0hPa | 2.6V | 00:00:00 | 01:48:26 | 00:00:00 | |
| OE5MMP-10 | 2026-09-02 12:34:16 | 49.40127 | 17.73429 | 60° | 22km/h | 29481m | 6.2m/s | -43.3°C | 2.5% | 0hPa | 2.6V | 00:00:00 | 01:48:25 | 00:00:00 | |
| OE5DRO-10 | 2026-09-02 12:34:15 | 49.40124 | 17.73421 | 55° | 16km/h | 29474m | 7.4m/s | -43.3°C | 2.5% | 0hPa | 2.6V | 00:00:00 | 00:00:00 | 00:00:00 | |
| DB0DAN | 2026-09-02 12:34:10 | 49.40099 | 17.73386 | 47° | 18km/h | 29436m | 7.9m/s | -43.7°C | 0.5% | 0hPa | 2.6V | 00:00:00 | 00:00:00 | 00:00:00 | |
| SP3WXH-11 | 2026-09-02 12:34:08 | 49.40092 | 17.73372 | 40° | 11km/h | 29415m | 7.2m/s | -43.7°C | 0.5% | -1.0hPa | 2.6V | 00:00:00 | 00:00:00 | 00:00:00 | |
| OE5MMP-10 | 2026-09-02 12:34:07 | 49.40089 | 17.73370 | 25° | 13km/h | 29409m | 5.6m/s | -43.7°C | 2.5% | 0hPa | 2.6V | 00:00:00 | 01:48:15 | 00:00:00 | |
| DO3MHA-11 | 2026-09-02 12:34:06 | 49.40089 | 17.73370 | 25° | 13km/h | 29409m | 5.6m/s | -43.7°C | 2.5% | 0hPa | 2.6V | 00:00:00 | 01:48:15 | 00:00:00 | |
| PETON7-10 | 2026-09-02 12:34:03 | 49.40084 | 17.73366 | 60° | 16km/h | 29389m | 6.7m/s | -43.6°C | 2.5% | 0hPa | 2.7V | 00:00:00 | 01:48:12 | 00:00:00 | |
| PG1ADW-2 | 2026-09-02 12:33:57 | 49.40073 | 17.73340 | 51° | 22km/h | 29348m | 7.2m/s | -43.7°C | 2.5% | 0hPa | 2.7V | 00:00:00 | 00:00:00 | 00:00:00 | |
| OE5DRO-10 | 2026-09-02 12:33:56 | 49.40071 | 17.73333 | 61° | 16km/h | 29340m | 8.9m/s | -43.7°C | 2.6% | 0hPa | 2.7V | 00:00:00 | 00:00:00 | 08:30:00 | |
| OE5DXL-15 | 2026-09-02 12:33:50 | 49.40051 | 17.73293 | 20° | 16km/h | 29298m | 6.9m/s | -44.0°C | 2.4% | 0hPa | 2.7V | 00:00:00 | 00:00:00 | 00:00:00 | |
| PETON7-10 | 2026-09-02 12:33:48 | 49.40046 | 17.73291 | 20° | 16km/h | 29283m | 8.0m/s | -44.0°C | 2.5% | 0hPa | 2.7V | 00:00:00 | 00:00:00 | 00:00:00 | |
| OE5MMP-10 | 2026-09-02 12:33:46 | 49.40044 | 17.73289 | 19° | 16km/h | 29268m | 7.1m/s | -44.0°C | 2.5% | 0hPa | 2.6V | 00:00:00 | 01:47:55 | 00:00:00 | |
| SP3WXH-11 | 2026-09-02 12:33:37 | 49.40007 | 17.73253 | 33° | 24km/h | 29199m | 6.0m/s | -44.7°C | 0.5% | -1.0hPa | 2.6V | 00:00:00 | 00:00:00 | 00:00:00 | |
| OE5MMP-10 | 2026-09-02 12:33:36 | 49.40007 | 17.73253 | 34° | 11km/h | 29199m | 5.9m/s | -44.6°C | 2.6% | 0hPa | 2.6V | 00:00:00 | 01:47:45 | 00:00:00 | |
| SP3BTT-10 | 2026-09-02 12:33:34 | 49.39999 | 17.73244 | 44° | 11km/h | 29184m | 8.1m/s | 0°C | 0% | 0hPa | 2.6V | 00:00:00 | 00:00:00 | 00:00:00 | |
| PETON7-10 | 2026-09-02 12:33:33 | 49.39997 | 17.73241 | 59° | 16km/h | 29177m | 6.3m/s | -44.6°C | 2.6% | 0hPa | 2.6V | 00:00:00 | 00:00:00 | 00:00:00 | |
| GYPAP8-17 | 2026-09-02 12:33:28 | 49.39991 | 17.73242 | 351° | 11km/h | 29143m | 6.9m/s | 0°C | 0% | 0hPa | 2.6V | 00:00:00 | 00:00:00 | 00:00:00 | |
| OE5MMP-10 | 2026-09-02 12:33:26 | 49.39985 | 17.73238 | 44° | 20km/h | 29128m | 6.9m/s | -44.6°C | 2.6% | 0hPa | 2.6V | 00:00:00 | 01:47:35 | 00:00:00 | |
| NBG1-10 | 2026-09-02 12:33:25 | 49.39982 | 17.73232 | 49° | 18km/h | 29120m | 7.2m/s | -44.7°C | 2.6% | 0hPa | 2.6V | 00:00:00 | 01:47:34 | 00:00:00 | |
| OE5DXL-15 | 2026-09-02 12:33:20 | 49.39956 | 17.73196 | 42° | 16km/h | 29086m | 7.7m/s | -44.6°C | 2.6% | 0hPa | 2.6V | 00:00:00 | 00:00:00 | 00:00:00 | |
| OE5DRO-10 | 2026-09-02 12:33:18 | 49.39951 | 17.73189 | 49° | 16km/h | 29073m | 6.9m/s | -44.7°C | 2.6% | 0hPa | 2.7V | 00:00:00 | 00:00:00 | 00:00:00 | |
| OE5MMP-10 | 2026-09-02 12:33:16 | 49.39948 | 17.73187 | 347° | 16km/h | 29058m | 6.6m/s | -44.8°C | 2.6% | 0hPa | 2.7V | 00:00:00 | 01:47:25 | 00:00:00 | |
| HA6NAB-11 | 2026-09-02 12:33:14 | 49.39946 | 17.73188 | 352° | 9km/h | 29052m | 5.2m/s | -44.8°C | 0.6% | 0hPa | 2.7V | 00:00:00 | 00:00:00 | 00:00:00 | |
| S52SK | 2026-09-02 12:33:10 | 49.39936 | 17.73175 | 75° | 22km/h | 29024m | 5.5m/s | -44.9°C | 0.6% | 0hPa | 2.7V | 00:00:00 | 00:00:00 | 00:00:00 | |
| OE3JTB-15 | 2026-09-02 12:33:08 | 49.39927 | 17.73133 | 68° | 16km/h | 28991m | 5.8m/s | -45.1°C | 2.7% | 0hPa | 2.7V | 00:00:00 | 01:47:15 | 00:00:00 | |
| SP3WXH-11 | 2026-09-02 12:33:06 | 49.39925 | 17.73125 | 75° | 22km/h | 28984m | 7.9m/s | -45.3°C | 0.6% | -1.0hPa | 2.7V | 00:00:00 | 00:00:00 | 00:00:00 | |
| PETON7-10 | 2026-09-02 12:33:03 | 49.39925 | 17.73108 | 102° | 15km/h | 28970m | 6.1m/s | -45.3°C | 2.7% | 0hPa | 2.7V | 00:00:00 | 00:00:00 | 00:00:00 | |
| HA6NAB-11 | 2026-09-02 12:33:02 | 49.39925 | 17.73109 | 103° | 18km/h | 28970m | 6.1m/s | -45.4°C | 0.6% | 0hPa | 2.6V | 00:00:00 | 00:00:00 | 00:00:00 | |
| OE3OSB-13 | 2026-09-02 12:32:54 | 49.39912 | 17.73075 | 48° | 20km/h | 28908m | 7.6m/s | -45.5°C | 0.6% | -1.0hPa | 2.6V | 00:00:00 | 00:00:00 | 00:00:00 | |
| OE5DXL-15 | 2026-09-02 12:32:50 | 49.39897 | 17.73054 | 50° | 9km/h | 28881m | 8.3m/s | -45.5°C | 2.8% | 0hPa | 2.6V | 00:00:00 | 00:00:00 | 00:00:00 | |
| PETON7-10 | 2026-09-02 12:32:48 | 49.39895 | 17.73044 | 85° | 11km/h | 28867m | 6.5m/s | -45.5°C | 2.8% | 0hPa | 2.6V | 00:00:00 | 00:00:00 | 00:00:00 | |
| DO3MHA-11 | 2026-09-02 12:32:46 | 49.39894 | 17.73039 | 82° | 11km/h | 28852m | 7.1m/s | -45.5°C | 2.7% | 0hPa | 2.6V | 00:00:00 | 01:46:55 | 00:00:00 | |
| OE5DRO-10 | 2026-09-02 12:32:40 | 49.39886 | 17.73040 | 31° | 11km/h | 28811m | 6.5m/s | -45.6°C | 2.8% | 0hPa | 2.6V | 00:00:00 | 00:00:00 | 00:00:00 | |
| OE5MMP-10 | 2026-09-02 12:32:36 | 49.39870 | 17.73029 | 28° | 9km/h | 28786m | 7.2m/s | -45.7°C | 2.9% | 0hPa | 2.6V | 00:00:00 | 01:46:45 | 00:00:00 | |
| SP3WXH-11 | 2026-09-02 12:32:34 | 49.39865 | 17.73022 | 65° | 11km/h | 28770m | 5.4m/s | -45.7°C | 0.6% | -1.0hPa | 2.6V | 00:00:00 | 00:00:00 | 00:00:00 | |
| PETON7-10 | 2026-09-02 12:32:33 | 49.39864 | 17.73018 | 70° | 7km/h | 28765m | 6.3m/s | -45.7°C | 2.8% | 0hPa | 2.6V | 00:00:00 | 01:46:42 | 00:00:00 | |
| SP3BTT-10 | 2026-09-02 12:32:29 | 49.39858 | 17.73013 | 324° | 9km/h | 28737m | 6.2m/s | 0°C | 0% | 0hPa | 2.6V | 00:00:00 | 00:00:00 | 00:00:00 | |
| OE5MMP-10 | 2026-09-02 12:32:26 | 49.39855 | 17.73015 | 49° | 9km/h | 28716m | 5.7m/s | -45.6°C | 2.8% | 0hPa | 2.6V | 00:00:00 | 01:46:35 | 08:30:00 | |
| OE3OSB-13 | 2026-09-02 12:32:23 | 49.39851 | 17.73009 | 31° | 9km/h | 28694m | 6.1m/s | -45.5°C | 0.6% | -1.0hPa | 2.6V | 00:00:00 | 00:00:00 | 00:00:00 | |
| OE5DRO-10 | 2026-09-02 12:32:21 | 49.39847 | 17.73004 | 51° | 9km/h | 28681m | 7.3m/s | -45.3°C | 2.8% | 0hPa | 2.6V | 00:00:00 | 00:00:00 | 00:00:00 | |
| OE5DXL-15 | 2026-09-02 12:32:20 | 49.39846 | 17.73001 | 76° | 13km/h | 28673m | 8.0m/s | -45.3°C | 2.8% | 0hPa | 2.6V | 00:00:00 | 00:00:00 | 00:00:00 | |
| PETON7-10 | 2026-09-02 12:32:18 | 49.39846 | 17.72993 | 92° | 9km/h | 28660m | 6.4m/s | -45.2°C | 2.8% | 0hPa | 2.6V | 00:00:00 | 00:00:00 | 08:30:00 | |
| OE5MMP-10 | 2026-09-02 12:32:16 | 49.39845 | 17.72989 | 29° | 9km/h | 28646m | 6.6m/s | -45.2°C | 2.7% | 0hPa | 2.7V | 00:00:00 | 01:46:25 | 00:00:00 | |
| OK1SLM-15 | 2026-09-02 12:32:12 | 49.39840 | 17.72984 | 70° | 7km/h | 28617m | 6.0m/s | -45.2°C | 0% | 0hPa | 2.7V | 00:00:00 | 00:00:00 | 00:00:00 | |
| OE5MMP-10 | 2026-09-02 12:32:06 | 49.39829 | 17.72962 | 66° | 16km/h | 28577m | 8.6m/s | -45.2°C | 2.8% | 0hPa | 2.7V | 00:00:00 | 01:46:15 | 00:00:00 | |
| OK1SLM-15 | 2026-09-02 12:32:05 | 49.39829 | 17.72962 | 66° | 15km/h | 28577m | 8.6m/s | -45.2°C | 0% | 0hPa | 2.7V | 00:00:00 | 00:00:00 | 00:00:00 | |
| SP3WXH-11 | 2026-09-02 12:32:04 | 49.39829 | 17.72947 | 97° | 13km/h | 28556m | 7.7m/s | -45.3°C | 0.6% | -1.0hPa | 2.7V | 00:00:00 | 00:00:00 | 00:00:00 | |
| PETON7-10 | 2026-09-02 12:32:03 | 49.39829 | 17.72947 | 98° | 16km/h | 28557m | 7.6m/s | -45.2°C | 2.7% | 0hPa | 2.7V | 00:00:00 | 00:00:00 | 00:00:00 | |
| OE3OSB-13 | 2026-09-02 12:31:52 | 49.39798 | 17.72890 | 37° | 13km/h | 28479m | 7.9m/s | -45.1°C | 0.6% | -1.0hPa | 2.7V | 00:00:00 | 00:00:00 | 00:00:00 | |
| OE5DXL-15 | 2026-09-02 12:31:50 | 49.39795 | 17.72882 | 80° | 16km/h | 28465m | 6.5m/s | -45.0°C | 2.7% | 0hPa | 2.7V | 00:00:00 | 00:00:00 | 08:30:00 | |
| PETON7-10 | 2026-09-02 12:31:48 | 49.39795 | 17.72875 | 89° | 18km/h | 28450m | 8.5m/s | -45.0°C | 2.7% | 0hPa | 2.6V | 00:00:00 | 01:45:57 | 00:00:00 | |
| OE5MMP-10 | 2026-09-02 12:31:46 | 49.39794 | 17.72869 | 70° | 16km/h | 28437m | 6.7m/s | -45.1°C | 2.8% | 0hPa | 2.6V | 00:00:00 | 01:45:55 | 00:00:00 | |
| S52SK | 2026-09-02 12:31:45 | 49.39794 | 17.72870 | 71° | 7km/h | 28437m | 6.7m/s | -45.2°C | 0.6% | 0hPa | 2.6V | 00:00:00 | 00:00:00 | 00:00:00 | |
| SP3BTT-10 | 2026-09-02 12:31:44 | 49.39792 | 17.72863 | 67° | 16km/h | 28423m | 8.2m/s | 0°C | 0% | 0hPa | 2.6V | 00:00:00 | 00:00:00 | 00:00:00 | |
| OE5DRO-10 | 2026-09-02 12:31:43 | 49.39790 | 17.72858 | 61° | 20km/h | 28416m | 5.6m/s | -45.0°C | 2.7% | 0hPa | 2.6V | 00:00:00 | 00:00:00 | 00:00:00 | |
| OE5MMP-10 | 2026-09-02 12:31:36 | 49.39761 | 17.72825 | 59° | 18km/h | 28367m | 6.9m/s | -45.0°C | 2.7% | 0hPa | 2.6V | 00:00:00 | 01:45:45 | 00:00:00 | |
| PETON7-10 | 2026-09-02 12:31:32 | 49.39756 | 17.72798 | 75° | 16km/h | 28340m | 6.4m/s | -45.2°C | 2.7% | 0hPa | 2.6V | 00:00:00 | 00:00:00 | 00:00:00 | |
| OE5MMP-10 | 2026-09-02 12:31:26 | 49.39740 | 17.72763 | 23° | 16km/h | 28295m | 6.0m/s | -45.2°C | 2.7% | 0hPa | 2.6V | 00:00:00 | 01:45:35 | 00:00:00 | |
| OE5DRO-10 | 2026-09-02 12:31:24 | 49.39731 | 17.72758 | 18° | 16km/h | 28282m | 7.0m/s | -45.2°C | 2.7% | 0hPa | 2.7V | 00:00:00 | 00:00:00 | 00:00:00 | |
| OE3OSB-13 | 2026-09-02 12:31:22 | 49.39723 | 17.72741 | 82° | 15km/h | 28253m | 8.4m/s | -45.4°C | 0.6% | -1.0hPa | 2.7V | 00:00:00 | 00:00:00 | 00:00:00 | |
| OE5DXL-15 | 2026-09-02 12:31:20 | 49.39723 | 17.72741 | 83° | 18km/h | 28253m | 8.3m/s | -45.3°C | 2.8% | 0hPa | 2.7V | 00:00:00 | 00:00:00 | 00:00:00 | |
| GYPAP8-17 | 2026-09-02 12:31:19 | 49.39723 | 17.72741 | 83° | 16km/h | 28253m | 8.4m/s | 0°C | 0% | 0hPa | 2.7V | 00:00:00 | 00:00:00 | 00:00:00 | |
| PETON7-10 | 2026-09-02 12:31:17 | 49.39721 | 17.72725 | 72° | 18km/h | 28231m | 6.8m/s | -45.4°C | 2.7% | 0hPa | 2.7V | 00:00:00 | 00:00:00 | 00:00:00 | |
| OE5MMP-10 | 2026-09-02 12:31:16 | 49.39719 | 17.72719 | 71° | 18km/h | 28224m | 8.2m/s | -45.4°C | 2.8% | 0hPa | 2.7V | 00:00:00 | 01:45:25 | 00:00:00 | |
| OE5MMP-10 | 2026-09-02 12:31:06 | 49.39686 | 17.72680 | 45° | 18km/h | 28154m | 6.9m/s | -45.4°C | 2.7% | 0hPa | 2.7V | 00:00:00 | 01:45:15 | 00:00:00 | |
| OE5DRO-10 | 2026-09-02 12:31:05 | 49.39682 | 17.72674 | 41° | 20km/h | 28147m | 7.0m/s | -45.4°C | 2.8% | 0hPa | 2.7V | 00:00:00 | 00:00:00 | 08:30:00 | |
| SP3WXH-11 | 2026-09-02 12:31:01 | 49.39665 | 17.72654 | 45° | 16km/h | 28118m | 7.5m/s | -45.5°C | 0.6% | -1.0hPa | 2.7V | 00:00:00 | 00:00:00 | 00:00:00 | |
| DB0DAN | 2026-09-02 12:30:55 | 49.39643 | 17.72647 | 355° | 18km/h | 28075m | 8.4m/s | -45.6°C | 0.6% | 0hPa | 2.7V | 00:00:00 | 00:00:00 | 00:00:00 | |
| OE5DXL-15 | 2026-09-02 12:30:50 | 49.39615 | 17.72632 | 21° | 18km/h | 28040m | 4.5m/s | -45.6°C | 2.8% | 0hPa | 2.7V | 00:00:00 | 00:00:00 | 00:00:00 | |
| OE5DRO-10 | 2026-09-02 12:30:47 | 49.39598 | 17.72625 | 355° | 20km/h | 28013m | 6.9m/s | -45.4°C | 2.7% | 0hPa | 2.7V | 00:00:00 | 00:00:00 | 00:00:00 | |
| SP3BTT-10 | 2026-09-02 12:30:44 | 49.39596 | 17.72628 | 311° | 15km/h | 28001m | 6.3m/s | 0°C | 0% | 0hPa | 2.7V | 00:00:00 | 00:00:00 | 00:00:00 | |
| OK1SLM-15 | 2026-09-02 12:30:43 | 49.39596 | 17.72628 | 312° | 9km/h | 28001m | 6.3m/s | -45.4°C | 0% | 0hPa | 2.7V | 00:00:00 | 00:00:00 | 00:00:00 | |
| NBG1-10 | 2026-09-02 12:30:39 | 49.39573 | 17.72643 | 358° | 18km/h | 27965m | 8.1m/s | -45.6°C | 2.7% | 0hPa | 2.7V | 00:00:00 | 01:44:48 | 00:00:00 | |
| OK1SLM-15 | 2026-09-02 12:30:37 | 49.39567 | 17.72643 | 11° | 24km/h | 27957m | 6.8m/s | -45.7°C | 0% | 0hPa | 2.6V | 00:00:00 | 00:00:00 | 00:00:00 | |
| OE5MMP-10 | 2026-09-02 12:30:36 | 49.39555 | 17.72638 | 12° | 20km/h | 27943m | 7.2m/s | -45.8°C | 2.8% | 0hPa | 2.6V | 00:00:00 | 01:44:45 | 00:00:00 | |
| PETON7-10 | 2026-09-02 12:30:32 | 49.39538 | 17.72645 | 303° | 16km/h | 27916m | 8.5m/s | -45.9°C | 2.8% | 0hPa | 2.6V | 00:00:00 | 00:00:00 | 00:00:00 | |
| SP3WXH-11 | 2026-09-02 12:30:31 | 49.39535 | 17.72658 | 279° | 20km/h | 27901m | 7.1m/s | -46.0°C | 0.6% | -1.0hPa | 2.6V | 00:00:00 | 00:00:00 | 00:00:00 | |
| OE5DRO-10 | 2026-09-02 12:30:27 | 49.39529 | 17.72688 | 295° | 13km/h | 27880m | 6.0m/s | -46.1°C | 2.8% | 0hPa | 2.6V | 00:00:00 | 00:00:00 | 00:00:00 | |
| OE5MMP-10 | 2026-09-02 12:30:26 | 49.39526 | 17.72697 | 298° | 11km/h | 27874m | 7.0m/s | -46.1°C | 2.9% | 0hPa | 2.6V | 00:00:00 | 01:44:35 | 00:00:00 | |
| OE5DXL-15 | 2026-09-02 12:30:20 | 49.39512 | 17.72713 | 20° | 11km/h | 27828m | 6.2m/s | -46.1°C | 2.8% | 0hPa | 2.7V | 00:00:00 | 00:00:00 | 00:00:00 | |
| S52SK | 2026-09-02 12:30:19 | 49.39508 | 17.72710 | 33° | 5km/h | 27815m | 8.0m/s | -46.2°C | 0.7% | 0hPa | 2.6V | 00:00:00 | 00:00:00 | 00:00:00 | |
| PETON7-10 | 2026-09-02 12:30:18 | 49.39508 | 17.72710 | 6° | 11km/h | 27807m | 6.6m/s | -46.1°C | 2.8% | 0hPa | 2.6V | 00:00:00 | 01:44:26 | 00:00:00 | |
| DO3MHA-11 | 2026-09-02 12:30:17 | 49.39508 | 17.72710 | 268° | 13km/h | 27800m | 6.8m/s | -46.0°C | 2.8% | 0hPa | 2.6V | 00:00:00 | 01:44:25 | 00:00:00 | |
| OE5MMP-10 | 2026-09-02 12:30:16 | 49.39508 | 17.72710 | 268° | 13km/h | 27800m | 6.8m/s | -46.0°C | 2.8% | 0hPa | 2.6V | 00:00:00 | 01:44:25 | 00:00:00 | |
| S52SK | 2026-09-02 12:30:12 | 49.39506 | 17.72726 | 281° | 20km/h | 27778m | 6.9m/s | -46.0°C | 0.6% | 0hPa | 2.6V | 00:00:00 | 00:00:00 | 00:00:00 | |
| OE5DRO-10 | 2026-09-02 12:30:08 | 49.39507 | 17.72753 | 223° | 9km/h | 27741m | 8.9m/s | -46.2°C | 2.9% | 0hPa | 2.6V | 00:00:00 | 00:00:00 | 00:00:00 | |
| OE5MMP-10 | 2026-09-02 12:30:06 | 49.39508 | 17.72751 | 105° | 13km/h | 27727m | 6.7m/s | -46.2°C | 2.9% | 0hPa | 2.6V | 00:00:00 | 01:44:15 | 00:00:00 | |
| SP3WXH-11 | 2026-09-02 12:29:59 | 49.39525 | 17.72746 | 250° | 13km/h | 27676m | 6.4m/s | -46.4°C | 0.6% | -1.0hPa | 2.6V | 00:00:00 | 00:00:00 | 00:00:00 | |
| OE3OSB-13 | 2026-09-02 12:29:48 | 49.39531 | 17.72751 | 154° | 4km/h | 27592m | 7.6m/s | -46.6°C | 0.6% | -1.0hPa | 2.6V | 00:00:00 | 00:00:00 | 00:00:00 | |
| PETON7-10 | 2026-09-02 12:29:47 | 49.39531 | 17.72751 | 155° | 9km/h | 27592m | 7.5m/s | -46.6°C | 2.9% | 0hPa | 2.6V | 00:00:00 | 00:00:00 | 00:00:00 | |
| OE5MMP-10 | 2026-09-02 12:29:46 | 49.39532 | 17.72751 | 73° | 11km/h | 27584m | 7.2m/s | -46.5°C | 3.0% | 0hPa | 2.6V | 00:00:00 | 01:43:55 | 00:00:00 | |
| DO3MHA-11 | 2026-09-02 12:29:36 | 49.39509 | 17.72729 | 15° | 13km/h | 27513m | 8.5m/s | -46.6°C | 2.8% | 0hPa | 2.6V | 00:00:00 | 01:43:45 | 00:00:00 | |
| OE5MMP-10 | 2026-09-02 12:29:34 | 49.39504 | 17.72727 | 22° | 15km/h | 27498m | 5.8m/s | -46.6°C | 2.9% | 0hPa | 2.7V | 00:00:00 | 01:43:43 | 00:00:00 | |
| PETON7-10 | 2026-09-02 12:29:32 | 49.39501 | 17.72725 | 15° | 18km/h | 27484m | 8.9m/s | -46.5°C | 2.9% | 0hPa | 2.7V | 00:00:00 | 01:43:41 | 00:00:00 | |
| OE5DRO-10 | 2026-09-02 12:29:30 | 49.39495 | 17.72722 | 19° | 15km/h | 27469m | 6.3m/s | -46.5°C | 2.9% | 0hPa | 2.7V | 00:00:00 | 00:00:00 | 00:00:00 | |
| SP3BTT-10 | 2026-09-02 12:29:28 | 49.39488 | 17.72717 | 40° | 16km/h | 27454m | 8.8m/s | 0°C | 0% | 0hPa | 2.7V | 00:00:00 | 00:00:00 | 00:00:00 | |
| DO3MHA-11 | 2026-09-02 12:29:26 | 49.39482 | 17.72707 | 50° | 18km/h | 27440m | 6.1m/s | -46.5°C | 2.9% | 0hPa | 2.7V | 00:00:00 | 01:43:35 | 00:00:00 | |
| OE5MMP-10 | 2026-09-02 12:29:24 | 49.39474 | 17.72696 | 32° | 16km/h | 27426m | 6.5m/s | -46.6°C | 2.8% | 0hPa | 2.7V | 00:00:00 | 01:43:33 | 08:30:00 | |
| OK1SLM-15 | 2026-09-02 12:29:23 | 49.39474 | 17.72696 | 33° | 24km/h | 27426m | 6.6m/s | -46.6°C | 0% | 0hPa | 2.6V | 00:00:00 | 00:00:00 | 00:00:00 | |
| OE5DXL-15 | 2026-09-02 12:29:20 | 49.39453 | 17.72686 | 354° | 13km/h | 27396m | 6.5m/s | -46.5°C | 2.9% | 0hPa | 2.6V | 00:00:00 | 00:00:00 | 00:00:00 | |
| OK1SLM-15 | 2026-09-02 12:29:18 | 49.39450 | 17.72688 | 343° | 13km/h | 27389m | 8.0m/s | -46.6°C | 0% | 0hPa | 2.6V | 00:00:00 | 00:00:00 | 00:00:00 | |
| OE3OSB-13 | 2026-09-02 12:29:17 | 49.39442 | 17.72692 | 343° | 7km/h | 27366m | 6.7m/s | -46.6°C | 0.6% | -1.0hPa | 2.6V | 00:00:00 | 00:00:00 | 00:00:00 | |
| DO3MHA-11 | 2026-09-02 12:29:16 | 49.39442 | 17.72692 | 344° | 15km/h | 27366m | 6.6m/s | -46.6°C | 3.0% | 0hPa | 2.6V | 00:00:00 | 01:43:25 | 00:00:00 | |
| OE5MMP-10 | 2026-09-02 12:29:14 | 49.39439 | 17.72692 | 34° | 16km/h | 27351m | 8.5m/s | -46.5°C | 2.9% | 0hPa | 2.6V | 00:00:00 | 01:43:23 | 00:00:00 | |
| OK1SLM-15 | 2026-09-02 12:29:12 | 49.39438 | 17.72690 | 66° | 7km/h | 27344m | 5.6m/s | -46.6°C | 0% | 0hPa | 2.6V | 00:00:00 | 00:00:00 | 00:00:00 | |
| DB0DAN | 2026-09-02 12:29:10 | 49.39432 | 17.72678 | 38° | 22km/h | 27320m | 8.4m/s | -46.7°C | 0.6% | 0hPa | 2.6V | 00:00:00 | 00:00:00 | 00:00:00 | |
| DO3MHA-11 | 2026-09-02 12:29:06 | 49.39409 | 17.72671 | 338° | 9km/h | 27293m | 8.2m/s | -46.6°C | 2.9% | 0hPa | 2.7V | 00:00:00 | 01:43:15 | 00:00:00 | |
| OE5MMP-10 | 2026-09-02 12:29:04 | 49.39404 | 17.72678 | 293° | 9km/h | 27279m | 7.1m/s | -46.7°C | 2.9% | 0hPa | 2.6V | 00:00:00 | 01:43:13 | 00:00:00 | |
| SP3WXH-11 | 2026-09-02 12:28:57 | 49.39404 | 17.72696 | 292° | 11km/h | 27228m | 6.6m/s | -47.0°C | 0.6% | -1.0hPa | 2.6V | 00:00:00 | 00:00:00 | 00:00:00 | |
| DB0DAN | 2026-09-02 12:28:55 | 49.39399 | 17.72702 | 336° | 16km/h | 27214m | 6m/s | -47.1°C | 0.6% | 0hPa | 2.6V | 00:00:00 | 00:00:00 | 00:00:00 | |
| OE3OSB-13 | 2026-09-02 12:28:46 | 49.39388 | 17.72733 | 216° | 24km/h | 27140m | 7.7m/s | -47.1°C | 0.7% | -1.0hPa | 2.7V | 00:00:00 | 00:00:00 | 00:00:00 | |
| OE5MMP-10 | 2026-09-02 12:28:44 | 49.39392 | 17.72740 | 225° | 9km/h | 27134m | 5.7m/s | -47.0°C | 3.0% | 0hPa | 2.7V | 00:00:00 | 01:42:53 | 00:00:00 | |
| S52SK | 2026-09-02 12:28:43 | 49.39392 | 17.72740 | 226° | 24km/h | 27134m | 5.7m/s | -47.1°C | 0.7% | 0hPa | 2.7V | 00:00:00 | 00:00:00 | 00:00:00 | |
| DB0DAN | 2026-09-02 12:28:40 | 49.39401 | 17.72756 | 303° | 2km/h | 27106m | 7m/s | -47.1°C | 0.6% | 0hPa | 2.7V | 00:00:00 | 00:00:00 | 00:00:00 | |
| DO3MHA-11 | 2026-09-02 12:28:36 | 49.39397 | 17.72756 | 348° | 11km/h | 27076m | 5.9m/s | -46.9°C | 2.9% | 0hPa | 2.7V | 00:00:00 | 01:42:45 | 08:30:00 | |
| OE5MMP-10 | 2026-09-02 12:28:34 | 49.39397 | 17.72756 | 143° | 13km/h | 27062m | 7.1m/s | -46.8°C | 2.9% | 0hPa | 2.7V | 00:00:00 | 01:42:43 | 00:00:00 | |
| OE5DRO-10 | 2026-09-02 12:28:33 | 49.39399 | 17.72754 | 156° | 13km/h | 27055m | 6.6m/s | -46.8°C | 2.9% | 0hPa | 2.7V | 00:00:00 | 00:00:00 | 00:00:00 | |
| PETON7-10 | 2026-09-02 12:28:32 | 49.39402 | 17.72752 | 166° | 15km/h | 27048m | 7.3m/s | -46.8°C | 2.9% | 0hPa | 2.7V | 00:00:00 | 00:00:00 | 00:00:00 | |
| DO3MHA-11 | 2026-09-02 12:28:26 | 49.39422 | 17.72756 | 123° | 13km/h | 27005m | 6.6m/s | -46.8°C | 2.9% | 0hPa | 2.6V | 00:00:00 | 01:42:35 | 00:00:00 | |
| OE5MMP-10 | 2026-09-02 12:28:24 | 49.39421 | 17.72749 | 61° | 13km/h | 26989m | 9.8m/s | -46.8°C | 2.9% | 0hPa | 2.6V | 00:00:00 | 01:42:33 | 00:00:00 | |
| OE5DXL-15 | 2026-09-02 12:28:20 | 49.39412 | 17.72731 | 71° | 13km/h | 26959m | 8.0m/s | -46.9°C | 2.8% | 0hPa | 2.7V | 00:00:00 | 00:00:00 | 00:00:00 | |
| PETON7-10 | 2026-09-02 12:28:17 | 49.39413 | 17.72714 | 116° | 15km/h | 26938m | 8.5m/s | -47.1°C | 2.9% | 0hPa | 2.7V | 00:00:00 | 00:00:00 | 00:00:00 | |
| DO3MHA-11 | 2026-09-02 12:28:16 | 49.39414 | 17.72710 | 134° | 15km/h | 26929m | 8.6m/s | -47.1°C | 3.0% | 0hPa | 2.7V | 00:00:00 | 01:42:25 | 00:00:00 | |
| OE5DRO-10 | 2026-09-02 12:28:14 | 49.39417 | 17.72707 | 146° | 15km/h | 26916m | 6.5m/s | -47.1°C | 3.0% | 0hPa | 2.7V | 00:00:00 | 00:00:00 | 08:30:00 | |
| PG1ADW-2 | 2026-09-02 12:28:06 | 49.39404 | 17.72663 | 51° | 13km/h | 26858m | 5.9m/s | -47.3°C | 3.0% | 0hPa | 2.7V | 00:00:00 | 00:00:00 | 08:30:00 | |
| OE5MMP-10 | 2026-09-02 12:28:04 | 49.39398 | 17.72652 | 50° | 11km/h | 26846m | 7.0m/s | -47.3°C | 2.9% | 0hPa | 2.7V | 00:00:00 | 01:42:13 | 00:00:00 | |
| PETON7-10 | 2026-09-02 12:28:02 | 49.39393 | 17.72645 | 24° | 9km/h | 26830m | 6.1m/s | -47.4°C | 3.0% | 0hPa | 2.7V | 00:00:00 | 01:42:11 | 00:00:00 | |
| OK1SLM-15 | 2026-09-02 12:28:00 | 49.39390 | 17.72643 | 18° | 9km/h | 26824m | 6.7m/s | -47.4°C | 0% | 0hPa | 2.7V | 00:00:00 | 00:00:00 | 00:00:00 | |
| OK1SLM-15 | 2026-09-02 12:27:56 | 49.39392 | 17.72631 | 118° | 13km/h | 26789m | 8.9m/s | 0°C | 0% | 0hPa | 2.7V | 00:00:00 | 00:00:00 | 00:00:00 | |
| OE5DRO-10 | 2026-09-02 12:27:55 | 49.39393 | 17.72626 | 98° | 9km/h | 26780m | 7.8m/s | -47.5°C | 3.0% | 0hPa | 2.7V | 00:00:00 | 00:00:00 | 00:00:00 | |
| OE5MMP-10 | 2026-09-02 12:27:54 | 49.39393 | 17.72622 | 85° | 9km/h | 26773m | 5.6m/s | -47.4°C | 3.0% | 0hPa | 2.7V | 00:00:00 | 01:42:03 | 08:30:00 | |
| OE5DXL-15 | 2026-09-02 12:27:50 | 49.39393 | 17.72603 | 93° | 7km/h | 26747m | 6.2m/s | -47.5°C | 3.0% | 0hPa | 2.6V | 00:00:00 | 00:00:00 | 00:00:00 | |
| OK1SLM-15 | 2026-09-02 12:27:49 | 49.39393 | 17.72603 | 94° | 11km/h | 26747m | 6.3m/s | 0°C | 0% | 0hPa | 2.6V | 00:00:00 | 00:00:00 | 00:00:00 | |
| PETON7-10 | 2026-09-02 12:27:47 | 49.39391 | 17.72597 | 4° | 7km/h | 26725m | 6.1m/s | -47.6°C | 3.0% | 0hPa | 2.6V | 00:00:00 | 00:00:00 | 08:30:00 | |
| DO3MHA-11 | 2026-09-02 12:27:46 | 49.39390 | 17.72597 | 342° | 7km/h | 26719m | 7.0m/s | -47.7°C | 3.1% | 0hPa | 2.6V | 00:00:00 | 01:41:55 | 00:00:00 | |
| OE3OSB-13 | 2026-09-02 12:27:44 | 49.39394 | 17.72598 | 173° | 9km/h | 26698m | 7.3m/s | -47.7°C | 0.7% | -1.0hPa | 2.6V | 00:00:00 | 00:00:00 | 00:00:00 | |
| DO3MHA-11 | 2026-09-02 12:27:36 | 49.39408 | 17.72592 | 202° | 7km/h | 26649m | 6.6m/s | -47.6°C | 3.0% | 0hPa | 2.6V | 00:00:00 | 01:41:45 | 00:00:00 | |
| OE5MMP-10 | 2026-09-02 12:27:34 | 49.39408 | 17.72596 | 292° | 9km/h | 26634m | 6.9m/s | -47.5°C | 3.0% | 0hPa | 2.6V | 00:00:00 | 01:41:43 | 00:00:00 | |
| PETON7-10 | 2026-09-02 12:27:32 | 49.39406 | 17.72602 | 294° | 9km/h | 26620m | 7.5m/s | -47.6°C | 3.0% | 0hPa | 2.6V | 00:00:00 | 00:00:00 | 00:00:00 | |
| DO3MHA-11 | 2026-09-02 12:27:26 | 49.39411 | 17.72595 | 93° | 11km/h | 26578m | 6.1m/s | -47.7°C | 3.0% | 0hPa | 2.6V | 00:00:00 | 01:41:35 | 00:00:00 | |
| S52SK | 2026-09-02 12:27:25 | 49.39411 | 17.72595 | 93° | 13km/h | 26578m | 6.2m/s | -47.8°C | 0.7% | 0hPa | 2.6V | 00:00:00 | 00:00:00 | 00:00:00 | |
| OE5MMP-10 | 2026-09-02 12:27:24 | 49.39412 | 17.72585 | 99° | 11km/h | 26563m | 7.0m/s | -47.8°C | 3.1% | 0hPa | 2.6V | 00:00:00 | 01:41:33 | 00:00:00 | |
| OE5DXL-15 | 2026-09-02 12:27:20 | 49.39409 | 17.72576 | 3° | 7km/h | 26536m | 6.8m/s | -47.9°C | 3.1% | 0hPa | 2.6V | 00:00:00 | 00:00:00 | 08:30:00 | |
| S52SK | 2026-09-02 12:27:19 | 49.39409 | 17.72576 | 3° | 9km/h | 26536m | 6.9m/s | -47.9°C | 0.7% | 0hPa | 2.6V | 00:00:00 | 00:00:00 | 00:00:00 | |
| PETON7-10 | 2026-09-02 12:27:17 | 49.39401 | 17.72575 | 14° | 7km/h | 26515m | 4.6m/s | -48.0°C | 3.1% | 0hPa | 2.6V | 00:00:00 | 01:41:26 | 00:00:00 | |
| DO3MHA-11 | 2026-09-02 12:27:16 | 49.39398 | 17.72573 | 19° | 7km/h | 26509m | 7.7m/s | -48.0°C | 3.1% | 0hPa | 2.6V | 00:00:00 | 01:41:25 | 00:00:00 | |
| OE5MMP-10 | 2026-09-02 12:27:14 | 49.39393 | 17.72571 | 21° | 7km/h | 26493m | 6.9m/s | -48.0°C | 3.1% | 0hPa | 2.6V | 00:00:00 | 01:41:23 | 00:00:00 | |
| OE3OSB-13 | 2026-09-02 12:27:12 | 49.39389 | 17.72568 | 34° | 5km/h | 26479m | 7.5m/s | -48.0°C | 0.7% | -1.0hPa | 2.6V | 00:00:00 | 00:00:00 | 00:00:00 | |
| HA6NAB-11 | 2026-09-02 12:27:09 | 49.39388 | 17.72565 | 146° | 5km/h | 26463m | 6.2m/s | -48.0°C | 0.7% | 0hPa | 2.6V | 00:00:00 | 00:00:00 | 00:00:00 | |
| DO3MHA-11 | 2026-09-02 12:27:06 | 49.39391 | 17.72559 | 50° | 5km/h | 26435m | 6.4m/s | -48.2°C | 3.2% | 0hPa | 2.6V | 00:00:00 | 01:41:15 | 08:30:00 | |
| OE5MMP-10 | 2026-09-02 12:27:04 | 49.39389 | 17.72556 | 52° | 7km/h | 26422m | 6.4m/s | -48.1°C | 3.2% | 0hPa | 2.7V | 00:00:00 | 01:41:13 | 00:00:00 | |
| SP3WXH-11 | 2026-09-02 12:26:53 | 49.39392 | 17.72530 | 101° | 7km/h | 26343m | 6.3m/s | -47.9°C | 0.7% | -1.0hPa | 2.7V | 00:00:00 | 00:00:00 | 00:00:00 | |
| OE5DXL-15 | 2026-09-02 12:26:50 | 49.39395 | 17.72523 | 155° | 9km/h | 26324m | 6.3m/s | -47.8°C | 3.0% | 0hPa | 2.7V | 00:00:00 | 01:40:59 | 00:00:00 | |
| PETON7-10 | 2026-09-02 12:26:47 | 49.39399 | 17.72520 | 116° | 5km/h | 26301m | 6.3m/s | -47.9°C | 3.0% | 0hPa | 2.7V | 00:00:00 | 00:00:00 | 00:00:00 | |
| DO3MHA-11 | 2026-09-02 12:26:46 | 49.39399 | 17.72518 | 106° | 4km/h | 26295m | 6.9m/s | -47.8°C | 3.1% | 0hPa | 2.7V | 00:00:00 | 01:40:55 | 00:00:00 | |
| OE5MMP-10 | 2026-09-02 12:26:44 | 49.39400 | 17.72517 | 203° | 4km/h | 26280m | 5.8m/s | -47.9°C | 3.1% | 0hPa | 2.7V | 00:00:00 | 01:40:53 | 00:00:00 | |
| OE3OSB-13 | 2026-09-02 12:26:41 | 49.39400 | 17.72520 | 338° | 4km/h | 26259m | 7.1m/s | -47.9°C | 0.7% | -1.0hPa | 2.7V | 00:00:00 | 00:00:00 | 00:00:00 | |
| OE5DRO-10 | 2026-09-02 12:26:39 | 49.39399 | 17.72519 | 54° | 11km/h | 26245m | 7.0m/s | -47.9°C | 3.1% | 0hPa | 2.7V | 00:00:00 | 00:00:00 | 00:00:00 | |
| DO3MHA-11 | 2026-09-02 12:26:36 | 49.39402 | 17.72520 | 208° | 11km/h | 26226m | 7.4m/s | -48.1°C | 3.1% | 0hPa | 2.7V | 00:00:00 | 01:40:45 | 00:00:00 | |
| OE5MMP-10 | 2026-09-02 12:26:34 | 49.39406 | 17.72524 | 236° | 11km/h | 26210m | 6.4m/s | -48.1°C | 3.1% | 0hPa | 2.7V | 00:00:00 | 01:40:43 | 00:00:00 | |
| PETON7-10 | 2026-09-02 12:26:32 | 49.39408 | 17.72530 | 232° | 15km/h | 26197m | 7.5m/s | -48.2°C | 3.1% | 0hPa | 2.7V | 00:00:00 | 01:40:41 | 00:00:00 | |
| DO3MHA-11 | 2026-09-02 12:26:26 | 49.39423 | 17.72553 | 231° | 18km/h | 26155m | 6.6m/s | -48.2°C | 3.1% | 0hPa | 2.7V | 00:00:00 | 01:40:35 | 00:00:00 | |
| OE5MMP-10 | 2026-09-02 12:26:24 | 49.39427 | 17.72558 | 212° | 20km/h | 26141m | 5.4m/s | -48.1°C | 3.1% | 0hPa | 2.7V | 00:00:00 | 01:40:33 | 08:30:00 | |
| SP3WXH-11 | 2026-09-02 12:26:22 | 49.39434 | 17.72564 | 205° | 16km/h | 26128m | 8.0m/s | -48.2°C | 0.7% | -1.0hPa | 2.7V | 00:00:00 | 00:00:00 | 00:00:00 | |
| OE5DXL-15 | 2026-09-02 12:26:20 | 49.39442 | 17.72569 | 202° | 18km/h | 26113m | 5.7m/s | -48.1°C | 3.1% | 0hPa | 2.7V | 00:00:00 | 00:00:00 | 00:00:00 | |
| PETON7-10 | 2026-09-02 12:26:17 | 49.39458 | 17.72579 | 201° | 22km/h | 26093m | 6.3m/s | -48.1°C | 3.1% | 0hPa | 2.7V | 00:00:00 | 00:00:00 | 00:00:00 | |
| DO3MHA-11 | 2026-09-02 12:26:16 | 49.39465 | 17.72582 | 200° | 22km/h | 26086m | 6.8m/s | -48.1°C | 3.1% | 0hPa | 2.6V | 00:00:00 | 01:40:25 | 00:00:00 | |
| PG1ADW-2 | 2026-09-02 12:26:14 | 49.39476 | 17.72588 | 198° | 16km/h | 26073m | 5.6m/s | -48.1°C | 3.1% | 0hPa | 2.6V | 00:00:00 | 00:00:00 | 00:00:00 | |
| OE3OSB-13 | 2026-09-02 12:26:10 | 49.39494 | 17.72598 | 187° | 20km/h | 26045m | 5.9m/s | -48.1°C | 0.6% | -1.0hPa | 2.6V | 00:00:00 | 00:00:00 | 00:00:00 | |
| NBG1-10 | 2026-09-02 12:26:09 | 49.39499 | 17.72598 | 176° | 13km/h | 26039m | 7.3m/s | -48.2°C | 3.0% | 0hPa | 2.6V | 00:00:00 | 01:40:18 | 00:00:00 | |
| S52SK | 2026-09-02 12:26:07 | 49.39505 | 17.72596 | 161° | 22km/h | 26032m | 6.1m/s | -48.3°C | 0.7% | 0hPa | 2.6V | 00:00:00 | 00:00:00 | 00:00:00 | |
| DO3MHA-11 | 2026-09-02 12:26:06 | 49.39515 | 17.72590 | 161° | 15km/h | 26019m | 7.5m/s | -48.3°C | 3.1% | 0hPa | 2.6V | 00:00:00 | 01:40:15 | 00:00:00 | |
| OE5MMP-10 | 2026-09-02 12:26:04 | 49.39525 | 17.72587 | 180° | 13km/h | 26005m | 5.7m/s | -48.4°C | 3.1% | 0hPa | 2.6V | 00:00:00 | 01:40:13 | 00:00:00 | |
| S52SK | 2026-09-02 12:26:02 | 49.39530 | 17.72587 | 185° | 18km/h | 25999m | 6.4m/s | -48.5°C | 0.8% | 0hPa | 2.6V | 00:00:00 | 00:00:00 | 00:00:00 | |
| SP3WXH-11 | 2026-09-02 12:25:51 | 49.39562 | 17.72567 | 143° | 16km/h | 25916m | 6.4m/s | -48.5°C | 0.7% | -1.0hPa | 2.6V | 00:00:00 | 00:00:00 | 00:00:00 | |
| OE5DXL-15 | 2026-09-02 12:25:50 | 49.39566 | 17.72563 | 142° | 13km/h | 25909m | 7.2m/s | -48.4°C | 3.1% | 0hPa | 2.6V | 00:00:00 | 00:00:00 | 00:00:00 | |
| PETON7-10 | 2026-09-02 12:25:47 | 49.39575 | 17.72549 | 135° | 11km/h | 25889m | 6.8m/s | -48.3°C | 3.2% | 0hPa | 2.7V | 00:00:00 | 01:39:56 | 00:00:00 | |
| DO3MHA-11 | 2026-09-02 12:25:46 | 49.39577 | 17.72546 | 147° | 9km/h | 25882m | 7.2m/s | -48.3°C | 3.2% | 0hPa | 2.7V | 00:00:00 | 01:39:55 | 00:00:00 | |
| OE5MMP-10 | 2026-09-02 12:25:44 | 49.39584 | 17.72540 | 155° | 9km/h | 25870m | 6.3m/s | -48.3°C | 3.1% | 0hPa | 2.7V | 00:00:00 | 01:39:53 | 00:00:00 | |
| OE5DRO-10 | 2026-09-02 12:25:42 | 49.39590 | 17.72535 | 131° | 15km/h | 25855m | 7.7m/s | 0°C | 0% | 0hPa | 2.7V | 00:00:00 | 00:00:00 | 00:00:00 | |
| OE3OSB-13 | 2026-09-02 12:25:39 | 49.39590 | 17.72533 | 285° | 4km/h | 25836m | 7.9m/s | -48.5°C | 0.7% | -1.0hPa | 2.7V | 00:00:00 | 00:00:00 | 00:00:00 | |
| NBG1-10 | 2026-09-02 12:25:36 | 49.39594 | 17.72535 | 158° | 13km/h | 25818m | 7.1m/s | -48.3°C | 3.1% | 0hPa | 2.7V | 00:00:00 | 01:39:45 | 00:00:00 | |
| OE5MMP-10 | 2026-09-02 12:25:34 | 49.39599 | 17.72527 | 117° | 20km/h | 25801m | 6.2m/s | -48.3°C | 3.0% | 0hPa | 2.7V | 00:00:00 | 01:39:43 | 00:00:00 | |
| PETON7-10 | 2026-09-02 12:25:32 | 49.39604 | 17.72511 | 122° | 15km/h | 25788m | 7.9m/s | -48.4°C | 3.0% | 0hPa | 2.7V | 00:00:00 | 00:00:00 | 08:30:00 | |
| DO3MHA-11 | 2026-09-02 12:25:26 | 49.39627 | 17.72472 | 121° | 9km/h | 25747m | 6.6m/s | -48.4°C | 3.1% | 0hPa | 2.6V | 00:00:00 | 01:39:35 | 00:00:00 | |
| OE5MMP-10 | 2026-09-02 12:25:24 | 49.39629 | 17.72468 | 144° | 11km/h | 25734m | 5.0m/s | 0°C | 0% | 0hPa | 2.6V | 00:00:00 | 01:39:33 | 00:00:00 | |
| OE5DRO-10 | 2026-09-02 12:25:23 | 49.39630 | 17.72467 | 137° | 9km/h | 25728m | 6.5m/s | -48.5°C | 3.1% | 0hPa | 2.6V | 00:00:00 | 00:00:00 | 08:30:00 | |
| OE5DXL-15 | 2026-09-02 12:25:20 | 49.39630 | 17.72458 | 86° | 11km/h | 25706m | 6.5m/s | -48.8°C | 3.1% | 0hPa | 2.6V | 00:00:00 | 00:00:00 | 00:00:00 | |
| PETON7-10 | 2026-09-02 12:25:17 | 49.39633 | 17.72443 | 128° | 7km/h | 25685m | 6.0m/s | -49.0°C | 3.1% | 0hPa | 2.6V | 00:00:00 | 00:00:00 | 00:00:00 | |
| DO3MHA-11 | 2026-09-02 12:25:16 | 49.39635 | 17.72438 | 137° | 7km/h | 25678m | 6.7m/s | -49.0°C | 3.1% | 0hPa | 2.6V | 00:00:00 | 01:39:25 | 00:00:00 | |
| OE5MMP-10 | 2026-09-02 12:25:14 | 49.39639 | 17.72433 | 141° | 5km/h | 25664m | 6.0m/s | -49.0°C | 3.1% | 0hPa | 2.6V | 00:00:00 | 01:39:23 | 00:00:00 | |
| OE3OSB-13 | 2026-09-02 12:25:08 | 49.39640 | 17.72435 | 19° | 9km/h | 25616m | 6.9m/s | -49.4°C | 0.7% | -1.0hPa | 2.6V | 00:00:00 | 00:00:00 | 00:00:00 | |
| DO3MHA-11 | 2026-09-02 12:25:06 | 49.39637 | 17.72433 | 23° | 9km/h | 25609m | 7.2m/s | -49.5°C | 3.1% | 0hPa | 2.6V | 00:00:00 | 01:39:15 | 00:00:00 | |
| OE5DRO-10 | 2026-09-02 12:25:05 | 49.39634 | 17.72431 | 22° | 11km/h | 25596m | 6.4m/s | -49.6°C | 3.2% | 0hPa | 2.7V | 00:00:00 | 00:00:00 | 00:00:00 | |
| OE5MMP-10 | 2026-09-02 12:25:04 | 49.39634 | 17.72431 | 22° | 11km/h | 25596m | 6.4m/s | -49.6°C | 3.2% | 0hPa | 2.7V | 00:00:00 | 01:39:13 | 00:00:00 | |
| NBG1-10 | 2026-09-02 12:25:03 | 49.39634 | 17.72431 | 329° | 9km/h | 25589m | 7.3m/s | -49.6°C | 3.2% | 0hPa | 2.7V | 00:00:00 | 01:39:12 | 00:00:00 | |
| SP3WXH-11 | 2026-09-02 12:24:49 | 49.39659 | 17.72442 | 119° | 4km/h | 25484m | 5.9m/s | -50.5°C | 0.8% | -1.0hPa | 2.6V | 00:00:00 | 00:00:00 | 00:00:00 | |
| PETON7-10 | 2026-09-02 12:24:47 | 49.39660 | 17.72441 | 192° | 18km/h | 25478m | 7.1m/s | -50.4°C | 3.5% | 0hPa | 2.6V | 00:00:00 | 00:00:00 | 00:00:00 | |
| DO3MHA-11 | 2026-09-02 12:24:46 | 49.39662 | 17.72442 | 225° | 18km/h | 25470m | 8.0m/s | -50.4°C | 3.5% | 0hPa | 2.7V | 00:00:00 | 01:38:55 | 00:00:00 | |
| OE5DRO-10 | 2026-09-02 12:24:45 | 49.39664 | 17.72447 | 231° | 18km/h | 25463m | 6.4m/s | -50.4°C | 3.5% | 0hPa | 2.7V | 00:00:00 | 00:00:00 | 00:00:00 | |
| OE5MMP-10 | 2026-09-02 12:24:44 | 49.39667 | 17.72453 | 235° | 18km/h | 25457m | 6.9m/s | -50.4°C | 3.5% | 0hPa | 2.7V | 00:00:00 | 01:38:53 | 00:00:00 | |
| OE3OSB-13 | 2026-09-02 12:24:37 | 49.39688 | 17.72468 | 126° | 20km/h | 25409m | 8.3m/s | -50.4°C | 0.8% | -1.0hPa | 2.7V | 00:00:00 | 00:00:00 | 00:00:00 | |
| DO3MHA-11 | 2026-09-02 12:24:36 | 49.39691 | 17.72461 | 114° | 16km/h | 25401m | 9.4m/s | -50.4°C | 3.4% | 0hPa | 2.7V | 00:00:00 | 01:38:45 | 00:00:00 | |
| OE5MMP-10 | 2026-09-02 12:24:34 | 49.39695 | 17.72443 | 111° | 16km/h | 25387m | 5.9m/s | -50.4°C | 3.4% | 0hPa | 2.6V | 00:00:00 | 01:38:43 | 00:00:00 | |
| S52SK | 2026-09-02 12:24:33 | 49.39695 | 17.72442 | 111° | 26km/h | 25387m | 5.9m/s | -50.4°C | 0.9% | 0hPa | 2.6V | 00:00:00 | 00:00:00 | 00:00:00 | |
| PETON7-10 | 2026-09-02 12:24:32 | 49.39701 | 17.72428 | 138° | 11km/h | 25375m | 5.8m/s | -50.4°C | 3.5% | 0hPa | 2.6V | 00:00:00 | 00:00:00 | 00:00:00 | |
| DO3MHA-11 | 2026-09-02 12:24:26 | 49.39717 | 17.72427 | 202° | 9km/h | 25332m | 6.1m/s | -50.4°C | 3.5% | 0hPa | 2.6V | 00:00:00 | 01:38:35 | 00:00:00 | |
| OE5MMP-10 | 2026-09-02 12:24:22 | 49.39721 | 17.72426 | 127° | 11km/h | 25305m | 6.6m/s | -50.3°C | 3.4% | 0hPa | 2.6V | 00:00:00 | 01:38:31 | 00:00:00 | |
| OE5DXL-15 | 2026-09-02 12:24:20 | 49.39724 | 17.72423 | 167° | 15km/h | 25291m | 6.3m/s | -50.1°C | 3.4% | 0hPa | 2.7V | 00:00:00 | 00:00:00 | 00:00:00 | |
| SP3WXH-11 | 2026-09-02 12:24:18 | 49.39736 | 17.72425 | 199° | 16km/h | 25269m | 7.4m/s | -50.0°C | 0.8% | -1.0hPa | 2.6V | 00:00:00 | 00:00:00 | 00:00:00 | |
| PETON7-10 | 2026-09-02 12:24:17 | 49.39736 | 17.72425 | 200° | 15km/h | 25269m | 7.4m/s | -50.0°C | 3.4% | 0hPa | 2.6V | 00:00:00 | 01:38:26 | 00:00:00 | |
| DO3MHA-11 | 2026-09-02 12:24:16 | 49.39739 | 17.72427 | 207° | 13km/h | 25262m | 6.0m/s | -50.0°C | 3.4% | 0hPa | 2.6V | 00:00:00 | 01:38:25 | 00:00:00 | |
| PG1ADW-2 | 2026-09-02 12:24:14 | 49.39745 | 17.72432 | 195° | 13km/h | 25247m | 8.6m/s | -50.0°C | 3.4% | 0hPa | 2.6V | 00:00:00 | 00:00:00 | 00:00:00 | |
| DB0DAN | 2026-09-02 12:24:10 | 49.39752 | 17.72421 | 95° | 11km/h | 25219m | 8.8m/s | -50.4°C | 0.8% | 0hPa | 2.6V | 00:00:00 | 00:00:00 | 00:00:00 | |
| OE5MMP-10 | 2026-09-02 12:24:07 | 49.39753 | 17.72405 | 112° | 16km/h | 25199m | 8.4m/s | -50.4°C | 3.4% | 0hPa | 2.6V | 00:00:00 | 01:38:16 | 00:00:00 | |
| DO3MHA-11 | 2026-09-02 12:24:06 | 49.39755 | 17.72399 | 125° | 15km/h | 25191m | 6.6m/s | -50.3°C | 3.4% | 0hPa | 2.6V | 00:00:00 | 01:38:15 | 08:30:00 | |
| PETON7-10 | 2026-09-02 12:24:02 | 49.39769 | 17.72383 | 170° | 13km/h | 25163m | 6.3m/s | -50.2°C | 3.5% | 0hPa | 2.7V | 00:00:00 | 00:00:00 | 00:00:00 | |
| OE5MMP-10 | 2026-09-02 12:23:57 | 49.39783 | 17.72372 | 114° | 13km/h | 25128m | 7.9m/s | -50.2°C | 3.5% | 0hPa | 2.6V | 00:00:00 | 01:38:06 | 00:00:00 | |
| DO3MHA-11 | 2026-09-02 12:23:56 | 49.39784 | 17.72368 | 108° | 13km/h | 25121m | 6.3m/s | -50.1°C | 3.5% | 0hPa | 2.6V | 00:00:00 | 01:38:05 | 00:00:00 | |
| PG1ADW-2 | 2026-09-02 12:23:54 | 49.39786 | 17.72359 | 116° | 13km/h | 25108m | 6.3m/s | -50.1°C | 3.4% | 0hPa | 2.6V | 00:00:00 | 00:00:00 | 00:00:00 | |
| OK1SLM-15 | 2026-09-02 12:23:51 | 49.39790 | 17.72347 | 117° | 16km/h | 25094m | 7.3m/s | 0°C | 0% | 0hPa | 2.7V | 00:00:00 | 00:00:00 | 00:00:00 | |
| OE5DXL-15 | 2026-09-02 12:23:50 | 49.39793 | 17.72338 | 140° | 15km/h | 25080m | 5.8m/s | -50.1°C | 3.4% | 0hPa | 2.7V | 00:00:00 | 00:00:00 | 00:00:00 | |
| OE5DRO-10 | 2026-09-02 12:23:48 | 49.39797 | 17.72337 | 190° | 15km/h | 25066m | 7.8m/s | -50.0°C | 3.4% | 0hPa | 2.7V | 00:00:00 | 00:00:00 | 00:00:00 | |
| PETON7-10 | 2026-09-02 12:23:47 | 49.39800 | 17.72338 | 200° | 15km/h | 25059m | 6.1m/s | -49.9°C | 3.4% | 0hPa | 2.7V | 00:00:00 | 00:00:00 | 00:00:00 | |
| OE5MMP-10 | 2026-09-02 12:23:46 | 49.39804 | 17.72341 | 205° | 15km/h | 25052m | 6.9m/s | -49.9°C | 3.4% | 0hPa | 2.7V | 00:00:00 | 01:37:55 | 00:00:00 | |
| OK1SLM-15 | 2026-09-02 12:23:45 | 49.39804 | 17.72341 | 205° | 18km/h | 25052m | 7.0m/s | 0°C | 0% | 0hPa | 2.7V | 00:00:00 | 00:00:00 | 00:00:00 | |
| DO3MHA-11 | 2026-09-02 12:23:37 | 49.39833 | 17.72339 | 156° | 16km/h | 24982m | 8.1m/s | -49.9°C | 3.3% | 0hPa | 2.7V | 00:00:00 | 01:37:45 | 00:00:00 | |
| OE5MMP-10 | 2026-09-02 12:23:36 | 49.39833 | 17.72339 | 156° | 16km/h | 24982m | 8.1m/s | -49.9°C | 3.3% | 0hPa | 2.7V | 00:00:00 | 01:37:45 | 00:00:00 | |
| OE3OSB-13 | 2026-09-02 12:23:35 | 49.39840 | 17.72337 | 173° | 15km/h | 24969m | 7.1m/s | -50.0°C | 0.8% | -1.0hPa | 2.7V | 00:00:00 | 00:00:00 | 00:00:00 | |
| PG1ADW-2 | 2026-09-02 12:23:34 | 49.39840 | 17.72336 | 174° | 16km/h | 24969m | 7.1m/s | -50.0°C | 3.3% | 0hPa | 2.7V | 00:00:00 | 00:00:00 | 00:00:00 | |
| PETON7-10 | 2026-09-02 12:23:32 | 49.39849 | 17.72337 | 194° | 16km/h | 24953m | 7.5m/s | -50.0°C | 3.3% | 0hPa | 2.7V | 00:00:00 | 01:37:41 | 00:00:00 | |
| OE5DRO-10 | 2026-09-02 12:23:29 | 49.39860 | 17.72340 | 169° | 16km/h | 24933m | 7.1m/s | -50.1°C | 3.4% | 0hPa | 2.7V | 00:00:00 | 00:00:00 | 00:00:00 | |
| OE5MMP-10 | 2026-09-02 12:23:26 | 49.39870 | 17.72327 | 120° | 15km/h | 24912m | 8.5m/s | -50.2°C | 3.4% | 0hPa | 2.6V | 00:00:00 | 01:37:35 | 00:00:00 | |
| OE5DXL-15 | 2026-09-02 12:23:20 | 49.39884 | 17.72297 | 142° | 16km/h | 24874m | 6.8m/s | -50.3°C | 3.4% | 0hPa | 2.6V | 00:00:00 | 00:00:00 | 00:00:00 | |
| PETON7-10 | 2026-09-02 12:23:17 | 49.39892 | 17.72292 | 183° | 15km/h | 24852m | 7.0m/s | -50.4°C | 3.4% | 0hPa | 2.6V | 00:00:00 | 00:00:00 | 08:30:00 | |
| SP3WXH-11 | 2026-09-02 12:23:16 | 49.39899 | 17.72293 | 178° | 16km/h | 24840m | 5.6m/s | -50.5°C | 0.8% | -1.0hPa | 2.6V | 00:00:00 | 00:00:00 | 00:00:00 | |
| OE5MMP-10 | 2026-09-02 12:23:15 | 49.39899 | 17.72292 | 179° | 18km/h | 24840m | 5.6m/s | -50.5°C | 3.5% | 0hPa | 2.6V | 00:00:00 | 01:37:24 | 08:30:00 | |
| PG1ADW-2 | 2026-09-02 12:23:14 | 49.39903 | 17.72292 | 176° | 16km/h | 24834m | 7.0m/s | -50.5°C | 3.5% | 0hPa | 2.6V | 00:00:00 | 01:37:23 | 00:00:00 | |
| S52SK | 2026-09-02 12:23:12 | 49.39908 | 17.72292 | 177° | 18km/h | 24826m | 8.2m/s | -50.5°C | 0.9% | 0hPa | 2.6V | 00:00:00 | 00:00:00 | 00:00:00 | |
| OE5DRO-10 | 2026-09-02 12:23:10 | 49.39920 | 17.72290 | 171° | 16km/h | 24806m | 7.8m/s | -50.5°C | 3.6% | 0hPa | 2.6V | 00:00:00 | 00:00:00 | 00:00:00 | |
| OE5MMP-10 | 2026-09-02 12:23:06 | 49.39940 | 17.72277 | 160° | 16km/h | 24773m | 5.7m/s | -50.3°C | 3.4% | 0hPa | 2.6V | 00:00:00 | 01:37:14 | 00:00:00 | |
| OE3OSB-13 | 2026-09-02 12:23:04 | 49.39943 | 17.72276 | 161° | 11km/h | 24766m | 6.4m/s | -50.3°C | 0.8% | -1.0hPa | 2.6V | 00:00:00 | 00:00:00 | 00:00:00 | |
| PETON7-10 | 2026-09-02 12:23:02 | 49.39948 | 17.72271 | 143° | 16km/h | 24753m | 6.3m/s | -50.2°C | 3.4% | 0hPa | 2.6V | 00:00:00 | 00:00:00 | 00:00:00 | |
| DO3MHA-11 | 2026-09-02 12:22:56 | 49.39969 | 17.72241 | 128° | 15km/h | 24711m | 6.4m/s | -50.0°C | 3.4% | 0hPa | 2.6V | 00:00:00 | 01:37:05 | 00:00:00 | |
| OE5MMP-10 | 2026-09-02 12:22:55 | 49.39972 | 17.72234 | 117° | 15km/h | 24705m | 6.1m/s | -50.0°C | 3.4% | 0hPa | 2.6V | 00:00:00 | 01:37:04 | 00:00:00 | |
| PG1ADW-2 | 2026-09-02 12:22:54 | 49.39974 | 17.72227 | 106° | 18km/h | 24699m | 6.6m/s | -50.1°C | 3.4% | 0hPa | 2.6V | 00:00:00 | 00:00:00 | 00:00:00 | |
| OE5DRO-10 | 2026-09-02 12:22:51 | 49.39973 | 17.72214 | 54° | 20km/h | 24679m | 7.4m/s | -50.0°C | 3.3% | 0hPa | 2.6V | 00:00:00 | 00:00:00 | 00:00:00 | |
| OE5DXL-15 | 2026-09-02 12:22:50 | 49.39972 | 17.72212 | 52° | 20km/h | 24670m | 9.2m/s | -50.0°C | 3.3% | 0hPa | 2.6V | 00:00:00 | 00:00:00 | 08:30:00 | |
| PETON7-10 | 2026-09-02 12:22:47 | 49.39968 | 17.72199 | 68° | 22km/h | 24649m | 7.2m/s | -50.0°C | 3.3% | 0hPa | 2.6V | 00:00:00 | 01:36:56 | 00:00:00 | |
| DO3MHA-11 | 2026-09-02 12:22:46 | 49.39966 | 17.72193 | 70° | 20km/h | 24642m | 7.6m/s | -50.0°C | 3.3% | 0hPa | 2.6V | 00:00:00 | 01:36:55 | 00:00:00 | |
| SP3WXH-11 | 2026-09-02 12:22:45 | 49.39965 | 17.72181 | 90° | 16km/h | 24628m | 7.5m/s | -50.1°C | 0.8% | -1.0hPa | 2.6V | 00:00:00 | 00:00:00 | 00:00:00 | |
| OE5MMP-10 | 2026-09-02 12:22:43 | 49.39965 | 17.72173 | 97° | 22km/h | 24621m | 6.7m/s | -50.2°C | 3.4% | 0hPa | 2.6V | 00:00:00 | 01:36:52 | 00:00:00 | |
| DO3MHA-11 | 2026-09-02 12:22:36 | 49.39960 | 17.72119 | 36° | 26km/h | 24574m | 6.1m/s | -50.3°C | 3.4% | 0hPa | 2.7V | 00:00:00 | 01:36:45 | 08:30:00 | |
| OE3OSB-13 | 2026-09-02 12:22:34 | 49.39933 | 17.72102 | 17° | 29km/h | 24548m | 5.1m/s | -50.2°C | 0.8% | -1.0hPa | 2.6V | 00:00:00 | 00:00:00 | 00:00:00 | |
| PETON7-10 | 2026-09-02 12:22:32 | 49.39933 | 17.72102 | 18° | 20km/h | 24548m | 5.0m/s | -50.2°C | 3.3% | 0hPa | 2.6V | 00:00:00 | 00:00:00 | 00:00:00 | |
| OK1SLM-15 | 2026-09-02 12:22:28 | 49.39916 | 17.72086 | 60° | 24km/h | 24528m | 6.0m/s | 0°C | 0% | 0hPa | 2.7V | 00:00:00 | 00:00:00 | 00:00:00 | |
| HA6NAB-11 | 2026-09-02 12:22:26 | 49.39913 | 17.72062 | 97° | 18km/h | 24507m | 6.0m/s | -50.4°C | 0.9% | 0hPa | 2.7V | 00:00:00 | 00:00:00 | 00:00:00 | |
| OE5MMP-10 | 2026-09-02 12:22:23 | 49.39912 | 17.72045 | 65° | 16km/h | 24487m | 4.9m/s | -50.5°C | 3.4% | 0hPa | 2.7V | 00:00:00 | 01:36:32 | 00:00:00 | |
| OE5DXL-15 | 2026-09-02 12:22:20 | 49.39904 | 17.72034 | 13° | 20km/h | 24468m | 5.2m/s | -50.5°C | 3.5% | 0hPa | 2.7V | 00:00:00 | 00:00:00 | 00:00:00 | |
| PETON7-10 | 2026-09-02 12:22:17 | 49.39892 | 17.72030 | 25° | 20km/h | 24448m | 4.5m/s | -50.5°C | 3.4% | 0hPa | 2.7V | 00:00:00 | 00:00:00 | 00:00:00 | |
| DO3MHA-11 | 2026-09-02 12:22:16 | 49.39888 | 17.72027 | 41° | 20km/h | 24443m | 5.1m/s | -50.6°C | 3.4% | 0hPa | 2.7V | 00:00:00 | 01:36:25 | 00:00:00 | |
| SP3WXH-11 | 2026-09-02 12:22:14 | 49.39883 | 17.72012 | 85° | 13km/h | 24421m | 6.9m/s | -50.8°C | 0.8% | -1.0hPa | 2.7V | 00:00:00 | 00:00:00 | 00:00:00 | |
| OE5MMP-10 | 2026-09-02 12:22:13 | 49.39883 | 17.72012 | 86° | 20km/h | 24421m | 6.9m/s | -50.8°C | 3.4% | 0hPa | 2.7V | 00:00:00 | 01:36:22 | 00:00:00 | |
| DO3MHA-11 | 2026-09-02 12:22:05 | 49.39852 | 17.71989 | 352° | 22km/h | 24371m | 5.6m/s | -50.9°C | 3.5% | 0hPa | 2.6V | 00:00:00 | 01:36:14 | 00:00:00 | |
| OE5MMP-10 | 2026-09-02 12:22:03 | 49.39838 | 17.71991 | 2° | 20km/h | 24357m | 6.4m/s | -50.9°C | 3.6% | 0hPa | 2.6V | 00:00:00 | 01:36:12 | 00:00:00 | |
| OE3JTB-15 | 2026-09-02 12:22:02 | 49.39814 | 17.71984 | 23° | 18km/h | 24335m | 6.9m/s | -50.8°C | 3.5% | 0hPa | 2.6V | 00:00:00 | 00:00:00 | 00:00:00 | |
| DO3MHA-11 | 2026-09-02 12:21:56 | 49.39797 | 17.71975 | 4° | 22km/h | 24307m | 7.1m/s | -50.9°C | 3.5% | 0hPa | 2.6V | 00:00:00 | 01:36:04 | 00:00:00 | |
| PG1ADW-2 | 2026-09-02 12:21:54 | 49.39793 | 17.71976 | 347° | 20km/h | 24301m | 4.5m/s | -50.8°C | 3.5% | 0hPa | 2.6V | 00:00:00 | 01:36:03 | 08:30:00 | |
| OE5MMP-10 | 2026-09-02 12:21:53 | 49.39788 | 17.71978 | 339° | 20km/h | 24295m | 6.5m/s | -50.8°C | 3.4% | 0hPa | 2.6V | 00:00:00 | 01:36:02 | 00:00:00 | |
| OE5DXL-15 | 2026-09-02 12:21:50 | 49.39770 | 17.71990 | 341° | 16km/h | 24273m | 4.5m/s | -50.8°C | 3.4% | 0hPa | 2.6V | 00:00:00 | 00:00:00 | 00:00:00 | |
| PETON7-10 | 2026-09-02 12:21:47 | 49.39751 | 17.72000 | 337° | 18km/h | 24255m | 6.1m/s | -50.8°C | 3.4% | 0hPa | 2.6V | 00:00:00 | 00:00:00 | 00:00:00 | |
| DO3MHA-11 | 2026-09-02 12:21:45 | 49.39745 | 17.72003 | 357° | 18km/h | 24242m | 7.4m/s | -50.9°C | 3.5% | 0hPa | 2.6V | 00:00:00 | 01:35:54 | 00:00:00 | |
| S52SK | 2026-09-02 12:21:44 | 49.39743 | 17.72003 | 20° | 9km/h | 24236m | 4.1m/s | -51.0°C | 0.9% | 0hPa | 2.6V | 00:00:00 | 00:00:00 | 00:00:00 | |
| OE5MMP-10 | 2026-09-02 12:21:43 | 49.39741 | 17.72001 | 21° | 22km/h | 24231m | 5.8m/s | -51.0°C | 3.5% | 0hPa | 2.6V | 00:00:00 | 01:35:52 | 08:30:00 | |
| S52SK | 2026-09-02 12:21:37 | 49.39722 | 17.72009 | 338° | 27km/h | 24198m | 6.0m/s | -51.4°C | 0.9% | 0hPa | 2.7V | 00:00:00 | 00:00:00 | 00:00:00 | |
| DO3MHA-11 | 2026-09-02 12:21:35 | 49.39702 | 17.72023 | 330° | 13km/h | 24179m | 7.0m/s | -51.3°C | 3.6% | 0hPa | 2.7V | 00:00:00 | 01:35:44 | 00:00:00 | |
| PG1ADW-2 | 2026-09-02 12:21:34 | 49.39696 | 17.72028 | 321° | 11km/h | 24173m | 5.4m/s | -51.4°C | 3.6% | 0hPa | 2.6V | 00:00:00 | 00:00:00 | 00:00:00 | |
| OE5MMP-10 | 2026-09-02 12:21:33 | 49.39692 | 17.72034 | 315° | 9km/h | 24166m | 6.8m/s | -51.3°C | 3.6% | 0hPa | 2.6V | 00:00:00 | 01:35:42 | 00:00:00 | |
| PETON7-10 | 2026-09-02 12:21:32 | 49.39689 | 17.72039 | 310° | 9km/h | 24160m | 7.0m/s | -51.3°C | 3.6% | 0hPa | 2.6V | 00:00:00 | 00:00:00 | 00:00:00 | |
| OE3OSB-13 | 2026-09-02 12:21:31 | 49.39687 | 17.72045 | 259° | 4km/h | 24146m | 7.5m/s | -51.4°C | 0.8% | -1.0hPa | 2.6V | 00:00:00 | 00:00:00 | 00:00:00 | |
| DO3MHA-11 | 2026-09-02 12:21:25 | 49.39694 | 17.72049 | 12° | 9km/h | 24112m | 5.8m/s | -51.2°C | 3.6% | 0hPa | 2.6V | 00:00:00 | 01:35:34 | 00:00:00 | |
| OE5MMP-10 | 2026-09-02 12:21:23 | 49.39690 | 17.72049 | 348° | 11km/h | 24097m | 9.1m/s | -51.2°C | 3.6% | 0hPa | 2.6V | 00:00:00 | 01:35:32 | 00:00:00 | |
| OE5DXL-15 | 2026-09-02 12:21:20 | 49.39681 | 17.72056 | 335° | 15km/h | 24076m | 8.2m/s | -51.2°C | 3.5% | 0hPa | 2.6V | 00:00:00 | 00:00:00 | 00:00:00 | |
| PETON7-10 | 2026-09-02 12:21:17 | 49.39677 | 17.72059 | 242° | 11km/h | 24057m | 7.2m/s | -51.2°C | 3.5% | 0hPa | 2.7V | 00:00:00 | 01:35:26 | 00:00:00 | |
| OE5DRO-10 | 2026-09-02 12:21:16 | 49.39679 | 17.72061 | 211° | 13km/h | 24050m | 6.6m/s | -51.1°C | 3.5% | 0hPa | 2.7V | 00:00:00 | 00:00:00 | 00:00:00 | |
| DO3MHA-11 | 2026-09-02 12:21:15 | 49.39682 | 17.72063 | 199° | 15km/h | 24043m | 6.4m/s | -51.1°C | 3.6% | 0hPa | 2.7V | 00:00:00 | 01:35:24 | 00:00:00 | |
| PG1ADW-2 | 2026-09-02 12:21:14 | 49.39687 | 17.72065 | 191° | 15km/h | 24036m | 8.0m/s | -51.1°C | 3.6% | 0hPa | 2.7V | 00:00:00 | 00:00:00 | 00:00:00 | |
| OE5MMP-10 | 2026-09-02 12:21:13 | 49.39692 | 17.72066 | 178° | 11km/h | 24028m | 6.7m/s | -51.0°C | 3.6% | 0hPa | 2.7V | 00:00:00 | 01:35:22 | 00:00:00 | |
| SP3WXH-11 | 2026-09-02 12:21:12 | 49.39702 | 17.72063 | 163° | 18km/h | 24015m | 7.2m/s | -51.0°C | 0.8% | -1.0hPa | 2.6V | 00:00:00 | 00:00:00 | 00:00:00 | |
| DO3MHA-11 | 2026-09-02 12:21:05 | 49.39714 | 17.72051 | 100° | 15km/h | 23974m | 7.5m/s | -51.0°C | 3.5% | 0hPa | 2.6V | 00:00:00 | 01:35:14 | 08:30:00 | |
| OE5MMP-10 | 2026-09-02 12:21:03 | 49.39715 | 17.72050 | 188° | 20km/h | 23962m | 6.1m/s | -51.1°C | 3.5% | 0hPa | 2.6V | 00:00:00 | 01:35:12 | 00:00:00 | |
| OE3OSB-13 | 2026-09-02 12:20:59 | 49.39726 | 17.72042 | 146° | 22km/h | 23936m | 6.9m/s | -51.2°C | 0.8% | -1.0hPa | 2.6V | 00:00:00 | 00:00:00 | 00:00:00 | |
| OE5DRO-10 | 2026-09-02 12:20:57 | 49.39737 | 17.72032 | 149° | 22km/h | 23921m | 5.2m/s | -51.0°C | 3.6% | 0hPa | 2.6V | 00:00:00 | 00:00:00 | 00:00:00 | |
| DO3MHA-11 | 2026-09-02 12:20:55 | 49.39747 | 17.72020 | 134° | 18km/h | 23909m | 7.2m/s | -51.0°C | 3.6% | 0hPa | 2.6V | 00:00:00 | 01:35:04 | 00:00:00 | |
| PG1ADW-2 | 2026-09-02 12:20:54 | 49.39751 | 17.72012 | 118° | 20km/h | 23903m | 5.8m/s | -51.0°C | 3.7% | 0hPa | 2.6V | 00:00:00 | 00:00:00 | 00:00:00 | |
| OE5MMP-10 | 2026-09-02 12:20:53 | 49.39753 | 17.72003 | 109° | 18km/h | 23897m | 6.7m/s | -51.0°C | 3.7% | 0hPa | 2.6V | 00:00:00 | 01:35:02 | 00:00:00 | |
| OE5DXL-15 | 2026-09-02 12:20:50 | 49.39755 | 17.71981 | 80° | 18km/h | 23875m | 6.5m/s | -50.8°C | 3.6% | 0hPa | 2.6V | 00:00:00 | 00:00:00 | 00:00:00 | |
| PETON7-10 | 2026-09-02 12:20:47 | 49.39753 | 17.71964 | 91° | 20km/h | 23856m | 6.5m/s | -50.8°C | 3.6% | 0hPa | 2.6V | 00:00:00 | 00:00:00 | 00:00:00 | |
| DO3MHA-11 | 2026-09-02 12:20:45 | 49.39756 | 17.71953 | 134° | 24km/h | 23840m | 7.4m/s | -50.7°C | 3.6% | 0hPa | 2.6V | 00:00:00 | 01:34:54 | 00:00:00 | |
| OE5MMP-10 | 2026-09-02 12:20:43 | 49.39765 | 17.71941 | 138° | 24km/h | 23827m | 7.0m/s | -50.7°C | 3.5% | 0hPa | 2.6V | 00:00:00 | 01:34:52 | 00:00:00 | |
| SP3WXH-11 | 2026-09-02 12:20:40 | 49.39782 | 17.71914 | 128° | 31km/h | 23808m | 7.1m/s | -50.6°C | 0.8% | -1.0hPa | 2.6V | 00:00:00 | 00:00:00 | 00:00:00 | |
| OE5DRO-10 | 2026-09-02 12:20:38 | 49.39788 | 17.71898 | 115° | 16km/h | 23796m | 6.8m/s | -50.5°C | 3.4% | 0hPa | 2.6V | 00:00:00 | 00:00:00 | 00:00:00 | |
| DO3MHA-11 | 2026-09-02 12:20:35 | 49.39786 | 17.71883 | 39° | 16km/h | 23775m | 6.9m/s | -50.4°C | 3.4% | 0hPa | 2.7V | 00:00:00 | 01:34:44 | 00:00:00 | |
| PG1ADW-2 | 2026-09-02 12:20:34 | 49.39783 | 17.71880 | 27° | 16km/h | 23768m | 8.0m/s | -50.4°C | 3.4% | 0hPa | 2.7V | 00:00:00 | 01:34:43 | 00:00:00 | |
| OE5MMP-10 | 2026-09-02 12:20:33 | 49.39780 | 17.71878 | 24° | 16km/h | 23761m | 6.3m/s | -50.4°C | 3.5% | 0hPa | 2.7V | 00:00:00 | 01:34:42 | 00:00:00 | |
| PETON7-10 | 2026-09-02 12:20:32 | 49.39777 | 17.71876 | 39° | 16km/h | 23754m | 6.1m/s | -50.4°C | 3.4% | 0hPa | 2.7V | 00:00:00 | 01:34:41 | 00:00:00 | |
| OE3OSB-13 | 2026-09-02 12:20:28 | 49.39776 | 17.71853 | 104° | 20km/h | 23728m | 8.4m/s | -50.4°C | 0.8% | -1.0hPa | 2.7V | 00:00:00 | 00:00:00 | 00:00:00 | |
| DO3MHA-11 | 2026-09-02 12:20:25 | 49.39782 | 17.71831 | 116° | 18km/h | 23708m | 7.2m/s | -50.4°C | 3.4% | 0hPa | 2.7V | 00:00:00 | 01:34:34 | 00:00:00 | |
| OE5MMP-10 | 2026-09-02 12:20:23 | 49.39785 | 17.71816 | 101° | 16km/h | 23697m | 5.9m/s | -50.3°C | 3.4% | 0hPa | 2.7V | 00:00:00 | 01:34:32 | 00:00:00 | |
| OE5DXL-15 | 2026-09-02 12:20:20 | 49.39784 | 17.71802 | 30° | 16km/h | 23675m | 5.2m/s | -50.4°C | 3.4% | 0hPa | 2.7V | 00:00:00 | 00:00:00 | 00:00:00 | |
| OE5DRO-10 | 2026-09-02 12:20:19 | 49.39781 | 17.71800 | 17° | 20km/h | 23670m | 6.2m/s | -50.4°C | 3.4% | 0hPa | 2.7V | 00:00:00 | 00:00:00 | 00:00:00 | |
| PETON7-10 | 2026-09-02 12:20:17 | 49.39773 | 17.71795 | 28° | 20km/h | 23656m | 5.4m/s | -50.5°C | 3.3% | 0hPa | 2.7V | 00:00:00 | 00:00:00 | 00:00:00 | |
| DO3MHA-11 | 2026-09-02 12:20:15 | 49.39763 | 17.71785 | 41° | 18km/h | 23642m | 8.1m/s | -50.6°C | 3.4% | 0hPa | 2.7V | 00:00:00 | 01:34:24 | 00:00:00 | |
| PG1ADW-2 | 2026-09-02 12:20:14 | 49.39760 | 17.71780 | 52° | 16km/h | 23635m | 6.5m/s | -50.6°C | 3.4% | 0hPa | 2.7V | 00:00:00 | 00:00:00 | 00:00:00 | |
| OE5MMP-10 | 2026-09-02 12:20:13 | 49.39758 | 17.71775 | 63° | 18km/h | 23629m | 5.9m/s | -50.6°C | 3.4% | 0hPa | 2.7V | 00:00:00 | 01:34:22 | 08:30:00 | |
| SP3WXH-11 | 2026-09-02 12:20:10 | 49.39750 | 17.71753 | 49° | 16km/h | 23603m | 6.5m/s | -50.9°C | 0.8% | -1.0hPa | 2.6V | 00:00:00 | 00:00:00 | 00:00:00 | |
| DO3MHA-11 | 2026-09-02 12:20:06 | 49.39731 | 17.71746 | 1° | 18km/h | 23575m | 7.4m/s | -51.0°C | 3.5% | 0hPa | 2.6V | 00:00:00 | 01:34:14 | 00:00:00 | |
| OE5MMP-10 | 2026-09-02 12:20:03 | 49.39717 | 17.71745 | 4° | 13km/h | 23563m | 5.9m/s | -51.2°C | 3.5% | 0hPa | 2.6V | 00:00:00 | 01:34:12 | 00:00:00 | |
| OE3OSB-13 | 2026-09-02 12:19:57 | 49.39699 | 17.71733 | 99° | 9km/h | 23522m | 7.7m/s | -51.4°C | 0.8% | -1.0hPa | 2.6V | 00:00:00 | 00:00:00 | 00:00:00 | |
| DO3MHA-11 | 2026-09-02 12:19:55 | 49.39699 | 17.71727 | 80° | 13km/h | 23507m | 5.3m/s | -51.5°C | 3.6% | 0hPa | 2.6V | 00:00:00 | 01:34:04 | 00:00:00 | |
| PG1ADW-2 | 2026-09-02 12:19:54 | 49.39698 | 17.71724 | 53° | 13km/h | 23502m | 6.5m/s | -51.5°C | 3.6% | 0hPa | 2.6V | 00:00:00 | 00:00:00 | 00:00:00 | |
| OE5MMP-10 | 2026-09-02 12:19:53 | 49.39697 | 17.71722 | 41° | 13km/h | 23495m | 6.7m/s | -51.5°C | 3.6% | 0hPa | 2.7V | 00:00:00 | 01:34:02 | 00:00:00 | |
| OE5DXL-15 | 2026-09-02 12:19:50 | 49.39686 | 17.71712 | 17° | 13km/h | 23474m | 8.4m/s | -51.6°C | 3.6% | 0hPa | 2.7V | 00:00:00 | 00:00:00 | 00:00:00 | |
| PETON7-10 | 2026-09-02 12:19:47 | 49.39675 | 17.71707 | 45° | 13km/h | 23454m | 6.9m/s | -51.7°C | 3.7% | 0hPa | 2.6V | 00:00:00 | 01:33:56 | 00:00:00 | |
| DO3MHA-11 | 2026-09-02 12:19:45 | 49.39675 | 17.71701 | 114° | 13km/h | 23441m | 7.2m/s | -51.6°C | 3.7% | 0hPa | 2.6V | 00:00:00 | 01:33:54 | 00:00:00 | |
| OE5MMP-10 | 2026-09-02 12:19:43 | 49.39679 | 17.71694 | 147° | 15km/h | 23426m | 6.1m/s | -51.7°C | 3.7% | 0hPa | 2.6V | 00:00:00 | 01:33:52 | 00:00:00 | |
| DB0DAN | 2026-09-02 12:19:40 | 49.39687 | 17.71683 | 123° | 13km/h | 23406m | 5.4m/s | -51.7°C | 0.9% | 0hPa | 2.7V | 00:00:00 | 00:00:00 | 00:00:00 | |
| SP3WXH-11 | 2026-09-02 12:19:39 | 49.39689 | 17.71675 | 89° | 9km/h | 23392m | 8.7m/s | -51.8°C | 0.9% | -1.0hPa | 2.6V | 00:00:00 | 00:00:00 | 00:00:00 | |
| DO3MHA-11 | 2026-09-02 12:19:35 | 49.39684 | 17.71664 | 44° | 13km/h | 23371m | 7.5m/s | -51.8°C | 3.7% | 0hPa | 2.6V | 00:00:00 | 01:33:44 | 08:30:00 | |
| PG1ADW-2 | 2026-09-02 12:19:34 | 49.39681 | 17.71660 | 50° | 15km/h | 23364m | 5.3m/s | -51.7°C | 3.7% | 0hPa | 2.6V | 00:00:00 | 00:00:00 | 00:00:00 | |
| PETON7-10 | 2026-09-02 12:19:32 | 49.39677 | 17.71651 | 58° | 13km/h | 23351m | 8.1m/s | -51.7°C | 3.7% | 0hPa | 2.6V | 00:00:00 | 00:00:00 | 00:00:00 | |
| DB0DAN | 2026-09-02 12:19:25 | 49.39682 | 17.71622 | 120° | 15km/h | 23306m | 7.8m/s | 0°C | 0% | 0hPa | 2.6V | 00:00:00 | 00:00:00 | 00:00:00 | |
| OE5DRO-10 | 2026-09-02 12:19:22 | 49.39685 | 17.71606 | 84° | 15km/h | 23286m | 5.6m/s | -51.4°C | 3.6% | 0hPa | 2.6V | 00:00:00 | 00:00:00 | 00:00:00 | |
| OE5DXL-15 | 2026-09-02 12:19:20 | 49.39682 | 17.71593 | 72° | 13km/h | 23273m | 7.4m/s | -51.4°C | 3.6% | 0hPa | 2.6V | 00:00:00 | 00:00:00 | 00:00:00 | |
| PETON7-10 | 2026-09-02 12:19:18 | 49.39679 | 17.71577 | 81° | 15km/h | 23253m | 7.3m/s | -51.4°C | 3.6% | 0hPa | 2.6V | 00:00:00 | 00:00:00 | 00:00:00 | |
| DO3MHA-11 | 2026-09-02 12:19:15 | 49.39679 | 17.71566 | 97° | 13km/h | 23239m | 5.2m/s | -51.4°C | 3.6% | 0hPa | 2.6V | 00:00:00 | 01:33:24 | 00:00:00 | |
| PG1ADW-2 | 2026-09-02 12:19:14 | 49.39680 | 17.71560 | 108° | 13km/h | 23233m | 6.4m/s | -51.5°C | 3.6% | 0hPa | 2.6V | 00:00:00 | 01:33:23 | 00:00:00 | |
| DB0DAN | 2026-09-02 12:19:10 | 49.39685 | 17.71546 | 95° | 7km/h | 23207m | 6.3m/s | 0°C | 0% | 0hPa | 2.6V | 00:00:00 | 00:00:00 | 00:00:00 | |
| SP3WXH-11 | 2026-09-02 12:19:07 | 49.39679 | 17.71535 | 27° | 16km/h | 23188m | 7.5m/s | -51.6°C | 0.8% | -1.0hPa | 2.7V | 00:00:00 | 00:00:00 | 00:00:00 | |
| DO3MHA-11 | 2026-09-02 12:19:05 | 49.39670 | 17.71532 | 2° | 13km/h | 23172m | 6.3m/s | -51.5°C | 3.6% | 0hPa | 2.7V | 00:00:00 | 01:33:14 | 00:00:00 | |
| OE5DRO-10 | 2026-09-02 12:19:03 | 49.39658 | 17.71531 | 2° | 9km/h | 23161m | 3.9m/s | -51.6°C | 3.6% | 0hPa | 2.7V | 00:00:00 | 00:00:00 | 00:00:00 | |
| OE3OSB-13 | 2026-09-02 12:18:56 | 49.39640 | 17.71526 | 68° | 4km/h | 23107m | 8.4m/s | -51.8°C | 0.9% | -1.0hPa | 2.7V | 00:00:00 | 00:00:00 | 00:00:00 | |
| DB0DAN | 2026-09-02 12:18:55 | 49.39640 | 17.71526 | 68° | 4km/h | 23107m | 8.4m/s | 0°C | 0% | 0hPa | 2.7V | 00:00:00 | 00:00:00 | 00:00:00 | |
| PG1ADW-2 | 2026-09-02 12:18:54 | 49.39640 | 17.71524 | 60° | 7km/h | 23101m | 5.1m/s | -51.6°C | 3.7% | 0hPa | 2.7V | 00:00:00 | 00:00:00 | 08:30:00 | |
| S52SK | 2026-09-02 12:18:52 | 49.39639 | 17.71523 | 56° | 4km/h | 23094m | 7.3m/s | -51.7°C | 1.0% | 0hPa | 2.6V | 00:00:00 | 00:00:00 | 00:00:00 | |
| OE5DXL-15 | 2026-09-02 12:18:50 | 49.39637 | 17.71516 | 65° | 7km/h | 23074m | 6.1m/s | -51.8°C | 3.7% | 0hPa | 2.6V | 00:00:00 | 00:00:00 | 00:00:00 | |
| PETON7-10 | 2026-09-02 12:18:47 | 49.39634 | 17.71508 | 62° | 7km/h | 23054m | 5.8m/s | -51.7°C | 3.7% | 0hPa | 2.6V | 00:00:00 | 00:00:00 | 08:30:00 | |
| DO3MHA-11 | 2026-09-02 12:18:45 | 49.39633 | 17.71501 | 87° | 7km/h | 23040m | 5.4m/s | -51.7°C | 3.6% | 0hPa | 2.7V | 00:00:00 | 01:32:54 | 00:00:00 | |
| OE5DRO-10 | 2026-09-02 12:18:44 | 49.39633 | 17.71496 | 91° | 5km/h | 23034m | 6.8m/s | -51.7°C | 3.6% | 0hPa | 2.7V | 00:00:00 | 00:00:00 | 00:00:00 | |
| SP3WXH-11 | 2026-09-02 12:18:36 | 49.39633 | 17.71477 | 309° | 5km/h | 22981m | 7.0m/s | -51.8°C | 0.9% | -1.0hPa | 2.6V | 00:00:00 | 00:00:00 | 00:00:00 | |
| DO3MHA-11 | 2026-09-02 12:18:35 | 49.39632 | 17.71480 | 303° | 4km/h | 22975m | 5.7m/s | -51.8°C | 3.7% | 0hPa | 2.6V | 00:00:00 | 01:32:44 | 00:00:00 | |
| PG1ADW-2 | 2026-09-02 12:18:34 | 49.39631 | 17.71482 | 305° | 5km/h | 22968m | 7.4m/s | -51.7°C | 3.7% | 0hPa | 2.6V | 00:00:00 | 00:00:00 | 00:00:00 | |
| PETON7-10 | 2026-09-02 12:18:32 | 49.39629 | 17.71486 | 318° | 5km/h | 22955m | 5.5m/s | -51.7°C | 3.7% | 0hPa | 2.6V | 00:00:00 | 00:00:00 | 00:00:00 | |
| OE3JTB-15 | 2026-09-02 12:18:31 | 49.39627 | 17.71487 | 359° | 11km/h | 22929m | 7.6m/s | -51.6°C | 3.7% | 0hPa | 2.6V | 00:00:00 | 00:00:00 | 00:00:00 | |
| DO3MHA-11 | 2026-09-02 12:18:25 | 49.39625 | 17.71484 | 40° | 9km/h | 22910m | 6.9m/s | -51.6°C | 3.6% | 0hPa | 2.6V | 00:00:00 | 01:32:34 | 00:00:00 | |
| OE3OSB-13 | 2026-09-02 12:18:24 | 49.39623 | 17.71482 | 10° | 9km/h | 22903m | 7.7m/s | -51.6°C | 0.8% | -1.0hPa | 2.6V | 00:00:00 | 00:00:00 | 00:00:00 | |
| OE5DXL-15 | 2026-09-02 12:18:20 | 49.39613 | 17.71485 | 346° | 7km/h | 22876m | 5.9m/s | -51.8°C | 3.6% | 0hPa | 2.6V | 00:00:00 | 00:00:00 | 08:30:00 | |
| DO3MHA-11 | 2026-09-02 12:18:15 | 49.39606 | 17.71490 | 16° | 4km/h | 22843m | 6.8m/s | -51.8°C | 3.6% | 0hPa | 2.7V | 00:00:00 | 01:32:24 | 00:00:00 | |
| PG1ADW-2 | 2026-09-02 12:18:14 | 49.39606 | 17.71489 | 107° | 5km/h | 22837m | 5.4m/s | -51.9°C | 3.6% | 0hPa | 2.7V | 00:00:00 | 00:00:00 | 00:00:00 | |
| OE5DRO-10 | 2026-09-02 12:18:06 | 49.39609 | 17.71484 | 211° | 9km/h | 22787m | 6.9m/s | -52.0°C | 3.7% | 0hPa | 2.7V | 00:00:00 | 00:00:00 | 00:00:00 | |
| DO3MHA-11 | 2026-09-02 12:18:05 | 49.39612 | 17.71487 | 220° | 7km/h | 22780m | 5.7m/s | -52.0°C | 3.8% | 0hPa | 2.7V | 00:00:00 | 01:32:14 | 08:30:00 | |
| OE3OSB-13 | 2026-09-02 12:17:53 | 49.39631 | 17.71489 | 157° | 9km/h | 22701m | 5.4m/s | -52.0°C | 0.9% | -1.0hPa | 2.6V | 00:00:00 | 00:00:00 | 00:00:00 | |
| OE5DXL-15 | 2026-09-02 12:17:50 | 49.39638 | 17.71482 | 135° | 15km/h | 22683m | 4.2m/s | -51.8°C | 3.7% | 0hPa | 2.6V | 00:00:00 | 00:00:00 | 00:00:00 | |
| OE5DRO-10 | 2026-09-02 12:17:47 | 49.39641 | 17.71472 | 72° | 15km/h | 22663m | 6.2m/s | -51.8°C | 3.7% | 0hPa | 2.6V | 00:00:00 | 00:00:00 | 00:00:00 | |
| DO3MHA-11 | 2026-09-02 12:17:45 | 49.39640 | 17.71467 | 73° | 16km/h | 22651m | 6.9m/s | -51.9°C | 3.8% | 0hPa | 2.6V | 00:00:00 | 01:31:54 | 00:00:00 | |
| DO3MHA-11 | 2026-09-02 12:17:35 | 49.39661 | 17.71414 | 121° | 16km/h | 22589m | 6.6m/s | -51.6°C | 3.7% | 0hPa | 2.6V | 00:00:00 | 01:31:44 | 00:00:00 | |
| PG1ADW-2 | 2026-09-02 12:17:34 | 49.39662 | 17.71409 | 94° | 16km/h | 22583m | 5.3m/s | -51.6°C | 3.6% | 0hPa | 2.7V | 00:00:00 | 00:00:00 | 00:00:00 | |
| S52SK | 2026-09-02 12:17:33 | 49.39662 | 17.71409 | 95° | 11km/h | 22583m | 5.4m/s | -51.7°C | 1.0% | 0hPa | 2.7V | 00:00:00 | 00:00:00 | 00:00:00 | |
| PETON7-10 | 2026-09-02 12:17:32 | 49.39660 | 17.71400 | 67° | 18km/h | 22570m | 5.5m/s | -51.5°C | 3.6% | 0hPa | 2.7V | 00:00:00 | 01:31:41 | 00:00:00 | |
| OE5DRO-10 | 2026-09-02 12:17:28 | 49.39653 | 17.71376 | 69° | 18km/h | 22546m | 4.7m/s | -51.5°C | 3.5% | 0hPa | 2.7V | 00:00:00 | 00:00:00 | 00:00:00 | |
| S52SK | 2026-09-02 12:17:27 | 49.39653 | 17.71376 | 69° | 16km/h | 22546m | 4.7m/s | -51.6°C | 1.0% | 0hPa | 2.7V | 00:00:00 | 00:00:00 | 00:00:00 | |
| DO3MHA-11 | 2026-09-02 12:17:25 | 49.39652 | 17.71355 | 102° | 18km/h | 22527m | 5.5m/s | -51.4°C | 3.5% | 0hPa | 2.7V | 00:00:00 | 01:31:34 | 00:00:00 | |
| OE3OSB-13 | 2026-09-02 12:17:23 | 49.39656 | 17.71334 | 109° | 15km/h | 22508m | 6.4m/s | -51.5°C | 0.8% | -1.0hPa | 2.7V | 00:00:00 | 00:00:00 | 00:00:00 | |
| OE5MMP-10 | 2026-09-02 12:17:22 | 49.39656 | 17.71334 | 110° | 22km/h | 22508m | 6.3m/s | -51.4°C | 3.5% | 0hPa | 2.7V | 00:00:00 | 01:31:31 | 00:00:00 | |
| PETON7-10 | 2026-09-02 12:17:17 | 49.39657 | 17.71302 | 85° | 18km/h | 22476m | 6.9m/s | -52.0°C | 3.7% | 0hPa | 2.7V | 00:00:00 | 00:00:00 | 00:00:00 | |
| DO3MHA-11 | 2026-09-02 12:17:15 | 49.39656 | 17.71288 | 84° | 20km/h | 22464m | 6.5m/s | -52.1°C | 3.8% | 0hPa | 2.7V | 00:00:00 | 01:31:24 | 00:00:00 | |
| PG1ADW-2 | 2026-09-02 12:17:14 | 49.39656 | 17.71280 | 83° | 20km/h | 22459m | 5.1m/s | -52.1°C | 3.7% | 0hPa | 2.7V | 00:00:00 | 00:00:00 | 00:00:00 | |
| OE5MMP-10 | 2026-09-02 12:17:07 | 49.39661 | 17.71226 | 131° | 22km/h | 22416m | 5.6m/s | -52.2°C | 3.7% | 0hPa | 2.7V | 00:00:00 | 01:31:16 | 00:00:00 | |
| DO3MHA-11 | 2026-09-02 12:17:05 | 49.39667 | 17.71216 | 129° | 20km/h | 22402m | 6.0m/s | -52.1°C | 3.8% | 0hPa | 2.7V | 00:00:00 | 01:31:14 | 00:00:00 | |
| SP3WXH-11 | 2026-09-02 12:17:04 | 49.39669 | 17.71208 | 84° | 11km/h | 22390m | 7.4m/s | -52.2°C | 0.9% | -1.0hPa | 2.6V | 00:00:00 | 00:00:00 | 00:00:00 | |
| OE3OSB-13 | 2026-09-02 12:16:52 | 49.39658 | 17.71121 | 114° | 11km/h | 22312m | 6.8m/s | -52.0°C | 0.9% | -1.0hPa | 2.6V | 00:00:00 | 00:00:00 | 00:00:00 | |
| OE5DRO-10 | 2026-09-02 12:16:50 | 49.39659 | 17.71117 | 103° | 13km/h | 22306m | 4.8m/s | -52.0°C | 3.6% | 0hPa | 2.6V | 00:00:00 | 00:00:00 | 08:30:00 | |
| PETON7-10 | 2026-09-02 12:16:47 | 49.39660 | 17.71099 | 86° | 13km/h | 22286m | 7.8m/s | -52.1°C | 3.6% | 0hPa | 2.7V | 00:00:00 | 01:30:56 | 00:00:00 | |
| DO3MHA-11 | 2026-09-02 12:16:45 | 49.39658 | 17.71087 | 79° | 13km/h | 22273m | 7.2m/s | -52.2°C | 3.6% | 0hPa | 2.7V | 00:00:00 | 01:30:54 | 00:00:00 | |
| OE5MMP-10 | 2026-09-02 12:16:40 | 49.39649 | 17.71049 | 51° | 15km/h | 22226m | 5.3m/s | -52.4°C | 3.8% | 0hPa | 2.7V | 00:00:00 | 01:30:47 | 00:00:00 | |
| DO3MHA-11 | 2026-09-02 12:16:35 | 49.39645 | 17.71042 | 45° | 13km/h | 22208m | 8.2m/s | -52.4°C | 3.8% | 0hPa | 2.7V | 00:00:00 | 01:30:44 | 08:30:00 | |
| PG1ADW-2 | 2026-09-02 12:16:34 | 49.39644 | 17.71040 | 58° | 11km/h | 22201m | 5.1m/s | -52.4°C | 3.8% | 0hPa | 2.6V | 00:00:00 | 01:30:43 | 00:00:00 | |
| PETON7-10 | 2026-09-02 12:16:32 | 49.39643 | 17.71034 | 81° | 13km/h | 22189m | 6.3m/s | -52.4°C | 3.7% | 0hPa | 2.6V | 00:00:00 | 00:00:00 | 08:30:00 | |
| OE5DRO-10 | 2026-09-02 12:16:31 | 49.39642 | 17.71028 | 85° | 13km/h | 22183m | 5.8m/s | -52.5°C | 3.7% | 0hPa | 2.7V | 00:00:00 | 00:00:00 | 00:00:00 | |
| OE5MMP-10 | 2026-09-02 12:16:26 | 49.39638 | 17.71000 | 48° | 13km/h | 22150m | 4.8m/s | -52.7°C | 3.8% | 0hPa | 2.7V | 00:00:00 | 01:30:35 | 00:00:00 | |
| DO3MHA-11 | 2026-09-02 12:16:25 | 49.39636 | 17.70996 | 38° | 11km/h | 22145m | 6.9m/s | -52.7°C | 3.7% | 0hPa | 2.7V | 00:00:00 | 01:30:34 | 00:00:00 | |
| OE5DXL-15 | 2026-09-02 12:16:20 | 49.39622 | 17.70988 | 20° | 9km/h | 22110m | 4.6m/s | -52.7°C | 3.9% | 0hPa | 2.7V | 00:00:00 | 00:00:00 | 00:00:00 | |
| S52SK | 2026-09-02 12:16:18 | 49.39618 | 17.70985 | 37° | 7km/h | 22096m | 8.6m/s | -52.7°C | 1.1% | 0hPa | 2.7V | 00:00:00 | 00:00:00 | 00:00:00 | |
| PETON7-10 | 2026-09-02 12:16:17 | 49.39616 | 17.70983 | 56° | 11km/h | 22089m | 5.3m/s | -52.7°C | 3.8% | 0hPa | 2.7V | 00:00:00 | 00:00:00 | 00:00:00 | |
| DO3MHA-11 | 2026-09-02 12:16:15 | 49.39614 | 17.70977 | 58° | 13km/h | 22076m | 7.5m/s | -52.8°C | 3.8% | 0hPa | 2.7V | 00:00:00 | 01:30:24 | 00:00:00 | |
| PG1ADW-2 | 2026-09-02 12:16:14 | 49.39611 | 17.70972 | 44° | 11km/h | 22070m | 4.7m/s | -52.8°C | 3.7% | 0hPa | 2.7V | 00:00:00 | 00:00:00 | 00:00:00 | |
| OE5MMP-10 | 2026-09-02 12:16:13 | 49.39608 | 17.70968 | 32° | 11km/h | 22065m | 5.6m/s | -52.8°C | 3.7% | 0hPa | 2.7V | 00:00:00 | 01:30:22 | 08:30:00 | |
| OE5DRO-10 | 2026-09-02 12:16:12 | 49.39604 | 17.70966 | 20° | 9km/h | 22058m | 7.3m/s | -52.8°C | 3.7% | 0hPa | 2.7V | 00:00:00 | 00:00:00 | 00:00:00 | |
| S52SK | 2026-09-02 12:16:07 | 49.39588 | 17.70966 | 6° | 9km/h | 22025m | 6.8m/s | -52.9°C | 1.0% | 0hPa | 2.7V | 00:00:00 | 00:00:00 | 00:00:00 | |
| DO3MHA-11 | 2026-09-02 12:16:05 | 49.39585 | 17.70964 | 55° | 7km/h | 22011m | 5.6m/s | -52.9°C | 3.8% | 0hPa | 2.7V | 00:00:00 | 01:30:14 | 00:00:00 | |
| SP3WXH-11 | 2026-09-02 12:16:02 | 49.39583 | 17.70958 | 42° | 9km/h | 21985m | 6.3m/s | -53.3°C | 0.9% | -1.0hPa | 2.7V | 00:00:00 | 00:00:00 | 00:00:00 | |
| OE3OSB-13 | 2026-09-02 12:15:49 | 49.39561 | 17.70977 | 322° | 13km/h | 21906m | 7.1m/s | -53.5°C | 1.0% | -1.0hPa | 2.7V | 00:00:00 | 00:00:00 | 00:00:00 | |
| PETON7-10 | 2026-09-02 12:15:47 | 49.39556 | 17.70982 | 332° | 9km/h | 21892m | 6.8m/s | -53.5°C | 4.0% | 0hPa | 2.7V | 00:00:00 | 00:00:00 | 00:00:00 | |
| DO3MHA-11 | 2026-09-02 12:15:45 | 49.39551 | 17.70984 | 2° | 7km/h | 21878m | 4.5m/s | -53.6°C | 4.0% | 0hPa | 2.7V | 00:00:00 | 01:29:54 | 00:00:00 | |
| OE5MMP-10 | 2026-09-02 12:15:42 | 49.39544 | 17.70984 | 358° | 7km/h | 21858m | 7.9m/s | -53.6°C | 4.1% | 0hPa | 2.7V | 00:00:00 | 01:29:51 | 00:00:00 | |
| DO3MHA-11 | 2026-09-02 12:15:35 | 49.39533 | 17.70984 | 316° | 9km/h | 21812m | 5.8m/s | -53.3°C | 4.1% | 0hPa | 2.6V | 00:00:00 | 01:29:44 | 00:00:00 | |
| PETON7-10 | 2026-09-02 12:15:32 | 49.39525 | 17.70993 | 342° | 9km/h | 21792m | 5.7m/s | -53.3°C | 4.1% | 0hPa | 2.7V | 00:00:00 | 00:00:00 | 00:00:00 | |
| SP3WXH-11 | 2026-09-02 12:15:30 | 49.39519 | 17.70995 | 356° | 5km/h | 21779m | 7.0m/s | -53.2°C | 1.0% | -1.0hPa | 2.7V | 00:00:00 | 00:00:00 | 00:00:00 | |
| DO3MHA-11 | 2026-09-02 12:15:21 | 49.39501 | 17.70986 | 355° | 7km/h | 21719m | 6.2m/s | -52.9°C | 3.9% | 0hPa | 2.7V | 00:00:00 | 01:29:30 | 00:00:00 | |
| OE5DXL-15 | 2026-09-02 12:15:20 | 49.39498 | 17.70986 | 354° | 9km/h | 21712m | 7.1m/s | -52.9°C | 4.0% | 0hPa | 2.7V | 00:00:00 | 00:00:00 | 00:00:00 | |
| OE3OSB-13 | 2026-09-02 12:15:19 | 49.39493 | 17.70989 | 304° | 2km/h | 21690m | 8.0m/s | -52.8°C | 1.0% | -1.0hPa | 2.6V | 00:00:00 | 00:00:00 | 00:00:00 | |
| NBG1-10 | 2026-09-02 12:15:17 | 49.39492 | 17.70990 | 235° | 7km/h | 21684m | 5.1m/s | -52.7°C | 4.0% | 0hPa | 2.6V | 00:00:00 | 01:29:25 | 00:00:00 | |
| OE5DRO-10 | 2026-09-02 12:15:15 | 49.39493 | 17.70990 | 199° | 7km/h | 21678m | 6.4m/s | -52.7°C | 4.0% | 0hPa | 2.6V | 00:00:00 | 00:00:00 | 00:00:00 | |
| PG1ADW-2 | 2026-09-02 12:15:14 | 49.39494 | 17.70991 | 193° | 7km/h | 21671m | 7.8m/s | -52.7°C | 4.0% | 0hPa | 2.6V | 00:00:00 | 01:29:23 | 00:00:00 | |
| DO3MHA-11 | 2026-09-02 12:15:11 | 49.39498 | 17.70991 | 149° | 7km/h | 21651m | 8.3m/s | -52.5°C | 3.9% | 0hPa | 2.6V | 00:00:00 | 01:29:20 | 00:00:00 | |
| OE3JTB-15 | 2026-09-02 12:15:08 | 49.39496 | 17.70981 | 344° | 15km/h | 21611m | 7.7m/s | -52.1°C | 3.8% | 0hPa | 2.6V | 00:00:00 | 01:29:14 | 00:00:00 | |
| SP3WXH-11 | 2026-09-02 12:14:59 | 49.39491 | 17.71001 | 305° | 9km/h | 21571m | 4.9m/s | -51.8°C | 0.9% | -1.0hPa | 2.6V | 00:00:00 | 00:00:00 | 00:00:00 | |
| OE5DRO-10 | 2026-09-02 12:14:56 | 49.39485 | 17.71003 | 27° | 11km/h | 21550m | 8.2m/s | -51.5°C | 3.7% | 0hPa | 2.6V | 00:00:00 | 00:00:00 | 00:00:00 | |
| PG1ADW-2 | 2026-09-02 12:14:54 | 49.39481 | 17.70997 | 54° | 13km/h | 21537m | 6.6m/s | -51.5°C | 3.7% | 0hPa | 2.7V | 00:00:00 | 00:00:00 | 00:00:00 | |
| S52SK | 2026-09-02 12:14:53 | 49.39481 | 17.70997 | 55° | 15km/h | 21537m | 6.7m/s | -51.5°C | 1.0% | 0hPa | 2.6V | 00:00:00 | 00:00:00 | 00:00:00 | |
| DO3MHA-11 | 2026-09-02 12:14:51 | 49.39473 | 17.70983 | 43° | 7km/h | 21519m | 5.9m/s | -51.3°C | 3.6% | 0hPa | 2.6V | 00:00:00 | 01:29:00 | 00:00:00 | |
| OE5DXL-15 | 2026-09-02 12:14:50 | 49.39471 | 17.70980 | 46° | 9km/h | 21513m | 7.4m/s | -51.3°C | 3.6% | 0hPa | 2.6V | 00:00:00 | 00:00:00 | 00:00:00 | |
| S52SK | 2026-09-02 12:14:48 | 49.39470 | 17.70978 | 54° | 2km/h | 21506m | 5.1m/s | -51.2°C | 1.0% | 0hPa | 2.6V | 00:00:00 | 00:00:00 | 00:00:00 | |
| PETON7-10 | 2026-09-02 12:14:47 | 49.39470 | 17.70980 | 257° | 13km/h | 21493m | 8.9m/s | -51.2°C | 3.6% | 0hPa | 2.6V | 00:00:00 | 00:00:00 | 00:00:00 | |
| NBG1-10 | 2026-09-02 12:14:43 | 49.39470 | 17.70993 | 268° | 9km/h | 21467m | 5.9m/s | -51.1°C | 3.6% | 0hPa | 2.6V | 00:00:00 | 01:28:52 | 08:30:00 | |
| S52SK | 2026-09-02 12:14:42 | 49.39469 | 17.70993 | 268° | 7km/h | 21467m | 6.0m/s | -51.2°C | 1.0% | 0hPa | 2.7V | 00:00:00 | 00:00:00 | 00:00:00 | |
| DO3MHA-11 | 2026-09-02 12:14:41 | 49.39469 | 17.70997 | 340° | 16km/h | 21455m | 7.2m/s | -51.2°C | 3.6% | 0hPa | 2.7V | 00:00:00 | 01:28:50 | 00:00:00 | |
| OE5DRO-10 | 2026-09-02 12:14:37 | 49.39458 | 17.70983 | 57° | 11km/h | 21427m | 6.1m/s | -51.2°C | 3.5% | 0hPa | 2.7V | 00:00:00 | 00:00:00 | 00:00:00 | |
| PG1ADW-2 | 2026-09-02 12:14:34 | 49.39449 | 17.70962 | 50° | 7km/h | 21408m | 5.2m/s | -51.0°C | 3.5% | 0hPa | 2.7V | 00:00:00 | 00:00:00 | 00:00:00 | |
| PETON7-10 | 2026-09-02 12:14:32 | 49.39443 | 17.70952 | 51° | 7km/h | 21395m | 7.7m/s | -51.1°C | 3.5% | 0hPa | 2.7V | 00:00:00 | 01:28:41 | 00:00:00 | |
| DO3MHA-11 | 2026-09-02 12:14:31 | 49.39442 | 17.70949 | 64° | 4km/h | 21388m | 5.6m/s | -51.0°C | 3.6% | 0hPa | 2.7V | 00:00:00 | 01:28:40 | 00:00:00 | |
| SP3WXH-11 | 2026-09-02 12:14:28 | 49.39441 | 17.70948 | 8° | 0km/h | 21368m | 5.6m/s | -51.0°C | 0.8% | -1.0hPa | 2.6V | 00:00:00 | 00:00:00 | 00:00:00 | |
| DO3MHA-11 | 2026-09-02 12:14:21 | 49.39432 | 17.70940 | 30° | 7km/h | 21324m | 6.8m/s | -51.3°C | 3.5% | 0hPa | 2.6V | 00:00:00 | 01:28:30 | 00:00:00 | |
| OE5DXL-15 | 2026-09-02 12:14:20 | 49.39430 | 17.70937 | 40° | 7km/h | 21316m | 7.4m/s | -51.2°C | 3.5% | 0hPa | 2.6V | 00:00:00 | 00:00:00 | 00:00:00 | |
| OE5DRO-10 | 2026-09-02 12:14:18 | 49.39427 | 17.70931 | 72° | 7km/h | 21303m | 7.2m/s | -51.1°C | 3.5% | 0hPa | 2.6V | 00:00:00 | 00:00:00 | 00:00:00 | |
| PETON7-10 | 2026-09-02 12:14:17 | 49.39427 | 17.70928 | 95° | 7km/h | 21297m | 4.2m/s | -51.1°C | 3.5% | 0hPa | 2.6V | 00:00:00 | 00:00:00 | 08:30:00 | |
| OE5MMP-10 | 2026-09-02 12:14:16 | 49.39427 | 17.70925 | 107° | 11km/h | 21292m | 6.0m/s | -51.2°C | 3.5% | 0hPa | 2.6V | 00:00:00 | 01:28:25 | 00:00:00 | |
| DO3MHA-11 | 2026-09-02 12:14:11 | 49.39432 | 17.70923 | 312° | 7km/h | 21259m | 4.8m/s | -51.6°C | 3.5% | 0hPa | 2.6V | 00:00:00 | 01:28:20 | 00:00:00 | |
| NBG1-10 | 2026-09-02 12:14:10 | 49.39430 | 17.70925 | 326° | 11km/h | 21253m | 6.9m/s | -51.8°C | 3.6% | 0hPa | 2.6V | 00:00:00 | 01:28:19 | 00:00:00 | |
| SP3WXH-11 | 2026-09-02 12:13:57 | 49.39437 | 17.70922 | 205° | 5km/h | 21171m | 5.8m/s | -51.8°C | 0.9% | -1.0hPa | 2.6V | 00:00:00 | 00:00:00 | 00:00:00 | |
| PG1ADW-2 | 2026-09-02 12:13:54 | 49.39437 | 17.70927 | 309° | 13km/h | 21153m | 5.9m/s | -51.8°C | 3.6% | 0hPa | 2.6V | 00:00:00 | 01:28:03 | 00:00:00 | |
| DO3MHA-11 | 2026-09-02 12:13:51 | 49.39435 | 17.70934 | 270° | 13km/h | 21133m | 5.6m/s | -51.6°C | 3.6% | 0hPa | 2.7V | 00:00:00 | 01:28:00 | 00:00:00 | |
| OE5DXL-15 | 2026-09-02 12:13:50 | 49.39436 | 17.70938 | 260° | 15km/h | 21127m | 6.8m/s | -51.6°C | 3.6% | 0hPa | 2.7V | 00:00:00 | 00:00:00 | 08:30:00 | |
| PETON7-10 | 2026-09-02 12:13:47 | 49.39441 | 17.70951 | 224° | 15km/h | 21109m | 7.3m/s | -51.7°C | 3.6% | 0hPa | 2.6V | 00:00:00 | 01:27:56 | 00:00:00 | |
| OE3OSB-13 | 2026-09-02 12:13:45 | 49.39449 | 17.70965 | 237° | 13km/h | 21089m | 6.5m/s | -51.8°C | 0.9% | -1.0hPa | 2.6V | 00:00:00 | 00:00:00 | 00:00:00 | |
| DO3MHA-11 | 2026-09-02 12:13:41 | 49.39449 | 17.70973 | 335° | 16km/h | 21071m | 6.6m/s | -51.7°C | 3.5% | 0hPa | 2.6V | 00:00:00 | 01:27:50 | 00:00:00 | |
| OE5DRO-10 | 2026-09-02 12:13:40 | 49.39447 | 17.70975 | 337° | 16km/h | 21064m | 7.8m/s | -51.6°C | 3.5% | 0hPa | 2.6V | 00:00:00 | 00:00:00 | 00:00:00 | |
| PG1ADW-2 | 2026-09-02 12:13:34 | 49.39437 | 17.71006 | 248° | 16km/h | 21026m | 7.4m/s | -51.9°C | 3.7% | 0hPa | 2.6V | 00:00:00 | 00:00:00 | 00:00:00 | |
| PETON7-10 | 2026-09-02 12:13:32 | 49.39442 | 17.71021 | 238° | 15km/h | 21014m | 5.6m/s | -52.1°C | 3.8% | 0hPa | 2.6V | 00:00:00 | 00:00:00 | 00:00:00 | |
| S52SK | 2026-09-02 12:13:27 | 49.39453 | 17.71045 | 261° | 11km/h | 20990m | 7.0m/s | -52.4°C | 1.1% | 0hPa | 2.7V | 00:00:00 | 00:00:00 | 00:00:00 | |
| SP3WXH-11 | 2026-09-02 12:13:26 | 49.39451 | 17.71052 | 328° | 11km/h | 20978m | 6.8m/s | 0°C | -1.0% | -1.0hPa | 2.7V | 00:00:00 | 00:00:00 | 00:00:00 | |
| OE5DRO-10 | 2026-09-02 12:13:21 | 49.39437 | 17.71055 | 286° | 13km/h | 20948m | 5.2m/s | -52.1°C | 3.8% | 0hPa | 2.7V | 00:00:00 | 00:00:00 | 00:00:00 | |
| OE5DXL-15 | 2026-09-02 12:13:20 | 49.39438 | 17.71058 | 242° | 11km/h | 20942m | 6.7m/s | -52.0°C | 3.7% | 0hPa | 2.7V | 00:00:00 | 00:00:00 | 00:00:00 | |
| OE5MMP-10 | 2026-09-02 12:13:17 | 49.39450 | 17.71070 | 205° | 11km/h | 20924m | 6.7m/s | -51.9°C | 3.8% | 0hPa | 2.7V | 00:00:00 | 01:27:26 | 00:00:00 | |
| DO3MHA-11 | 2026-09-02 12:13:15 | 49.39459 | 17.71079 | 224° | 13km/h | 20912m | 4.2m/s | -51.8°C | 3.8% | 0hPa | 2.7V | 00:00:00 | 01:27:24 | 08:30:00 | |
| OE3OSB-13 | 2026-09-02 12:13:14 | 49.39464 | 17.71089 | 248° | 9km/h | 20900m | 7.5m/s | -51.8°C | 0.9% | -1.0hPa | 2.6V | 00:00:00 | 00:00:00 | 00:00:00 | |
| PETON7-10 | 2026-09-02 12:13:02 | 49.39451 | 17.71106 | 202° | 9km/h | 20836m | 7.4m/s | -51.5°C | 3.6% | 0hPa | 2.6V | 00:00:00 | 01:27:11 | 00:00:00 | |
| NBG1-10 | 2026-09-02 12:13:01 | 49.39454 | 17.71108 | 203° | 9km/h | 20830m | 5.5m/s | -51.5°C | 3.5% | 0hPa | 2.6V | 00:00:00 | 01:27:10 | 00:00:00 | |
| DO3MHA-11 | 2026-09-02 12:12:55 | 49.39463 | 17.71117 | 180° | 9km/h | 20789m | 6.2m/s | -52.1°C | 3.7% | 0hPa | 2.7V | 00:00:00 | 01:27:04 | 00:00:00 | |
| PG1ADW-2 | 2026-09-02 12:12:54 | 49.39464 | 17.71117 | 148° | 9km/h | 20782m | 7.0m/s | -52.0°C | 3.7% | 0hPa | 2.7V | 00:00:00 | 00:00:00 | 08:30:00 | |
| OE5DXL-15 | 2026-09-02 12:12:50 | 49.39465 | 17.71105 | 102° | 11km/h | 20757m | 4.7m/s | -52.1°C | 3.6% | 0hPa | 2.7V | 00:00:00 | 00:00:00 | 00:00:00 | |
| PETON7-10 | 2026-09-02 12:12:47 | 49.39467 | 17.71091 | 94° | 9km/h | 20738m | 5.0m/s | -52.0°C | 3.6% | 0hPa | 2.7V | 00:00:00 | 00:00:00 | 00:00:00 | |
| DO3MHA-11 | 2026-09-02 12:12:45 | 49.39468 | 17.71083 | 107° | 9km/h | 20726m | 6.7m/s | -52.0°C | 3.5% | 0hPa | 2.6V | 00:00:00 | 01:26:54 | 00:00:00 | |
| OE3OSB-13 | 2026-09-02 12:12:43 | 49.39471 | 17.71072 | 114° | 9km/h | 20707m | 6.1m/s | -52.2°C | 0.9% | -1.0hPa | 2.6V | 00:00:00 | 00:00:00 | 00:00:00 | |
| OE5MMP-10 | 2026-09-02 12:12:39 | 49.39475 | 17.71063 | 142° | 9km/h | 20689m | 6.3m/s | -52.4°C | 3.5% | 0hPa | 2.6V | 00:00:00 | 01:26:48 | 00:00:00 | |
| DO3MHA-11 | 2026-09-02 12:12:35 | 49.39482 | 17.71057 | 157° | 11km/h | 20664m | 6.7m/s | -52.7°C | 3.5% | 0hPa | 2.6V | 00:00:00 | 01:26:44 | 00:00:00 | |
| PG1ADW-2 | 2026-09-02 12:12:34 | 49.39485 | 17.71056 | 169° | 13km/h | 20658m | 5.5m/s | -52.7°C | 3.6% | 0hPa | 2.6V | 00:00:00 | 01:26:43 | 00:00:00 | |
| PETON7-10 | 2026-09-02 12:12:32 | 49.39490 | 17.71054 | 165° | 15km/h | 20647m | 6.5m/s | -52.8°C | 3.6% | 0hPa | 2.6V | 00:00:00 | 00:00:00 | 00:00:00 | |
| OE5MMP-10 | 2026-09-02 12:12:29 | 49.39495 | 17.71047 | 104° | 16km/h | 20628m | 7.1m/s | -53.1°C | 3.7% | 0hPa | 2.6V | 00:00:00 | 01:26:38 | 00:00:00 | |
| DO3MHA-11 | 2026-09-02 12:12:25 | 49.39497 | 17.71027 | 102° | 16km/h | 20602m | 5.6m/s | -54.2°C | 4.1% | 0hPa | 2.6V | 00:00:00 | 01:26:34 | 00:00:00 | |
| OE5DRO-10 | 2026-09-02 12:12:24 | 49.39498 | 17.71020 | 106° | 15km/h | 20596m | 6.8m/s | -54.2°C | 4.1% | 0hPa | 2.6V | 00:00:00 | 00:00:00 | 00:00:00 | |
| OE5DXL-15 | 2026-09-02 12:12:20 | 49.39504 | 17.70992 | 93° | 15km/h | 20571m | 6.9m/s | -54.4°C | 4.1% | 0hPa | 2.6V | 00:00:00 | 00:00:00 | 00:00:00 | |
| OE5MMP-10 | 2026-09-02 12:12:18 | 49.39501 | 17.70983 | 43° | 13km/h | 20559m | 6.8m/s | -54.4°C | 4.0% | 0hPa | 2.6V | 00:00:00 | 01:26:27 | 00:00:00 | |
| PETON7-10 | 2026-09-02 12:12:17 | 49.39499 | 17.70980 | 21° | 11km/h | 20553m | 5.2m/s | -54.5°C | 4.0% | 0hPa | 2.6V | 00:00:00 | 01:26:26 | 00:00:00 | |
| DO3MHA-11 | 2026-09-02 12:12:15 | 49.39493 | 17.70977 | 23° | 13km/h | 20541m | 7.4m/s | -54.4°C | 4.0% | 0hPa | 2.6V | 00:00:00 | 01:26:24 | 00:00:00 | |
| PG1ADW-2 | 2026-09-02 12:12:14 | 49.39490 | 17.70975 | 43° | 15km/h | 20534m | 5.3m/s | -54.4°C | 4.0% | 0hPa | 2.6V | 00:00:00 | 00:00:00 | 00:00:00 | |
| OE3OSB-13 | 2026-09-02 12:12:11 | 49.39488 | 17.70964 | 126° | 9km/h | 20517m | 5.4m/s | -54.5°C | 1.0% | -1.0hPa | 2.6V | 00:00:00 | 00:00:00 | 00:00:00 | |
| OE5MMP-10 | 2026-09-02 12:12:08 | 49.39497 | 17.70953 | 142° | 11km/h | 20496m | 5.2m/s | -54.6°C | 4.0% | 0hPa | 2.6V | 00:00:00 | 01:26:17 | 08:30:00 | |
| OE5DRO-10 | 2026-09-02 12:12:05 | 49.39503 | 17.70947 | 156° | 15km/h | 20479m | 5.7m/s | -54.9°C | 4.2% | 0hPa | 2.7V | 00:00:00 | 00:00:00 | 00:00:00 | |
| PETON7-10 | 2026-09-02 12:12:02 | 49.39506 | 17.70940 | 97° | 16km/h | 20460m | 5.8m/s | -55.0°C | 4.3% | 0hPa | 2.6V | 00:00:00 | 00:00:00 | 08:30:00 | |
| S52SK | 2026-09-02 12:11:59 | 49.39506 | 17.70930 | 89° | 16km/h | 20448m | 4.7m/s | -55.0°C | 1.2% | 0hPa | 2.7V | 00:00:00 | 00:00:00 | 00:00:00 | |
| OE5MMP-10 | 2026-09-02 12:11:58 | 49.39505 | 17.70914 | 89° | 22km/h | 20435m | 7.7m/s | -55.0°C | 4.4% | 0hPa | 2.7V | 00:00:00 | 01:26:07 | 00:00:00 | |
| DO3MHA-11 | 2026-09-02 12:11:55 | 49.39507 | 17.70884 | 105° | 13km/h | 20416m | 4.3m/s | -54.9°C | 4.3% | 0hPa | 2.7V | 00:00:00 | 01:26:04 | 00:00:00 | |
| PG1ADW-2 | 2026-09-02 12:11:54 | 49.39509 | 17.70875 | 113° | 11km/h | 20410m | 6.1m/s | -54.9°C | 4.3% | 0hPa | 2.7V | 00:00:00 | 00:00:00 | 00:00:00 | |
| NBG1-10 | 2026-09-02 12:11:52 | 49.39514 | 17.70862 | 134° | 11km/h | 20397m | 6.0m/s | 0°C | 0% | 0hPa | 2.7V | 00:00:00 | 01:26:01 | 00:00:00 | |
| OE5DXL-15 | 2026-09-02 12:11:50 | 49.39519 | 17.70857 | 165° | 11km/h | 20385m | 7.2m/s | -54.9°C | 4.3% | 0hPa | 2.7V | 00:00:00 | 00:00:00 | 00:00:00 | |
| OE5MMP-10 | 2026-09-02 12:11:48 | 49.39520 | 17.70859 | 288° | 13km/h | 20371m | 6.4m/s | -54.9°C | 4.3% | 0hPa | 2.7V | 00:00:00 | 01:25:57 | 00:00:00 | |
| PETON7-10 | 2026-09-02 12:11:47 | 49.39520 | 17.70861 | 326° | 9km/h | 20365m | 6.2m/s | -54.9°C | 4.3% | 0hPa | 2.7V | 00:00:00 | 00:00:00 | 00:00:00 | |
| OE5DRO-10 | 2026-09-02 12:11:46 | 49.39518 | 17.70861 | 20° | 11km/h | 20359m | 5.9m/s | -54.8°C | 4.3% | 0hPa | 2.7V | 00:00:00 | 00:00:00 | 00:00:00 | |
| DO3MHA-11 | 2026-09-02 12:11:45 | 49.39516 | 17.70859 | 42° | 13km/h | 20353m | 6.6m/s | -54.7°C | 4.3% | 0hPa | 2.7V | 00:00:00 | 01:25:54 | 08:30:00 | |
| OE3OSB-13 | 2026-09-02 12:11:40 | 49.39515 | 17.70832 | 130° | 15km/h | 20323m | 5.7m/s | -54.5°C | 1.1% | -1.0hPa | 2.6V | 00:00:00 | 00:00:00 | 00:00:00 | |
| OE5MMP-10 | 2026-09-02 12:11:38 | 49.39520 | 17.70826 | 170° | 11km/h | 20311m | 5.1m/s | -54.3°C | 4.2% | 0hPa | 2.6V | 00:00:00 | 01:25:47 | 00:00:00 | |
| DO3MHA-11 | 2026-09-02 12:11:35 | 49.39523 | 17.70829 | 255° | 11km/h | 20291m | 5.5m/s | -54.1°C | 4.1% | 0hPa | 2.6V | 00:00:00 | 01:25:44 | 00:00:00 | |
| PG1ADW-2 | 2026-09-02 12:11:34 | 49.39523 | 17.70831 | 289° | 9km/h | 20285m | 6.1m/s | -54.1°C | 4.1% | 0hPa | 2.6V | 00:00:00 | 00:00:00 | 00:00:00 | |
| PETON7-10 | 2026-09-02 12:11:32 | 49.39521 | 17.70834 | 342° | 11km/h | 20274m | 5.1m/s | -54.0°C | 4.1% | 0hPa | 2.6V | 00:00:00 | 01:25:41 | 00:00:00 | |
| OE5DRO-10 | 2026-09-02 12:11:27 | 49.39523 | 17.70815 | 109° | 9km/h | 20241m | 4.9m/s | -54.0°C | 4.2% | 0hPa | 2.6V | 00:00:00 | 00:00:00 | 00:00:00 | |
| OE5MMP-10 | 2026-09-02 12:11:26 | 49.39524 | 17.70808 | 109° | 13km/h | 20235m | 6.7m/s | -53.9°C | 4.2% | 0hPa | 2.6V | 00:00:00 | 01:25:35 | 00:00:00 | |
| DO3MHA-11 | 2026-09-02 12:11:25 | 49.39526 | 17.70800 | 111° | 9km/h | 20228m | 7.0m/s | -53.9°C | 4.2% | 0hPa | 2.6V | 00:00:00 | 01:25:34 | 00:00:00 | |
| OE5DXL-15 | 2026-09-02 12:11:20 | 49.39529 | 17.70780 | 28° | 9km/h | 20197m | 6.1m/s | -53.8°C | 4.1% | 0hPa | 2.6V | 00:00:00 | 00:00:00 | 00:00:00 | |
| PETON7-10 | 2026-09-02 12:11:17 | 49.39527 | 17.70779 | 207° | 7km/h | 20177m | 6.6m/s | -53.6°C | 4.0% | 0hPa | 2.6V | 00:00:00 | 00:00:00 | 00:00:00 | |
| OE5MMP-10 | 2026-09-02 12:11:16 | 49.39529 | 17.70781 | 214° | 5km/h | 20170m | 7.6m/s | -53.6°C | 4.0% | 0hPa | 2.6V | 00:00:00 | 01:25:25 | 00:00:00 | |
| DO3MHA-11 | 2026-09-02 12:11:15 | 49.39531 | 17.70783 | 216° | 5km/h | 20163m | 5.9m/s | -53.5°C | 4.0% | 0hPa | 2.6V | 00:00:00 | 01:25:24 | 00:00:00 | |
| PG1ADW-2 | 2026-09-02 12:11:14 | 49.39533 | 17.70784 | 210° | 9km/h | 20157m | 7.3m/s | -53.4°C | 4.0% | 0hPa | 2.7V | 00:00:00 | 01:25:23 | 00:00:00 | |
| OE3OSB-13 | 2026-09-02 12:11:09 | 49.39539 | 17.70783 | 41° | 2km/h | 20124m | 6.9m/s | -53.2°C | 1.0% | -1.0hPa | 2.7V | 00:00:00 | 00:00:00 | 00:00:00 | |
| OE5DRO-10 | 2026-09-02 12:11:08 | 49.39538 | 17.70782 | 17° | 11km/h | 20116m | 8.6m/s | -53.2°C | 4.0% | 0hPa | 2.7V | 00:00:00 | 00:00:00 | 08:30:00 | |
| OE5MMP-10 | 2026-09-02 12:11:06 | 49.39535 | 17.70781 | 12° | 11km/h | 20101m | 5.9m/s | 0°C | 0% | 0hPa | 2.7V | 00:00:00 | 01:25:15 | 00:00:00 | |
| DO3MHA-11 | 2026-09-02 12:11:05 | 49.39533 | 17.70781 | 350° | 11km/h | 20095m | 7.2m/s | -52.9°C | 3.9% | 0hPa | 2.7V | 00:00:00 | 01:25:14 | 00:00:00 | |
| PETON7-10 | 2026-09-02 12:11:02 | 49.39531 | 17.70786 | 245° | 13km/h | 20076m | 7.5m/s | -52.9°C | 4.0% | 0hPa | 2.7V | 00:00:00 | 00:00:00 | 00:00:00 | |
| OE5MMP-10 | 2026-09-02 12:10:56 | 49.39546 | 17.70771 | 116° | 11km/h | 20034m | 7.2m/s | 0°C | 0% | 0hPa | 2.7V | 00:00:00 | 01:25:05 | 00:00:00 | |
| DO3MHA-11 | 2026-09-02 12:10:55 | 49.39548 | 17.70766 | 112° | 15km/h | 20027m | 7.8m/s | -52.8°C | 3.9% | 0hPa | 2.7V | 00:00:00 | 01:25:04 | 00:00:00 | |
| PG1ADW-2 | 2026-09-02 12:10:54 | 49.39549 | 17.70760 | 107° | 16km/h | 20020m | 5.2m/s | -52.7°C | 3.9% | 0hPa | 2.7V | 00:00:00 | 00:00:00 | 00:00:00 | |
| OE5DXL-15 | 2026-09-02 12:10:50 | 49.39551 | 17.70765 | 259° | 20km/h | 19990m | 5.2m/s | -52.8°C | 3.9% | 0hPa | 2.6V | 00:00:00 | 00:00:00 | 00:00:00 | |
| OE5DRO-10 | 2026-09-02 12:10:49 | 49.39552 | 17.70772 | 248° | 18km/h | 19985m | 5.0m/s | -52.7°C | 3.9% | 0hPa | 2.6V | 00:00:00 | 00:00:00 | 00:00:00 | |
| PETON7-10 | 2026-09-02 12:10:47 | 49.39558 | 17.70778 | 168° | 18km/h | 19975m | 6.3m/s | -52.6°C | 3.8% | 0hPa | 2.6V | 00:00:00 | 01:24:56 | 00:00:00 | |
| OE5MMP-10 | 2026-09-02 12:10:46 | 49.39561 | 17.70775 | 140° | 22km/h | 19967m | 10.0m/s | 0°C | 0% | 0hPa | 2.6V | 00:00:00 | 01:24:55 | 00:00:00 | |
| DO3MHA-11 | 2026-09-02 12:10:45 | 49.39564 | 17.70769 | 115° | 20km/h | 19958m | 7.3m/s | -52.5°C | 3.7% | 0hPa | 2.6V | 00:00:00 | 01:24:54 | 00:00:00 | |
| NBG1-10 | 2026-09-02 12:10:44 | 49.39566 | 17.70758 | 106° | 24km/h | 19950m | 8.3m/s | 0°C | 0% | 0hPa | 2.7V | 00:00:00 | 01:24:53 | 00:00:00 | |
| OE3OSB-13 | 2026-09-02 12:10:38 | 49.39582 | 17.70723 | 165° | 16km/h | 19907m | 7.7m/s | -52.4°C | 0.9% | -1.0hPa | 2.7V | 00:00:00 | 00:00:00 | 00:00:00 | |
| OE5MMP-10 | 2026-09-02 12:10:35 | 49.39593 | 17.70718 | 155° | 24km/h | 19886m | 7.1m/s | 0°C | 0% | 0hPa | 2.7V | 00:00:00 | 01:24:44 | 08:30:00 | |
| PG1ADW-2 | 2026-09-02 12:10:34 | 49.39596 | 17.70714 | 141° | 24km/h | 19881m | 4.4m/s | -52.5°C | 3.6% | 0hPa | 2.7V | 00:00:00 | 00:00:00 | 00:00:00 | |
| OE5DRO-10 | 2026-09-02 12:10:30 | 49.39607 | 17.70690 | 111° | 27km/h | 19853m | 6.9m/s | -52.9°C | 3.7% | 0hPa | 2.7V | 00:00:00 | 00:00:00 | 00:00:00 | |
| HA6NAB-11 | 2026-09-02 12:10:29 | 49.39607 | 17.70690 | 112° | 22km/h | 19853m | 7.0m/s | -53.0°C | 1.1% | 0hPa | 2.7V | 00:00:00 | 00:00:00 | 00:00:00 | |
| S52SK | 2026-09-02 12:10:27 | 49.39612 | 17.70673 | 116° | 27km/h | 19838m | 6.0m/s | -52.9°C | 1.1% | 0hPa | 2.7V | 00:00:00 | 00:00:00 | 00:00:00 | |
| DO3MHA-11 | 2026-09-02 12:10:25 | 49.39619 | 17.70643 | 104° | 24km/h | 19820m | 6.2m/s | -53.0°C | 3.8% | 0hPa | 2.7V | 00:00:00 | 01:24:34 | 00:00:00 | |
| HA6NAB-11 | 2026-09-02 12:10:22 | 49.39622 | 17.70623 | 106° | 26km/h | 19807m | 6.0m/s | -53.1°C | 1.1% | 0hPa | 2.7V | 00:00:00 | 00:00:00 | 00:00:00 | |
| S52SK | 2026-09-02 12:10:21 | 49.39623 | 17.70614 | 104° | 26km/h | 19800m | 6.0m/s | -53.2°C | 1.1% | 0hPa | 2.7V | 00:00:00 | 00:00:00 | 00:00:00 | |
| OE5DXL-15 | 2026-09-02 12:10:20 | 49.39625 | 17.70596 | 90° | 31km/h | 19787m | 5.2m/s | -53.2°C | 3.7% | 0hPa | 2.7V | 00:00:00 | 00:00:00 | 00:00:00 | |
| PETON7-10 | 2026-09-02 12:10:17 | 49.39626 | 17.70573 | 105° | 33km/h | 19768m | 5.0m/s | -53.4°C | 3.8% | 0hPa | 2.7V | 00:00:00 | 00:00:00 | 00:00:00 | |
| DO3MHA-11 | 2026-09-02 12:10:15 | 49.39629 | 17.70554 | 103° | 37km/h | 19756m | 6.7m/s | -53.5°C | 3.8% | 0hPa | 2.7V | 00:00:00 | 01:24:24 | 08:30:00 | |
| PG1ADW-2 | 2026-09-02 12:10:14 | 49.39631 | 17.70542 | 99° | 35km/h | 19749m | 6.1m/s | -53.5°C | 3.8% | 0hPa | 2.7V | 00:00:00 | 00:00:00 | 00:00:00 | |
| OE5DRO-10 | 2026-09-02 12:10:11 | 49.39635 | 17.70497 | 98° | 33km/h | 19728m | 4.7m/s | -53.7°C | 3.8% | 0hPa | 2.7V | 00:00:00 | 00:00:00 | 00:00:00 | |
| NBG1-10 | 2026-09-02 12:10:10 | 49.39636 | 17.70482 | 95° | 29km/h | 19723m | 6.7m/s | 0°C | 0% | 0hPa | 2.7V | 00:00:00 | 01:24:19 | 00:00:00 | |
| OE3OSB-13 | 2026-09-02 12:10:07 | 49.39634 | 17.70439 | 78° | 33km/h | 19703m | 7.1m/s | -54.3°C | 1.1% | -1.0hPa | 2.7V | 00:00:00 | 00:00:00 | 00:00:00 | |
| HA6NAB-11 | 2026-09-02 12:10:06 | 49.39632 | 17.70427 | 81° | 33km/h | 19696m | 6.8m/s | -54.3°C | 1.2% | 0hPa | 2.7V | 00:00:00 | 00:00:00 | 00:00:00 | |
| DO3MHA-11 | 2026-09-02 12:10:05 | 49.39631 | 17.70414 | 80° | 33km/h | 19690m | 4.9m/s | -54.4°C | 4.2% | 0hPa | 2.7V | 00:00:00 | 01:24:14 | 00:00:00 | |
| PETON7-10 | 2026-09-02 12:10:02 | 49.39625 | 17.70379 | 77° | 27km/h | 19673m | 7.4m/s | -54.5°C | 4.2% | 0hPa | 2.7V | 00:00:00 | 01:24:11 | 00:00:00 | |
| HA6NAB-11 | 2026-09-02 12:09:59 | 49.39622 | 17.70353 | 87° | 35km/h | 19658m | 5.3m/s | -54.4°C | 1.2% | 0hPa | 2.7V | 00:00:00 | 00:00:00 | 00:00:00 | |
| DO3MHA-11 | 2026-09-02 12:09:55 | 49.39616 | 17.70293 | 82° | 24km/h | 19626m | 5.6m/s | -54.2°C | 4.1% | 0hPa | 2.7V | 00:00:00 | 01:24:04 | 00:00:00 | |
| PG1ADW-2 | 2026-09-02 12:09:54 | 49.39615 | 17.70282 | 81° | 24km/h | 19620m | 6.6m/s | -54.2°C | 4.1% | 0hPa | 2.7V | 00:00:00 | 01:24:03 | 08:30:00 | |
| HA6NAB-11 | 2026-09-02 12:09:53 | 49.39615 | 17.70282 | 81° | 26km/h | 19620m | 6.7m/s | -54.2°C | 1.2% | 0hPa | 2.6V | 00:00:00 | 00:00:00 | 00:00:00 | |
| OE5DRO-10 | 2026-09-02 12:09:52 | 49.39613 | 17.70264 | 80° | 24km/h | 19608m | 6.0m/s | -54.1°C | 4.1% | 0hPa | 2.6V | 00:00:00 | 00:00:00 | 00:00:00 | |
| OE5DXL-15 | 2026-09-02 12:09:50 | 49.39612 | 17.70247 | 96° | 27km/h | 19594m | 7.1m/s | -54.0°C | 4.1% | 0hPa | 2.6V | 00:00:00 | 00:00:00 | 00:00:00 | |
| PETON7-10 | 2026-09-02 12:09:47 | 49.39614 | 17.70220 | 96° | 24km/h | 19576m | 4.2m/s | -53.8°C | 4.0% | 0hPa | 2.6V | 00:00:00 | 00:00:00 | 08:30:00 | |
| DO3MHA-11 | 2026-09-02 12:09:45 | 49.39615 | 17.70200 | 93° | 24km/h | 19562m | 9.4m/s | -53.8°C | 4.0% | 0hPa | 2.7V | 00:00:00 | 01:23:54 | 00:00:00 | |
| OE5MMP-10 | 2026-09-02 12:09:40 | 49.39616 | 17.70151 | 93° | 27km/h | 19529m | 6.8m/s | 0°C | 0% | 0hPa | 2.6V | 00:00:00 | 01:23:49 | 00:00:00 | |
| NBG1-10 | 2026-09-02 12:09:37 | 49.39621 | 17.70128 | 116° | 26km/h | 19508m | 6.4m/s | 0°C | 0% | 0hPa | 2.6V | 00:00:00 | 01:23:46 | 00:00:00 | |
| OE3OSB-13 | 2026-09-02 12:09:36 | 49.39623 | 17.70121 | 116° | 20km/h | 19502m | 3.6m/s | -53.9°C | 1.0% | -1.0hPa | 2.6V | 00:00:00 | 00:00:00 | 00:00:00 | |
| DO3MHA-11 | 2026-09-02 12:09:35 | 49.39625 | 17.70113 | 115° | 31km/h | 19497m | 6.8m/s | -53.9°C | 4.0% | 0hPa | 2.6V | 00:00:00 | 01:23:44 | 00:00:00 | |
| OE5DRO-10 | 2026-09-02 12:09:34 | 49.39631 | 17.70094 | 115° | 33km/h | 19483m | 6.2m/s | -53.9°C | 4.1% | 0hPa | 2.6V | 00:00:00 | 00:00:00 | 00:00:00 | |
| PETON7-10 | 2026-09-02 12:09:32 | 49.39634 | 17.70082 | 114° | 31km/h | 19476m | 6.4m/s | -53.9°C | 4.1% | 0hPa | 2.6V | 00:00:00 | 00:00:00 | 00:00:00 | |
| OE5MMP-10 | 2026-09-02 12:09:30 | 49.39640 | 17.70056 | 108° | 31km/h | 19463m | 5.0m/s | 0°C | 0% | 0hPa | 2.6V | 00:00:00 | 01:23:39 | 00:00:00 | |
| DO3MHA-11 | 2026-09-02 12:09:25 | 49.39656 | 17.70003 | 117° | 33km/h | 19429m | 5.0m/s | -54.0°C | 4.1% | 0hPa | 2.6V | 00:00:00 | 01:23:34 | 00:00:00 | |
| OE5DXL-15 | 2026-09-02 12:09:20 | 49.39670 | 17.69953 | 107° | 31km/h | 19396m | 7.2m/s | -53.9°C | 4.1% | 0hPa | 2.6V | 00:00:00 | 00:00:00 | 08:30:00 | |
| PETON7-10 | 2026-09-02 12:09:17 | 49.39674 | 17.69912 | 99° | 31km/h | 19376m | 7.9m/s | -53.7°C | 4.0% | 0hPa | 2.6V | 00:00:00 | 01:23:26 | 00:00:00 | |
| DO3MHA-11 | 2026-09-02 12:09:15 | 49.39677 | 17.69883 | 98° | 31km/h | 19363m | 6.8m/s | -53.7°C | 4.0% | 0hPa | 2.6V | 00:00:00 | 01:23:24 | 00:00:00 | |
| OE5DRO-10 | 2026-09-02 12:09:14 | 49.39678 | 17.69869 | 97° | 31km/h | 19357m | 4.5m/s | -53.7°C | 4.0% | 0hPa | 2.6V | 00:00:00 | 00:00:00 | 00:00:00 | |
| OE3JTB-15 | 2026-09-02 12:09:10 | 49.39698 | 17.69792 | 119° | 33km/h | 19312m | 8.3m/s | -53.6°C | 4.1% | 0hPa | 2.6V | 00:00:00 | 00:00:00 | 00:00:00 | |
| DO3MHA-11 | 2026-09-02 12:09:05 | 49.39704 | 17.69773 | 111° | 33km/h | 19299m | 6.1m/s | -53.4°C | 4.1% | 0hPa | 2.6V | 00:00:00 | 01:23:14 | 00:00:00 | |
| S52SK | 2026-09-02 12:09:04 | 49.39704 | 17.69773 | 111° | 26km/h | 19299m | 6.2m/s | -53.5°C | 1.2% | 0hPa | 2.6V | 00:00:00 | 00:00:00 | 00:00:00 | |
| PETON7-10 | 2026-09-02 12:09:02 | 49.39706 | 17.69740 | 92° | 31km/h | 19279m | 7.0m/s | -53.3°C | 4.0% | 0hPa | 2.6V | 00:00:00 | 00:00:00 | 00:00:00 | |
| S52SK | 2026-09-02 12:08:58 | 49.39710 | 17.69700 | 106° | 37km/h | 19258m | 5.8m/s | -53.2°C | 1.2% | 0hPa | 2.7V | 00:00:00 | 00:00:00 | 00:00:00 | |
| DO3MHA-11 | 2026-09-02 12:08:55 | 49.39725 | 17.69651 | 125° | 29km/h | 19232m | 5.6m/s | -53.0°C | 3.9% | 0hPa | 2.7V | 00:00:00 | 01:23:04 | 00:00:00 | |
| PG1ADW-2 | 2026-09-02 12:08:54 | 49.39729 | 17.69642 | 122° | 31km/h | 19226m | 6.7m/s | -53.0°C | 3.9% | 0hPa | 2.7V | 00:00:00 | 00:00:00 | 00:00:00 | |
| OE5DXL-15 | 2026-09-02 12:08:50 | 49.39736 | 17.69607 | 103° | 31km/h | 19200m | 6.2m/s | -52.8°C | 3.9% | 0hPa | 2.6V | 00:00:00 | 00:00:00 | 00:00:00 | |
| PETON7-10 | 2026-09-02 12:08:47 | 49.39739 | 17.69570 | 95° | 33km/h | 19180m | 6.1m/s | -52.7°C | 3.9% | 0hPa | 2.6V | 00:00:00 | 00:00:00 | 00:00:00 | |
| DO3MHA-11 | 2026-09-02 12:08:45 | 49.39742 | 17.69544 | 101° | 33km/h | 19166m | 6.6m/s | -52.7°C | 3.9% | 0hPa | 2.6V | 00:00:00 | 01:22:54 | 08:30:00 | |
| OE5DRO-10 | 2026-09-02 12:08:36 | 49.39757 | 17.69434 | 95° | 31km/h | 19107m | 6.3m/s | -52.2°C | 3.6% | 0hPa | 2.7V | 00:00:00 | 00:00:00 | 00:00:00 | |
| DO3MHA-11 | 2026-09-02 12:08:35 | 49.39758 | 17.69421 | 94° | 29km/h | 19100m | 7.5m/s | -52.2°C | 3.6% | 0hPa | 2.7V | 00:00:00 | 01:22:44 | 00:00:00 | |
| PG1ADW-2 | 2026-09-02 12:08:34 | 49.39758 | 17.69408 | 93° | 29km/h | 19094m | 5.4m/s | -52.1°C | 3.6% | 0hPa | 2.7V | 00:00:00 | 01:22:43 | 00:00:00 | |
| PETON7-10 | 2026-09-02 12:08:32 | 49.39758 | 17.69384 | 87° | 29km/h | 19082m | 5.0m/s | -52.1°C | 3.5% | 0hPa | 2.7V | 00:00:00 | 01:22:41 | 00:00:00 | |
| OE5MMP-10 | 2026-09-02 12:08:27 | 49.39760 | 17.69329 | 106° | 29km/h | 19050m | 5.7m/s | 0°C | 0% | 0hPa | 2.7V | 00:00:00 | 01:22:36 | 00:00:00 | |
| DO3MHA-11 | 2026-09-02 12:08:25 | 49.39765 | 17.69306 | 110° | 31km/h | 19038m | 7.7m/s | -52.6°C | 3.8% | 0hPa | 2.7V | 00:00:00 | 01:22:34 | 00:00:00 | |
| OE5DXL-15 | 2026-09-02 12:08:20 | 49.39776 | 17.69250 | 97° | 29km/h | 19005m | 6.5m/s | -52.6°C | 3.7% | 0hPa | 2.7V | 00:00:00 | 00:00:00 | 00:00:00 | |
| PETON7-10 | 2026-09-02 12:08:17 | 49.39778 | 17.69215 | 95° | 29km/h | 18985m | 6.4m/s | -52.7°C | 3.7% | 0hPa | 2.7V | 00:00:00 | 00:00:00 | 00:00:00 | |
| OE5MMP-10 | 2026-09-02 12:08:16 | 49.39779 | 17.69204 | 94° | 29km/h | 18979m | 5.4m/s | 0°C | 0% | 0hPa | 2.6V | 00:00:00 | 01:22:25 | 00:00:00 | |
| DO3MHA-11 | 2026-09-02 12:08:15 | 49.39779 | 17.69192 | 93° | 27km/h | 18973m | 5.8m/s | -52.8°C | 3.7% | 0hPa | 2.6V | 00:00:00 | 01:22:24 | 00:00:00 | |
| PG1ADW-2 | 2026-09-02 12:08:14 | 49.39780 | 17.69181 | 95° | 29km/h | 18967m | 7.6m/s | -52.8°C | 3.7% | 0hPa | 2.7V | 00:00:00 | 00:00:00 | 00:00:00 | |
| HA6NAB-11 | 2026-09-02 12:08:07 | 49.39782 | 17.69123 | 92° | 26km/h | 18927m | 6.7m/s | -53.0°C | 1.1% | 0hPa | 2.7V | 00:00:00 | 00:00:00 | 00:00:00 | |
| OE5MMP-10 | 2026-09-02 12:08:06 | 49.39782 | 17.69101 | 95° | 35km/h | 18914m | 7.0m/s | 0°C | 0% | 0hPa | 2.7V | 00:00:00 | 01:22:15 | 00:00:00 | |
| DO3MHA-11 | 2026-09-02 12:08:05 | 49.39783 | 17.69087 | 96° | 33km/h | 18908m | 5.1m/s | -53.3°C | 3.8% | 0hPa | 2.7V | 00:00:00 | 01:22:14 | 00:00:00 | |
| OE3OSB-13 | 2026-09-02 12:08:04 | 49.39786 | 17.69058 | 100° | 37km/h | 18895m | 7.1m/s | -53.5°C | 1.1% | -1.0hPa | 2.7V | 00:00:00 | 00:00:00 | 00:00:00 | |
| PETON7-10 | 2026-09-02 12:08:02 | 49.39788 | 17.69044 | 105° | 29km/h | 18889m | 5.8m/s | -53.4°C | 3.9% | 0hPa | 2.7V | 00:00:00 | 00:00:00 | 00:00:00 | |
| OE5DRO-10 | 2026-09-02 12:07:58 | 49.39795 | 17.68995 | 101° | 33km/h | 18865m | 7.8m/s | -53.4°C | 4.0% | 0hPa | 2.7V | 00:00:00 | 00:00:00 | 00:00:00 | |
| OE5MMP-10 | 2026-09-02 12:07:56 | 49.39797 | 17.68974 | 98° | 29km/h | 18852m | 6.3m/s | 0°C | 0% | 0hPa | 2.7V | 00:00:00 | 01:22:05 | 00:00:00 | |
| DO3MHA-11 | 2026-09-02 12:07:55 | 49.39797 | 17.68962 | 92° | 29km/h | 18846m | 5.2m/s | -53.5°C | 3.9% | 0hPa | 2.7V | 00:00:00 | 01:22:04 | 00:00:00 | |
| PG1ADW-2 | 2026-09-02 12:07:54 | 49.39797 | 17.68951 | 87° | 33km/h | 18841m | 5.6m/s | -53.6°C | 3.9% | 0hPa | 2.7V | 00:00:00 | 00:00:00 | 00:00:00 | |
| HA6NAB-11 | 2026-09-02 12:07:52 | 49.39797 | 17.68940 | 86° | 27km/h | 18835m | 7.1m/s | -53.7°C | 1.2% | 0hPa | 2.7V | 00:00:00 | 00:00:00 | 00:00:00 | |
| OE5DXL-15 | 2026-09-02 12:07:50 | 49.39795 | 17.68912 | 88° | 37km/h | 18818m | 2.1m/s | -53.5°C | 3.9% | 0hPa | 2.7V | 00:00:00 | 00:00:00 | 00:00:00 | |
| PETON7-10 | 2026-09-02 12:07:47 | 49.39796 | 17.68877 | 101° | 37km/h | 18800m | 5.9m/s | -53.4°C | 3.9% | 0hPa | 2.7V | 00:00:00 | 01:21:56 | 00:00:00 | |
| OE5MMP-10 | 2026-09-02 12:07:46 | 49.39798 | 17.68861 | 101° | 38km/h | 18795m | 5.1m/s | 0°C | 0% | 0hPa | 2.7V | 00:00:00 | 01:21:55 | 00:00:00 | |
| DO3MHA-11 | 2026-09-02 12:07:45 | 49.39800 | 17.68843 | 99° | 37km/h | 18788m | 7.3m/s | -53.4°C | 3.8% | 0hPa | 2.7V | 00:00:00 | 01:21:54 | 00:00:00 | |
| S52SK | 2026-09-02 12:07:42 | 49.39803 | 17.68790 | 96° | 38km/h | 18772m | 4.7m/s | -53.4°C | 1.1% | 0hPa | 2.6V | 00:00:00 | 00:00:00 | 00:00:00 | |
| HA6NAB-11 | 2026-09-02 12:07:41 | 49.39803 | 17.68790 | 96° | 38km/h | 18772m | 4.7m/s | -53.4°C | 1.1% | 0hPa | 2.6V | 00:00:00 | 00:00:00 | 00:00:00 | |
| OE5DRO-10 | 2026-09-02 12:07:39 | 49.39806 | 17.68751 | 97° | 37km/h | 18755m | 5.1m/s | -53.9°C | 4.0% | 0hPa | 2.6V | 00:00:00 | 00:00:00 | 00:00:00 | |
| DO3MHA-11 | 2026-09-02 12:07:35 | 49.39813 | 17.68708 | 105° | 44km/h | 18731m | 6.6m/s | -53.9°C | 4.1% | 0hPa | 2.6V | 00:00:00 | 01:21:44 | 00:00:00 | |
| PG1ADW-2 | 2026-09-02 12:07:34 | 49.39814 | 17.68696 | 98° | 37km/h | 18725m | 5.3m/s | -53.9°C | 4.1% | 0hPa | 2.6V | 00:00:00 | 00:00:00 | 00:00:00 | |
| PETON7-10 | 2026-09-02 12:07:32 | 49.39816 | 17.68666 | 94° | 37km/h | 18713m | 6.5m/s | -53.9°C | 4.1% | 0hPa | 2.6V | 00:00:00 | 00:00:00 | 08:30:00 | |
| OE3JTB-15 | 2026-09-02 12:07:29 | 49.39813 | 17.68556 | 86° | 37km/h | 18679m | 3.7m/s | -53.9°C | 4.1% | 0hPa | 2.6V | 00:00:00 | 01:21:35 | 00:00:00 | |
| DO3MHA-11 | 2026-09-02 12:07:25 | 49.39812 | 17.68540 | 86° | 29km/h | 18675m | 5.5m/s | -53.9°C | 4.1% | 0hPa | 2.6V | 00:00:00 | 01:21:34 | 00:00:00 | |
| OE5DRO-10 | 2026-09-02 12:07:20 | 49.39808 | 17.68488 | 90° | 33km/h | 18644m | 4.8m/s | -53.9°C | 4.2% | 0hPa | 2.6V | 00:00:00 | 00:00:00 | 00:00:00 | |
| PETON7-10 | 2026-09-02 12:07:17 | 49.39806 | 17.68458 | 81° | 33km/h | 18629m | 5.8m/s | -53.8°C | 4.0% | 0hPa | 2.7V | 00:00:00 | 00:00:00 | 00:00:00 | |
| DO3MHA-11 | 2026-09-02 12:07:15 | 49.39804 | 17.68431 | 86° | 35km/h | 18616m | 4.8m/s | -53.8°C | 4.0% | 0hPa | 2.7V | 00:00:00 | 01:21:24 | 08:30:00 | |
| PG1ADW-2 | 2026-09-02 12:07:14 | 49.39803 | 17.68416 | 86° | 33km/h | 18610m | 6.7m/s | -53.8°C | 4.0% | 0hPa | 2.6V | 00:00:00 | 01:21:23 | 00:00:00 | |
| OE5MMP-10 | 2026-09-02 12:07:08 | 49.39795 | 17.68332 | 76° | 35km/h | 18576m | 6.5m/s | 0°C | 0% | 0hPa | 2.6V | 00:00:00 | 01:21:17 | 00:00:00 | |
| DO3MHA-11 | 2026-09-02 12:07:05 | 49.39788 | 17.68301 | 71° | 33km/h | 18559m | 7.1m/s | -53.5°C | 4.0% | 0hPa | 2.6V | 00:00:00 | 01:21:14 | 00:00:00 | |
| OE3OSB-13 | 2026-09-02 12:07:01 | 49.39773 | 17.68244 | 67° | 35km/h | 18529m | 7.3m/s | -53.6°C | 1.1% | -1.0hPa | 2.6V | 00:00:00 | 00:00:00 | 00:00:00 | |
| OE3JTB-15 | 2026-09-02 12:07:00 | 49.39767 | 17.68220 | 70° | 47km/h | 18517m | 6.2m/s | -53.4°C | 4.0% | 0hPa | 2.6V | 00:00:00 | 00:00:00 | 08:30:00 | |
| DO3MHA-11 | 2026-09-02 12:06:55 | 49.39759 | 17.68187 | 72° | 24km/h | 18500m | 7.9m/s | -53.5°C | 4.0% | 0hPa | 2.7V | 00:00:00 | 01:21:04 | 00:00:00 | |
| PG1ADW-2 | 2026-09-02 12:06:54 | 49.39757 | 17.68179 | 72° | 22km/h | 18493m | 5.3m/s | -53.4°C | 4.0% | 0hPa | 2.7V | 00:00:00 | 00:00:00 | 08:30:00 | |
| OE5DXL-15 | 2026-09-02 12:06:50 | 49.39747 | 17.68151 | 57° | 26km/h | 18471m | 7.2m/s | -53.3°C | 3.9% | 0hPa | 2.6V | 00:00:00 | 00:00:00 | 00:00:00 | |
| PETON7-10 | 2026-09-02 12:06:47 | 49.39739 | 17.68125 | 69° | 24km/h | 18454m | 4.3m/s | -53.2°C | 4.0% | 0hPa | 2.6V | 00:00:00 | 00:00:00 | 00:00:00 | |
| DO3MHA-11 | 2026-09-02 12:06:45 | 49.39734 | 17.68106 | 69° | 20km/h | 18442m | 6.7m/s | -53.3°C | 3.9% | 0hPa | 2.6V | 00:00:00 | 01:20:54 | 00:00:00 | |
| OE5DRO-10 | 2026-09-02 12:06:42 | 49.39729 | 17.68082 | 71° | 26km/h | 18423m | 7.3m/s | -53.2°C | 3.9% | 0hPa | 2.7V | 00:00:00 | 00:00:00 | 00:00:00 | |
| DO3MHA-11 | 2026-09-02 12:06:35 | 49.39716 | 17.68034 | 74° | 31km/h | 18384m | 6.2m/s | -53.3°C | 3.9% | 0hPa | 2.7V | 00:00:00 | 01:20:44 | 00:00:00 | |
| PG1ADW-2 | 2026-09-02 12:06:34 | 49.39714 | 17.68023 | 77° | 33km/h | 18377m | 7.8m/s | -53.3°C | 3.9% | 0hPa | 2.7V | 00:00:00 | 00:00:00 | 00:00:00 | |
| HA6NAB-11 | 2026-09-02 12:06:33 | 49.39713 | 17.68010 | 82° | 37km/h | 18370m | 5.7m/s | -53.3°C | 1.2% | 0hPa | 2.7V | 00:00:00 | 00:00:00 | 00:00:00 | |
| PETON7-10 | 2026-09-02 12:06:32 | 49.39711 | 17.67996 | 82° | 31km/h | 18364m | 5.5m/s | -53.3°C | 3.9% | 0hPa | 2.7V | 00:00:00 | 00:00:00 | 00:00:00 | |
| OE3OSB-13 | 2026-09-02 12:06:30 | 49.39705 | 17.67956 | 72° | 31km/h | 18348m | 6.5m/s | -53.4°C | 1.1% | -1.0hPa | 2.7V | 00:00:00 | 00:00:00 | 00:00:00 | |
| HA6NAB-11 | 2026-09-02 12:06:26 | 49.39702 | 17.67934 | 85° | 26km/h | 18335m | 5.2m/s | -53.4°C | 0% | 0hPa | 2.7V | 00:00:00 | 00:00:00 | 00:00:00 | |
| DO3MHA-11 | 2026-09-02 12:06:25 | 49.39701 | 17.67915 | 85° | 33km/h | 18322m | 6.1m/s | -53.4°C | 3.9% | 0hPa | 2.7V | 00:00:00 | 01:20:34 | 00:00:00 | |
| OE5DRO-10 | 2026-09-02 12:06:23 | 49.39700 | 17.67896 | 92° | 38km/h | 18309m | 7.4m/s | -53.4°C | 3.9% | 0hPa | 2.7V | 00:00:00 | 00:00:00 | 00:00:00 | |
| OE5DXL-15 | 2026-09-02 12:06:20 | 49.39701 | 17.67859 | 89° | 44km/h | 18291m | 4.1m/s | -53.3°C | 3.9% | 0hPa | 2.6V | 00:00:00 | 00:00:00 | 00:00:00 | |
| PETON7-10 | 2026-09-02 12:06:17 | 49.39699 | 17.67814 | 87° | 42km/h | 18273m | 6.1m/s | -53.4°C | 4.0% | 0hPa | 2.6V | 00:00:00 | 01:20:26 | 00:00:00 | |
| DO3MHA-11 | 2026-09-02 12:06:15 | 49.39698 | 17.67786 | 84° | 42km/h | 18260m | 6.4m/s | -53.4°C | 3.9% | 0hPa | 2.6V | 00:00:00 | 01:20:24 | 00:00:00 | |
| PG1ADW-2 | 2026-09-02 12:06:14 | 49.39697 | 17.67772 | 82° | 42km/h | 18254m | 5.2m/s | -53.4°C | 3.9% | 0hPa | 2.6V | 00:00:00 | 00:00:00 | 00:00:00 | |
| HA6NAB-11 | 2026-09-02 12:06:09 | 49.39695 | 17.67713 | 93° | 42km/h | 18229m | 7.1m/s | -53.7°C | 0% | 0hPa | 2.6V | 00:00:00 | 00:00:00 | 00:00:00 | |
| DO3MHA-11 | 2026-09-02 12:06:05 | 49.39698 | 17.67624 | 93° | 42km/h | 18198m | 6.7m/s | -53.7°C | 3.9% | 0hPa | 2.6V | 00:00:00 | 01:20:14 | 00:00:00 | |
| OE5DRO-10 | 2026-09-02 12:06:04 | 49.39698 | 17.67606 | 87° | 47km/h | 18192m | 4.6m/s | -53.7°C | 3.9% | 0hPa | 2.6V | 00:00:00 | 00:00:00 | 00:00:00 | |
| HA6NAB-11 | 2026-09-02 12:06:03 | 49.39698 | 17.67606 | 87° | 44km/h | 18192m | 4.6m/s | -53.7°C | 0% | 0hPa | 2.6V | 00:00:00 | 00:00:00 | 00:00:00 | |
| OE3OSB-13 | 2026-09-02 12:05:59 | 49.39690 | 17.67512 | 78° | 40km/h | 18157m | 5.8m/s | -54.0°C | 1.1% | -1.0hPa | 2.6V | 00:00:00 | 00:00:00 | 00:00:00 | |
| DO3MHA-11 | 2026-09-02 12:05:55 | 49.39686 | 17.67462 | 88° | 51km/h | 18138m | 5.5m/s | -54.2°C | 4.1% | 0hPa | 2.6V | 00:00:00 | 01:20:04 | 00:00:00 | |
| PG1ADW-2 | 2026-09-02 12:05:54 | 49.39686 | 17.67442 | 87° | 49km/h | 18131m | 7.0m/s | -54.3°C | 4.2% | 0hPa | 2.6V | 00:00:00 | 01:20:03 | 00:00:00 | |
| OE5DXL-15 | 2026-09-02 12:05:50 | 49.39681 | 17.67358 | 86° | 46km/h | 18107m | 6.6m/s | -54.3°C | 4.1% | 0hPa | 2.6V | 00:00:00 | 00:00:00 | 00:00:00 | |
| PETON7-10 | 2026-09-02 12:05:47 | 49.39674 | 17.67300 | 76° | 46km/h | 18088m | 6.8m/s | -54.2°C | 4.1% | 0hPa | 2.6V | 00:00:00 | 00:00:00 | 00:00:00 | |
| OE5DRO-10 | 2026-09-02 12:05:45 | 49.39668 | 17.67265 | 77° | 46km/h | 18074m | 5.3m/s | -54.1°C | 4.2% | 0hPa | 2.6V | 00:00:00 | 00:00:00 | 00:00:00 | |
| DO3MHA-11 | 2026-09-02 12:05:35 | 49.39640 | 17.67091 | 81° | 42km/h | 18011m | 5.3m/s | -53.6°C | 4.1% | 0hPa | 2.6V | 00:00:00 | 01:19:44 | 00:00:00 | |
| PG1ADW-2 | 2026-09-02 12:05:34 | 49.39639 | 17.67075 | 81° | 40km/h | 18005m | 7.5m/s | -53.6°C | 4.1% | 0hPa | 2.6V | 00:00:00 | 00:00:00 | 00:00:00 | |
| PETON7-10 | 2026-09-02 12:05:32 | 49.39634 | 17.67041 | 76° | 40km/h | 17992m | 6.0m/s | -53.6°C | 4.1% | 0hPa | 2.6V | 00:00:00 | 01:19:41 | 00:00:00 | |
| OE3OSB-13 | 2026-09-02 12:05:28 | 49.39617 | 17.66959 | 68° | 44km/h | 17960m | 6.7m/s | -53.4°C | 1.1% | -1.0hPa | 2.6V | 00:00:00 | 00:00:00 | 00:00:00 | |
| OE5DRO-10 | 2026-09-02 12:05:26 | 49.39613 | 17.66944 | 71° | 37km/h | 17953m | 7.6m/s | -53.4°C | 4.0% | 0hPa | 2.6V | 00:00:00 | 00:00:00 | 08:30:00 | |
| DO3MHA-11 | 2026-09-02 12:05:22 | 49.39602 | 17.66881 | 78° | 35km/h | 17927m | 5.8m/s | -53.1°C | 4.0% | 0hPa | 2.6V | 00:00:00 | 01:19:31 | 00:00:00 | |
| OE5DXL-15 | 2026-09-02 12:05:20 | 49.39598 | 17.66851 | 77° | 29km/h | 17913m | 6.7m/s | -53.0°C | 4.1% | 0hPa | 2.6V | 00:00:00 | 00:00:00 | 00:00:00 | |
| PETON7-10 | 2026-09-02 12:05:17 | 49.39588 | 17.66818 | 54° | 31km/h | 17894m | 5.5m/s | -52.9°C | 4.0% | 0hPa | 2.6V | 00:00:00 | 00:00:00 | 08:30:00 | |
| PG1ADW-2 | 2026-09-02 12:05:14 | 49.39573 | 17.66786 | 62° | 31km/h | 17873m | 6.3m/s | -52.7°C | 4.0% | 0hPa | 2.6V | 00:00:00 | 00:00:00 | 00:00:00 | |
| DO3MHA-11 | 2026-09-02 12:05:12 | 49.39565 | 17.66760 | 69° | 29km/h | 17859m | 5.6m/s | -52.7°C | 3.9% | 0hPa | 2.6V | 00:00:00 | 01:19:21 | 00:00:00 | |
| OE5DRO-10 | 2026-09-02 12:05:07 | 49.39548 | 17.66702 | 52° | 26km/h | 17825m | 4.1m/s | -52.4°C | 3.8% | 0hPa | 2.7V | 00:00:00 | 00:00:00 | 00:00:00 | |
| OE3OSB-13 | 2026-09-02 12:04:57 | 49.39506 | 17.66601 | 52° | 33km/h | 17752m | 5.9m/s | -51.9°C | 1.0% | -1.0hPa | 2.7V | 00:00:00 | 00:00:00 | 00:00:00 | |
| S52SK | 2026-09-02 12:04:55 | 49.39506 | 17.66601 | 54° | 35km/h | 17752m | 5.9m/s | -51.9°C | 1.1% | 0hPa | 2.7V | 00:00:00 | 00:00:00 | 00:00:00 | |
| PG1ADW-2 | 2026-09-02 12:04:54 | 49.39496 | 17.66582 | 49° | 24km/h | 17738m | 5.9m/s | -51.8°C | 3.7% | 0hPa | 2.7V | 00:00:00 | 00:00:00 | 00:00:00 | |
| DO3MHA-11 | 2026-09-02 12:04:52 | 49.39489 | 17.66570 | 53° | 24km/h | 17726m | 7.1m/s | -51.7°C | 3.7% | 0hPa | 2.6V | 00:00:00 | 01:19:01 | 00:00:00 | |
| OE5DXL-15 | 2026-09-02 12:04:50 | 49.39484 | 17.66559 | 65° | 31km/h | 17713m | 7.0m/s | -51.8°C | 3.7% | 0hPa | 2.6V | 00:00:00 | 01:18:59 | 08:30:00 | |
| S52SK | 2026-09-02 12:04:49 | 49.39484 | 17.66558 | 65° | 16km/h | 17713m | 7.0m/s | -51.9°C | 1.2% | 0hPa | 2.7V | 00:00:00 | 00:00:00 | 00:00:00 | |
| OE5DRO-10 | 2026-09-02 12:04:48 | 49.39482 | 17.66546 | 79° | 27km/h | 17701m | 6.3m/s | -52.0°C | 3.7% | 0hPa | 2.7V | 00:00:00 | 00:00:00 | 00:00:00 | |
| PETON7-10 | 2026-09-02 12:04:47 | 49.39480 | 17.66538 | 73° | 27km/h | 17694m | 8.7m/s | -52.1°C | 3.7% | 0hPa | 2.7V | 00:00:00 | 01:18:56 | 00:00:00 | |
| DO3MHA-11 | 2026-09-02 12:04:42 | 49.39464 | 17.66488 | 65° | 27km/h | 17662m | 6.2m/s | -52.2°C | 3.6% | 0hPa | 2.7V | 00:00:00 | 01:18:51 | 00:00:00 | |
| PG1ADW-2 | 2026-09-02 12:04:34 | 49.39460 | 17.66410 | 99° | 38km/h | 17612m | 5.2m/s | -52.5°C | 3.7% | 0hPa | 2.7V | 00:00:00 | 01:18:43 | 00:00:00 | |
| PETON7-10 | 2026-09-02 12:04:32 | 49.39462 | 17.66386 | 101° | 38km/h | 17599m | 5.7m/s | -52.4°C | 3.8% | 0hPa | 2.7V | 00:00:00 | 00:00:00 | 00:00:00 | |
| OE5DRO-10 | 2026-09-02 12:04:29 | 49.39465 | 17.66346 | 93° | 42km/h | 17582m | 5.6m/s | -52.5°C | 3.8% | 0hPa | 2.6V | 00:00:00 | 00:00:00 | 00:00:00 | |
| OE3OSB-13 | 2026-09-02 12:04:26 | 49.39467 | 17.66289 | 93° | 37km/h | 17558m | 3.4m/s | -52.7°C | 1.1% | -1.0hPa | 2.7V | 00:00:00 | 00:00:00 | 00:00:00 | |
| DO3MHA-11 | 2026-09-02 12:04:22 | 49.39470 | 17.66246 | 102° | 42km/h | 17542m | 3.7m/s | -52.8°C | 3.8% | 0hPa | 2.7V | 00:00:00 | 01:18:31 | 00:00:00 | |
| OE5DXL-15 | 2026-09-02 12:04:20 | 49.39475 | 17.66215 | 103° | 49km/h | 17529m | 7.9m/s | -52.9°C | 3.9% | 0hPa | 2.7V | 00:00:00 | 00:00:00 | 00:00:00 | |
| PETON7-10 | 2026-09-02 12:04:17 | 49.39479 | 17.66168 | 95° | 53km/h | 17511m | 7.7m/s | -52.9°C | 3.9% | 0hPa | 2.7V | 00:00:00 | 00:00:00 | 00:00:00 | |
| PG1ADW-2 | 2026-09-02 12:04:14 | 49.39478 | 17.66117 | 83° | 53km/h | 17494m | 6.2m/s | -53.0°C | 3.9% | 0hPa | 2.7V | 00:00:00 | 00:00:00 | 00:00:00 | |
| DO3MHA-11 | 2026-09-02 12:04:12 | 49.39473 | 17.66080 | 76° | 57km/h | 17482m | 6.7m/s | -53.0°C | 3.9% | 0hPa | 2.7V | 00:00:00 | 01:18:21 | 08:30:00 | |
| OE5DRO-10 | 2026-09-02 12:04:10 | 49.39468 | 17.66040 | 82° | 51km/h | 17468m | 4.8m/s | -52.9°C | 3.8% | 0hPa | 2.7V | 00:00:00 | 00:00:00 | 00:00:00 | |
| PETON7-10 | 2026-09-02 12:04:02 | 49.39461 | 17.65865 | 80° | 47km/h | 17424m | 4.3m/s | -52.6°C | 3.9% | 0hPa | 2.7V | 00:00:00 | 01:18:11 | 00:00:00 | |
| PG1ADW-2 | 2026-09-02 12:03:54 | 49.39449 | 17.65715 | 85° | 47km/h | 17373m | 5.8m/s | -52.4°C | 3.9% | 0hPa | 2.7V | 00:00:00 | 00:00:00 | 08:30:00 | |
| DO3MHA-11 | 2026-09-02 12:03:52 | 49.39447 | 17.65679 | 88° | 47km/h | 17361m | 5.2m/s | -52.4°C | 3.8% | 0hPa | 2.6V | 00:00:00 | 01:18:01 | 00:00:00 | |
| OE5DRO-10 | 2026-09-02 12:03:51 | 49.39447 | 17.65660 | 91° | 49km/h | 17355m | 6.9m/s | -52.5°C | 3.8% | 0hPa | 2.6V | 00:00:00 | 00:00:00 | 00:00:00 | |
| OE5DXL-15 | 2026-09-02 12:03:50 | 49.39448 | 17.65642 | 95° | 49km/h | 17348m | 6.8m/s | -52.5°C | 3.8% | 0hPa | 2.6V | 00:00:00 | 00:00:00 | 00:00:00 | |
| PETON7-10 | 2026-09-02 12:03:47 | 49.39452 | 17.65588 | 97° | 49km/h | 17332m | 5.0m/s | -52.5°C | 3.8% | 0hPa | 2.6V | 00:00:00 | 00:00:00 | 00:00:00 | |
| DO3MHA-11 | 2026-09-02 12:03:42 | 49.39458 | 17.65497 | 94° | 49km/h | 17301m | 4.4m/s | -52.4°C | 3.8% | 0hPa | 2.6V | 00:00:00 | 01:17:51 | 00:00:00 | |
| S52SK | 2026-09-02 12:03:36 | 49.39460 | 17.65404 | 89° | 51km/h | 17270m | 4.2m/s | -52.3°C | 1.2% | 0hPa | 2.7V | 00:00:00 | 00:00:00 | 00:00:00 | |
| PG1ADW-2 | 2026-09-02 12:03:34 | 49.39458 | 17.65344 | 88° | 51km/h | 17251m | 4.5m/s | -52.1°C | 3.8% | 0hPa | 2.7V | 00:00:00 | 00:00:00 | 00:00:00 | |
| PETON7-10 | 2026-09-02 12:03:32 | 49.39458 | 17.65304 | 90° | 51km/h | 17239m | 4.8m/s | -52.0°C | 3.8% | 0hPa | 2.7V | 00:00:00 | 00:00:00 | 00:00:00 | |
| S52SK | 2026-09-02 12:03:31 | 49.39458 | 17.65284 | 91° | 53km/h | 17234m | 5.9m/s | -52.0°C | 1.2% | 0hPa | 2.7V | 00:00:00 | 00:00:00 | 00:00:00 | |
| OE3OSB-13 | 2026-09-02 12:03:23 | 49.39450 | 17.65139 | 71° | 51km/h | 17183m | 7.0m/s | -52.1°C | 1.0% | -1.0hPa | 2.7V | 00:00:00 | 00:00:00 | 00:00:00 | |
| DO3MHA-11 | 2026-09-02 12:03:22 | 49.39446 | 17.65119 | 72° | 53km/h | 17176m | 7.7m/s | -52.0°C | 3.7% | 0hPa | 2.7V | 00:00:00 | 01:17:31 | 00:00:00 | |
| OE5DXL-15 | 2026-09-02 12:03:20 | 49.39437 | 17.65077 | 72° | 44km/h | 17164m | 6.4m/s | -52.0°C | 3.7% | 0hPa | 2.7V | 00:00:00 | 00:00:00 | 00:00:00 | |
| PETON7-10 | 2026-09-02 12:03:17 | 49.39425 | 17.65015 | 77° | 46km/h | 17146m | 5.4m/s | -52.0°C | 3.7% | 0hPa | 2.7V | 00:00:00 | 01:17:26 | 00:00:00 | |
| PG1ADW-2 | 2026-09-02 12:03:14 | 49.39417 | 17.64958 | 75° | 42km/h | 17128m | 7.4m/s | -52.0°C | 3.8% | 0hPa | 2.7V | 00:00:00 | 01:17:23 | 00:00:00 | |
| OE5DRO-10 | 2026-09-02 12:03:13 | 49.39414 | 17.64941 | 73° | 42km/h | 17122m | 5.7m/s | -51.9°C | 3.7% | 0hPa | 2.7V | 00:00:00 | 00:00:00 | 00:00:00 | |
| DO3MHA-11 | 2026-09-02 12:03:12 | 49.39410 | 17.64925 | 74° | 44km/h | 17117m | 3.9m/s | -51.9°C | 3.8% | 0hPa | 2.7V | 00:00:00 | 01:17:21 | 00:00:00 | |
| DO3MHA-11 | 2026-09-02 12:03:02 | 49.39377 | 17.64760 | 70° | 37km/h | 17055m | 6.7m/s | -51.9°C | 3.8% | 0hPa | 2.6V | 00:00:00 | 01:17:11 | 00:00:00 | |
| OE5DRO-10 | 2026-09-02 12:02:54 | 49.39355 | 17.64655 | 75° | 31km/h | 17006m | 8.2m/s | -51.8°C | 3.7% | 0hPa | 2.6V | 00:00:00 | 00:00:00 | 00:00:00 | |
| DO3MHA-11 | 2026-09-02 12:02:52 | 49.39349 | 17.64628 | 75° | 33km/h | 16994m | 6.2m/s | -51.8°C | 3.8% | 0hPa | 2.6V | 00:00:00 | 01:17:01 | 00:00:00 | |
| OE5DXL-15 | 2026-09-02 12:02:50 | 49.39345 | 17.64597 | 81° | 29km/h | 16983m | 6.0m/s | -51.7°C | 3.8% | 0hPa | 2.6V | 00:00:00 | 00:00:00 | 00:00:00 | |
| PETON7-10 | 2026-09-02 12:02:47 | 49.39341 | 17.64556 | 86° | 29km/h | 16964m | 6.0m/s | -51.5°C | 3.8% | 0hPa | 2.6V | 00:00:00 | 00:00:00 | 00:00:00 | |
| DO3MHA-11 | 2026-09-02 12:02:42 | 49.39338 | 17.64506 | 78° | 29km/h | 16933m | 6.1m/s | -51.3°C | 3.7% | 0hPa | 2.6V | 00:00:00 | 01:16:51 | 08:30:00 | |
| HA6NAB-11 | 2026-09-02 12:02:38 | 49.39332 | 17.64475 | 70° | 31km/h | 16915m | 7.6m/s | -51.3°C | 0% | 0hPa | 2.6V | 00:00:00 | 00:00:00 | 00:00:00 | |
| OE5DRO-10 | 2026-09-02 12:02:35 | 49.39321 | 17.64429 | 76° | 27km/h | 16889m | 5.7m/s | -51.0°C | 3.5% | 0hPa | 2.6V | 00:00:00 | 00:00:00 | 08:30:00 | |
| PG1ADW-2 | 2026-09-02 12:02:34 | 49.39319 | 17.64418 | 79° | 27km/h | 16883m | 6.4m/s | -51.0°C | 3.5% | 0hPa | 2.6V | 00:00:00 | 00:00:00 | 00:00:00 | |
| PETON7-10 | 2026-09-02 12:02:32 | 49.39318 | 17.64396 | 88° | 27km/h | 16871m | 7.1m/s | -51.0°C | 3.5% | 0hPa | 2.6V | 00:00:00 | 01:16:41 | 00:00:00 | |
| DO3MHA-11 | 2026-09-02 12:02:22 | 49.39314 | 17.64297 | 80° | 31km/h | 16810m | 5.9m/s | -51.0°C | 3.7% | 0hPa | 2.6V | 00:00:00 | 01:16:31 | 00:00:00 | |
| OE5DXL-15 | 2026-09-02 12:02:21 | 49.39311 | 17.64274 | 82° | 42km/h | 16801m | 6.8m/s | -51.1°C | 3.6% | 0hPa | 2.6V | 00:00:00 | 00:00:00 | 00:00:00 | |
| PETON7-10 | 2026-09-02 12:02:17 | 49.39312 | 17.64237 | 100° | 38km/h | 16780m | 6.5m/s | -51.1°C | 3.5% | 0hPa | 2.6V | 00:00:00 | 00:00:00 | 00:00:00 | |
| OE5DRO-10 | 2026-09-02 12:02:16 | 49.39314 | 17.64226 | 106° | 40km/h | 16775m | 4.0m/s | -51.1°C | 3.5% | 0hPa | 2.7V | 00:00:00 | 00:00:00 | 00:00:00 | |
| PG1ADW-2 | 2026-09-02 12:02:14 | 49.39319 | 17.64203 | 111° | 44km/h | 16763m | 7.6m/s | -51.1°C | 3.5% | 0hPa | 2.7V | 00:00:00 | 00:00:00 | 00:00:00 | |
| DO3MHA-11 | 2026-09-02 12:02:06 | 49.39329 | 17.64087 | 90° | 46km/h | 16712m | 4.5m/s | -51.4°C | 3.6% | 0hPa | 2.7V | 00:00:00 | 01:16:15 | 00:00:00 | |
| PETON7-10 | 2026-09-02 12:02:02 | 49.39330 | 17.64020 | 94° | 46km/h | 16686m | 6.9m/s | -51.5°C | 3.7% | 0hPa | 2.7V | 00:00:00 | 00:00:00 | 00:00:00 | |
| OE5DRO-10 | 2026-09-02 12:01:57 | 49.39337 | 17.63926 | 96° | 46km/h | 16655m | 6.5m/s | -51.5°C | 3.7% | 0hPa | 2.7V | 00:00:00 | 00:00:00 | 00:00:00 | |
| DO3MHA-11 | 2026-09-02 12:01:56 | 49.39338 | 17.63904 | 94° | 46km/h | 16649m | 4.7m/s | -51.5°C | 3.7% | 0hPa | 2.7V | 00:00:00 | 01:16:05 | 00:00:00 | |
| PG1ADW-2 | 2026-09-02 12:01:54 | 49.39339 | 17.63863 | 94° | 46km/h | 16635m | 8.9m/s | -51.6°C | 3.7% | 0hPa | 2.7V | 00:00:00 | 01:16:03 | 00:00:00 | |
| OE5DXL-15 | 2026-09-02 12:01:50 | 49.39340 | 17.63795 | 87° | 46km/h | 16612m | 6.6m/s | -51.6°C | 3.6% | 0hPa | 2.7V | 00:00:00 | 00:00:00 | 00:00:00 | |
| PETON7-10 | 2026-09-02 12:01:47 | 49.39340 | 17.63752 | 93° | 47km/h | 16591m | 6.5m/s | -51.6°C | 3.6% | 0hPa | 2.7V | 00:00:00 | 01:15:56 | 00:00:00 | |
| DO3MHA-11 | 2026-09-02 12:01:46 | 49.39341 | 17.63736 | 92° | 46km/h | 16585m | 4.7m/s | -51.6°C | 3.6% | 0hPa | 2.7V | 00:00:00 | 01:15:55 | 00:00:00 | |
| OE5DRO-10 | 2026-09-02 12:01:38 | 49.39340 | 17.63593 | 92° | 47km/h | 16533m | 4.6m/s | -51.7°C | 3.7% | 0hPa | 2.7V | 00:00:00 | 00:00:00 | 00:00:00 | |
| DO3MHA-11 | 2026-09-02 12:01:36 | 49.39341 | 17.63555 | 93° | 55km/h | 16521m | 4.4m/s | -51.8°C | 3.7% | 0hPa | 2.7V | 00:00:00 | 01:15:45 | 00:00:00 | |
| PG1ADW-2 | 2026-09-02 12:01:34 | 49.39343 | 17.63512 | 95° | 49km/h | 16509m | 7.5m/s | -51.8°C | 3.7% | 0hPa | 2.7V | 00:00:00 | 00:00:00 | 00:00:00 | |
| PETON7-10 | 2026-09-02 12:01:32 | 49.39346 | 17.63470 | 97° | 46km/h | 16497m | 6.1m/s | -51.9°C | 3.8% | 0hPa | 2.7V | 00:00:00 | 00:00:00 | 00:00:00 | |
| DO3MHA-11 | 2026-09-02 12:01:26 | 49.39349 | 17.63357 | 84° | 42km/h | 16460m | 4.8m/s | -52.0°C | 3.8% | 0hPa | 2.7V | 00:00:00 | 01:15:35 | 00:00:00 | |
| OE5DXL-15 | 2026-09-02 12:01:20 | 49.39347 | 17.63264 | 94° | 55km/h | 16424m | 5.7m/s | -52.3°C | 3.8% | 0hPa | 2.7V | 00:00:00 | 00:00:00 | 00:00:00 | |
| OE5DRO-10 | 2026-09-02 12:01:19 | 49.39348 | 17.63244 | 97° | 58km/h | 16418m | 7.7m/s | -52.4°C | 3.8% | 0hPa | 2.7V | 00:00:00 | 00:00:00 | 00:00:00 | |
| PETON7-10 | 2026-09-02 12:01:17 | 49.39353 | 17.63201 | 100° | 58km/h | 16405m | 6.0m/s | -52.5°C | 3.9% | 0hPa | 2.7V | 00:00:00 | 00:00:00 | 00:00:00 | |
| PG1ADW-2 | 2026-09-02 12:01:14 | 49.39357 | 17.63131 | 92° | 55km/h | 16385m | 7.1m/s | -52.4°C | 4.0% | 0hPa | 2.7V | 00:00:00 | 00:00:00 | 00:00:00 | |
| PETON7-10 | 2026-09-02 12:01:02 | 49.39354 | 17.62864 | 93° | 51km/h | 16308m | 5.7m/s | -52.7°C | 4.0% | 0hPa | 2.7V | 00:00:00 | 01:15:11 | 00:00:00 | |
| OE5DRO-10 | 2026-09-02 12:01:00 | 49.39355 | 17.62821 | 91° | 49km/h | 16296m | 4.9m/s | -52.7°C | 3.9% | 0hPa | 2.7V | 00:00:00 | 00:00:00 | 00:00:00 | |
| DO3MHA-11 | 2026-09-02 12:00:55 | 49.39354 | 17.62734 | 88° | 53km/h | 16267m | 6.4m/s | -53.0°C | 4.1% | 0hPa | 2.7V | 00:00:00 | 01:15:04 | 00:00:00 | |
| PG1ADW-2 | 2026-09-02 12:00:54 | 49.39353 | 17.62716 | 89° | 51km/h | 16259m | 8.2m/s | -53.1°C | 4.2% | 0hPa | 2.7V | 00:00:00 | 00:00:00 | 08:30:00 | |
| OE5DXL-15 | 2026-09-02 12:00:50 | 49.39351 | 17.62634 | 86° | 46km/h | 16235m | 5.5m/s | -53.2°C | 4.2% | 0hPa | 2.7V | 00:00:00 | 00:00:00 | 00:00:00 | |
| PETON7-10 | 2026-09-02 12:00:48 | 49.39346 | 17.62567 | 83° | 49km/h | 16215m | 7.0m/s | -53.1°C | 4.2% | 0hPa | 2.7V | 00:00:00 | 00:00:00 | 08:30:00 | |
| DO3MHA-11 | 2026-09-02 12:00:45 | 49.39344 | 17.62527 | 86° | 49km/h | 16205m | 6.4m/s | -53.1°C | 4.3% | 0hPa | 2.7V | 00:00:00 | 01:14:54 | 08:30:00 | |
| S52SK | 2026-09-02 12:00:43 | 49.39343 | 17.62509 | 87° | 47km/h | 16197m | 8.6m/s | -53.2°C | 1.5% | 0hPa | 2.7V | 00:00:00 | 00:00:00 | 00:00:00 | |
| OE5DRO-10 | 2026-09-02 12:00:41 | 49.39340 | 17.62457 | 86° | 42km/h | 16178m | 4.9m/s | -53.0°C | 4.2% | 0hPa | 2.7V | 00:00:00 | 00:00:00 | 00:00:00 | |
| S52SK | 2026-09-02 12:00:38 | 49.39336 | 17.62399 | 82° | 51km/h | 16158m | 4.8m/s | -53.0°C | 1.5% | 0hPa | 2.7V | 00:00:00 | 00:00:00 | 00:00:00 | |
| PG1ADW-2 | 2026-09-02 12:00:34 | 49.39328 | 17.62318 | 83° | 38km/h | 16133m | 6.7m/s | -52.8°C | 4.1% | 0hPa | 2.7V | 00:00:00 | 01:14:43 | 00:00:00 | |
| PETON7-10 | 2026-09-02 12:00:32 | 49.39324 | 17.62283 | 78° | 37km/h | 16119m | 5.7m/s | -52.7°C | 4.1% | 0hPa | 2.7V | 00:00:00 | 00:00:00 | 00:00:00 | |
| HA6NAB-11 | 2026-09-02 12:00:28 | 49.39319 | 17.62241 | 82° | 35km/h | 16099m | 6.8m/s | -52.6°C | 0% | 0hPa | 2.7V | 00:00:00 | 00:00:00 | 00:00:00 | |
| DO3MHA-11 | 2026-09-02 12:00:25 | 49.39314 | 17.62176 | 84° | 38km/h | 16068m | 6.5m/s | -52.3°C | 4.1% | 0hPa | 2.7V | 00:00:00 | 01:14:33 | 00:00:00 | |
| OE5DRO-10 | 2026-09-02 12:00:22 | 49.39311 | 17.62147 | 82° | 37km/h | 16057m | 7.4m/s | -52.2°C | 4.0% | 0hPa | 2.7V | 00:00:00 | 00:00:00 | 00:00:00 | |
| OE5DXL-15 | 2026-09-02 12:00:20 | 49.39309 | 17.62118 | 84° | 40km/h | 16044m | 5.8m/s | -52.2°C | 4.0% | 0hPa | 2.7V | 00:00:00 | 00:00:00 | 08:30:00 | |
| PETON7-10 | 2026-09-02 12:00:17 | 49.39305 | 17.62072 | 84° | 37km/h | 16025m | 6.1m/s | -52.1°C | 4.0% | 0hPa | 2.7V | 00:00:00 | 01:14:26 | 00:00:00 | |
| DO3MHA-11 | 2026-09-02 12:00:14 | 49.39302 | 17.62029 | 86° | 35km/h | 16006m | 8.6m/s | -52.1°C | 4.0% | 0hPa | 2.7V | 00:00:00 | 01:14:23 | 00:00:00 | |
| HA6NAB-11 | 2026-09-02 12:00:12 | 49.39302 | 17.62017 | 87° | 33km/h | 15999m | 5.0m/s | -52.2°C | 0% | 0hPa | 2.7V | 00:00:00 | 00:00:00 | 00:00:00 | |
| HA6NAB-11 | 2026-09-02 12:00:07 | 49.39303 | 17.61943 | 87° | 38km/h | 15962m | 7.0m/s | -52.2°C | 0% | 0hPa | 2.7V | 00:00:00 | 00:00:00 | 00:00:00 | |
| DO3MHA-11 | 2026-09-02 12:00:04 | 49.39298 | 17.61897 | 85° | 44km/h | 15943m | 6.6m/s | -52.2°C | 3.9% | 0hPa | 2.7V | 00:00:00 | 01:14:13 | 00:00:00 | |
| OE3OSB-13 | 2026-09-02 11:59:46 | 49.39358 | 17.61571 | 102° | 55km/h | 15817m | 5.7m/s | -52.8°C | 1.3% | -1.0hPa | 2.7V | 00:00:00 | 00:00:00 | 00:00:00 | |
| DO3MHA-11 | 2026-09-02 11:59:44 | 49.39360 | 17.61551 | 102° | 51km/h | 15813m | 2.5m/s | -52.8°C | 4.1% | 0hPa | 2.7V | 00:00:00 | 01:13:53 | 00:00:00 | |
| PG1ADW-2 | 2026-09-02 11:59:35 | 49.39385 | 17.61361 | 100° | 57km/h | 15753m | 3.1m/s | -52.6°C | 4.0% | 0hPa | 2.7V | 00:00:00 | 00:00:00 | 00:00:00 | |
| PETON7-10 | 2026-09-02 11:59:32 | 49.39388 | 17.61322 | 96° | 57km/h | 15741m | 8.0m/s | -52.6°C | 4.0% | 0hPa | 2.7V | 00:00:00 | 01:13:41 | 00:00:00 | |
| OE5DRO-10 | 2026-09-02 11:59:25 | 49.39394 | 17.61160 | 96° | 58km/h | 15699m | 6.6m/s | -52.5°C | 4.0% | 0hPa | 2.7V | 00:00:00 | 00:00:00 | 00:00:00 | |
| DO3MHA-11 | 2026-09-02 11:59:24 | 49.39395 | 17.61139 | 94° | 55km/h | 15694m | 3.8m/s | -52.5°C | 4.0% | 0hPa | 2.7V | 00:00:00 | 01:13:33 | 00:00:00 | |
| HA6NAB-11 | 2026-09-02 11:59:23 | 49.39395 | 17.61139 | 94° | 53km/h | 15694m | 3.9m/s | -52.6°C | 0% | 0hPa | 2.7V | 00:00:00 | 00:00:00 | 00:00:00 | |
| S52SK | 2026-09-02 11:59:21 | 49.39396 | 17.61099 | 92° | 51km/h | 15681m | 7.8m/s | -52.5°C | 1.5% | 0hPa | 2.7V | 00:00:00 | 00:00:00 | 00:00:00 | |
| OE5DXL-15 | 2026-09-02 11:59:20 | 49.39395 | 17.61058 | 87° | 60km/h | 15669m | 6.0m/s | -52.5°C | 4.1% | 0hPa | 2.7V | 00:00:00 | 00:00:00 | 00:00:00 | |
| PETON7-10 | 2026-09-02 11:59:17 | 49.39393 | 17.60994 | 90° | 64km/h | 15651m | 5.8m/s | -52.4°C | 4.1% | 0hPa | 2.7V | 00:00:00 | 00:00:00 | 00:00:00 | |
| OE3OSB-13 | 2026-09-02 11:59:15 | 49.39393 | 17.60922 | 89° | 66km/h | 15635m | 6.3m/s | -52.4°C | 1.3% | -1.0hPa | 2.7V | 00:00:00 | 00:00:00 | 00:00:00 | |
| DO3MHA-11 | 2026-09-02 11:59:14 | 49.39393 | 17.60922 | 90° | 64km/h | 15635m | 6.3m/s | -52.4°C | 4.0% | 0hPa | 2.7V | 00:00:00 | 01:13:23 | 08:30:00 | |
| OE5DRO-10 | 2026-09-02 11:59:06 | 49.39395 | 17.60724 | 94° | 57km/h | 15587m | 7.9m/s | -52.0°C | 3.9% | 0hPa | 2.7V | 00:00:00 | 00:00:00 | 00:00:00 | |
| DO3MHA-11 | 2026-09-02 11:59:04 | 49.39397 | 17.60676 | 96° | 58km/h | 15574m | 6.4m/s | -51.9°C | 3.9% | 0hPa | 2.7V | 00:00:00 | 01:13:13 | 00:00:00 | |
| PETON7-10 | 2026-09-02 11:59:02 | 49.39399 | 17.60629 | 91° | 57km/h | 15561m | 4.5m/s | -51.8°C | 3.9% | 0hPa | 2.7V | 00:00:00 | 00:00:00 | 00:00:00 | |
| PG1ADW-2 | 2026-09-02 11:58:54 | 49.39400 | 17.60454 | 99° | 57km/h | 15515m | 6.6m/s | -51.7°C | 3.8% | 0hPa | 2.7V | 00:00:00 | 00:00:00 | 00:00:00 | |
| OE5DXL-15 | 2026-09-02 11:58:50 | 49.39409 | 17.60368 | 96° | 60km/h | 15488m | 4.1m/s | -51.5°C | 3.9% | 0hPa | 2.7V | 00:00:00 | 00:00:00 | 00:00:00 | |
| PETON7-10 | 2026-09-02 11:58:47 | 49.39413 | 17.60305 | 96° | 57km/h | 15470m | 4.4m/s | -51.4°C | 3.8% | 0hPa | 2.7V | 00:00:00 | 01:12:56 | 00:00:00 | |
| DO3MHA-11 | 2026-09-02 11:58:44 | 49.39418 | 17.60244 | 101° | 57km/h | 15455m | 5.9m/s | -51.4°C | 3.8% | 0hPa | 2.7V | 00:00:00 | 01:12:53 | 00:00:00 | |
| OE3OSB-13 | 2026-09-02 11:58:43 | 49.39421 | 17.60223 | 100° | 55km/h | 15448m | 7.9m/s | -51.5°C | 1.2% | -1.0hPa | 2.7V | 00:00:00 | 00:00:00 | 00:00:00 | |
| PG1ADW-2 | 2026-09-02 11:58:34 | 49.39446 | 17.60028 | 105° | 68km/h | 15395m | 7.0m/s | -51.3°C | 3.7% | 0hPa | 2.7V | 00:00:00 | 00:00:00 | 00:00:00 | |
| PETON7-10 | 2026-09-02 11:58:32 | 49.39454 | 17.59984 | 107° | 69km/h | 15381m | 4.1m/s | -51.5°C | 3.8% | 0hPa | 2.7V | 00:00:00 | 00:00:00 | 08:30:00 | |
| OE5DRO-10 | 2026-09-02 11:58:28 | 49.39473 | 17.59889 | 106° | 69km/h | 15357m | 7.1m/s | -51.9°C | 3.9% | 0hPa | 2.7V | 00:00:00 | 00:00:00 | 00:00:00 | |
| DO3MHA-11 | 2026-09-02 11:58:24 | 49.39488 | 17.59784 | 102° | 71km/h | 15334m | 6.8m/s | -51.8°C | 3.9% | 0hPa | 2.7V | 00:00:00 | 01:12:33 | 00:00:00 | |
| OE5DXL-15 | 2026-09-02 11:58:20 | 49.39505 | 17.59677 | 105° | 71km/h | 15309m | 5.3m/s | -51.8°C | 3.9% | 0hPa | 2.7V | 00:00:00 | 00:00:00 | 00:00:00 | |
| PETON7-10 | 2026-09-02 11:58:17 | 49.39517 | 17.59596 | 100° | 69km/h | 15292m | 4.2m/s | -51.6°C | 4.0% | 0hPa | 2.7V | 00:00:00 | 00:00:00 | 00:00:00 | |
| PG1ADW-2 | 2026-09-02 11:58:14 | 49.39523 | 17.59515 | 94° | 71km/h | 15274m | 5.7m/s | -51.5°C | 3.9% | 0hPa | 2.7V | 00:00:00 | 00:00:00 | 00:00:00 | |
| OE3OSB-13 | 2026-09-02 11:58:12 | 49.39526 | 17.59461 | 93° | 68km/h | 15261m | 5.1m/s | -51.5°C | 1.3% | -1.0hPa | 2.7V | 00:00:00 | 00:00:00 | 00:00:00 | |
| OE5DRO-10 | 2026-09-02 11:58:09 | 49.39531 | 17.59381 | 99° | 71km/h | 15244m | 4.8m/s | -51.4°C | 3.8% | 0hPa | 2.7V | 00:00:00 | 00:00:00 | 00:00:00 | |
| S52SK | 2026-09-02 11:58:05 | 49.39540 | 17.59300 | 100° | 68km/h | 15225m | 5.7m/s | -51.4°C | 1.4% | 0hPa | 2.7V | 00:00:00 | 00:00:00 | 00:00:00 | |
| DO3MHA-11 | 2026-09-02 11:58:04 | 49.39545 | 17.59247 | 96° | 71km/h | 15213m | 3.8m/s | -51.3°C | 3.7% | 0hPa | 2.7V | 00:00:00 | 01:12:13 | 00:00:00 | |
| PETON7-10 | 2026-09-02 11:58:02 | 49.39547 | 17.59192 | 93° | 73km/h | 15201m | 8.5m/s | -51.3°C | 3.8% | 0hPa | 2.7V | 00:00:00 | 01:12:11 | 00:00:00 | |
| S52SK | 2026-09-02 11:57:59 | 49.39547 | 17.59139 | 89° | 69km/h | 15188m | 7.2m/s | -51.5°C | 1.5% | 0hPa | 2.7V | 00:00:00 | 00:00:00 | 00:00:00 | |
| PG1ADW-2 | 2026-09-02 11:57:54 | 49.39543 | 17.58969 | 90° | 73km/h | 15149m | 3.9m/s | -51.6°C | 4.0% | 0hPa | 2.7V | 00:00:00 | 01:12:03 | 08:30:00 | |
| OE5DXL-15 | 2026-09-02 11:57:50 | 49.39542 | 17.58855 | 86° | 73km/h | 15124m | 6.9m/s | -52.0°C | 4.1% | 0hPa | 2.7V | 00:00:00 | 00:00:00 | 00:00:00 | |
| PETON7-10 | 2026-09-02 11:57:47 | 49.39532 | 17.58769 | 77° | 73km/h | 15104m | 8.7m/s | -51.9°C | 4.0% | 0hPa | 2.7V | 00:00:00 | 00:00:00 | 00:00:00 | |
| DO3MHA-11 | 2026-09-02 11:57:43 | 49.39509 | 17.58652 | 73° | 73km/h | 15080m | 6.8m/s | -51.7°C | 4.0% | 0hPa | 2.7V | 00:00:00 | 01:11:52 | 08:30:00 | |
| OE3OSB-13 | 2026-09-02 11:57:42 | 49.39498 | 17.58595 | 73° | 73km/h | 15065m | 6.0m/s | -51.6°C | 1.4% | -1.0hPa | 2.7V | 00:00:00 | 00:00:00 | 00:00:00 | |
| PG1ADW-2 | 2026-09-02 11:57:34 | 49.39473 | 17.58415 | 80° | 71km/h | 15017m | 5.0m/s | -51.2°C | 3.9% | 0hPa | 2.7V | 00:00:00 | 00:00:00 | 00:00:00 | |
| PETON7-10 | 2026-09-02 11:57:32 | 49.39466 | 17.58361 | 78° | 71km/h | 15004m | 8.5m/s | -51.2°C | 3.8% | 0hPa | 2.7V | 00:00:00 | 00:00:00 | 00:00:00 | |
| OE5DRO-10 | 2026-09-02 11:57:31 | 49.39461 | 17.58334 | 77° | 71km/h | 14997m | 5.2m/s | -51.2°C | 3.8% | 0hPa | 2.7V | 00:00:00 | 00:00:00 | 00:00:00 | |
| OE5DXL-15 | 2026-09-02 11:57:20 | 49.39440 | 17.58034 | 86° | 69km/h | 14928m | 6.2m/s | -51.3°C | 3.9% | 0hPa | 2.7V | 00:00:00 | 00:00:00 | 00:00:00 | |
| PETON7-10 | 2026-09-02 11:57:17 | 49.39434 | 17.57955 | 81° | 68km/h | 14907m | 5.9m/s | -51.2°C | 3.8% | 0hPa | 2.7V | 00:00:00 | 01:11:26 | 00:00:00 | |
| PG1ADW-2 | 2026-09-02 11:57:14 | 49.39425 | 17.57873 | 82° | 68km/h | 14890m | 6.3m/s | -51.4°C | 3.8% | 0hPa | 2.7V | 00:00:00 | 00:00:00 | 00:00:00 | |
| OE3OSB-13 | 2026-09-02 11:57:10 | 49.39414 | 17.57773 | 83° | 62km/h | 14862m | 4.8m/s | -51.7°C | 1.3% | -1.0hPa | 2.7V | 00:00:00 | 00:00:00 | 00:00:00 | |
| PETON7-10 | 2026-09-02 11:57:02 | 49.39397 | 17.57563 | 84° | 69km/h | 14808m | 6.8m/s | -51.5°C | 4.0% | 0hPa | 2.7V | 00:00:00 | 00:00:00 | 00:00:00 | |
| PG1ADW-2 | 2026-09-02 11:56:54 | 49.39382 | 17.57349 | 86° | 68km/h | 14756m | 8.5m/s | -51.9°C | 3.8% | 0hPa | 2.7V | 00:00:00 | 00:00:00 | 00:00:00 | |
| OE5DXL-15 | 2026-09-02 11:56:50 | 49.39374 | 17.57241 | 80° | 64km/h | 14729m | 5.9m/s | -52.1°C | 4.0% | 0hPa | 2.7V | 00:00:00 | 00:00:00 | 00:00:00 | |
| DO3MHA-11 | 2026-09-02 11:56:49 | 49.39371 | 17.57215 | 79° | 68km/h | 14722m | 7.8m/s | -52.1°C | 4.0% | 0hPa | 2.7V | 00:00:00 | 01:10:58 | 00:00:00 | |
| PETON7-10 | 2026-09-02 11:56:47 | 49.39363 | 17.57162 | 76° | 66km/h | 14707m | 9.4m/s | -52.1°C | 4.1% | 0hPa | 2.7V | 00:00:00 | 00:00:00 | 00:00:00 | |
| S52SK | 2026-09-02 11:56:41 | 49.39336 | 17.57038 | 70° | 66km/h | 14674m | 5.4m/s | -52.0°C | 1.6% | 0hPa | 2.7V | 00:00:00 | 00:00:00 | 00:00:00 | |
| OE3OSB-13 | 2026-09-02 11:56:39 | 49.39318 | 17.56969 | 67° | 64km/h | 14653m | 4.9m/s | -51.9°C | 1.4% | -1.0hPa | 2.7V | 00:00:00 | 00:00:00 | 00:00:00 | |
| DO3MHA-11 | 2026-09-02 11:56:38 | 49.39311 | 17.56946 | 66° | 64km/h | 14647m | 6.1m/s | 0°C | 0% | 0hPa | 2.7V | 00:00:00 | 01:10:47 | 00:00:00 | |
| S52SK | 2026-09-02 11:56:36 | 49.39304 | 17.56923 | 65° | 64km/h | 14642m | 4.9m/s | -51.8°C | 1.5% | 0hPa | 2.7V | 00:00:00 | 00:00:00 | 00:00:00 | |
| PG1ADW-2 | 2026-09-02 11:56:34 | 49.39282 | 17.56853 | 67° | 60km/h | 14621m | 4.9m/s | -51.6°C | 3.9% | 0hPa | 2.7V | 00:00:00 | 01:10:43 | 00:00:00 | |
| PETON7-10 | 2026-09-02 11:56:32 | 49.39270 | 17.56805 | 70° | 58km/h | 14609m | 5.8m/s | -51.6°C | 3.9% | 0hPa | 2.7V | 00:00:00 | 01:10:41 | 00:00:00 | |
| DO3MHA-11 | 2026-09-02 11:56:28 | 49.39255 | 17.56716 | 78° | 60km/h | 14583m | 4.7m/s | 0°C | 0% | 0hPa | 2.7V | 00:00:00 | 01:10:37 | 00:00:00 | |
| OE5DXL-15 | 2026-09-02 11:56:20 | 49.39214 | 17.56541 | 70° | 58km/h | 14530m | 4.8m/s | -51.3°C | 3.9% | 0hPa | 2.7V | 00:00:00 | 00:00:00 | 00:00:00 | |
| DO3MHA-11 | 2026-09-02 11:56:18 | 49.39205 | 17.56500 | 73° | 62km/h | 14517m | 4.2m/s | 0°C | 0% | 0hPa | 2.7V | 00:00:00 | 01:10:27 | 00:00:00 | |
| PETON7-10 | 2026-09-02 11:56:17 | 49.39201 | 17.56480 | 74° | 58km/h | 14512m | 6.0m/s | -51.3°C | 3.9% | 0hPa | 2.7V | 00:00:00 | 00:00:00 | 08:30:00 | |
| OE5DRO-10 | 2026-09-02 11:56:15 | 49.39193 | 17.56437 | 76° | 60km/h | 14498m | 5.2m/s | -51.3°C | 3.9% | 0hPa | 2.7V | 00:00:00 | 00:00:00 | 00:00:00 | |
| PG1ADW-2 | 2026-09-02 11:56:14 | 49.39189 | 17.56414 | 76° | 60km/h | 14491m | 7.5m/s | -51.2°C | 3.9% | 0hPa | 2.7V | 00:00:00 | 00:00:00 | 00:00:00 | |
| HA6NAB-11 | 2026-09-02 11:56:10 | 49.39176 | 17.56340 | 75° | 69km/h | 14472m | 5.9m/s | -51.2°C | 0% | 0hPa | 2.7V | 00:00:00 | 00:00:00 | 00:00:00 | |
| DO3MHA-11 | 2026-09-02 11:56:08 | 49.39160 | 17.56271 | 70° | 58km/h | 14454m | 5.2m/s | 0°C | 0% | 0hPa | 2.7V | 00:00:00 | 01:10:17 | 00:00:00 | |
| HA6NAB-11 | 2026-09-02 11:56:05 | 49.39153 | 17.56233 | 75° | 47km/h | 14443m | 5.8m/s | -51.1°C | 0% | 0hPa | 2.7V | 00:00:00 | 00:00:00 | 00:00:00 | |
| PETON7-10 | 2026-09-02 11:56:02 | 49.39143 | 17.56151 | 87° | 60km/h | 14416m | 5.4m/s | -50.8°C | 3.8% | 0hPa | 2.7V | 00:00:00 | 00:00:00 | 00:00:00 | |
| HA6NAB-11 | 2026-09-02 11:56:01 | 49.39142 | 17.56125 | 87° | 69km/h | 14409m | 6.6m/s | -50.8°C | 0% | 0hPa | 2.7V | 00:00:00 | 00:00:00 | 00:00:00 | |
| DO3MHA-11 | 2026-09-02 11:55:58 | 49.39140 | 17.56046 | 90° | 57km/h | 14392m | 4.2m/s | 0°C | 0% | 0hPa | 2.7V | 00:00:00 | 01:10:07 | 00:00:00 | |
| OE5DRO-10 | 2026-09-02 11:55:56 | 49.39138 | 17.56001 | 86° | 60km/h | 14381m | 4.7m/s | -50.9°C | 3.7% | 0hPa | 2.7V | 00:00:00 | 00:00:00 | 00:00:00 | |
| PG1ADW-2 | 2026-09-02 11:55:54 | 49.39136 | 17.55957 | 86° | 60km/h | 14367m | 10.2m/s | -50.9°C | 3.7% | 0hPa | 2.7V | 00:00:00 | 00:00:00 | 00:00:00 | |
| OE5DXL-15 | 2026-09-02 11:55:50 | 49.39131 | 17.55875 | 83° | 62km/h | 14339m | 6.3m/s | -50.9°C | 3.9% | 0hPa | 2.7V | 00:00:00 | 00:00:00 | 08:30:00 | |
| HA6NAB-11 | 2026-09-02 11:55:49 | 49.39131 | 17.55875 | 84° | 55km/h | 14339m | 6.4m/s | -50.9°C | 0% | 0hPa | 2.7V | 00:00:00 | 00:00:00 | 00:00:00 | |
| PETON7-10 | 2026-09-02 11:55:47 | 49.39127 | 17.55808 | 86° | 62km/h | 14322m | 4.4m/s | -50.8°C | 3.9% | 0hPa | 2.7V | 00:00:00 | 01:09:56 | 00:00:00 | |
| DO3MHA-11 | 2026-09-02 11:55:46 | 49.39125 | 17.55784 | 86° | 66km/h | 14316m | 6.8m/s | 0°C | 0% | 0hPa | 2.7V | 00:00:00 | 01:09:55 | 00:00:00 | |
| HA6NAB-11 | 2026-09-02 11:55:43 | 49.39123 | 17.55734 | 86° | 66km/h | 14302m | 4.8m/s | -50.8°C | 0% | 0hPa | 2.7V | 00:00:00 | 00:00:00 | 00:00:00 | |
| OE5DRO-10 | 2026-09-02 11:55:37 | 49.39108 | 17.55553 | 81° | 62km/h | 14264m | 6.2m/s | -50.7°C | 3.7% | 0hPa | 2.7V | 00:00:00 | 00:00:00 | 00:00:00 | |
| DO3MHA-11 | 2026-09-02 11:55:36 | 49.39106 | 17.55530 | 83° | 58km/h | 14257m | 8.0m/s | 0°C | 0% | 0hPa | 2.7V | 00:00:00 | 01:09:45 | 00:00:00 | |
| PG1ADW-2 | 2026-09-02 11:55:34 | 49.39103 | 17.55487 | 86° | 62km/h | 14245m | 7.6m/s | -50.8°C | 3.7% | 0hPa | 2.7V | 00:00:00 | 00:00:00 | 00:00:00 | |
| PETON7-10 | 2026-09-02 11:55:32 | 49.39100 | 17.55447 | 83° | 62km/h | 14234m | 6.4m/s | -50.7°C | 3.7% | 0hPa | 2.7V | 00:00:00 | 00:00:00 | 00:00:00 | |
| DO3MHA-11 | 2026-09-02 11:55:26 | 49.39090 | 17.55314 | 86° | 66km/h | 14196m | 7.0m/s | 0°C | 0% | 0hPa | 2.7V | 00:00:00 | 01:09:35 | 00:00:00 | |
| OE5DXL-15 | 2026-09-02 11:55:20 | 49.39090 | 17.55157 | 94° | 62km/h | 14159m | 7.4m/s | -51.3°C | 3.9% | 0hPa | 2.7V | 00:00:00 | 00:00:00 | 00:00:00 | |
| OE5DRO-10 | 2026-09-02 11:55:18 | 49.39091 | 17.55103 | 90° | 62km/h | 14149m | 5.8m/s | -51.4°C | 4.0% | 0hPa | 2.7V | 00:00:00 | 00:00:00 | 00:00:00 | |
| PETON7-10 | 2026-09-02 11:55:17 | 49.39091 | 17.55077 | 90° | 62km/h | 14142m | 8.5m/s | -51.4°C | 3.9% | 0hPa | 2.7V | 00:00:00 | 00:00:00 | 00:00:00 | |
| PG1ADW-2 | 2026-09-02 11:55:14 | 49.39088 | 17.55008 | 82° | 62km/h | 14122m | 4.6m/s | -51.5°C | 3.9% | 0hPa | 2.7V | 00:00:00 | 01:09:23 | 00:00:00 | |
| OE3OSB-13 | 2026-09-02 11:55:06 | 49.39088 | 17.54823 | 99° | 68km/h | 14070m | 7.0m/s | -51.5°C | 1.5% | -1.0hPa | 2.7V | 00:00:00 | 00:00:00 | 00:00:00 | |
| HA6NAB-11 | 2026-09-02 11:55:05 | 49.39088 | 17.54823 | 101° | 69km/h | 14070m | 7.0m/s | -51.5°C | 0% | 0hPa | 2.7V | 00:00:00 | 00:00:00 | 00:00:00 | |
| PETON7-10 | 2026-09-02 11:55:02 | 49.39098 | 17.54725 | 97° | 64km/h | 14048m | 6.0m/s | -51.4°C | 4.1% | 0hPa | 2.7V | 00:00:00 | 01:09:11 | 00:00:00 | |
| HA6NAB-11 | 2026-09-02 11:55:00 | 49.39099 | 17.54702 | 95° | 58km/h | 14042m | 4.9m/s | -51.4°C | 0% | 0hPa | 2.7V | 00:00:00 | 00:00:00 | 00:00:00 | |
| OE5DRO-10 | 2026-09-02 11:54:59 | 49.39099 | 17.54655 | 87° | 68km/h | 14029m | 5.4m/s | -51.4°C | 4.0% | 0hPa | 2.7V | 00:00:00 | 00:00:00 | 00:00:00 | |
| HA6NAB-11 | 2026-09-02 11:54:55 | 49.39092 | 17.54558 | 85° | 64km/h | 14004m | 4.1m/s | -51.3°C | 0% | 0hPa | 2.7V | 00:00:00 | 00:00:00 | 00:00:00 | |
| PG1ADW-2 | 2026-09-02 11:54:54 | 49.39091 | 17.54533 | 88° | 66km/h | 13998m | 7.4m/s | -51.2°C | 4.0% | 0hPa | 2.7V | 00:00:00 | 00:00:00 | 08:30:00 | |
| OE5DXL-15 | 2026-09-02 11:54:50 | 49.39099 | 17.54438 | 106° | 64km/h | 13972m | 6.4m/s | -51.0°C | 3.9% | 0hPa | 2.7V | 00:00:00 | 00:00:00 | 00:00:00 | |
| PETON7-10 | 2026-09-02 11:54:47 | 49.39111 | 17.54358 | 98° | 66km/h | 13955m | 5.4m/s | -50.9°C | 3.9% | 0hPa | 2.7V | 00:00:00 | 00:00:00 | 00:00:00 | |
| OE5DRO-10 | 2026-09-02 11:54:40 | 49.39111 | 17.54162 | 93° | 58km/h | 13913m | 5.1m/s | -51.1°C | 4.0% | 0hPa | 2.7V | 00:00:00 | 00:00:00 | 00:00:00 | |
| OE3OSB-13 | 2026-09-02 11:54:35 | 49.39126 | 17.54030 | 94° | 66km/h | 13877m | 6.5m/s | -51.2°C | 1.6% | -1.0hPa | 2.7V | 00:00:00 | 00:00:00 | 00:00:00 | |
| PG1ADW-2 | 2026-09-02 11:54:34 | 49.39126 | 17.54030 | 95° | 62km/h | 13877m | 6.5m/s | -51.2°C | 4.1% | 0hPa | 2.7V | 00:00:00 | 00:00:00 | 00:00:00 | |
| PETON7-10 | 2026-09-02 11:54:32 | 49.39126 | 17.53977 | 86° | 60km/h | 13863m | 6.1m/s | -51.1°C | 4.1% | 0hPa | 2.7V | 00:00:00 | 00:00:00 | 00:00:00 | |
| OE5DRO-10 | 2026-09-02 11:54:21 | 49.39133 | 17.53736 | 108° | 69km/h | 13795m | 5.8m/s | -50.9°C | 4.0% | 0hPa | 2.7V | 00:00:00 | 00:00:00 | 00:00:00 | |
| OE5DXL-15 | 2026-09-02 11:54:20 | 49.39138 | 17.53711 | 107° | 71km/h | 13789m | 5.4m/s | -50.9°C | 4.0% | 0hPa | 2.7V | 00:00:00 | 00:00:00 | 00:00:00 | |
| PETON7-10 | 2026-09-02 11:54:17 | 49.39155 | 17.53637 | 110° | 69km/h | 13762m | 8.9m/s | -50.7°C | 3.8% | 0hPa | 2.7V | 00:00:00 | 01:08:26 | 00:00:00 | |
| PG1ADW-2 | 2026-09-02 11:54:14 | 49.39168 | 17.53564 | 105° | 73km/h | 13739m | 9.1m/s | -50.9°C | 3.9% | 0hPa | 2.7V | 00:00:00 | 00:00:00 | 00:00:00 | |
| S52SK | 2026-09-02 11:54:04 | 49.39178 | 17.53292 | 94° | 73km/h | 13670m | 5.0m/s | -51.1°C | 1.7% | 0hPa | 2.7V | 00:00:00 | 00:00:00 | 00:00:00 | |
| PETON7-10 | 2026-09-02 11:54:02 | 49.39181 | 17.53232 | 94° | 71km/h | 13657m | 6.3m/s | -51.2°C | 4.1% | 0hPa | 2.7V | 00:00:00 | 00:00:00 | 08:30:00 | |
| S52SK | 2026-09-02 11:53:58 | 49.39185 | 17.53138 | 93° | 77km/h | 13636m | 6.0m/s | -51.4°C | 1.8% | 0hPa | 2.7V | 00:00:00 | 00:00:00 | 00:00:00 | |
| PG1ADW-2 | 2026-09-02 11:53:54 | 49.39179 | 17.53003 | 89° | 71km/h | 13602m | 6.4m/s | -51.7°C | 4.1% | 0hPa | 2.7V | 00:00:00 | 01:08:03 | 00:00:00 | |
| S52SK | 2026-09-02 11:53:52 | 49.39179 | 17.52978 | 91° | 64km/h | 13595m | 7.8m/s | -51.8°C | 1.9% | 0hPa | 2.7V | 00:00:00 | 00:00:00 | 00:00:00 | |
| OE5DXL-15 | 2026-09-02 11:53:50 | 49.39181 | 17.52902 | 95° | 73km/h | 13577m | 5.5m/s | -51.8°C | 4.1% | 0hPa | 2.7V | 00:00:00 | 00:00:00 | 00:00:00 | |
| PETON7-10 | 2026-09-02 11:53:47 | 49.39183 | 17.52819 | 88° | 75km/h | 13554m | 4.9m/s | -52.0°C | 4.1% | 0hPa | 2.7V | 00:00:00 | 00:00:00 | 00:00:00 | |
| OE5DRO-10 | 2026-09-02 11:53:43 | 49.39180 | 17.52703 | 91° | 75km/h | 13525m | 8.6m/s | -52.2°C | 4.3% | 0hPa | 2.7V | 00:00:00 | 00:00:00 | 00:00:00 | |
| PG1ADW-2 | 2026-09-02 11:53:34 | 49.39169 | 17.52445 | 85° | 71km/h | 13469m | 7.6m/s | -52.4°C | 4.4% | 0hPa | 2.7V | 00:00:00 | 00:00:00 | 00:00:00 | |
| OE3OSB-13 | 2026-09-02 11:53:33 | 49.39167 | 17.52385 | 89° | 77km/h | 13457m | 6.9m/s | -52.5°C | 1.8% | -1.0hPa | 2.7V | 00:00:00 | 00:00:00 | 00:00:00 | |
| PETON7-10 | 2026-09-02 11:53:32 | 49.39167 | 17.52385 | 90° | 71km/h | 13457m | 6.8m/s | -52.4°C | 4.4% | 0hPa | 2.7V | 00:00:00 | 01:07:41 | 00:00:00 | |
| OE5DRO-10 | 2026-09-02 11:53:24 | 49.39162 | 17.52159 | 85° | 68km/h | 13406m | 7.6m/s | -52.2°C | 4.4% | 0hPa | 2.7V | 00:00:00 | 00:00:00 | 00:00:00 | |
| OE5DXL-15 | 2026-09-02 11:53:20 | 49.39156 | 17.52050 | 84° | 64km/h | 13381m | 6.1m/s | -52.0°C | 4.4% | 0hPa | 2.7V | 00:00:00 | 00:00:00 | 00:00:00 | |
| PETON7-10 | 2026-09-02 11:53:17 | 49.39153 | 17.51968 | 88° | 66km/h | 13360m | 7.3m/s | -51.9°C | 4.4% | 0hPa | 2.7V | 00:00:00 | 00:00:00 | 00:00:00 | |
| PG1ADW-2 | 2026-09-02 11:53:14 | 49.39148 | 17.51890 | 85° | 64km/h | 13342m | 8.2m/s | -51.8°C | 4.4% | 0hPa | 2.7V | 00:00:00 | 00:00:00 | 00:00:00 | |
| OE5DRO-10 | 2026-09-02 11:53:05 | 49.39127 | 17.51662 | 85° | 64km/h | 13284m | 8.1m/s | -52.0°C | 4.5% | 0hPa | 2.7V | 00:00:00 | 00:00:00 | 00:00:00 | |
| OE3OSB-13 | 2026-09-02 11:53:02 | 49.39123 | 17.51565 | 85° | 62km/h | 13258m | 7.0m/s | -51.9°C | 1.9% | -1.0hPa | 2.7V | 00:00:00 | 00:00:00 | 00:00:00 | |
| PG1ADW-2 | 2026-09-02 11:52:54 | 49.39118 | 17.51405 | 91° | 66km/h | 13210m | 8.3m/s | -51.6°C | 4.6% | 0hPa | 2.7V | 00:00:00 | 00:00:00 | 00:00:00 | |
| OE5DXL-15 | 2026-09-02 11:52:50 | 49.39116 | 17.51306 | 87° | 62km/h | 13183m | 8.0m/s | -51.5°C | 4.4% | 0hPa | 2.7V | 00:00:00 | 00:00:00 | 00:00:00 | |
| PETON7-10 | 2026-09-02 11:52:47 | 49.39109 | 17.51223 | 83° | 64km/h | 13165m | 4.8m/s | -51.6°C | 4.5% | 0hPa | 2.7V | 00:00:00 | 01:06:56 | 00:00:00 | |
| OE5DRO-10 | 2026-09-02 11:52:46 | 49.39107 | 17.51198 | 81° | 62km/h | 13159m | 7.4m/s | -51.5°C | 4.5% | 0hPa | 2.7V | 00:00:00 | 00:00:00 | 00:00:00 | |
| S52SK | 2026-09-02 11:52:41 | 49.39098 | 17.51076 | 89° | 66km/h | 13127m | 6.0m/s | -51.3°C | 0% | 0hPa | 2.7V | 00:00:00 | 00:00:00 | 00:00:00 | |
| S52SK | 2026-09-02 11:52:35 | 49.39091 | 17.50945 | 85° | 64km/h | 13094m | 8.2m/s | -51.1°C | 0% | 0hPa | 2.7V | 00:00:00 | 00:00:00 | 00:00:00 | |
| PG1ADW-2 | 2026-09-02 11:52:34 | 49.39090 | 17.50896 | 92° | 58km/h | 13080m | 7.6m/s | -50.9°C | 4.4% | 0hPa | 2.7V | 00:00:00 | 01:06:43 | 00:00:00 | |
| PETON7-10 | 2026-09-02 11:52:32 | 49.39092 | 17.50853 | 95° | 58km/h | 13066m | 6.9m/s | -50.8°C | 4.4% | 0hPa | 2.7V | 00:00:00 | 00:00:00 | 00:00:00 | |
| OE3OSB-13 | 2026-09-02 11:52:31 | 49.39092 | 17.50811 | 88° | 53km/h | 13054m | 6.2m/s | -50.8°C | 1.9% | -1.0hPa | 2.7V | 00:00:00 | 00:00:00 | 00:00:00 | |
| OE5DRO-10 | 2026-09-02 11:52:27 | 49.39086 | 17.50746 | 81° | 60km/h | 13038m | 6.5m/s | -50.8°C | 4.3% | 0hPa | 2.7V | 00:00:00 | 00:00:00 | 00:00:00 | |
| OE5DXL-15 | 2026-09-02 11:52:20 | 49.39090 | 17.50585 | 100° | 64km/h | 12985m | 7.6m/s | -50.8°C | 4.5% | 0hPa | 2.7V | 00:00:00 | 00:00:00 | 00:00:00 | |
| HA6NAB-11 | 2026-09-02 11:52:17 | 49.39093 | 17.50514 | 89° | 57km/h | 12965m | 4.2m/s | -50.9°C | 0% | 0hPa | 2.7V | 00:00:00 | 00:00:00 | 00:00:00 | |
| PG1ADW-2 | 2026-09-02 11:52:14 | 49.39093 | 17.50449 | 97° | 66km/h | 12942m | 9.3m/s | -50.9°C | 4.5% | 0hPa | 2.7V | 00:00:00 | 00:00:00 | 00:00:00 | |
| HA6NAB-11 | 2026-09-02 11:52:11 | 49.39101 | 17.50381 | 99° | 62km/h | 12920m | 6.1m/s | 0°C | 0% | 0hPa | 2.7V | 00:00:00 | 00:00:00 | 00:00:00 | |
| OE5DRO-10 | 2026-09-02 11:52:08 | 49.39104 | 17.50310 | 91° | 68km/h | 12897m | 7.4m/s | -51.3°C | 4.7% | 0hPa | 2.7V | 00:00:00 | 00:00:00 | 00:00:00 | |
| HA6NAB-11 | 2026-09-02 11:52:05 | 49.39104 | 17.50263 | 90° | 60km/h | 12883m | 6.3m/s | 0°C | 0% | 0hPa | 2.7V | 00:00:00 | 00:00:00 | 00:00:00 | |
| PETON7-10 | 2026-09-02 11:52:02 | 49.39097 | 17.50160 | 80° | 69km/h | 12857m | 6.2m/s | -51.2°C | 4.5% | 0hPa | 2.7V | 00:00:00 | 01:06:11 | 00:00:00 | |
| HA6NAB-11 | 2026-09-02 11:52:00 | 49.39090 | 17.50101 | 80° | 78km/h | 12843m | 6.7m/s | 0°C | 0% | 0hPa | 2.7V | 00:00:00 | 00:00:00 | 00:00:00 | |
| PG1ADW-2 | 2026-09-02 11:51:54 | 49.39090 | 17.49940 | 97° | 66km/h | 12807m | 7.9m/s | -51.2°C | 4.7% | 0hPa | 2.7V | 00:00:00 | 00:00:00 | 08:30:00 | |
| OE5DXL-15 | 2026-09-02 11:51:50 | 49.39090 | 17.49841 | 82° | 69km/h | 12782m | 7.7m/s | -51.3°C | 4.6% | 0hPa | 2.7V | 00:00:00 | 00:00:00 | 00:00:00 | |
| OE5DRO-10 | 2026-09-02 11:51:49 | 49.39086 | 17.49816 | 78° | 66km/h | 12776m | 4.7m/s | -51.3°C | 4.7% | 0hPa | 2.7V | 00:00:00 | 00:00:00 | 00:00:00 | |
| PETON7-10 | 2026-09-02 11:51:47 | 49.39080 | 17.49764 | 81° | 66km/h | 12767m | 7.2m/s | -51.3°C | 4.8% | 0hPa | 2.7V | 00:00:00 | 00:00:00 | 08:30:00 | |
| PG1ADW-2 | 2026-09-02 11:51:34 | 49.39086 | 17.49437 | 86° | 71km/h | 12687m | 5.0m/s | -51.6°C | 5.2% | 0hPa | 2.7V | 00:00:00 | 00:00:00 | 00:00:00 | |
| PETON7-10 | 2026-09-02 11:51:32 | 49.39085 | 17.49386 | 93° | 75km/h | 12674m | 5.4m/s | -51.5°C | 5.3% | 0hPa | 2.7V | 00:00:00 | 00:00:00 | 00:00:00 | |
| OE5DRO-10 | 2026-09-02 11:51:30 | 49.39089 | 17.49329 | 100° | 69km/h | 12664m | 6.0m/s | -51.4°C | 5.2% | 0hPa | 2.7V | 00:00:00 | 00:00:00 | 00:00:00 | |
| OE3OSB-13 | 2026-09-02 11:51:29 | 49.39094 | 17.49273 | 97° | 68km/h | 12650m | 8.0m/s | -51.4°C | 2.6% | -1.0hPa | 2.7V | 00:00:00 | 00:00:00 | 00:00:00 | |
| OE5DXL-15 | 2026-09-02 11:51:20 | 49.39101 | 17.49042 | 91° | 69km/h | 12595m | 7.3m/s | -51.2°C | 5.2% | 0hPa | 2.7V | 00:00:00 | 00:00:00 | 08:30:00 | |
| PETON7-10 | 2026-09-02 11:51:17 | 49.39101 | 17.48956 | 88° | 68km/h | 12578m | 6.7m/s | -51.1°C | 5.1% | 0hPa | 2.7V | 00:00:00 | 01:05:26 | 00:00:00 | |
| PG1ADW-2 | 2026-09-02 11:51:14 | 49.39098 | 17.48889 | 90° | 69km/h | 12562m | 4.1m/s | -51.0°C | 5.1% | 0hPa | 2.7V | 00:00:00 | 01:05:23 | 00:00:00 | |
| OE5DRO-10 | 2026-09-02 11:51:11 | 49.39103 | 17.48818 | 101° | 71km/h | 12544m | 6.2m/s | -51.0°C | 5.0% | 0hPa | 2.7V | 00:00:00 | 00:00:00 | 08:30:00 | |
| S52SK | 2026-09-02 11:51:10 | 49.39103 | 17.48818 | 101° | 71km/h | 12544m | 6.3m/s | -51.0°C | 0% | 0hPa | 2.7V | 00:00:00 | 00:00:00 | 00:00:00 | |
| S52SK | 2026-09-02 11:51:04 | 49.39119 | 17.48648 | 97° | 66km/h | 12501m | 6.0m/s | -51.4°C | 0% | 0hPa | 2.7V | 00:00:00 | 00:00:00 | 00:00:00 | |
| OE3OSB-13 | 2026-09-02 11:50:57 | 49.39138 | 17.48434 | 97° | 69km/h | 12443m | 5.9m/s | -51.4°C | 2.9% | -1.0hPa | 2.7V | 00:00:00 | 00:00:00 | 00:00:00 | |
| PG1ADW-2 | 2026-09-02 11:50:54 | 49.39139 | 17.48356 | 87° | 71km/h | 12426m | 8.9m/s | -51.4°C | 5.4% | 0hPa | 2.7V | 00:00:00 | 00:00:00 | 00:00:00 | |
| OE5DRO-10 | 2026-09-02 11:50:52 | 49.39135 | 17.48303 | 82° | 71km/h | 12411m | 7.6m/s | -51.5°C | 5.7% | 0hPa | 2.7V | 00:00:00 | 00:00:00 | 00:00:00 | |
| OE5DXL-15 | 2026-09-02 11:50:50 | 49.39131 | 17.48251 | 88° | 73km/h | 12401m | 4.6m/s | -51.6°C | 5.7% | 0hPa | 2.7V | 00:00:00 | 00:00:00 | 00:00:00 | |
| PETON7-10 | 2026-09-02 11:50:47 | 49.39134 | 17.48178 | 98° | 73km/h | 12383m | 4.5m/s | -51.6°C | 5.9% | 0hPa | 2.7V | 00:00:00 | 00:00:00 | 00:00:00 | |
| PG1ADW-2 | 2026-09-02 11:50:34 | 49.39120 | 17.47807 | 88° | 73km/h | 12298m | 7.8m/s | -53.0°C | 7.4% | 0hPa | 2.7V | 00:00:00 | 00:00:00 | 00:00:00 | |
| OE5DRO-10 | 2026-09-02 11:50:33 | 49.39120 | 17.47778 | 92° | 73km/h | 12292m | 5.3m/s | -53.1°C | 7.5% | 0hPa | 2.7V | 00:00:00 | 00:00:00 | 00:00:00 | |
| PETON7-10 | 2026-09-02 11:50:32 | 49.39120 | 17.47748 | 93° | 75km/h | 12286m | 6.6m/s | -53.1°C | 7.6% | 0hPa | 2.7V | 00:00:00 | 01:04:41 | 00:00:00 | |
| OE3OSB-13 | 2026-09-02 11:50:27 | 49.39133 | 17.47564 | 96° | 69km/h | 12252m | 7.8m/s | -53.4°C | 5.2% | -1.0hPa | 2.7V | 00:00:00 | 00:00:00 | 00:00:00 | |
| PETON7-10 | 2026-09-02 11:50:17 | 49.39124 | 17.47319 | 81° | 68km/h | 12192m | 8.3m/s | -54.1°C | 9.1% | 0hPa | 2.7V | 00:00:00 | 00:00:00 | 00:00:00 | |
| PG1ADW-2 | 2026-09-02 11:50:14 | 49.39118 | 17.47245 | 86° | 62km/h | 12172m | 6.2m/s | -54.0°C | 9.3% | 0hPa | 2.7V | 00:00:00 | 00:00:00 | 00:00:00 | |
| HA6NAB-11 | 2026-09-02 11:50:10 | 49.39115 | 17.47158 | 86° | 64km/h | 12148m | 7.4m/s | 0°C | 0% | 0hPa | 2.7V | 00:00:00 | 00:00:00 | 00:00:00 | |
| HA6NAB-11 | 2026-09-02 11:50:04 | 49.39106 | 17.47012 | 91° | 77km/h | 12116m | 6.3m/s | 0°C | 0% | 0hPa | 2.7V | 00:00:00 | 00:00:00 | 00:00:00 | |
| PETON7-10 | 2026-09-02 11:50:02 | 49.39108 | 17.46935 | 93° | 68km/h | 12098m | 7.3m/s | -54.8°C | 10.6% | 0hPa | 2.7V | 00:00:00 | 00:00:00 | 00:00:00 | |
| HA6NAB-11 | 2026-09-02 11:50:00 | 49.39109 | 17.46892 | 92° | 55km/h | 12085m | 4.9m/s | 0°C | 0% | 0hPa | 2.7V | 00:00:00 | 00:00:00 | 00:00:00 | |
| S52SK | 2026-09-02 11:49:59 | 49.39109 | 17.46892 | 92° | 55km/h | 12085m | 4.9m/s | -55.0°C | 0% | 0hPa | 2.7V | 00:00:00 | 00:00:00 | 00:00:00 | |
| OE5DRO-10 | 2026-09-02 11:49:55 | 49.39116 | 17.46783 | 96° | 73km/h | 12053m | 6.8m/s | -55.6°C | 11.8% | 0hPa | 2.7V | 00:00:00 | 00:00:00 | 00:00:00 | |
| PG1ADW-2 | 2026-09-02 11:49:54 | 49.39117 | 17.46758 | 93° | 71km/h | 12047m | 4.4m/s | -55.5°C | 11.8% | 0hPa | 2.7V | 00:00:00 | 01:04:03 | 00:00:00 | |
| HA6NAB-11 | 2026-09-02 11:49:53 | 49.39117 | 17.46758 | 94° | 69km/h | 12047m | 4.5m/s | 0°C | 0% | 0hPa | 2.7V | 00:00:00 | 00:00:00 | 00:00:00 | |
| OE5DXL-15 | 2026-09-02 11:49:50 | 49.39118 | 17.46637 | 91° | 69km/h | 12025m | 6.5m/s | -55.5°C | 12.1% | 0hPa | 2.7V | 00:00:00 | 00:00:00 | 00:00:00 | |
| HA6NAB-11 | 2026-09-02 11:49:48 | 49.39119 | 17.46605 | 91° | 82km/h | 12019m | 5.0m/s | 0°C | 0% | 0hPa | 2.7V | 00:00:00 | 00:00:00 | 00:00:00 | |
| PETON7-10 | 2026-09-02 11:49:47 | 49.39120 | 17.46546 | 95° | 68km/h | 12009m | 4.6m/s | -55.5°C | 12.5% | 0hPa | 2.7V | 00:00:00 | 01:03:56 | 00:00:00 | |
| HA6NAB-11 | 2026-09-02 11:49:43 | 49.39125 | 17.46443 | 92° | 68km/h | 11988m | 5.6m/s | 0°C | 0% | 0hPa | 2.7V | 00:00:00 | 00:00:00 | 00:00:00 | |
| OE5DRO-10 | 2026-09-02 11:49:36 | 49.39135 | 17.46253 | 100° | 68km/h | 11946m | 7.1m/s | -55.5°C | 14.0% | 0hPa | 2.7V | 00:00:00 | 00:00:00 | 00:00:00 | |
| PG1ADW-2 | 2026-09-02 11:49:34 | 49.39139 | 17.46208 | 96° | 69km/h | 11935m | 3.3m/s | -55.4°C | 14.7% | 0hPa | 2.7V | 00:00:00 | 00:00:00 | 00:00:00 | |
| PETON7-10 | 2026-09-02 11:49:32 | 49.39142 | 17.46160 | 96° | 71km/h | 11926m | 4.7m/s | -55.4°C | 14.5% | 0hPa | 2.7V | 00:00:00 | 00:00:00 | 08:30:00 | |
| HA6NAB-11 | 2026-09-02 11:49:30 | 49.39144 | 17.46134 | 98° | 73km/h | 11921m | 4.8m/s | 0°C | 0% | 0hPa | 2.7V | 00:00:00 | 00:00:00 | 00:00:00 | |
| HA6NAB-11 | 2026-09-02 11:49:25 | 49.39155 | 17.45951 | 89° | 68km/h | 11888m | 6.3m/s | 0°C | 0% | 0hPa | 2.7V | 00:00:00 | 00:00:00 | 00:00:00 | |
| OE3OSB-13 | 2026-09-02 11:49:24 | 49.39154 | 17.45926 | 85° | 62km/h | 11880m | 8.2m/s | -55.7°C | 11.2% | -1.0hPa | 2.7V | 00:00:00 | 00:00:00 | 00:00:00 | |
| OE5DXL-15 | 2026-09-02 11:49:20 | 49.39148 | 17.45828 | 84° | 66km/h | 11847m | 6.3m/s | -55.4°C | 16.8% | 0hPa | 2.7V | 00:00:00 | 00:00:00 | 00:00:00 | |
| HA6NAB-11 | 2026-09-02 11:49:19 | 49.39148 | 17.45828 | 84° | 66km/h | 11847m | 6.4m/s | 0°C | 0% | 0hPa | 2.7V | 00:00:00 | 00:00:00 | 00:00:00 | |
| PETON7-10 | 2026-09-02 11:49:17 | 49.39142 | 17.45752 | 83° | 64km/h | 11826m | 7.0m/s | -55.3°C | 17.6% | 0hPa | 2.7V | 00:00:00 | 00:00:00 | 00:00:00 | |
| PG1ADW-2 | 2026-09-02 11:49:14 | 49.39134 | 17.45675 | 82° | 66km/h | 11805m | 6.3m/s | -55.2°C | 18.5% | 0hPa | 2.7V | 00:00:00 | 00:00:00 | 00:00:00 | |
| HA6NAB-11 | 2026-09-02 11:49:13 | 49.39134 | 17.45675 | 82° | 69km/h | 11805m | 6.4m/s | 0°C | 0% | 0hPa | 2.7V | 00:00:00 | 00:00:00 | 00:00:00 | |
| HA6NAB-11 | 2026-09-02 11:49:08 | 49.39129 | 17.45552 | 99° | 58km/h | 11774m | 8.5m/s | 0°C | 0% | 0hPa | 2.7V | 00:00:00 | 00:00:00 | 00:00:00 | |
| HA6NAB-11 | 2026-09-02 11:49:03 | 49.39142 | 17.45412 | 85° | 66km/h | 11736m | 6.8m/s | 0°C | 0% | 0hPa | 2.7V | 00:00:00 | 00:00:00 | 00:00:00 | |
| OE3OSB-13 | 2026-09-02 11:48:55 | 49.39141 | 17.45143 | 96° | 64km/h | 11666m | 7.5m/s | -56.0°C | 25.8% | -1.0hPa | 2.7V | 00:00:00 | 00:00:00 | 00:00:00 | |
| PG1ADW-2 | 2026-09-02 11:48:54 | 49.39139 | 17.45169 | 98° | 77km/h | 11673m | 4.9m/s | -55.8°C | 31.6% | 0hPa | 2.7V | 00:00:00 | 00:00:00 | 08:30:00 | |
| OE5DXL-15 | 2026-09-02 11:48:50 | 49.39141 | 17.45063 | 87° | 75km/h | 11647m | 7.9m/s | -56.2°C | 34.7% | 0hPa | 2.7V | 00:00:00 | 00:00:00 | 00:00:00 | |
| PETON7-10 | 2026-09-02 11:48:47 | 49.39137 | 17.44974 | 86° | 80km/h | 11626m | 7.2m/s | -56.3°C | 38.0% | 0hPa | 2.7V | 00:00:00 | 00:00:00 | 00:00:00 | |
| OE5DRO-10 | 2026-09-02 11:48:39 | 49.39132 | 17.44727 | 97° | 71km/h | 11576m | 6.4m/s | -58.0°C | 47.7% | 0hPa | 2.7V | 00:00:00 | 00:00:00 | 00:00:00 | |
| PG1ADW-2 | 2026-09-02 11:48:34 | 49.39158 | 17.44574 | 104° | 66km/h | 11539m | 5.9m/s | -58.7°C | 51.7% | 0hPa | 2.7V | 00:00:00 | 01:02:43 | 00:00:00 | |
| PETON7-10 | 2026-09-02 11:48:32 | 49.39165 | 17.44510 | 96° | 64km/h | 11526m | 6.7m/s | -58.8°C | 51.8% | 0hPa | 2.7V | 00:00:00 | 00:00:00 | 00:00:00 | |
| OE3OSB-13 | 2026-09-02 11:48:22 | 49.39177 | 17.44255 | 105° | 58km/h | 11467m | 6.8m/s | -58.9°C | 45.6% | -1.0hPa | 2.7V | 00:00:00 | 00:00:00 | 00:00:00 | |
| S52SK | 2026-09-02 11:48:21 | 49.39181 | 17.44233 | 107° | 57km/h | 11459m | 8.8m/s | -59.0°C | 0% | 0hPa | 2.7V | 00:00:00 | 00:00:00 | 00:00:00 | |
| OE5DXL-15 | 2026-09-02 11:48:20 | 49.39184 | 17.44212 | 105° | 62km/h | 11450m | 7.9m/s | -59.0°C | 57.0% | 0hPa | 2.7V | 00:00:00 | 00:00:00 | 00:00:00 | |
| PETON7-10 | 2026-09-02 11:48:17 | 49.39194 | 17.44146 | 103° | 60km/h | 11434m | 5.3m/s | -59.4°C | 57.1% | 0hPa | 2.7V | 00:00:00 | 01:02:26 | 00:00:00 | |
| S52SK | 2026-09-02 11:48:10 | 49.39227 | 17.43974 | 110° | 64km/h | 11384m | 4.9m/s | -59.2°C | 0% | 0hPa | 2.7V | 00:00:00 | 00:00:00 | 00:00:00 | |
| OE3OSB-13 | 2026-09-02 11:47:51 | 49.39353 | 17.43560 | 123° | 55km/h | 11273m | 6.6m/s | -59.0°C | 44.8% | -1.0hPa | 2.7V | 00:00:00 | 00:00:00 | 00:00:00 | |
| OE5DXL-15 | 2026-09-02 11:47:50 | 49.39361 | 17.43541 | 120° | 73km/h | 11268m | 3.7m/s | -59.0°C | 56.8% | 0hPa | 2.7V | 00:00:00 | 00:00:00 | 00:00:00 | |
| PETON7-10 | 2026-09-02 11:47:47 | 49.39381 | 17.43469 | 109° | 77km/h | 11253m | 6.5m/s | -58.9°C | 54.4% | 0hPa | 2.7V | 00:00:00 | 00:00:00 | 00:00:00 | |
| PG1ADW-2 | 2026-09-02 11:47:34 | 49.39452 | 17.43103 | 100° | 69km/h | 11159m | 7.5m/s | -58.1°C | 51.5% | 0hPa | 2.7V | 00:00:00 | 00:00:00 | 00:00:00 | |
| PETON7-10 | 2026-09-02 11:47:32 | 49.39461 | 17.43041 | 106° | 69km/h | 11147m | 5.4m/s | -58.0°C | 52.7% | 0hPa | 2.7V | 00:00:00 | 01:01:41 | 00:00:00 | |
| HA6NAB-11 | 2026-09-02 11:47:31 | 49.39461 | 17.43041 | 107° | 80km/h | 11147m | 5.4m/s | 0°C | 0% | 0hPa | 2.7V | 00:00:00 | 00:00:00 | 00:00:00 | |
| OE5DRO-10 | 2026-09-02 11:47:23 | 49.39518 | 17.42819 | 99° | 69km/h | 11094m | 5.7m/s | -57.6°C | 50.6% | 0hPa | 2.7V | 00:00:00 | 00:00:00 | 00:00:00 | |
| OE3OSB-13 | 2026-09-02 11:47:21 | 49.39523 | 17.42737 | 94° | 68km/h | 11081m | 2.7m/s | -57.6°C | 39.4% | -1.0hPa | 2.9V | 00:00:00 | 00:00:00 | 00:00:00 | |
| OE5DXL-15 | 2026-09-02 11:47:20 | 49.39523 | 17.42737 | 95° | 69km/h | 11081m | 2.7m/s | -57.6°C | 48.4% | 0hPa | 2.9V | 00:00:00 | 00:00:00 | 00:00:00 | |
| PETON7-10 | 2026-09-02 11:47:17 | 49.39527 | 17.42662 | 98° | 69km/h | 11065m | 7.5m/s | -57.4°C | 47.5% | 0hPa | 2.9V | 00:00:00 | 00:00:00 | 08:30:00 | |
| S52SK | 2026-09-02 11:47:12 | 49.39543 | 17.42563 | 114° | 69km/h | 11034m | 7.7m/s | -57.2°C | 0% | 0hPa | 2.7V | 00:00:00 | 00:00:00 | 00:00:00 | |
| S52SK | 2026-09-02 11:47:07 | 49.39588 | 17.42449 | 121° | 71km/h | 11005m | 5.2m/s | -56.8°C | 0% | 0hPa | 2.7V | 00:00:00 | 00:00:00 | 00:00:00 | |
| OE5DRO-10 | 2026-09-02 11:47:04 | 49.39623 | 17.42345 | 118° | 68km/h | 10980m | 6.6m/s | -56.6°C | 46.4% | 0hPa | 2.7V | 00:00:00 | 00:00:00 | 00:00:00 | |
| S52SK | 2026-09-02 11:47:02 | 49.39632 | 17.42320 | 117° | 71km/h | 10974m | 6.2m/s | -56.6°C | 0% | 0hPa | 2.7V | 00:00:00 | 00:00:00 | 00:00:00 | |
| OE3OSB-13 | 2026-09-02 11:46:49 | 49.39748 | 17.41968 | 120° | 58km/h | 10879m | 5.0m/s | -55.7°C | 36.1% | -1.0hPa | 2.7V | 00:00:00 | 00:00:00 | 00:00:00 | |
| PETON7-10 | 2026-09-02 11:46:47 | 49.39755 | 17.41948 | 117° | 69km/h | 10873m | 5.3m/s | -55.6°C | 44.4% | 0hPa | 2.7V | 00:00:00 | 01:00:56 | 00:00:00 | |
| OE5DRO-10 | 2026-09-02 11:46:45 | 49.39766 | 17.41907 | 108° | 69km/h | 10864m | 4.4m/s | -55.5°C | 45.0% | 0hPa | 2.7V | 00:00:00 | 00:00:00 | 00:00:00 | |
| PG1ADW-2 | 2026-09-02 11:46:34 | 49.39838 | 17.41625 | 117° | 69km/h | 10808m | 4.3m/s | -55.0°C | 48.3% | 0hPa | 2.7V | 00:00:00 | 00:00:00 | 00:00:00 | |
| PETON7-10 | 2026-09-02 11:46:32 | 49.39854 | 17.41571 | 112° | 68km/h | 10799m | 5.7m/s | -55.0°C | 47.0% | 0hPa | 2.7V | 00:00:00 | 00:00:00 | 00:00:00 | |
| OE5DRO-10 | 2026-09-02 11:46:26 | 49.39901 | 17.41434 | 130° | 73km/h | 10757m | 4.9m/s | -54.6°C | 50.3% | 0hPa | 2.7V | 00:00:00 | 00:00:00 | 00:00:00 | |
| OE5DXL-15 | 2026-09-02 11:46:20 | 49.39960 | 17.41292 | 112° | 71km/h | 10727m | 7.7m/s | -54.3°C | 51.0% | 0hPa | 2.9V | 00:00:00 | 00:00:00 | 00:00:00 | |
| OE3OSB-13 | 2026-09-02 11:46:18 | 49.39979 | 17.41228 | 121° | 58km/h | 10701m | 9.8m/s | -54.1°C | 42.7% | -1.0hPa | 2.9V | 00:00:00 | 00:00:00 | 00:00:00 | |
| PETON7-10 | 2026-09-02 11:46:17 | 49.39979 | 17.41228 | 122° | 71km/h | 10701m | 9.8m/s | -54.1°C | 51.1% | 0hPa | 2.9V | 00:00:00 | 00:00:00 | 00:00:00 | |
| PG1ADW-2 | 2026-09-02 11:46:14 | 49.40009 | 17.41164 | 124° | 73km/h | 10676m | 9.6m/s | -53.9°C | 52.0% | 0hPa | 2.9V | 00:00:00 | 00:00:00 | 00:00:00 | |
| OE5DRO-10 | 2026-09-02 11:46:07 | 49.40059 | 17.40963 | 115° | 69km/h | 10637m | 6.4m/s | -53.6°C | 51.2% | 0hPa | 2.9V | 00:00:00 | 00:00:00 | 00:00:00 | |
| OE3OSB-13 | 2026-09-02 11:45:47 | 49.40245 | 17.40462 | 103° | 75km/h | 10514m | 4.3m/s | -52.5°C | 40.1% | -1.0hPa | 2.9V | 00:00:00 | 00:00:00 | 00:00:00 | |
| PETON7-10 | 2026-09-02 11:45:46 | 49.40245 | 17.40462 | 104° | 69km/h | 10514m | 4.3m/s | -52.4°C | 47.8% | 0hPa | 2.9V | 00:00:00 | 00:00:00 | 00:00:00 | |
| S52SK | 2026-09-02 11:45:42 | 49.40256 | 17.40381 | 105° | 68km/h | 10502m | 4.9m/s | -52.4°C | 0% | 0hPa | 2.7V | 00:00:00 | 00:00:00 | 00:00:00 | |
| S52SK | 2026-09-02 11:45:36 | 49.40296 | 17.40250 | 126° | 62km/h | 10462m | 6.3m/s | -52.1°C | 0% | 0hPa | 2.7V | 00:00:00 | 00:00:00 | 00:00:00 | |
| PG1ADW-2 | 2026-09-02 11:45:34 | 49.40324 | 17.40180 | 118° | 78km/h | 10444m | 5.5m/s | -51.8°C | 43.8% | 0hPa | 2.7V | 00:00:00 | 00:00:00 | 00:00:00 | |
| S52SK | 2026-09-02 11:45:32 | 49.40343 | 17.40123 | 117° | 82km/h | 10428m | 9.2m/s | -51.7°C | 0% | 0hPa | 2.7V | 00:00:00 | 00:00:00 | 00:00:00 | |
| PETON7-10 | 2026-09-02 11:45:31 | 49.40351 | 17.40095 | 114° | 77km/h | 10420m | 8.4m/s | -51.6°C | 43.3% | 0hPa | 2.7V | 00:00:00 | 00:00:00 | 00:00:00 | |
| OE5DRO-10 | 2026-09-02 11:45:29 | 49.40366 | 17.40037 | 111° | 77km/h | 10404m | 7.1m/s | -51.5°C | 43.8% | 0hPa | 2.7V | 00:00:00 | 00:00:00 | 08:30:00 | |
| S52SK | 2026-09-02 11:45:26 | 49.40389 | 17.39953 | 118° | 78km/h | 10385m | 5.9m/s | -51.3°C | 0% | 0hPa | 2.9V | 00:00:00 | 00:00:00 | 00:00:00 | |
| OE5DXL-15 | 2026-09-02 11:45:20 | 49.40437 | 17.39808 | 107° | 77km/h | 10349m | 6.3m/s | -51.0°C | 41.2% | 0hPa | 2.9V | 00:00:00 | 00:00:00 | 00:00:00 | |
| PETON7-10 | 2026-09-02 11:45:18 | 49.40460 | 17.39684 | 110° | 78km/h | 10320m | 4.9m/s | -50.7°C | 42.4% | 0hPa | 2.7V | 00:00:00 | 00:59:25 | 00:00:00 | |
| OE3OSB-13 | 2026-09-02 11:45:17 | 49.40468 | 17.39652 | 112° | 86km/h | 10315m | 4.1m/s | -50.7°C | 36.0% | -1.0hPa | 2.7V | 00:00:00 | 00:00:00 | 00:00:00 | |
| PG1ADW-2 | 2026-09-02 11:45:14 | 49.40477 | 17.39622 | 117° | 75km/h | 10310m | 5.9m/s | -50.7°C | 42.4% | 0hPa | 2.7V | 00:00:00 | 00:00:00 | 00:00:00 | |
| OE5DRO-10 | 2026-09-02 11:45:10 | 49.40516 | 17.39524 | 122° | 75km/h | 10289m | 4.9m/s | -50.5°C | 40.4% | 0hPa | 2.7V | 00:00:00 | 00:00:00 | 00:00:00 | |
| PETON7-10 | 2026-09-02 11:45:01 | 49.40587 | 17.39279 | 120° | 71km/h | 10236m | 5.8m/s | -50.0°C | 36.6% | 0hPa | 2.7V | 00:00:00 | 00:00:00 | 08:30:00 | |
| PG1ADW-2 | 2026-09-02 11:44:54 | 49.40638 | 17.39099 | 108° | 73km/h | 10201m | 5.2m/s | -49.6°C | 37.8% | 0hPa | 2.7V | 00:00:00 | 00:00:00 | 00:00:00 | |
| OE5DRO-10 | 2026-09-02 11:44:51 | 49.40659 | 17.39025 | 117° | 71km/h | 10188m | 5.9m/s | -49.5°C | 35.8% | 0hPa | 2.9V | 00:00:00 | 00:00:00 | 00:00:00 | |
| OE5DXL-15 | 2026-09-02 11:44:50 | 49.40666 | 17.39002 | 114° | 69km/h | 10181m | 8.3m/s | -49.5°C | 34.8% | 0hPa | 2.9V | 00:00:00 | 00:00:00 | 00:00:00 | |
| OE3OSB-13 | 2026-09-02 11:44:46 | 49.40693 | 17.38846 | 111° | 75km/h | 10145m | 7.3m/s | -49.2°C | 29.9% | -1.0hPa | 2.9V | 00:00:00 | 00:00:00 | 00:00:00 | |
| PG1ADW-2 | 2026-09-02 11:44:34 | 49.40783 | 17.38592 | 132° | 66km/h | 10077m | 4.3m/s | -48.7°C | 37.5% | 0hPa | 2.9V | 00:00:00 | 00:58:43 | 00:00:00 | |
| OE5DRO-10 | 2026-09-02 11:44:32 | 49.40805 | 17.38552 | 126° | 66km/h | 10068m | 4.2m/s | -48.6°C | 36.3% | 0hPa | 2.9V | 00:00:00 | 00:00:00 | 00:00:00 | |
| PETON7-10 | 2026-09-02 11:44:31 | 49.40814 | 17.38529 | 121° | 66km/h | 10063m | 5.5m/s | -48.6°C | 34.8% | 0hPa | 2.9V | 00:00:00 | 00:58:40 | 00:00:00 | |
| OE5DXL-15 | 2026-09-02 11:44:20 | 49.40880 | 17.38268 | 123° | 66km/h | 9991m | 6.1m/s | 0°C | 0% | 0hPa | 2.9V | 00:00:00 | 00:00:00 | 00:00:00 | |
| PETON7-10 | 2026-09-02 11:44:16 | 49.40922 | 17.38188 | 130° | 62km/h | 9974m | 2.7m/s | -47.8°C | 30.4% | 0hPa | 2.9V | 00:00:00 | 00:00:00 | 00:00:00 | |
| PG1ADW-2 | 2026-09-02 11:44:15 | 49.40943 | 17.38148 | 128° | 64km/h | 9963m | 6.5m/s | -47.7°C | 29.4% | 0hPa | 2.7V | 00:00:00 | 00:00:00 | 00:00:00 | |
| OE3OSB-13 | 2026-09-02 11:44:14 | 49.40952 | 17.38129 | 122° | 60km/h | 9957m | 5.3m/s | -47.7°C | 24.3% | -1.0hPa | 2.7V | 00:00:00 | 00:00:00 | 00:00:00 | |
| OE5DRO-10 | 2026-09-02 11:44:13 | 49.40952 | 17.38129 | 123° | 64km/h | 9957m | 5.3m/s | -47.6°C | 29.1% | 0hPa | 2.7V | 00:00:00 | 00:00:00 | 00:00:00 | |
| PETON7-10 | 2026-09-02 11:44:01 | 49.41030 | 17.37876 | 112° | 69km/h | 9883m | 4.3m/s | -46.9°C | 28.3% | 0hPa | 2.7V | 00:00:00 | 00:00:00 | 00:00:00 | |
| PG1ADW-2 | 2026-09-02 11:43:54 | 49.41081 | 17.37700 | 119° | 68km/h | 9851m | 5.0m/s | -46.6°C | 28.2% | 0hPa | 2.7V | 00:00:00 | 00:00:00 | 00:00:00 | |
| OE5DXL-15 | 2026-09-02 11:43:50 | 49.41117 | 17.37604 | 119° | 64km/h | 9829m | 9.6m/s | 0°C | 0% | 0hPa | 2.9V | 00:00:00 | 00:00:00 | 00:00:00 | |
| S52SK | 2026-09-02 11:43:49 | 49.41117 | 17.37604 | 120° | 64km/h | 9829m | 9.7m/s | -46.5°C | 0% | 0hPa | 2.9V | 00:00:00 | 00:00:00 | 00:00:00 | |
| PETON7-10 | 2026-09-02 11:43:46 | 49.41145 | 17.37515 | 113° | 64km/h | 9795m | 5.2m/s | -46.1°C | 26.2% | 0hPa | 2.9V | 00:00:00 | 00:57:55 | 00:00:00 | |
| OE3OSB-13 | 2026-09-02 11:43:43 | 49.41170 | 17.37413 | 110° | 71km/h | 9771m | 6.2m/s | -45.9°C | 22.4% | -1.0hPa | 2.9V | 00:00:00 | 00:00:00 | 00:00:00 | |
| S52SK | 2026-09-02 11:43:37 | 49.41197 | 17.37313 | 114° | 68km/h | 9751m | 4.0m/s | 0°C | 0% | 0hPa | 2.9V | 00:00:00 | 00:00:00 | 00:00:00 | |
| OE5DRO-10 | 2026-09-02 11:43:35 | 49.41214 | 17.37247 | 108° | 58km/h | 9735m | 5.0m/s | -45.5°C | 25.9% | 0hPa | 2.9V | 00:00:00 | 00:00:00 | 00:00:00 | |
| PG1ADW-2 | 2026-09-02 11:43:34 | 49.41218 | 17.37229 | 107° | 60km/h | 9730m | 4.2m/s | -45.5°C | 25.9% | 0hPa | 2.9V | 00:00:00 | 00:00:00 | 00:00:00 | |
| PETON7-10 | 2026-09-02 11:43:31 | 49.41232 | 17.37175 | 115° | 62km/h | 9717m | 4.9m/s | -45.3°C | 25.2% | 0hPa | 2.9V | 00:00:00 | 00:00:00 | 00:00:00 | |
| OE5DXL-15 | 2026-09-02 11:43:20 | 49.41298 | 17.36933 | 113° | 68km/h | 9646m | 5.0m/s | 0°C | 0% | 0hPa | 2.7V | 00:00:00 | 00:00:00 | 00:00:00 | |
| PETON7-10 | 2026-09-02 11:43:16 | 49.41312 | 17.36840 | 99° | 68km/h | 9626m | 4.5m/s | -44.5°C | 23.5% | 0hPa | 2.7V | 00:00:00 | 00:00:00 | 00:00:00 | |
| PG1ADW-2 | 2026-09-02 11:43:14 | 49.41319 | 17.36795 | 110° | 68km/h | 9618m | 4.8m/s | -44.4°C | 23.6% | 0hPa | 2.7V | 00:00:00 | 00:57:23 | 00:00:00 | |
| OE3OSB-13 | 2026-09-02 11:43:12 | 49.41337 | 17.36733 | 117° | 60km/h | 9597m | 8.6m/s | -44.3°C | 19.7% | -1.0hPa | 2.7V | 00:00:00 | 00:00:00 | 00:00:00 | |
| PETON7-10 | 2026-09-02 11:43:01 | 49.41420 | 17.36479 | 120° | 64km/h | 9543m | 6.4m/s | -43.7°C | 23.4% | 0hPa | 2.7V | 00:00:00 | 00:57:10 | 00:00:00 | |
| OE5DRO-10 | 2026-09-02 11:42:57 | 49.41447 | 17.36388 | 108° | 66km/h | 9513m | 6.0m/s | -43.4°C | 23.1% | 0hPa | 2.7V | 00:00:00 | 00:00:00 | 00:00:00 | |
| PG1ADW-2 | 2026-09-02 11:42:54 | 49.41460 | 17.36312 | 103° | 68km/h | 9498m | 4.8m/s | -43.3°C | 22.4% | 0hPa | 2.7V | 00:00:00 | 00:00:00 | 08:30:00 | |
| OE5DXL-15 | 2026-09-02 11:42:50 | 49.41473 | 17.36217 | 108° | 66km/h | 9479m | 4.0m/s | 0°C | 0% | 0hPa | 2.7V | 00:00:00 | 00:56:59 | 00:00:00 | |
| PETON7-10 | 2026-09-02 11:42:46 | 49.41499 | 17.36132 | 118° | 73km/h | 9454m | 7.7m/s | -42.9°C | 22.1% | 0hPa | 2.7V | 00:00:00 | 00:00:00 | 08:30:00 | |
| S52SK | 2026-09-02 11:42:44 | 49.41508 | 17.36107 | 118° | 71km/h | 9446m | 8.0m/s | 0°C | 0% | 0hPa | 2.9V | 00:00:00 | 00:00:00 | 00:00:00 | |
| OE3JTB-15 | 2026-09-02 11:42:42 | 49.41526 | 17.36034 | 103° | 68km/h | 9427m | 5.3m/s | -42.6°C | 22.6% | 0hPa | 2.9V | 00:00:00 | 00:00:00 | 00:00:00 | |
| OE3OSB-13 | 2026-09-02 11:42:40 | 49.41532 | 17.35984 | 99° | 66km/h | 9417m | 5.2m/s | -42.6°C | 19.6% | -1.0hPa | 2.9V | 00:00:00 | 00:00:00 | 00:00:00 | |
| S52SK | 2026-09-02 11:42:39 | 49.41532 | 17.35984 | 100° | 68km/h | 9418m | 5.2m/s | 0°C | 0% | 0hPa | 2.9V | 00:00:00 | 00:00:00 | 00:00:00 | |
| OE5DRO-10 | 2026-09-02 11:42:38 | 49.41540 | 17.35931 | 108° | 71km/h | 9410m | 3.5m/s | -42.4°C | 23.2% | 0hPa | 2.9V | 00:00:00 | 00:00:00 | 08:30:00 | |
| PG1ADW-2 | 2026-09-02 11:42:34 | 49.41568 | 17.35818 | 113° | 68km/h | 9384m | 6.7m/s | -42.3°C | 23.3% | 0hPa | 2.9V | 00:00:00 | 00:00:00 | 00:00:00 | |
| S52SK | 2026-09-02 11:42:33 | 49.41568 | 17.35818 | 114° | 80km/h | 9384m | 6.7m/s | 0°C | 0% | 0hPa | 2.9V | 00:00:00 | 00:00:00 | 00:00:00 | |
| PETON7-10 | 2026-09-02 11:42:31 | 49.41592 | 17.35740 | 120° | 66km/h | 9368m | 4.4m/s | -42.1°C | 23.6% | 0hPa | 2.9V | 00:00:00 | 00:00:00 | 00:00:00 | |
| OE5DXL-15 | 2026-09-02 11:42:20 | 49.41674 | 17.35484 | 115° | 60km/h | 9293m | 6.7m/s | 0°C | 0% | 0hPa | 2.9V | 00:00:00 | 00:00:00 | 00:00:00 | |
| OE5DRO-10 | 2026-09-02 11:42:19 | 49.41681 | 17.35460 | 112° | 58km/h | 9288m | 3.9m/s | -41.4°C | 22.1% | 0hPa | 2.9V | 00:00:00 | 00:00:00 | 00:00:00 | |
| PETON7-10 | 2026-09-02 11:42:16 | 49.41698 | 17.35391 | 114° | 55km/h | 9272m | 4.2m/s | -41.3°C | 22.2% | 0hPa | 2.9V | 00:00:00 | 00:56:25 | 00:00:00 | |
| PG1ADW-2 | 2026-09-02 11:42:14 | 49.41712 | 17.35350 | 121° | 62km/h | 9262m | 2.9m/s | -41.2°C | 22.5% | 0hPa | 2.9V | 00:00:00 | 00:00:00 | 00:00:00 | |
| OE3JTB-15 | 2026-09-02 11:42:12 | 49.41727 | 17.35312 | 126° | 62km/h | 9254m | 5.0m/s | -41.1°C | 22.1% | 0hPa | 2.9V | 00:00:00 | 00:56:21 | 00:00:00 | |
| OE3OSB-13 | 2026-09-02 11:42:09 | 49.41754 | 17.35260 | 128° | 57km/h | 9242m | 3.9m/s | -41.1°C | 18.9% | -1.0hPa | 2.9V | 00:00:00 | 00:00:00 | 00:00:00 | |
| PETON7-10 | 2026-09-02 11:42:01 | 49.41810 | 17.35118 | 108° | 71km/h | 9189m | 7.6m/s | -40.6°C | 21.3% | 0hPa | 2.9V | 00:00:00 | 00:00:00 | 00:00:00 | |
| OE5DRO-10 | 2026-09-02 11:42:00 | 49.41816 | 17.35091 | 108° | 71km/h | 9182m | 5.1m/s | -40.6°C | 21.1% | 0hPa | 2.9V | 00:00:00 | 00:00:00 | 00:00:00 | |
| PG1ADW-2 | 2026-09-02 11:41:54 | 49.41850 | 17.34922 | 110° | 64km/h | 9149m | 6.4m/s | -40.4°C | 21.3% | 0hPa | 2.9V | 00:00:00 | 00:56:03 | 00:00:00 | |
| PETON7-10 | 2026-09-02 11:41:46 | 49.41909 | 17.34735 | 113° | 60km/h | 9096m | 4.7m/s | -40.0°C | 25.7% | 0hPa | 2.9V | 00:00:00 | 00:00:00 | 00:00:00 | |
| OE3JTB-15 | 2026-09-02 11:41:43 | 49.41928 | 17.34662 | 112° | 62km/h | 9082m | 6.5m/s | -40.0°C | 28.3% | 0hPa | 2.9V | 00:00:00 | 00:00:00 | 00:00:00 | |
| OE5DRO-10 | 2026-09-02 11:41:41 | 49.41940 | 17.34612 | 108° | 55km/h | 9065m | 8.6m/s | -40.0°C | 31.7% | 0hPa | 2.7V | 00:00:00 | 00:00:00 | 00:00:00 | |
| OE3OSB-13 | 2026-09-02 11:41:38 | 49.41956 | 17.34537 | 109° | 60km/h | 9045m | 4.5m/s | -39.9°C | 30.5% | -1.0hPa | 2.9V | 00:00:00 | 00:00:00 | 00:00:00 | |
| PG1ADW-2 | 2026-09-02 11:41:34 | 49.41972 | 17.34462 | 104° | 57km/h | 9025m | 5.3m/s | -39.7°C | 37.2% | 0hPa | 2.9V | 00:00:00 | 00:00:00 | 00:00:00 | |
| PETON7-10 | 2026-09-02 11:41:31 | 49.41982 | 17.34409 | 111° | 58km/h | 9011m | 5.8m/s | -39.6°C | 35.5% | 0hPa | 2.9V | 00:00:00 | 00:55:40 | 00:00:00 | |
| OE5DRO-10 | 2026-09-02 11:41:22 | 49.42018 | 17.34226 | 102° | 62km/h | 8952m | 3.8m/s | 0°C | 0% | 0hPa | 2.9V | 00:00:00 | 00:00:00 | 00:00:00 | |
| PETON7-10 | 2026-09-02 11:41:16 | 49.42043 | 17.34083 | 117° | 64km/h | 8918m | 6.2m/s | -39.0°C | 41.3% | 0hPa | 2.9V | 00:00:00 | 00:00:00 | 00:00:00 | |
| PG1ADW-2 | 2026-09-02 11:41:14 | 49.42061 | 17.34039 | 126° | 60km/h | 8907m | 7.2m/s | -39.0°C | 40.0% | 0hPa | 2.9V | 00:00:00 | 00:00:00 | 00:00:00 | |
| OE3OSB-13 | 2026-09-02 11:41:07 | 49.42104 | 17.33900 | 110° | 66km/h | 8855m | 5.8m/s | -38.5°C | 25.7% | -1.0hPa | 2.9V | 00:00:00 | 00:00:00 | 00:00:00 | |
| OE5DRO-10 | 2026-09-02 11:41:03 | 49.42129 | 17.33799 | 111° | 58km/h | 8832m | 4.9m/s | 0°C | 0% | 0hPa | 2.9V | 00:00:00 | 00:00:00 | 00:00:00 | |
| OE3JTB-15 | 2026-09-02 11:41:02 | 49.42134 | 17.33774 | 108° | 53km/h | 8827m | 5.6m/s | -38.2°C | 27.7% | 0hPa | 2.9V | 00:00:00 | 00:00:00 | 00:00:00 | |
| PETON7-10 | 2026-09-02 11:41:01 | 49.42139 | 17.33749 | 108° | 51km/h | 8822m | 4.1m/s | -38.1°C | 27.4% | 0hPa | 2.9V | 00:00:00 | 00:00:00 | 00:00:00 | |
| PG1ADW-2 | 2026-09-02 11:40:54 | 49.42184 | 17.33616 | 111° | 53km/h | 8783m | 5.2m/s | -37.8°C | 26.5% | 0hPa | 2.9V | 00:00:00 | 00:00:00 | 00:00:00 | |
| PETON7-10 | 2026-09-02 11:40:46 | 49.42224 | 17.33480 | 122° | 57km/h | 8724m | 5.9m/s | -37.2°C | 25.0% | 0hPa | 2.9V | 00:00:00 | 00:54:55 | 00:00:00 | |
| OE5DRO-10 | 2026-09-02 11:40:39 | 49.42251 | 17.33327 | 93° | 51km/h | 8686m | 4.2m/s | 0°C | 0% | 0hPa | 2.9V | 00:00:00 | 00:00:00 | 00:00:00 | |
| OE3OSB-13 | 2026-09-02 11:40:36 | 49.42255 | 17.33261 | 99° | 53km/h | 8674m | 6.0m/s | -36.8°C | 18.0% | -1.0hPa | 2.9V | 00:00:00 | 00:00:00 | 00:00:00 | |
| PG1ADW-2 | 2026-09-02 11:40:34 | 49.42262 | 17.33223 | 110° | 49km/h | 8660m | 8.0m/s | 0°C | 0% | 0hPa | 2.9V | 00:00:00 | 00:54:43 | 00:00:00 | |
| PETON7-10 | 2026-09-02 11:40:31 | 49.42278 | 17.33172 | 118° | 51km/h | 8639m | 6.8m/s | -36.4°C | 19.2% | 0hPa | 2.9V | 00:00:00 | 00:00:00 | 08:30:00 | |
| OE5DRO-10 | 2026-09-02 11:40:18 | 49.42324 | 17.32928 | 126° | 53km/h | 8560m | 4.2m/s | 0°C | 0% | 0hPa | 2.9V | 00:00:00 | 00:00:00 | 00:00:00 | |
| PETON7-10 | 2026-09-02 11:40:16 | 49.42337 | 17.32899 | 125° | 55km/h | 8551m | 5.6m/s | -35.6°C | 16.2% | 0hPa | 2.9V | 00:00:00 | 00:00:00 | 00:00:00 | |
| PG1ADW-2 | 2026-09-02 11:40:14 | 49.42349 | 17.32867 | 115° | 55km/h | 8538m | 7.4m/s | 0°C | 0% | 0hPa | 2.9V | 00:00:00 | 00:00:00 | 00:00:00 | |
| OE3OSB-13 | 2026-09-02 11:40:05 | 49.42399 | 17.32678 | 127° | 53km/h | 8470m | 4.9m/s | -34.9°C | 12.6% | -1.0hPa | 2.9V | 00:00:00 | 00:00:00 | 00:00:00 | |
| PETON7-10 | 2026-09-02 11:40:01 | 49.42424 | 17.32613 | 109° | 51km/h | 8451m | 5.9m/s | -34.6°C | 14.3% | 0hPa | 2.9V | 00:00:00 | 00:54:10 | 00:00:00 | |
| OE5DRO-10 | 2026-09-02 11:39:59 | 49.42431 | 17.32577 | 105° | 47km/h | 8435m | 9.6m/s | 0°C | 0% | 0hPa | 2.9V | 00:00:00 | 00:00:00 | 00:00:00 | |
| PG1ADW-2 | 2026-09-02 11:39:54 | 49.42458 | 17.32475 | 120° | 53km/h | 8402m | 5.1m/s | 0°C | 0% | 0hPa | 2.9V | 00:00:00 | 00:00:00 | 00:00:00 | |
| PETON7-10 | 2026-09-02 11:39:46 | 49.42513 | 17.32351 | 118° | 55km/h | 8347m | 9.4m/s | -33.7°C | 13.0% | 0hPa | 2.9V | 00:00:00 | 00:00:00 | 00:00:00 | |
| OE3OSB-13 | 2026-09-02 11:39:34 | 49.42597 | 17.32122 | 127° | 49km/h | 8270m | 4.3m/s | -33.0°C | 9.9% | -1.0hPa | 2.9V | 00:00:00 | 00:00:00 | 00:00:00 | |
| PETON7-10 | 2026-09-02 11:39:31 | 49.42616 | 17.32075 | 116° | 49km/h | 8254m | 5.7m/s | -32.9°C | 11.3% | 0hPa | 2.9V | 00:00:00 | 00:00:00 | 00:00:00 | |
| OE5DRO-10 | 2026-09-02 11:39:24 | 49.42648 | 17.31956 | 105° | 42km/h | 8203m | 4.4m/s | 0°C | 0% | 0hPa | 2.9V | 00:00:00 | 00:00:00 | 08:30:00 | |
| OE3OSB-13 | 2026-09-02 11:39:03 | 49.42742 | 17.31517 | 100° | 62km/h | 8076m | 5.0m/s | -31.9°C | 13.0% | -1.0hPa | 2.9V | 00:00:00 | 00:00:00 | 00:00:00 | |
| PETON7-10 | 2026-09-02 11:39:01 | 49.42745 | 17.31492 | 98° | 55km/h | 8071m | 5.6m/s | -32.0°C | 16.0% | 0hPa | 2.9V | 00:00:00 | 00:00:00 | 00:00:00 | |
| OE3JTB-15 | 2026-09-02 11:38:49 | 49.42796 | 17.31220 | 92° | 57km/h | 7981m | 8.9m/s | -31.6°C | 22.7% | 0hPa | 2.9V | 00:00:00 | 00:00:00 | 00:00:00 | |
| PETON7-10 | 2026-09-02 11:38:46 | 49.42796 | 17.31193 | 89° | 55km/h | 7974m | 5.9m/s | -31.6°C | 23.9% | 0hPa | 2.9V | 00:00:00 | 00:00:00 | 00:00:00 | |
| OE3OSB-13 | 2026-09-02 11:38:32 | 49.42784 | 17.30879 | 81° | 55km/h | 7889m | 6.1m/s | -31.1°C | 27.9% | -1.0hPa | 2.9V | 00:00:00 | 00:00:00 | 00:00:00 | |
| PETON7-10 | 2026-09-02 11:38:31 | 49.42784 | 17.30879 | 82° | 53km/h | 7890m | 6.1m/s | -31.1°C | 30.6% | 0hPa | 2.9V | 00:00:00 | 00:52:40 | 00:00:00 | |
| PETON7-10 | 2026-09-02 11:38:16 | 49.42801 | 17.30579 | 76° | 64km/h | 7799m | 5.4m/s | -30.4°C | 32.2% | 0hPa | 2.9V | 00:00:00 | 00:00:00 | 08:30:00 | |
| OE3OSB-13 | 2026-09-02 11:38:01 | 49.42799 | 17.30193 | 88° | 68km/h | 7703m | 8.1m/s | -29.6°C | 27.7% | -1.0hPa | 2.9V | 00:00:00 | 00:00:00 | 00:00:00 | |
| PETON7-10 | 2026-09-02 11:37:45 | 49.42813 | 17.29807 | 74° | 60km/h | 7624m | 7.3m/s | -28.9°C | 31.2% | 0hPa | 2.9V | 00:00:00 | 00:51:54 | 00:00:00 | |
| OE3JTB-15 | 2026-09-02 11:37:32 | 49.42819 | 17.29479 | 101° | 58km/h | 7538m | 5.1m/s | -28.1°C | 26.2% | 0hPa | 2.9V | 00:00:00 | 00:00:00 | 08:30:00 | |
| OE3OSB-13 | 2026-09-02 11:37:30 | 49.42823 | 17.29448 | 101° | 42km/h | 7528m | 5.0m/s | -28.1°C | 24.5% | -1.0hPa | 2.7V | 00:00:00 | 00:00:00 | 00:00:00 | |
| PETON7-10 | 2026-09-02 11:37:15 | 49.42851 | 17.29103 | 95° | 55km/h | 7441m | 5.1m/s | -27.2°C | 25.2% | 0hPa | 2.7V | 00:00:00 | 00:00:00 | 00:00:00 | |
| OE3OSB-13 | 2026-09-02 11:36:58 | 49.42885 | 17.28749 | 105° | 55km/h | 7355m | 3.8m/s | -26.5°C | 21.6% | -1.0hPa | 2.7V | 00:00:00 | 00:00:00 | 00:00:00 | |
| PETON7-10 | 2026-09-02 11:36:45 | 49.42899 | 17.28433 | 87° | 64km/h | 7286m | 3.1m/s | -25.9°C | 16.6% | 0hPa | 2.7V | 00:00:00 | 00:00:00 | 00:00:00 | |
| OE3JTB-15 | 2026-09-02 11:36:33 | 49.42896 | 17.28112 | 93° | 64km/h | 7213m | 7.5m/s | -25.4°C | 11.1% | 0hPa | 2.9V | 00:00:00 | 00:50:41 | 00:00:00 | |
| PETON7-10 | 2026-09-02 11:36:30 | 49.42896 | 17.28062 | 90° | 60km/h | 7197m | 8.0m/s | -25.2°C | 10.5% | 0hPa | 2.9V | 00:00:00 | 00:00:00 | 00:00:00 | |
| OE3OSB-13 | 2026-09-02 11:36:27 | 49.42896 | 17.28008 | 85° | 44km/h | 7175m | 5.1m/s | -25.1°C | 8.8% | -1.0hPa | 2.9V | 00:00:00 | 00:00:00 | 00:00:00 | |
| PETON7-10 | 2026-09-02 11:36:15 | 49.42898 | 17.27715 | 93° | 66km/h | 7105m | 4.0m/s | -24.6°C | 10.7% | 0hPa | 2.9V | 00:00:00 | 00:50:24 | 00:00:00 | |
| OE3JTB-15 | 2026-09-02 11:36:04 | 49.42908 | 17.27430 | 93° | 68km/h | 7044m | 6.1m/s | -24.3°C | 13.8% | 0hPa | 2.9V | 00:00:00 | 00:00:00 | 00:00:00 | |
| OE3OSB-13 | 2026-09-02 11:35:56 | 49.42903 | 17.27278 | 91° | 53km/h | 6995m | 7.6m/s | -24.0°C | 12.3% | -1.0hPa | 2.9V | 00:00:00 | 00:00:00 | 00:00:00 | |
| PETON7-10 | 2026-09-02 11:35:45 | 49.42915 | 17.26986 | 89° | 66km/h | 6944m | 3.3m/s | -23.6°C | 15.9% | 0hPa | 2.9V | 00:00:00 | 00:00:00 | 00:00:00 | |
| OE3JTB-15 | 2026-09-02 11:35:35 | 49.42896 | 17.26741 | 82° | 49km/h | 6890m | 2.4m/s | -24.1°C | 47.4% | 0hPa | 2.9V | 00:00:00 | 00:00:00 | 00:00:00 | |
| PETON7-10 | 2026-09-02 11:35:30 | 49.42885 | 17.26617 | 82° | 49km/h | 6869m | 5.1m/s | -24.1°C | 57.5% | 0hPa | 2.9V | 00:00:00 | 00:49:39 | 00:00:00 | |
| OE3OSB-13 | 2026-09-02 11:35:25 | 49.42884 | 17.26543 | 94° | 40km/h | 6842m | 4.3m/s | -23.9°C | 53.3% | -1.0hPa | 2.9V | 00:00:00 | 00:00:00 | 00:00:00 | |
| PETON7-10 | 2026-09-02 11:35:15 | 49.42899 | 17.26338 | 103° | 51km/h | 6788m | 4.7m/s | -23.4°C | 52.2% | 0hPa | 2.9V | 00:00:00 | 00:00:00 | 00:00:00 | |
| OE3JTB-15 | 2026-09-02 11:35:06 | 49.42893 | 17.26175 | 88° | 60km/h | 6742m | 3.7m/s | -22.9°C | 51.5% | 0hPa | 2.7V | 00:00:00 | 00:49:15 | 00:00:00 | |
| OE3OSB-13 | 2026-09-02 11:34:54 | 49.42864 | 17.25908 | 77° | 62km/h | 6675m | 5.0m/s | -22.3°C | 43.3% | -1.0hPa | 2.7V | 00:00:00 | 00:00:00 | 00:00:00 | |
| PETON7-10 | 2026-09-02 11:34:45 | 49.42849 | 17.25707 | 83° | 53km/h | 6627m | 6.5m/s | -21.9°C | 41.0% | 0hPa | 2.7V | 00:00:00 | 00:48:54 | 00:00:00 | |
| PETON7-10 | 2026-09-02 11:34:30 | 49.42861 | 17.25401 | 78° | 64km/h | 6539m | 7.5m/s | -21.1°C | 44.1% | 0hPa | 2.7V | 00:00:00 | 00:00:00 | 00:00:00 | |
| OE3OSB-13 | 2026-09-02 11:34:23 | 49.42855 | 17.25231 | 91° | 62km/h | 6503m | 6.1m/s | -20.8°C | 41.0% | -1.0hPa | 3.0V | 00:00:00 | 00:00:00 | 00:00:00 | |
| PETON7-10 | 2026-09-02 11:34:15 | 49.42867 | 17.25030 | 97° | 57km/h | 6461m | 6.6m/s | -20.4°C | 40.3% | 0hPa | 3.0V | 00:00:00 | 00:00:00 | 00:00:00 | |
| OE3OSB-13 | 2026-09-02 11:33:52 | 49.42869 | 17.24556 | 99° | 55km/h | 6340m | 4.1m/s | -19.5°C | 26.5% | -1.0hPa | 3.0V | 00:00:00 | 00:00:00 | 00:00:00 | |
| PETON7-10 | 2026-09-02 11:33:45 | 49.42897 | 17.24420 | 96° | 47km/h | 6299m | 6.5m/s | -19.3°C | 22.9% | 0hPa | 3.0V | 00:00:00 | 00:00:00 | 08:30:00 | |
| OM5KV | 2026-09-02 11:33:39 | 49.42882 | 17.24335 | 72° | 46km/h | 6273m | 2.5m/s | -19.2°C | 24.9% | 0hPa | 3.0V | 00:00:00 | 00:00:00 | 00:00:00 | |
| PETON7-10 | 2026-09-02 11:33:30 | 49.42890 | 17.24146 | 86° | 37km/h | 6226m | 5.9m/s | -18.8°C | 27.5% | 0hPa | 3.0V | 00:00:00 | 00:00:00 | 00:00:00 | |
| OM5KV | 2026-09-02 11:33:26 | 49.42887 | 17.24105 | 96° | 26km/h | 6206m | 6.2m/s | -18.7°C | 28.0% | 0hPa | 3.0V | 00:00:00 | 00:00:00 | 00:00:00 | |
| OM5KV | 2026-09-02 11:33:23 | 49.42890 | 17.24077 | 99° | 26km/h | 6193m | 2.8m/s | -18.5°C | 27.4% | 0hPa | 3.0V | 00:00:00 | 00:00:00 | 00:00:00 | |
| OE3OSB-13 | 2026-09-02 11:33:21 | 49.42896 | 17.24042 | 113° | 38km/h | 6178m | 7.4m/s | -18.5°C | 24.4% | -1.0hPa | 3.0V | 00:00:00 | 00:00:00 | 00:00:00 | |
| OM5KV | 2026-09-02 11:33:20 | 49.42896 | 17.24042 | 114° | 38km/h | 6179m | 7.4m/s | -18.5°C | 24.5% | 0hPa | 3.0V | 00:00:00 | 00:00:00 | 00:00:00 | |
| OM5KV | 2026-09-02 11:33:17 | 49.42908 | 17.23994 | 105° | 47km/h | 6158m | 5.1m/s | -18.3°C | 24.5% | 0hPa | 3.0V | 00:00:00 | 00:00:00 | 00:00:00 | |
| PETON7-10 | 2026-09-02 11:33:15 | 49.42910 | 17.23942 | 79° | 44km/h | 6141m | 5.7m/s | -18.1°C | 27.2% | 0hPa | 3.0V | 00:00:00 | 00:47:24 | 00:00:00 | |
| OM5KV | 2026-09-02 11:33:11 | 49.42899 | 17.23893 | 74° | 49km/h | 6126m | 5.7m/s | -18.1°C | 25.3% | 0hPa | 3.0V | 00:00:00 | 00:00:00 | 00:00:00 | |
| OM5KV | 2026-09-02 11:33:07 | 49.42896 | 17.23812 | 103° | 53km/h | 6110m | 5.1m/s | -18.0°C | 25.8% | 0hPa | 3.0V | 00:00:00 | 00:00:00 | 00:00:00 | |
| OE3OSB-13 | 2026-09-02 11:32:50 | 49.42893 | 17.23551 | 82° | 49km/h | 6010m | 4.0m/s | -18.1°C | 37.4% | -1.0hPa | 3.0V | 00:00:00 | 00:00:00 | 00:00:00 | |
| OM5KV | 2026-09-02 11:32:49 | 49.42892 | 17.23531 | 88° | 53km/h | 6006m | 4.8m/s | -18.1°C | 37.5% | 0hPa | 3.0V | 00:00:00 | 00:00:00 | 00:00:00 | |
| PETON7-10 | 2026-09-02 11:32:45 | 49.42901 | 17.23448 | 104° | 44km/h | 5984m | 6.4m/s | -17.8°C | 40.6% | 0hPa | 3.0V | 00:00:00 | 00:00:00 | 00:00:00 | |
| OM5KV | 2026-09-02 11:32:44 | 49.42901 | 17.23448 | 105° | 57km/h | 5984m | 6.4m/s | -17.9°C | 38.8% | 0hPa | 3.0V | 00:00:00 | 00:00:00 | 00:00:00 | |
| OM5KV | 2026-09-02 11:32:43 | 49.42904 | 17.23427 | 98° | 53km/h | 5979m | 4.6m/s | -17.8°C | 39.4% | 0hPa | 3.0V | 00:00:00 | 00:00:00 | 00:00:00 | |
| OM5KV | 2026-09-02 11:32:37 | 49.42905 | 17.23338 | 112° | 31km/h | 5948m | 7.8m/s | -17.7°C | 44.2% | 0hPa | 3.0V | 00:00:00 | 00:00:00 | 00:00:00 | |
| OM5KV | 2026-09-02 11:32:31 | 49.42926 | 17.23218 | 87° | 42km/h | 5906m | 4.8m/s | -17.5°C | 52.4% | 0hPa | 3.0V | 00:00:00 | 00:00:00 | 00:00:00 | |
| PETON7-10 | 2026-09-02 11:32:30 | 49.42926 | 17.23203 | 90° | 44km/h | 5901m | 5.4m/s | -17.3°C | 52.7% | 0hPa | 3.0V | 00:00:00 | 00:46:39 | 00:00:00 | |
| OM5KV | 2026-09-02 11:32:26 | 49.42934 | 17.23166 | 121° | 40km/h | 5884m | 4.5m/s | -17.3°C | 52.7% | 0hPa | 3.0V | 00:00:00 | 00:00:00 | 00:00:00 | |
| OE3OSB-13 | 2026-09-02 11:32:19 | 49.42953 | 17.22994 | 90° | 35km/h | 5836m | 5.7m/s | -17.0°C | 55.2% | -1.0hPa | 3.0V | 00:00:00 | 00:00:00 | 00:00:00 | |
| OM5KV | 2026-09-02 11:32:15 | 49.42960 | 17.22959 | 124° | 33km/h | 5819m | 6.4m/s | -16.9°C | 54.1% | 0hPa | 3.0V | 00:00:00 | 00:00:00 | 00:00:00 | |
| OM5KV | 2026-09-02 11:32:11 | 49.42975 | 17.22919 | 118° | 46km/h | 5805m | 6.2m/s | -16.7°C | 54.4% | 0hPa | 3.0V | 00:00:00 | 00:00:00 | 00:00:00 | |
| OM5KV | 2026-09-02 11:32:06 | 49.42984 | 17.22831 | 90° | 38km/h | 5774m | 6.7m/s | -16.4°C | 51.6% | 0hPa | 3.0V | 00:00:00 | 00:00:00 | 00:00:00 | |
| OE3OSB-13 | 2026-09-02 11:31:48 | 49.43020 | 17.22544 | 111° | 33km/h | 5673m | 5.0m/s | -15.7°C | 50.2% | -1.0hPa | 3.0V | 00:00:00 | 00:00:00 | 00:00:00 | |
| OM5KV | 2026-09-02 11:31:47 | 49.43022 | 17.22532 | 99° | 33km/h | 5668m | 6.3m/s | -15.7°C | 51.3% | 0hPa | 3.0V | 00:00:00 | 00:00:00 | 00:00:00 | |
| PETON7-10 | 2026-09-02 11:31:45 | 49.43021 | 17.22504 | 84° | 47km/h | 5654m | 7.4m/s | -15.5°C | 48.7% | 0hPa | 3.0V | 00:00:00 | 00:45:54 | 00:00:00 | |
| OM5KV | 2026-09-02 11:31:40 | 49.43015 | 17.22428 | 92° | 53km/h | 5625m | 5.1m/s | -15.4°C | 55.5% | 0hPa | 3.0V | 00:00:00 | 00:00:00 | 00:00:00 | |
| OM5KV | 2026-09-02 11:31:35 | 49.43032 | 17.22344 | 116° | 40km/h | 5593m | 6.1m/s | -15.1°C | 55.9% | 0hPa | 3.0V | 00:00:00 | 00:00:00 | 00:00:00 | |
| PETON7-10 | 2026-09-02 11:31:30 | 49.43055 | 17.22237 | 117° | 44km/h | 5545m | 8.6m/s | -14.8°C | 56.8% | 0hPa | 3.0V | 00:00:00 | 00:00:00 | 08:30:00 | |
| OM5KV | 2026-09-02 11:31:29 | 49.43055 | 17.22237 | 117° | 49km/h | 5545m | 8.7m/s | -14.8°C | 54.8% | 0hPa | 3.0V | 00:00:00 | 00:00:00 | 00:00:00 | |
| OM5KV | 2026-09-02 11:31:22 | 49.43102 | 17.22118 | 127° | 44km/h | 5508m | 5.3m/s | -14.7°C | 57.5% | 0hPa | 3.0V | 00:00:00 | 00:00:00 | 00:00:00 | |
| OM5KV | 2026-09-02 11:31:18 | 49.43122 | 17.22066 | 120° | 37km/h | 5487m | 6.8m/s | -14.7°C | 56.9% | 0hPa | 3.0V | 00:00:00 | 00:00:00 | 00:00:00 | |
| OE3OSB-13 | 2026-09-02 11:31:17 | 49.43135 | 17.22028 | 113° | 38km/h | 5469m | 4.1m/s | -14.9°C | 62.3% | -1.0hPa | 3.0V | 00:00:00 | 00:00:00 | 00:00:00 | |
| PETON7-10 | 2026-09-02 11:31:15 | 49.43139 | 17.22013 | 106° | 49km/h | 5464m | 5.0m/s | -14.8°C | 65.0% | 0hPa | 3.0V | 00:00:00 | 00:00:00 | 00:00:00 | |
| OM5KV | 2026-09-02 11:31:12 | 49.43144 | 17.21975 | 101° | 55km/h | 5455m | 5.6m/s | -14.9°C | 64.3% | 0hPa | 3.0V | 00:00:00 | 00:00:00 | 00:00:00 | |
| OE3OSB-13 | 2026-09-02 11:30:46 | 49.43275 | 17.21493 | 112° | 58km/h | 5280m | 7.3m/s | -13.7°C | 71.4% | -1.0hPa | 3.0V | 00:00:00 | 00:00:00 | 00:00:00 | |
| PETON7-10 | 2026-09-02 11:30:45 | 49.43275 | 17.21493 | 113° | 47km/h | 5280m | 7.3m/s | -13.7°C | 73.9% | 0hPa | 3.0V | 00:00:00 | 00:00:00 | 00:00:00 | |
| OM5KV | 2026-09-02 11:30:43 | 49.43280 | 17.21471 | 108° | 58km/h | 5273m | 7.4m/s | -13.7°C | 71.1% | 0hPa | 3.0V | 00:00:00 | 00:00:00 | 00:00:00 | |
| OM5KV | 2026-09-02 11:30:37 | 49.43306 | 17.21371 | 134° | 47km/h | 5233m | 6.5m/s | -13.5°C | 73.5% | 0hPa | 3.0V | 00:00:00 | 00:00:00 | 00:00:00 | |
| OM5KV | 2026-09-02 11:30:36 | 49.43314 | 17.21358 | 136° | 47km/h | 5226m | 7.1m/s | -13.4°C | 73.4% | 0hPa | 3.0V | 00:00:00 | 00:00:00 | 00:00:00 | |
| PETON7-10 | 2026-09-02 11:30:30 | 49.43351 | 17.21250 | 105° | 57km/h | 5185m | 5.8m/s | -13.0°C | 75.4% | 0hPa | 3.0V | 00:00:00 | 00:00:00 | 00:00:00 | |
| OM5KV | 2026-09-02 11:30:26 | 49.43369 | 17.21178 | 118° | 69km/h | 5164m | 8.8m/s | -12.9°C | 71.5% | 0hPa | 3.0V | 00:00:00 | 00:00:00 | 00:00:00 | |
| PETON7-10 | 2026-09-02 11:30:15 | 49.43443 | 17.20950 | 123° | 60km/h | 5087m | 6.8m/s | -12.1°C | 70.1% | 0hPa | 3.0V | 00:00:00 | 00:44:24 | 00:00:00 | |
| OM5KV | 2026-09-02 11:30:14 | 49.43443 | 17.20950 | 123° | 69km/h | 5087m | 6.9m/s | -12.2°C | 0% | 0hPa | 3.0V | 00:00:00 | 00:00:00 | 00:00:00 | |
| OM5KV | 2026-09-02 11:30:09 | 49.43495 | 17.20841 | 132° | 53km/h | 5054m | 6.8m/s | 0°C | 0% | 0hPa | 3.0V | 00:00:00 | 00:00:00 | 00:00:00 | |
| OM5KV | 2026-09-02 11:30:03 | 49.43536 | 17.20739 | 108° | 64km/h | 5021m | 6.1m/s | 0°C | 0% | 0hPa | 3.0V | 00:00:00 | 00:00:00 | 00:00:00 | |
| PETON7-10 | 2026-09-02 11:30:00 | 49.43549 | 17.20648 | 102° | 57km/h | 4997m | 5.7m/s | -11.3°C | 63.7% | 0hPa | 3.0V | 00:00:00 | 00:00:00 | 00:00:00 | |
| OE3JTB-15 | 2026-09-02 11:29:57 | 49.43566 | 17.20580 | 121° | 55km/h | 4981m | 5.4m/s | -11.2°C | 64.5% | 0hPa | 3.0V | 00:00:00 | 00:44:06 | 00:00:00 | |
| OM5KV | 2026-09-02 11:29:47 | 49.43618 | 17.20423 | 113° | 66km/h | 4923m | 6.2m/s | 0°C | 0% | 0hPa | 3.0V | 00:00:00 | 00:00:00 | 00:00:00 | |
| PETON7-10 | 2026-09-02 11:29:45 | 49.43640 | 17.20354 | 118° | 53km/h | 4905m | 8.0m/s | -10.7°C | 68.1% | 0hPa | 3.0V | 00:00:00 | 00:00:00 | 00:00:00 | |
| OM5KV | 2026-09-02 11:29:44 | 49.43640 | 17.20354 | 119° | 68km/h | 4905m | 8.0m/s | 0°C | 0% | 0hPa | 3.0V | 00:00:00 | 00:00:00 | 00:00:00 | |
| OE3OSB-13 | 2026-09-02 11:29:43 | 49.43654 | 17.20311 | 111° | 53km/h | 4889m | 7.6m/s | -10.7°C | 63.9% | -1.0hPa | 3.0V | 00:00:00 | 00:00:00 | 00:00:00 | |
| OM5KV | 2026-09-02 11:29:41 | 49.43658 | 17.20291 | 112° | 51km/h | 4883m | 5.8m/s | 0°C | 0% | 0hPa | 3.0V | 00:00:00 | 00:00:00 | 00:00:00 | |
| OM5KV | 2026-09-02 11:29:36 | 49.43695 | 17.20198 | 136° | 60km/h | 4843m | 7.8m/s | 0°C | 0% | 0hPa | 3.0V | 00:00:00 | 00:00:00 | 00:00:00 | |
| PETON7-10 | 2026-09-02 11:29:30 | 49.43740 | 17.20095 | 123° | 49km/h | 4796m | 6.5m/s | -10.0°C | 59.8% | 0hPa | 3.0V | 00:00:00 | 00:43:39 | 00:00:00 | |
| OE3JTB-15 | 2026-09-02 11:29:27 | 49.43762 | 17.20050 | 127° | 55km/h | 4780m | 7.2m/s | -9.8°C | 59.7% | 0hPa | 3.0V | 00:00:00 | 00:00:00 | 08:30:00 | |
| PETON7-10 | 2026-09-02 11:29:15 | 49.43835 | 17.19850 | 129° | 57km/h | 4707m | 5.5m/s | -9.2°C | 55.2% | 0hPa | 3.0V | 00:00:00 | 00:00:00 | 08:30:00 | |
| OE3OSB-13 | 2026-09-02 11:29:13 | 49.43858 | 17.19787 | 109° | 62km/h | 4688m | 6.3m/s | -9.1°C | 52.8% | -1.0hPa | 3.0V | 00:00:00 | 00:00:00 | 00:00:00 | |
| PETON7-10 | 2026-09-02 11:29:00 | 49.43927 | 17.19552 | 116° | 46km/h | 4616m | 6.7m/s | -8.3°C | 52.3% | 0hPa | 3.0V | 00:00:00 | 00:00:00 | 00:00:00 | |
| OE3JTB-15 | 2026-09-02 11:28:58 | 49.43938 | 17.19514 | 116° | 53km/h | 4604m | 5.5m/s | -8.2°C | 52.2% | 0hPa | 3.0V | 00:00:00 | 00:00:00 | 00:00:00 | |
| PETON7-10 | 2026-09-02 11:28:45 | 49.44016 | 17.19329 | 123° | 60km/h | 4524m | 6.6m/s | -7.4°C | 49.4% | 0hPa | 3.0V | 00:00:00 | 00:42:54 | 00:00:00 | |
| OE3OSB-13 | 2026-09-02 11:28:41 | 49.44051 | 17.19242 | 119° | 66km/h | 4499m | 4.8m/s | -7.3°C | 48.5% | -1.0hPa | 3.0V | 00:00:00 | 00:00:00 | 00:00:00 | |
| PETON7-10 | 2026-09-02 11:28:30 | 49.44136 | 17.19034 | 131° | 53km/h | 4429m | 5.0m/s | -6.6°C | 55.8% | 0hPa | 3.0V | 00:00:00 | 00:00:00 | 00:00:00 | |
| OE3JTB-15 | 2026-09-02 11:28:29 | 49.44144 | 17.19020 | 130° | 53km/h | 4423m | 6.5m/s | -6.6°C | 56.4% | 0hPa | 3.0V | 00:00:00 | 00:42:38 | 00:00:00 | |
| PETON7-10 | 2026-09-02 11:28:15 | 49.44222 | 17.18757 | 105° | 46km/h | 4347m | 6.3m/s | -5.9°C | 53.1% | 0hPa | 3.0V | 00:00:00 | 00:00:00 | 00:00:00 | |
| OE3OSB-13 | 2026-09-02 11:28:10 | 49.44238 | 17.18687 | 113° | 33km/h | 4325m | 4.6m/s | -5.8°C | 53.8% | -1.0hPa | 3.0V | 00:00:00 | 00:00:00 | 00:00:00 | |
| PETON7-10 | 2026-09-02 11:28:00 | 49.44299 | 17.18523 | 105° | 53km/h | 4276m | 4.3m/s | -5.4°C | 56.0% | 0hPa | 3.0V | 00:00:00 | 00:42:09 | 00:00:00 | |
| PETON7-10 | 2026-09-02 11:27:45 | 49.44402 | 17.18269 | 105° | 53km/h | 4193m | 6.5m/s | -4.8°C | 57.5% | 0hPa | 3.0V | 00:00:00 | 00:00:00 | 00:00:00 | |
| OE3OSB-13 | 2026-09-02 11:27:39 | 49.44443 | 17.18155 | 129° | 44km/h | 4159m | 3.6m/s | -4.5°C | 53.8% | -1.0hPa | 3.0V | 00:00:00 | 00:00:00 | 00:00:00 | |
| OE3JTB-15 | 2026-09-02 11:27:31 | 49.44506 | 17.18032 | 129° | 46km/h | 4104m | 5.3m/s | -3.9°C | 19.0% | 0hPa | 3.0V | 00:00:00 | 00:00:00 | 00:00:00 | |
| PETON7-10 | 2026-09-02 11:27:30 | 49.44512 | 17.18019 | 121° | 44km/h | 4099m | 6.7m/s | -3.9°C | 15.8% | 0hPa | 3.0V | 00:00:00 | 00:00:00 | 00:00:00 | |
| PETON7-10 | 2026-09-02 11:27:15 | 49.44605 | 17.17810 | 116° | 49km/h | 4025m | 4.8m/s | -3.6°C | 26.5% | 0hPa | 3.0V | 00:00:00 | 00:41:24 | 00:00:00 | |
| OE3JTB-15 | 2026-09-02 11:27:02 | 49.44684 | 17.17595 | 112° | 47km/h | 3944m | 4.9m/s | -3.3°C | 27.8% | 0hPa | 3.0V | 00:00:00 | 00:41:11 | 00:00:00 | |
| PETON7-10 | 2026-09-02 11:27:00 | 49.44698 | 17.17556 | 126° | 44km/h | 3933m | 5.8m/s | -3.3°C | 29.9% | 0hPa | 3.0V | 00:00:00 | 00:00:00 | 08:30:00 | |
| PETON7-10 | 2026-09-02 11:26:45 | 49.44786 | 17.17344 | 114° | 53km/h | 3850m | 8.3m/s | -2.7°C | 32.6% | 0hPa | 3.0V | 00:00:00 | 00:00:00 | 00:00:00 | |
| OE3JTB-15 | 2026-09-02 11:26:33 | 49.44875 | 17.17144 | 125° | 53km/h | 3781m | 7.9m/s | -2.4°C | 42.8% | 0hPa | 3.0V | 00:00:00 | 00:00:00 | 00:00:00 | |
| PETON7-10 | 2026-09-02 11:26:30 | 49.44906 | 17.17095 | 142° | 55km/h | 3762m | 5.2m/s | -2.2°C | 41.8% | 0hPa | 3.0V | 00:00:00 | 00:40:39 | 00:00:00 | |
| PETON7-10 | 2026-09-02 11:26:15 | 49.45031 | 17.16850 | 133° | 51km/h | 3677m | 6.4m/s | -1.5°C | 23.0% | 0hPa | 3.0V | 00:00:00 | 00:00:00 | 00:00:00 | |
| OE3JTB-15 | 2026-09-02 11:26:04 | 49.45120 | 17.16679 | 140° | 53km/h | 3605m | 8.0m/s | -1.3°C | 49.8% | 0hPa | 3.0V | 00:00:00 | 00:00:00 | 00:00:00 | |
| PETON7-10 | 2026-09-02 11:26:00 | 49.45157 | 17.16625 | 130° | 57km/h | 3578m | 4.7m/s | -1.0°C | 49.0% | 0hPa | 3.0V | 00:00:00 | 00:00:00 | 00:00:00 | |
| PETON7-10 | 2026-09-02 11:25:45 | 49.45284 | 17.16358 | 117° | 47km/h | 3483m | 5.9m/s | -1.3°C | 45.5% | 0hPa | 3.0V | 00:00:00 | 00:39:54 | 00:00:00 | |
| OE3JTB-15 | 2026-09-02 11:25:35 | 49.45340 | 17.16194 | 144° | 40km/h | 3425m | 5.8m/s | -1.3°C | 54.8% | 0hPa | 3.0V | 00:00:00 | 00:39:44 | 00:00:00 | |
| PETON7-10 | 2026-09-02 11:25:29 | 49.45392 | 17.16124 | 131° | 38km/h | 3394m | 5.3m/s | -2.6°C | 84.5% | 0hPa | 3.0V | 00:00:00 | 00:00:00 | 00:00:00 | |
| PETON7-10 | 2026-09-02 11:25:14 | 49.45479 | 17.15945 | 105° | 37km/h | 3306m | 5.9m/s | -2.2°C | 91.3% | 0hPa | 3.0V | 00:00:00 | 00:00:00 | 00:00:00 | |
| OE3JTB-15 | 2026-09-02 11:25:06 | 49.45489 | 17.15827 | 104° | 35km/h | 3247m | 7.6m/s | -1.8°C | 93.3% | 0hPa | 3.0V | 00:00:00 | 00:00:00 | 08:30:00 | |
| PETON7-10 | 2026-09-02 11:24:59 | 49.45490 | 17.15737 | 98° | 40km/h | 3194m | 7.7m/s | -1.5°C | 91.9% | 0hPa | 3.0V | 00:00:00 | 00:39:08 | 00:00:00 | |
| PETON7-10 | 2026-09-02 11:24:44 | 49.45552 | 17.15532 | 117° | 26km/h | 3083m | 7.2m/s | -0.5°C | 89.6% | 0hPa | 3.0V | 00:00:00 | 00:00:00 | 08:30:00 | |
| OE3JTB-15 | 2026-09-02 11:24:37 | 49.45569 | 17.15473 | 110° | 26km/h | 3035m | 6.6m/s | -0.6°C | 96.2% | 0hPa | 3.0V | 00:00:00 | 00:00:00 | 00:00:00 | |
| PETON7-10 | 2026-09-02 11:24:29 | 49.45590 | 17.15398 | 148° | 24km/h | 2971m | 7.9m/s | -0.1°C | 94.5% | 0hPa | 3.0V | 00:00:00 | 00:00:00 | 00:00:00 | |
| PETON7-10 | 2026-09-02 11:24:14 | 49.45628 | 17.15272 | 117° | 24km/h | 2868m | 6.9m/s | 0.5°C | 94.6% | 0hPa | 3.0V | 00:00:00 | 00:38:23 | 00:00:00 | |
| OE3JTB-15 | 2026-09-02 11:24:08 | 49.45638 | 17.15217 | 130° | 26km/h | 2832m | 5.1m/s | 0.7°C | 95.4% | 0hPa | 3.0V | 00:00:00 | 00:38:17 | 00:00:00 | |
| PETON7-10 | 2026-09-02 11:23:59 | 49.45649 | 17.15137 | 95° | 24km/h | 2771m | 5.7m/s | 1.3°C | 91.6% | 0hPa | 3.0V | 00:00:00 | 00:00:00 | 00:00:00 | |
| PETON7-10 | 2026-09-02 11:23:44 | 49.45663 | 17.15003 | 108° | 24km/h | 2681m | 6.1m/s | 2.1°C | 88.7% | 0hPa | 3.0V | 00:00:00 | 00:00:00 | 00:00:00 | |
| OE3JTB-15 | 2026-09-02 11:23:39 | 49.45678 | 17.14938 | 123° | 26km/h | 2654m | 4.9m/s | 2.4°C | 86.9% | 0hPa | 3.0V | 00:00:00 | 00:00:00 | 00:00:00 | |
| PETON7-10 | 2026-09-02 11:23:29 | 49.45686 | 17.14865 | 103° | 29km/h | 2589m | 8.3m/s | 2.5°C | 0% | 0hPa | 0V | 00:00:00 | 00:37:38 | 00:00:00 | |
| PETON7-10 | 2026-09-02 11:23:14 | 49.45666 | 17.14704 | 104° | 18km/h | 2496m | 4.6m/s | 0°C | 0% | 0hPa | 0V | 00:00:00 | 00:00:00 | 00:00:00 | |
| OE3JTB-15 | 2026-09-02 11:23:10 | 49.45675 | 17.14676 | 124° | 20km/h | 2473m | 6.5m/s | 3.5°C | 85.4% | 0hPa | 0V | 00:00:00 | 00:00:00 | 00:00:00 | |
| PETON7-10 | 2026-09-02 11:22:59 | 49.45663 | 17.14606 | 77° | 22km/h | 2404m | 7.4m/s | 0°C | 0% | 0hPa | 0V | 00:00:00 | 00:00:00 | 00:00:00 | |
| PETON7-10 | 2026-09-02 11:22:44 | 49.45645 | 17.14481 | 83° | 29km/h | 2321m | 6.1m/s | 0°C | 0% | 0hPa | 0V | 00:00:00 | 00:36:53 | 00:00:00 | |
| OE3JTB-15 | 2026-09-02 11:22:41 | 49.45643 | 17.14454 | 89° | 26km/h | 2302m | 7.7m/s | 4.8°C | 80.9% | 0hPa | 0V | 00:00:00 | 00:36:50 | 00:00:00 | |
| PETON7-10 | 2026-09-02 11:22:29 | 49.45642 | 17.14324 | 99° | 27km/h | 2235m | 5.6m/s | 0°C | 0% | 0hPa | 0V | 00:00:00 | 00:00:00 | 00:00:00 | |
| OE3JTB-15 | 2026-09-02 11:22:12 | 49.45628 | 17.14176 | 117° | 22km/h | 2136m | 4.3m/s | 0°C | 0% | 0hPa | 0V | 00:00:00 | 00:00:00 | 00:00:00 | |
| OE3JTB-15 | 2026-09-02 11:21:43 | 49.45578 | 17.13948 | 67° | 22km/h | 1964m | 5.2m/s | 0°C | 0% | 0hPa | 0V | 00:00:00 | 00:00:00 | 00:00:00 | |
| OE3JTB-15 | 2026-09-02 11:21:14 | 49.45553 | 17.13712 | 85° | 20km/h | 1800m | 6.3m/s | 0°C | 0% | 0hPa | 0V | 00:00:00 | 00:35:23 | 00:00:00 | |
| OE3JTB-15 | 2026-09-02 11:20:45 | 49.45542 | 17.13497 | 66° | 20km/h | 1633m | 5.3m/s | 0°C | 0% | 0hPa | 0V | 00:00:00 | 00:00:00 | 08:30:00 |